<?xml version='1.0' encoding='UTF-8'?><gpx version="1.1" creator="JPX - https://github.com/jenetics/jpx" xmlns="http://www.topografix.com/GPX/1/1"><trk><trkseg><trkpt lat="44.2383277" lon="8.4383138"><ele>20.0</ele><time>2026-04-26T12:24:41.469Z</time></trkpt><trkpt lat="44.2382158" lon="8.4383113"><ele>20.0</ele><time>2026-04-26T12:26:52.475Z</time></trkpt><trkpt lat="44.2381898" lon="8.4382032"><ele>20.0</ele><time>2026-04-26T12:27:16.475Z</time></trkpt><trkpt lat="44.2381543" lon="8.4381077"><ele>20.0</ele><time>2026-04-26T12:27:23.476Z</time></trkpt><trkpt lat="44.2380883" lon="8.43795"><ele>20.0</ele><time>2026-04-26T12:27:25.477Z</time></trkpt><trkpt lat="44.2380482" lon="8.4378442"><ele>16.8</ele><time>2026-04-26T12:27:26.476Z</time></trkpt><trkpt lat="44.2380002" lon="8.4377338"><ele>13.6</ele><time>2026-04-26T12:27:27.476Z</time></trkpt><trkpt lat="44.237952" lon="8.4376203"><ele>10.4</ele><time>2026-04-26T12:27:28.476Z</time></trkpt><trkpt lat="44.2379062" lon="8.437506"><ele>7.2</ele><time>2026-04-26T12:27:29.476Z</time></trkpt><trkpt lat="44.2378598" lon="8.4373947"><ele>4.0</ele><time>2026-04-26T12:27:30.477Z</time></trkpt><trkpt lat="44.2378118" lon="8.4372848"><ele>4.0</ele><time>2026-04-26T12:27:31.477Z</time></trkpt><trkpt lat="44.237766" lon="8.4371733"><ele>4.0</ele><time>2026-04-26T12:27:32.474Z</time></trkpt><trkpt lat="44.23772" lon="8.4370547"><ele>4.0</ele><time>2026-04-26T12:27:33.474Z</time></trkpt><trkpt lat="44.2376712" lon="8.4369332"><ele>4.0</ele><time>2026-04-26T12:27:34.475Z</time></trkpt><trkpt lat="44.2376172" lon="8.4368057"><ele>4.0</ele><time>2026-04-26T12:27:35.474Z</time></trkpt><trkpt lat="44.2375632" lon="8.4366677"><ele>4.5</ele><time>2026-04-26T12:27:36.476Z</time></trkpt><trkpt lat="44.2375088" lon="8.4365227"><ele>5.0</ele><time>2026-04-26T12:27:37.477Z</time></trkpt><trkpt lat="44.2374545" lon="8.4363793"><ele>5.5</ele><time>2026-04-26T12:27:38.477Z</time></trkpt><trkpt lat="44.2373997" lon="8.4362382"><ele>6.0</ele><time>2026-04-26T12:27:39.477Z</time></trkpt><trkpt lat="44.2373447" lon="8.4360968"><ele>4.75</ele><time>2026-04-26T12:27:40.476Z</time></trkpt><trkpt lat="44.2372888" lon="8.4359558"><ele>3.5</ele><time>2026-04-26T12:27:41.479Z</time></trkpt><trkpt lat="44.2372315" lon="8.4358152"><ele>2.25</ele><time>2026-04-26T12:27:42.478Z</time></trkpt><trkpt lat="44.2371738" lon="8.4356738"><ele>1.0</ele><time>2026-04-26T12:27:43.478Z</time></trkpt><trkpt lat="44.2371162" lon="8.4355315"><ele>1.75</ele><time>2026-04-26T12:27:44.477Z</time></trkpt><trkpt lat="44.2370598" lon="8.4353883"><ele>2.5</ele><time>2026-04-26T12:27:45.477Z</time></trkpt><trkpt lat="44.2370027" lon="8.4352463"><ele>3.25</ele><time>2026-04-26T12:27:46.477Z</time></trkpt><trkpt lat="44.2369457" lon="8.4351055"><ele>4.0</ele><time>2026-04-26T12:27:47.478Z</time></trkpt><trkpt lat="44.2368905" lon="8.4349645"><ele>4.0</ele><time>2026-04-26T12:27:48.476Z</time></trkpt><trkpt lat="44.2368353" lon="8.4348252"><ele>4.0</ele><time>2026-04-26T12:27:49.477Z</time></trkpt><trkpt lat="44.2367788" lon="8.4346887"><ele>4.0</ele><time>2026-04-26T12:27:50.479Z</time></trkpt><trkpt lat="44.236722" lon="8.4345523"><ele>4.0</ele><time>2026-04-26T12:27:51.475Z</time></trkpt><trkpt lat="44.2366672" lon="8.4344173"><ele>4.0</ele><time>2026-04-26T12:27:52.476Z</time></trkpt><trkpt lat="44.2366155" lon="8.4342855"><ele>4.0</ele><time>2026-04-26T12:27:53.478Z</time></trkpt><trkpt lat="44.2365645" lon="8.4341538"><ele>4.0</ele><time>2026-04-26T12:27:54.476Z</time></trkpt><trkpt lat="44.236514" lon="8.4340242"><ele>4.0</ele><time>2026-04-26T12:27:55.476Z</time></trkpt><trkpt lat="44.2364638" lon="8.4338942"><ele>4.0</ele><time>2026-04-26T12:27:56.478Z</time></trkpt><trkpt lat="44.2364135" lon="8.4337642"><ele>4.0</ele><time>2026-04-26T12:27:57.476Z</time></trkpt><trkpt lat="44.2363617" lon="8.4336343"><ele>4.0</ele><time>2026-04-26T12:27:58.475Z</time></trkpt><trkpt lat="44.2363062" lon="8.4335072"><ele>4.0</ele><time>2026-04-26T12:27:59.475Z</time></trkpt><trkpt lat="44.2362518" lon="8.4333797"><ele>4.0</ele><time>2026-04-26T12:28:00.477Z</time></trkpt><trkpt lat="44.2361983" lon="8.4332513"><ele>4.0</ele><time>2026-04-26T12:28:01.478Z</time></trkpt><trkpt lat="44.2361437" lon="8.4331248"><ele>4.0</ele><time>2026-04-26T12:28:02.477Z</time></trkpt><trkpt lat="44.236089" lon="8.4330007"><ele>4.0</ele><time>2026-04-26T12:28:03.476Z</time></trkpt><trkpt lat="44.236034" lon="8.4328763"><ele>4.0</ele><time>2026-04-26T12:28:04.476Z</time></trkpt><trkpt lat="44.2359808" lon="8.4327565"><ele>4.0</ele><time>2026-04-26T12:28:05.477Z</time></trkpt><trkpt lat="44.2359327" lon="8.4326443"><ele>4.0</ele><time>2026-04-26T12:28:06.478Z</time></trkpt><trkpt lat="44.2358848" lon="8.4325337"><ele>4.0</ele><time>2026-04-26T12:28:07.478Z</time></trkpt><trkpt lat="44.2358328" lon="8.4324223"><ele>4.0</ele><time>2026-04-26T12:28:08.477Z</time></trkpt><trkpt lat="44.2357783" lon="8.4323082"><ele>4.0</ele><time>2026-04-26T12:28:09.477Z</time></trkpt><trkpt lat="44.2357282" lon="8.4321925"><ele>4.0</ele><time>2026-04-26T12:28:10.476Z</time></trkpt><trkpt lat="44.2356728" lon="8.432084"><ele>4.0</ele><time>2026-04-26T12:28:11.477Z</time></trkpt><trkpt lat="44.2356237" lon="8.4319742"><ele>4.0</ele><time>2026-04-26T12:28:12.478Z</time></trkpt><trkpt lat="44.235577" lon="8.4318663"><ele>4.0</ele><time>2026-04-26T12:28:13.477Z</time></trkpt><trkpt lat="44.2355275" lon="8.4317648"><ele>4.0</ele><time>2026-04-26T12:28:14.477Z</time></trkpt><trkpt lat="44.2354785" lon="8.4316627"><ele>4.0</ele><time>2026-04-26T12:28:15.48Z</time></trkpt><trkpt lat="44.2354295" lon="8.4315557"><ele>4.0</ele><time>2026-04-26T12:28:16.477Z</time></trkpt><trkpt lat="44.2353757" lon="8.4314433"><ele>4.0</ele><time>2026-04-26T12:28:17.478Z</time></trkpt><trkpt lat="44.2353185" lon="8.4313233"><ele>4.0</ele><time>2026-04-26T12:28:18.477Z</time></trkpt><trkpt lat="44.2352587" lon="8.4312002"><ele>4.0</ele><time>2026-04-26T12:28:19.477Z</time></trkpt><trkpt lat="44.2351998" lon="8.4310765"><ele>4.0</ele><time>2026-04-26T12:28:20.477Z</time></trkpt><trkpt lat="44.235138" lon="8.4309518"><ele>4.0</ele><time>2026-04-26T12:28:21.477Z</time></trkpt><trkpt lat="44.2350792" lon="8.4308303"><ele>4.0</ele><time>2026-04-26T12:28:22.476Z</time></trkpt><trkpt lat="44.2350182" lon="8.4307123"><ele>4.0</ele><time>2026-04-26T12:28:23.477Z</time></trkpt><trkpt lat="44.2349578" lon="8.4305977"><ele>4.0</ele><time>2026-04-26T12:28:24.477Z</time></trkpt><trkpt lat="44.2348985" lon="8.430483"><ele>4.0</ele><time>2026-04-26T12:28:25.478Z</time></trkpt><trkpt lat="44.2348405" lon="8.4303682"><ele>4.0</ele><time>2026-04-26T12:28:26.477Z</time></trkpt><trkpt lat="44.2347813" lon="8.4302555"><ele>3.6</ele><time>2026-04-26T12:28:27.477Z</time></trkpt><trkpt lat="44.2347198" lon="8.430148"><ele>3.2</ele><time>2026-04-26T12:28:28.477Z</time></trkpt><trkpt lat="44.2346597" lon="8.430042"><ele>2.8000000000000003</ele><time>2026-04-26T12:28:29.476Z</time></trkpt><trkpt lat="44.2346013" lon="8.4299348"><ele>2.4000000000000004</ele><time>2026-04-26T12:28:30.476Z</time></trkpt><trkpt lat="44.2345418" lon="8.4298235"><ele>2.0</ele><time>2026-04-26T12:28:31.478Z</time></trkpt><trkpt lat="44.2344813" lon="8.4297072"><ele>2.4000000000000004</ele><time>2026-04-26T12:28:32.478Z</time></trkpt><trkpt lat="44.2344177" lon="8.4295862"><ele>2.8000000000000003</ele><time>2026-04-26T12:28:33.478Z</time></trkpt><trkpt lat="44.2343492" lon="8.4294627"><ele>3.2</ele><time>2026-04-26T12:28:34.478Z</time></trkpt><trkpt lat="44.2342883" lon="8.4293535"><ele>3.6</ele><time>2026-04-26T12:28:35.478Z</time></trkpt><trkpt lat="44.2342342" lon="8.4292565"><ele>4.0</ele><time>2026-04-26T12:28:36.477Z</time></trkpt><trkpt lat="44.2341815" lon="8.4291558"><ele>4.0</ele><time>2026-04-26T12:28:37.477Z</time></trkpt><trkpt lat="44.234122" lon="8.4290483"><ele>4.0</ele><time>2026-04-26T12:28:38.477Z</time></trkpt><trkpt lat="44.2340552" lon="8.4289318"><ele>4.0</ele><time>2026-04-26T12:28:39.479Z</time></trkpt><trkpt lat="44.2339827" lon="8.4288093"><ele>4.0</ele><time>2026-04-26T12:28:40.479Z</time></trkpt><trkpt lat="44.2339095" lon="8.4286845"><ele>4.0</ele><time>2026-04-26T12:28:41.478Z</time></trkpt><trkpt lat="44.2338378" lon="8.428562"><ele>4.2</ele><time>2026-04-26T12:28:42.477Z</time></trkpt><trkpt lat="44.2337663" lon="8.4284422"><ele>4.4</ele><time>2026-04-26T12:28:43.476Z</time></trkpt><trkpt lat="44.2336905" lon="8.428332"><ele>4.6</ele><time>2026-04-26T12:28:44.476Z</time></trkpt><trkpt lat="44.2336087" lon="8.4282385"><ele>4.8</ele><time>2026-04-26T12:28:45.475Z</time></trkpt><trkpt lat="44.2335205" lon="8.4281615"><ele>5.0</ele><time>2026-04-26T12:28:46.473Z</time></trkpt><trkpt lat="44.233428" lon="8.4280988"><ele>5.0</ele><time>2026-04-26T12:28:47.474Z</time></trkpt><trkpt lat="44.233332" lon="8.4280477"><ele>5.0</ele><time>2026-04-26T12:28:48.474Z</time></trkpt><trkpt lat="44.2332323" lon="8.4280003"><ele>5.0</ele><time>2026-04-26T12:28:49.475Z</time></trkpt><trkpt lat="44.2331318" lon="8.4279522"><ele>5.0</ele><time>2026-04-26T12:28:50.476Z</time></trkpt><trkpt lat="44.2330312" lon="8.4279042"><ele>5.0</ele><time>2026-04-26T12:28:51.477Z</time></trkpt><trkpt lat="44.2329307" lon="8.427855"><ele>5.8</ele><time>2026-04-26T12:28:52.478Z</time></trkpt><trkpt lat="44.2328367" lon="8.4278015"><ele>6.6</ele><time>2026-04-26T12:28:53.477Z</time></trkpt><trkpt lat="44.2327532" lon="8.4277365"><ele>7.4</ele><time>2026-04-26T12:28:54.478Z</time></trkpt><trkpt lat="44.2326767" lon="8.4276552"><ele>8.2</ele><time>2026-04-26T12:28:55.478Z</time></trkpt><trkpt lat="44.2326067" lon="8.4275552"><ele>9.0</ele><time>2026-04-26T12:28:56.476Z</time></trkpt><trkpt lat="44.232544" lon="8.4274383"><ele>9.0</ele><time>2026-04-26T12:28:57.477Z</time></trkpt><trkpt lat="44.2324908" lon="8.4273068"><ele>9.0</ele><time>2026-04-26T12:28:58.476Z</time></trkpt><trkpt lat="44.232447" lon="8.4271722"><ele>9.0</ele><time>2026-04-26T12:28:59.477Z</time></trkpt><trkpt lat="44.2324017" lon="8.4270352"><ele>9.0</ele><time>2026-04-26T12:29:00.477Z</time></trkpt><trkpt lat="44.2323563" lon="8.4268922"><ele>9.0</ele><time>2026-04-26T12:29:01.476Z</time></trkpt><trkpt lat="44.232309" lon="8.426745"><ele>9.25</ele><time>2026-04-26T12:29:02.477Z</time></trkpt><trkpt lat="44.232254" lon="8.4265957"><ele>9.5</ele><time>2026-04-26T12:29:03.477Z</time></trkpt><trkpt lat="44.2321945" lon="8.4264478"><ele>9.75</ele><time>2026-04-26T12:29:04.474Z</time></trkpt><trkpt lat="44.2321305" lon="8.4263067"><ele>10.0</ele><time>2026-04-26T12:29:05.476Z</time></trkpt><trkpt lat="44.232061" lon="8.4261725"><ele>10.0</ele><time>2026-04-26T12:29:06.475Z</time></trkpt><trkpt lat="44.2319897" lon="8.4260428"><ele>10.0</ele><time>2026-04-26T12:29:07.475Z</time></trkpt><trkpt lat="44.2319235" lon="8.4259237"><ele>10.0</ele><time>2026-04-26T12:29:08.475Z</time></trkpt><trkpt lat="44.231858" lon="8.4258077"><ele>10.0</ele><time>2026-04-26T12:29:09.474Z</time></trkpt><trkpt lat="44.2317933" lon="8.4256892"><ele>10.0</ele><time>2026-04-26T12:29:10.473Z</time></trkpt><trkpt lat="44.2317297" lon="8.4255702"><ele>10.4</ele><time>2026-04-26T12:29:11.474Z</time></trkpt><trkpt lat="44.2316645" lon="8.4254503"><ele>10.8</ele><time>2026-04-26T12:29:12.475Z</time></trkpt><trkpt lat="44.2315977" lon="8.4253287"><ele>11.2</ele><time>2026-04-26T12:29:13.475Z</time></trkpt><trkpt lat="44.2315302" lon="8.4252067"><ele>11.6</ele><time>2026-04-26T12:29:14.476Z</time></trkpt><trkpt lat="44.2314638" lon="8.4250868"><ele>12.0</ele><time>2026-04-26T12:29:15.477Z</time></trkpt><trkpt lat="44.2313988" lon="8.4249688"><ele>12.0</ele><time>2026-04-26T12:29:16.478Z</time></trkpt><trkpt lat="44.2313322" lon="8.4248535"><ele>12.0</ele><time>2026-04-26T12:29:17.476Z</time></trkpt><trkpt lat="44.2312638" lon="8.4247373"><ele>12.0</ele><time>2026-04-26T12:29:18.478Z</time></trkpt><trkpt lat="44.2311957" lon="8.4246212"><ele>12.0</ele><time>2026-04-26T12:29:19.476Z</time></trkpt><trkpt lat="44.2311267" lon="8.4245042"><ele>12.0</ele><time>2026-04-26T12:29:20.475Z</time></trkpt><trkpt lat="44.2310557" lon="8.424389"><ele>12.399999999999999</ele><time>2026-04-26T12:29:21.477Z</time></trkpt><trkpt lat="44.2309842" lon="8.4242753"><ele>12.799999999999999</ele><time>2026-04-26T12:29:22.477Z</time></trkpt><trkpt lat="44.2309137" lon="8.4241642"><ele>13.2</ele><time>2026-04-26T12:29:23.478Z</time></trkpt><trkpt lat="44.2308435" lon="8.4240547"><ele>13.6</ele><time>2026-04-26T12:29:24.477Z</time></trkpt><trkpt lat="44.2307735" lon="8.4239453"><ele>14.0</ele><time>2026-04-26T12:29:25.476Z</time></trkpt><trkpt lat="44.2307032" lon="8.4238322"><ele>12.2</ele><time>2026-04-26T12:29:26.476Z</time></trkpt><trkpt lat="44.2306307" lon="8.4237182"><ele>10.399999999999999</ele><time>2026-04-26T12:29:27.476Z</time></trkpt><trkpt lat="44.2305577" lon="8.4236025"><ele>8.6</ele><time>2026-04-26T12:29:28.477Z</time></trkpt><trkpt lat="44.2304835" lon="8.423495"><ele>6.8</ele><time>2026-04-26T12:29:29.476Z</time></trkpt><trkpt lat="44.2304118" lon="8.4233883"><ele>5.0</ele><time>2026-04-26T12:29:30.478Z</time></trkpt><trkpt lat="44.2303428" lon="8.4232803"><ele>5.0</ele><time>2026-04-26T12:29:31.475Z</time></trkpt><trkpt lat="44.2302777" lon="8.4231658"><ele>5.0</ele><time>2026-04-26T12:29:32.475Z</time></trkpt><trkpt lat="44.230215" lon="8.423047"><ele>5.0</ele><time>2026-04-26T12:29:33.475Z</time></trkpt><trkpt lat="44.2301527" lon="8.422925"><ele>5.0</ele><time>2026-04-26T12:29:34.476Z</time></trkpt><trkpt lat="44.2300942" lon="8.4228015"><ele>5.0</ele><time>2026-04-26T12:29:35.473Z</time></trkpt><trkpt lat="44.2300288" lon="8.4226833"><ele>6.2</ele><time>2026-04-26T12:29:36.475Z</time></trkpt><trkpt lat="44.229965" lon="8.42256"><ele>7.4</ele><time>2026-04-26T12:29:37.471Z</time></trkpt><trkpt lat="44.2298995" lon="8.4224423"><ele>8.600000000000001</ele><time>2026-04-26T12:29:38.474Z</time></trkpt><trkpt lat="44.2298362" lon="8.4223268"><ele>9.8</ele><time>2026-04-26T12:29:39.475Z</time></trkpt><trkpt lat="44.2297725" lon="8.4222118"><ele>11.0</ele><time>2026-04-26T12:29:40.477Z</time></trkpt><trkpt lat="44.229705" lon="8.4220995"><ele>11.0</ele><time>2026-04-26T12:29:41.474Z</time></trkpt><trkpt lat="44.229634" lon="8.4219892"><ele>11.0</ele><time>2026-04-26T12:29:42.473Z</time></trkpt><trkpt lat="44.2295588" lon="8.4218797"><ele>11.0</ele><time>2026-04-26T12:29:43.473Z</time></trkpt><trkpt lat="44.2294802" lon="8.4217715"><ele>11.0</ele><time>2026-04-26T12:29:44.474Z</time></trkpt><trkpt lat="44.2293998" lon="8.4216602"><ele>11.0</ele><time>2026-04-26T12:29:45.474Z</time></trkpt><trkpt lat="44.22932" lon="8.4215478"><ele>11.0</ele><time>2026-04-26T12:29:46.474Z</time></trkpt><trkpt lat="44.2292432" lon="8.421436"><ele>11.0</ele><time>2026-04-26T12:29:47.475Z</time></trkpt><trkpt lat="44.2291688" lon="8.4213265"><ele>11.0</ele><time>2026-04-26T12:29:48.474Z</time></trkpt><trkpt lat="44.2290993" lon="8.4212127"><ele>11.0</ele><time>2026-04-26T12:29:49.475Z</time></trkpt><trkpt lat="44.229036" lon="8.4210922"><ele>11.0</ele><time>2026-04-26T12:29:50.477Z</time></trkpt><trkpt lat="44.2289762" lon="8.420965"><ele>10.200000000000001</ele><time>2026-04-26T12:29:51.476Z</time></trkpt><trkpt lat="44.228921" lon="8.4208322"><ele>9.4</ele><time>2026-04-26T12:29:52.475Z</time></trkpt><trkpt lat="44.2288698" lon="8.4206952"><ele>8.6</ele><time>2026-04-26T12:29:53.478Z</time></trkpt><trkpt lat="44.228821" lon="8.4205575"><ele>7.8</ele><time>2026-04-26T12:29:54.478Z</time></trkpt><trkpt lat="44.2287755" lon="8.4204228"><ele>7.0</ele><time>2026-04-26T12:29:55.475Z</time></trkpt><trkpt lat="44.228733" lon="8.4202908"><ele>7.0</ele><time>2026-04-26T12:29:56.476Z</time></trkpt><trkpt lat="44.2286915" lon="8.4201607"><ele>6.999999999999999</ele><time>2026-04-26T12:29:57.479Z</time></trkpt><trkpt lat="44.2286502" lon="8.42003"><ele>6.999999999999999</ele><time>2026-04-26T12:29:58.474Z</time></trkpt><trkpt lat="44.2286077" lon="8.4198963"><ele>7.0</ele><time>2026-04-26T12:29:59.473Z</time></trkpt><trkpt lat="44.2285632" lon="8.4197667"><ele>7.0</ele><time>2026-04-26T12:30:00.474Z</time></trkpt><trkpt lat="44.2285202" lon="8.4196433"><ele>7.3999999999999995</ele><time>2026-04-26T12:30:01.474Z</time></trkpt><trkpt lat="44.2284835" lon="8.4195152"><ele>7.799999999999999</ele><time>2026-04-26T12:30:02.475Z</time></trkpt><trkpt lat="44.2284522" lon="8.4193837"><ele>8.2</ele><time>2026-04-26T12:30:03.476Z</time></trkpt><trkpt lat="44.2284253" lon="8.4192475"><ele>8.6</ele><time>2026-04-26T12:30:04.475Z</time></trkpt><trkpt lat="44.2283988" lon="8.4191108"><ele>9.0</ele><time>2026-04-26T12:30:05.477Z</time></trkpt><trkpt lat="44.2283698" lon="8.4189692"><ele>9.0</ele><time>2026-04-26T12:30:06.477Z</time></trkpt><trkpt lat="44.2283367" lon="8.4188243"><ele>9.0</ele><time>2026-04-26T12:30:07.478Z</time></trkpt><trkpt lat="44.2282978" lon="8.4186825"><ele>9.0</ele><time>2026-04-26T12:30:08.477Z</time></trkpt><trkpt lat="44.2282532" lon="8.4185473"><ele>9.0</ele><time>2026-04-26T12:30:09.482Z</time></trkpt><trkpt lat="44.2282025" lon="8.418425"><ele>9.0</ele><time>2026-04-26T12:30:10.478Z</time></trkpt><trkpt lat="44.2281472" lon="8.4183078"><ele>8.8</ele><time>2026-04-26T12:30:11.476Z</time></trkpt><trkpt lat="44.2280878" lon="8.4181938"><ele>8.600000000000001</ele><time>2026-04-26T12:30:12.478Z</time></trkpt><trkpt lat="44.2280277" lon="8.4180797"><ele>8.4</ele><time>2026-04-26T12:30:13.477Z</time></trkpt><trkpt lat="44.2279652" lon="8.4179613"><ele>8.200000000000001</ele><time>2026-04-26T12:30:14.477Z</time></trkpt><trkpt lat="44.2279005" lon="8.4178395"><ele>8.0</ele><time>2026-04-26T12:30:15.477Z</time></trkpt><trkpt lat="44.2278355" lon="8.4177158"><ele>7.6000000000000005</ele><time>2026-04-26T12:30:16.478Z</time></trkpt><trkpt lat="44.2277678" lon="8.4175955"><ele>7.200000000000001</ele><time>2026-04-26T12:30:17.476Z</time></trkpt><trkpt lat="44.2276953" lon="8.417482"><ele>6.8</ele><time>2026-04-26T12:30:18.477Z</time></trkpt><trkpt lat="44.227623" lon="8.4173768"><ele>6.4</ele><time>2026-04-26T12:30:19.476Z</time></trkpt><trkpt lat="44.2275537" lon="8.4172783"><ele>6.0</ele><time>2026-04-26T12:30:20.476Z</time></trkpt><trkpt lat="44.2274858" lon="8.4171833"><ele>6.0</ele><time>2026-04-26T12:30:21.478Z</time></trkpt><trkpt lat="44.227416" lon="8.4170923"><ele>6.0</ele><time>2026-04-26T12:30:22.477Z</time></trkpt><trkpt lat="44.2273433" lon="8.4170022"><ele>6.0</ele><time>2026-04-26T12:30:23.475Z</time></trkpt><trkpt lat="44.2272687" lon="8.4169125"><ele>6.0</ele><time>2026-04-26T12:30:24.476Z</time></trkpt><trkpt lat="44.2271932" lon="8.4168233"><ele>6.0</ele><time>2026-04-26T12:30:25.476Z</time></trkpt><trkpt lat="44.2271155" lon="8.4167365"><ele>6.0</ele><time>2026-04-26T12:30:26.475Z</time></trkpt><trkpt lat="44.227038" lon="8.41665"><ele>6.0</ele><time>2026-04-26T12:30:27.478Z</time></trkpt><trkpt lat="44.2269575" lon="8.4165635"><ele>6.0</ele><time>2026-04-26T12:30:28.477Z</time></trkpt><trkpt lat="44.2268722" lon="8.4164773"><ele>6.0</ele><time>2026-04-26T12:30:29.48Z</time></trkpt><trkpt lat="44.2267818" lon="8.4163928"><ele>6.0</ele><time>2026-04-26T12:30:30.481Z</time></trkpt><trkpt lat="44.2266893" lon="8.4163083"><ele>6.0</ele><time>2026-04-26T12:30:31.478Z</time></trkpt><trkpt lat="44.2265927" lon="8.4162267"><ele>6.0</ele><time>2026-04-26T12:30:32.478Z</time></trkpt><trkpt lat="44.2264937" lon="8.4161475"><ele>6.0</ele><time>2026-04-26T12:30:33.479Z</time></trkpt><trkpt lat="44.226395" lon="8.416067"><ele>6.0</ele><time>2026-04-26T12:30:34.478Z</time></trkpt><trkpt lat="44.226296" lon="8.4159845"><ele>6.0</ele><time>2026-04-26T12:30:35.481Z</time></trkpt><trkpt lat="44.2261963" lon="8.4159018"><ele>6.0</ele><time>2026-04-26T12:30:36.479Z</time></trkpt><trkpt lat="44.226099" lon="8.4158173"><ele>6.0</ele><time>2026-04-26T12:30:37.483Z</time></trkpt><trkpt lat="44.2260038" lon="8.41573"><ele>6.0</ele><time>2026-04-26T12:30:38.478Z</time></trkpt><trkpt lat="44.2259158" lon="8.4156493"><ele>6.0</ele><time>2026-04-26T12:30:39.478Z</time></trkpt><trkpt lat="44.2258285" lon="8.4155722"><ele>6.0</ele><time>2026-04-26T12:30:40.479Z</time></trkpt><trkpt lat="44.2257423" lon="8.4154982"><ele>6.0</ele><time>2026-04-26T12:30:41.479Z</time></trkpt><trkpt lat="44.2256547" lon="8.4154238"><ele>6.0</ele><time>2026-04-26T12:30:42.478Z</time></trkpt><trkpt lat="44.2255687" lon="8.4153488"><ele>6.0</ele><time>2026-04-26T12:30:43.477Z</time></trkpt><trkpt lat="44.2254857" lon="8.4152753"><ele>5.8</ele><time>2026-04-26T12:30:44.479Z</time></trkpt><trkpt lat="44.2254027" lon="8.4152042"><ele>5.6</ele><time>2026-04-26T12:30:45.478Z</time></trkpt><trkpt lat="44.2253183" lon="8.4151337"><ele>5.4</ele><time>2026-04-26T12:30:46.478Z</time></trkpt><trkpt lat="44.2252355" lon="8.4150637"><ele>5.2</ele><time>2026-04-26T12:30:47.478Z</time></trkpt><trkpt lat="44.2251528" lon="8.4149998"><ele>5.0</ele><time>2026-04-26T12:30:48.477Z</time></trkpt><trkpt lat="44.2250685" lon="8.4149413"><ele>5.0</ele><time>2026-04-26T12:30:49.475Z</time></trkpt><trkpt lat="44.2249788" lon="8.4148815"><ele>5.0</ele><time>2026-04-26T12:30:50.477Z</time></trkpt><trkpt lat="44.2248828" lon="8.4148207"><ele>5.0</ele><time>2026-04-26T12:30:51.479Z</time></trkpt><trkpt lat="44.2247832" lon="8.4147622"><ele>5.0</ele><time>2026-04-26T12:30:52.479Z</time></trkpt><trkpt lat="44.2246877" lon="8.4147113"><ele>5.0</ele><time>2026-04-26T12:30:53.48Z</time></trkpt><trkpt lat="44.2245962" lon="8.4146675"><ele>4.8</ele><time>2026-04-26T12:30:54.479Z</time></trkpt><trkpt lat="44.2245058" lon="8.4146252"><ele>4.6</ele><time>2026-04-26T12:30:55.478Z</time></trkpt><trkpt lat="44.2244152" lon="8.4145858"><ele>4.4</ele><time>2026-04-26T12:30:56.476Z</time></trkpt><trkpt lat="44.2243223" lon="8.4145497"><ele>4.2</ele><time>2026-04-26T12:30:57.488Z</time></trkpt><trkpt lat="44.224226" lon="8.4145178"><ele>4.0</ele><time>2026-04-26T12:30:58.478Z</time></trkpt><trkpt lat="44.2241252" lon="8.4144883"><ele>4.0</ele><time>2026-04-26T12:30:59.487Z</time></trkpt><trkpt lat="44.2240203" lon="8.4144593"><ele>4.0</ele><time>2026-04-26T12:31:00.477Z</time></trkpt><trkpt lat="44.2239123" lon="8.4144278"><ele>4.0</ele><time>2026-04-26T12:31:01.477Z</time></trkpt><trkpt lat="44.2238028" lon="8.4143978"><ele>4.0</ele><time>2026-04-26T12:31:02.479Z</time></trkpt><trkpt lat="44.2236977" lon="8.4143713"><ele>4.0</ele><time>2026-04-26T12:31:03.479Z</time></trkpt><trkpt lat="44.2235973" lon="8.4143508"><ele>4.0</ele><time>2026-04-26T12:31:04.478Z</time></trkpt><trkpt lat="44.2234945" lon="8.4143347"><ele>4.0</ele><time>2026-04-26T12:31:05.478Z</time></trkpt><trkpt lat="44.2233887" lon="8.4143208"><ele>4.0</ele><time>2026-04-26T12:31:06.478Z</time></trkpt><trkpt lat="44.2232808" lon="8.4143092"><ele>4.0</ele><time>2026-04-26T12:31:07.478Z</time></trkpt><trkpt lat="44.2231718" lon="8.4143012"><ele>4.0</ele><time>2026-04-26T12:31:08.481Z</time></trkpt><trkpt lat="44.2230622" lon="8.4142967"><ele>4.0</ele><time>2026-04-26T12:31:09.479Z</time></trkpt><trkpt lat="44.2229535" lon="8.414294"><ele>4.0</ele><time>2026-04-26T12:31:10.479Z</time></trkpt><trkpt lat="44.2228473" lon="8.4142923"><ele>4.0</ele><time>2026-04-26T12:31:11.479Z</time></trkpt><trkpt lat="44.2227432" lon="8.4142933"><ele>4.0</ele><time>2026-04-26T12:31:12.478Z</time></trkpt><trkpt lat="44.2226397" lon="8.4142992"><ele>4.0</ele><time>2026-04-26T12:31:13.476Z</time></trkpt><trkpt lat="44.222536" lon="8.4143072"><ele>4.0</ele><time>2026-04-26T12:31:14.477Z</time></trkpt><trkpt lat="44.222431" lon="8.4143158"><ele>4.0</ele><time>2026-04-26T12:31:15.478Z</time></trkpt><trkpt lat="44.2223253" lon="8.4143252"><ele>4.0</ele><time>2026-04-26T12:31:16.477Z</time></trkpt><trkpt lat="44.2222182" lon="8.4143357"><ele>4.0</ele><time>2026-04-26T12:31:17.48Z</time></trkpt><trkpt lat="44.2221092" lon="8.4143463"><ele>4.0</ele><time>2026-04-26T12:31:18.481Z</time></trkpt><trkpt lat="44.2219988" lon="8.4143557"><ele>4.0</ele><time>2026-04-26T12:31:19.482Z</time></trkpt><trkpt lat="44.2218882" lon="8.4143648"><ele>4.0</ele><time>2026-04-26T12:31:20.478Z</time></trkpt><trkpt lat="44.2217777" lon="8.4143745"><ele>4.0</ele><time>2026-04-26T12:31:21.478Z</time></trkpt><trkpt lat="44.2216678" lon="8.4143842"><ele>4.0</ele><time>2026-04-26T12:31:22.48Z</time></trkpt><trkpt lat="44.2215587" lon="8.4143942"><ele>4.0</ele><time>2026-04-26T12:31:23.478Z</time></trkpt><trkpt lat="44.2214495" lon="8.4144037"><ele>4.2</ele><time>2026-04-26T12:31:24.479Z</time></trkpt><trkpt lat="44.2213408" lon="8.4144122"><ele>4.4</ele><time>2026-04-26T12:31:25.499Z</time></trkpt><trkpt lat="44.2212328" lon="8.414421"><ele>4.6</ele><time>2026-04-26T12:31:26.478Z</time></trkpt><trkpt lat="44.2211248" lon="8.4144308"><ele>4.8</ele><time>2026-04-26T12:31:27.489Z</time></trkpt><trkpt lat="44.2210167" lon="8.4144415"><ele>5.0</ele><time>2026-04-26T12:31:28.478Z</time></trkpt><trkpt lat="44.2209092" lon="8.4144527"><ele>5.0</ele><time>2026-04-26T12:31:29.48Z</time></trkpt><trkpt lat="44.2208015" lon="8.4144648"><ele>5.0</ele><time>2026-04-26T12:31:30.481Z</time></trkpt><trkpt lat="44.2206983" lon="8.4144758"><ele>5.0</ele><time>2026-04-26T12:31:31.481Z</time></trkpt><trkpt lat="44.2206082" lon="8.4144865"><ele>5.0</ele><time>2026-04-26T12:31:32.48Z</time></trkpt><trkpt lat="44.2205227" lon="8.4144958"><ele>5.0</ele><time>2026-04-26T12:31:33.48Z</time></trkpt><trkpt lat="44.2204303" lon="8.4145008"><ele>6.166666666666667</ele><time>2026-04-26T12:31:34.481Z</time></trkpt><trkpt lat="44.2203343" lon="8.4145067"><ele>7.333333333333334</ele><time>2026-04-26T12:31:35.479Z</time></trkpt><trkpt lat="44.2202475" lon="8.4145162"><ele>8.5</ele><time>2026-04-26T12:31:36.479Z</time></trkpt><trkpt lat="44.2201722" lon="8.4145277"><ele>9.666666666666666</ele><time>2026-04-26T12:31:37.48Z</time></trkpt><trkpt lat="44.2200778" lon="8.4145335"><ele>10.833333333333334</ele><time>2026-04-26T12:31:39.48Z</time></trkpt><trkpt lat="44.2199847" lon="8.414513"><ele>12.0</ele><time>2026-04-26T12:31:43.48Z</time></trkpt><trkpt lat="44.2198515" lon="8.4145127"><ele>12.399999999999999</ele><time>2026-04-26T12:31:45.481Z</time></trkpt><trkpt lat="44.2197755" lon="8.4145583"><ele>12.799999999999999</ele><time>2026-04-26T12:31:46.48Z</time></trkpt><trkpt lat="44.219708" lon="8.4146372"><ele>13.2</ele><time>2026-04-26T12:31:47.48Z</time></trkpt><trkpt lat="44.2196353" lon="8.4147187"><ele>13.6</ele><time>2026-04-26T12:31:48.482Z</time></trkpt><trkpt lat="44.2195492" lon="8.4147658"><ele>14.0</ele><time>2026-04-26T12:31:49.482Z</time></trkpt><trkpt lat="44.2194467" lon="8.4147713"><ele>11.5</ele><time>2026-04-26T12:31:50.481Z</time></trkpt><trkpt lat="44.2193313" lon="8.4147505"><ele>9.0</ele><time>2026-04-26T12:31:51.482Z</time></trkpt><trkpt lat="44.2192063" lon="8.4147257"><ele>6.5</ele><time>2026-04-26T12:31:52.482Z</time></trkpt><trkpt lat="44.2190785" lon="8.414712"><ele>4.0</ele><time>2026-04-26T12:31:53.483Z</time></trkpt><trkpt lat="44.2189423" lon="8.4147127"><ele>3.75</ele><time>2026-04-26T12:31:54.484Z</time></trkpt><trkpt lat="44.2187988" lon="8.4147285"><ele>3.5</ele><time>2026-04-26T12:31:55.481Z</time></trkpt><trkpt lat="44.2186532" lon="8.4147502"><ele>3.25</ele><time>2026-04-26T12:31:56.481Z</time></trkpt><trkpt lat="44.2185092" lon="8.4147713"><ele>3.0</ele><time>2026-04-26T12:31:57.48Z</time></trkpt><trkpt lat="44.218366" lon="8.4147915"><ele>3.0</ele><time>2026-04-26T12:31:58.481Z</time></trkpt><trkpt lat="44.2182245" lon="8.4148102"><ele>3.0</ele><time>2026-04-26T12:31:59.482Z</time></trkpt><trkpt lat="44.218084" lon="8.4148282"><ele>3.0</ele><time>2026-04-26T12:32:00.482Z</time></trkpt><trkpt lat="44.217946" lon="8.4148447"><ele>3.0</ele><time>2026-04-26T12:32:01.48Z</time></trkpt><trkpt lat="44.2178105" lon="8.414862"><ele>3.75</ele><time>2026-04-26T12:32:02.486Z</time></trkpt><trkpt lat="44.2176772" lon="8.4148818"><ele>4.5</ele><time>2026-04-26T12:32:03.479Z</time></trkpt><trkpt lat="44.2175465" lon="8.414905"><ele>5.25</ele><time>2026-04-26T12:32:04.476Z</time></trkpt><trkpt lat="44.2174175" lon="8.4149305"><ele>6.0</ele><time>2026-04-26T12:32:05.48Z</time></trkpt><trkpt lat="44.2172882" lon="8.414959"><ele>8.0</ele><time>2026-04-26T12:32:06.482Z</time></trkpt><trkpt lat="44.2171568" lon="8.414991"><ele>10.0</ele><time>2026-04-26T12:32:07.478Z</time></trkpt><trkpt lat="44.2170238" lon="8.4150245"><ele>12.0</ele><time>2026-04-26T12:32:08.478Z</time></trkpt><trkpt lat="44.2168907" lon="8.4150585"><ele>14.0</ele><time>2026-04-26T12:32:09.479Z</time></trkpt><trkpt lat="44.2167605" lon="8.415093"><ele>14.0</ele><time>2026-04-26T12:32:10.477Z</time></trkpt><trkpt lat="44.2166335" lon="8.4151283"><ele>14.0</ele><time>2026-04-26T12:32:11.479Z</time></trkpt><trkpt lat="44.2165063" lon="8.4151662"><ele>14.0</ele><time>2026-04-26T12:32:12.478Z</time></trkpt><trkpt lat="44.2163795" lon="8.4152082"><ele>14.0</ele><time>2026-04-26T12:32:13.478Z</time></trkpt><trkpt lat="44.216253" lon="8.415254"><ele>12.0</ele><time>2026-04-26T12:32:14.479Z</time></trkpt><trkpt lat="44.2161283" lon="8.4153075"><ele>10.0</ele><time>2026-04-26T12:32:15.479Z</time></trkpt><trkpt lat="44.216005" lon="8.4153675"><ele>8.0</ele><time>2026-04-26T12:32:16.479Z</time></trkpt><trkpt lat="44.2158807" lon="8.4154348"><ele>6.0</ele><time>2026-04-26T12:32:17.481Z</time></trkpt><trkpt lat="44.2157572" lon="8.415509"><ele>9.25</ele><time>2026-04-26T12:32:18.479Z</time></trkpt><trkpt lat="44.2156353" lon="8.4155863"><ele>12.5</ele><time>2026-04-26T12:32:19.479Z</time></trkpt><trkpt lat="44.2155202" lon="8.4156672"><ele>15.75</ele><time>2026-04-26T12:32:20.479Z</time></trkpt><trkpt lat="44.2154102" lon="8.4157512"><ele>19.0</ele><time>2026-04-26T12:32:21.478Z</time></trkpt><trkpt lat="44.2153035" lon="8.4158378"><ele>19.0</ele><time>2026-04-26T12:32:22.482Z</time></trkpt><trkpt lat="44.2151973" lon="8.4159242"><ele>19.0</ele><time>2026-04-26T12:32:23.479Z</time></trkpt><trkpt lat="44.2150908" lon="8.41601"><ele>19.0</ele><time>2026-04-26T12:32:24.48Z</time></trkpt><trkpt lat="44.2149852" lon="8.4160942"><ele>19.0</ele><time>2026-04-26T12:32:25.478Z</time></trkpt><trkpt lat="44.2148807" lon="8.4161742"><ele>17.0</ele><time>2026-04-26T12:32:26.476Z</time></trkpt><trkpt lat="44.2147758" lon="8.4162423"><ele>15.0</ele><time>2026-04-26T12:32:27.477Z</time></trkpt><trkpt lat="44.2146682" lon="8.416299"><ele>13.0</ele><time>2026-04-26T12:32:28.477Z</time></trkpt><trkpt lat="44.2145535" lon="8.4163458"><ele>11.0</ele><time>2026-04-26T12:32:29.477Z</time></trkpt><trkpt lat="44.2144327" lon="8.4163852"><ele>11.0</ele><time>2026-04-26T12:32:30.478Z</time></trkpt><trkpt lat="44.21431" lon="8.4164178"><ele>11.0</ele><time>2026-04-26T12:32:31.478Z</time></trkpt><trkpt lat="44.214187" lon="8.4164462"><ele>11.0</ele><time>2026-04-26T12:32:32.48Z</time></trkpt><trkpt lat="44.2140635" lon="8.4164718"><ele>11.0</ele><time>2026-04-26T12:32:33.479Z</time></trkpt><trkpt lat="44.213939" lon="8.4164963"><ele>12.0</ele><time>2026-04-26T12:32:34.479Z</time></trkpt><trkpt lat="44.213814" lon="8.4165207"><ele>13.0</ele><time>2026-04-26T12:32:35.478Z</time></trkpt><trkpt lat="44.21369" lon="8.4165458"><ele>14.0</ele><time>2026-04-26T12:32:36.479Z</time></trkpt><trkpt lat="44.2135678" lon="8.4165705"><ele>15.0</ele><time>2026-04-26T12:32:37.479Z</time></trkpt><trkpt lat="44.2134493" lon="8.4165928"><ele>15.0</ele><time>2026-04-26T12:32:38.478Z</time></trkpt><trkpt lat="44.2133342" lon="8.4166138"><ele>15.0</ele><time>2026-04-26T12:32:39.478Z</time></trkpt><trkpt lat="44.2132192" lon="8.4166325"><ele>15.0</ele><time>2026-04-26T12:32:40.48Z</time></trkpt><trkpt lat="44.2131033" lon="8.4166518"><ele>15.0</ele><time>2026-04-26T12:32:41.478Z</time></trkpt><trkpt lat="44.2129867" lon="8.4166708"><ele>15.0</ele><time>2026-04-26T12:32:42.48Z</time></trkpt><trkpt lat="44.2128705" lon="8.4166887"><ele>15.0</ele><time>2026-04-26T12:32:43.48Z</time></trkpt><trkpt lat="44.2127568" lon="8.4167103"><ele>15.0</ele><time>2026-04-26T12:32:44.482Z</time></trkpt><trkpt lat="44.2126463" lon="8.416743"><ele>15.0</ele><time>2026-04-26T12:32:45.479Z</time></trkpt><trkpt lat="44.2125398" lon="8.416791"><ele>15.0</ele><time>2026-04-26T12:32:46.483Z</time></trkpt><trkpt lat="44.2124368" lon="8.4168538"><ele>15.0</ele><time>2026-04-26T12:32:47.481Z</time></trkpt><trkpt lat="44.2123375" lon="8.4169297"><ele>15.0</ele><time>2026-04-26T12:32:48.48Z</time></trkpt><trkpt lat="44.2122473" lon="8.4170102"><ele>15.0</ele><time>2026-04-26T12:32:49.479Z</time></trkpt><trkpt lat="44.212164" lon="8.417097"><ele>15.0</ele><time>2026-04-26T12:32:50.477Z</time></trkpt><trkpt lat="44.212086" lon="8.4171875"><ele>15.6</ele><time>2026-04-26T12:32:51.477Z</time></trkpt><trkpt lat="44.2120137" lon="8.4172735"><ele>16.2</ele><time>2026-04-26T12:32:52.478Z</time></trkpt><trkpt lat="44.2119532" lon="8.417345"><ele>16.8</ele><time>2026-04-26T12:32:53.478Z</time></trkpt><trkpt lat="44.2118668" lon="8.4174465"><ele>17.4</ele><time>2026-04-26T12:32:55.482Z</time></trkpt><trkpt lat="44.2117722" lon="8.4175542"><ele>18.0</ele><time>2026-04-26T12:32:57.482Z</time></trkpt><trkpt lat="44.2117122" lon="8.4176218"><ele>18.0</ele><time>2026-04-26T12:32:58.482Z</time></trkpt><trkpt lat="44.2116475" lon="8.4176925"><ele>18.0</ele><time>2026-04-26T12:32:59.479Z</time></trkpt><trkpt lat="44.2115807" lon="8.417761"><ele>18.0</ele><time>2026-04-26T12:33:00.48Z</time></trkpt><trkpt lat="44.2115047" lon="8.4178295"><ele>18.0</ele><time>2026-04-26T12:33:01.479Z</time></trkpt><trkpt lat="44.211414" lon="8.417898"><ele>18.0</ele><time>2026-04-26T12:33:02.48Z</time></trkpt><trkpt lat="44.211313" lon="8.4179547"><ele>20.0</ele><time>2026-04-26T12:33:03.48Z</time></trkpt><trkpt lat="44.2112047" lon="8.4179935"><ele>22.0</ele><time>2026-04-26T12:33:04.478Z</time></trkpt><trkpt lat="44.2110892" lon="8.4180087"><ele>24.0</ele><time>2026-04-26T12:33:05.479Z</time></trkpt><trkpt lat="44.2109708" lon="8.4180017"><ele>26.0</ele><time>2026-04-26T12:33:06.48Z</time></trkpt><trkpt lat="44.2108512" lon="8.4179723"><ele>26.0</ele><time>2026-04-26T12:33:07.48Z</time></trkpt><trkpt lat="44.2107283" lon="8.4179245"><ele>26.0</ele><time>2026-04-26T12:33:08.48Z</time></trkpt><trkpt lat="44.2106092" lon="8.417873"><ele>26.0</ele><time>2026-04-26T12:33:09.479Z</time></trkpt><trkpt lat="44.2104955" lon="8.4178208"><ele>26.0</ele><time>2026-04-26T12:33:10.479Z</time></trkpt><trkpt lat="44.210381" lon="8.4177687"><ele>23.25</ele><time>2026-04-26T12:33:11.479Z</time></trkpt><trkpt lat="44.2102663" lon="8.4177158"><ele>20.5</ele><time>2026-04-26T12:33:12.48Z</time></trkpt><trkpt lat="44.2101568" lon="8.4176662"><ele>17.75</ele><time>2026-04-26T12:33:13.481Z</time></trkpt><trkpt lat="44.2100497" lon="8.417623"><ele>15.0</ele><time>2026-04-26T12:33:14.48Z</time></trkpt><trkpt lat="44.2099438" lon="8.4175857"><ele>15.0</ele><time>2026-04-26T12:33:15.478Z</time></trkpt><trkpt lat="44.2098363" lon="8.4175565"><ele>15.0</ele><time>2026-04-26T12:33:16.477Z</time></trkpt><trkpt lat="44.2097252" lon="8.4175403"><ele>15.0</ele><time>2026-04-26T12:33:17.478Z</time></trkpt><trkpt lat="44.2096098" lon="8.417533"><ele>15.0</ele><time>2026-04-26T12:33:18.479Z</time></trkpt><trkpt lat="44.2094902" lon="8.417528"><ele>14.75</ele><time>2026-04-26T12:33:19.481Z</time></trkpt><trkpt lat="44.2093685" lon="8.417524"><ele>14.5</ele><time>2026-04-26T12:33:20.481Z</time></trkpt><trkpt lat="44.2092452" lon="8.4175205"><ele>14.25</ele><time>2026-04-26T12:33:21.48Z</time></trkpt><trkpt lat="44.2091218" lon="8.4175165"><ele>14.0</ele><time>2026-04-26T12:33:22.478Z</time></trkpt><trkpt lat="44.2090018" lon="8.4175123"><ele>16.0</ele><time>2026-04-26T12:33:23.477Z</time></trkpt><trkpt lat="44.2088778" lon="8.4175095"><ele>18.0</ele><time>2026-04-26T12:33:24.476Z</time></trkpt><trkpt lat="44.2087557" lon="8.4175122"><ele>20.0</ele><time>2026-04-26T12:33:25.476Z</time></trkpt><trkpt lat="44.208632" lon="8.417519"><ele>22.0</ele><time>2026-04-26T12:33:26.475Z</time></trkpt><trkpt lat="44.2085137" lon="8.4175245"><ele>22.0</ele><time>2026-04-26T12:33:27.474Z</time></trkpt><trkpt lat="44.2083935" lon="8.4175272"><ele>22.0</ele><time>2026-04-26T12:33:28.473Z</time></trkpt><trkpt lat="44.208278" lon="8.417543"><ele>22.0</ele><time>2026-04-26T12:33:29.472Z</time></trkpt><trkpt lat="44.208165" lon="8.4175695"><ele>22.0</ele><time>2026-04-26T12:33:30.472Z</time></trkpt><trkpt lat="44.2080552" lon="8.417595"><ele>21.0</ele><time>2026-04-26T12:33:31.472Z</time></trkpt><trkpt lat="44.2079423" lon="8.4176038"><ele>20.0</ele><time>2026-04-26T12:33:32.471Z</time></trkpt><trkpt lat="44.2078247" lon="8.417601"><ele>19.0</ele><time>2026-04-26T12:33:33.472Z</time></trkpt><trkpt lat="44.2077" lon="8.417595"><ele>18.0</ele><time>2026-04-26T12:33:34.474Z</time></trkpt><trkpt lat="44.2075853" lon="8.4175577"><ele>18.0</ele><time>2026-04-26T12:33:35.473Z</time></trkpt><trkpt lat="44.207479" lon="8.417528"><ele>18.0</ele><time>2026-04-26T12:33:36.474Z</time></trkpt><trkpt lat="44.2073737" lon="8.417474"><ele>18.0</ele><time>2026-04-26T12:33:37.474Z</time></trkpt><trkpt lat="44.2072707" lon="8.417401"><ele>18.0</ele><time>2026-04-26T12:33:38.472Z</time></trkpt><trkpt lat="44.2071607" lon="8.4173245"><ele>16.75</ele><time>2026-04-26T12:33:39.471Z</time></trkpt><trkpt lat="44.2070493" lon="8.4172473"><ele>15.5</ele><time>2026-04-26T12:33:40.474Z</time></trkpt><trkpt lat="44.2069367" lon="8.41715"><ele>14.25</ele><time>2026-04-26T12:33:41.475Z</time></trkpt><trkpt lat="44.2068237" lon="8.4170627"><ele>13.0</ele><time>2026-04-26T12:33:42.478Z</time></trkpt><trkpt lat="44.2067112" lon="8.4169967"><ele>13.0</ele><time>2026-04-26T12:33:43.478Z</time></trkpt><trkpt lat="44.2066008" lon="8.416933"><ele>13.0</ele><time>2026-04-26T12:33:44.481Z</time></trkpt><trkpt lat="44.2064968" lon="8.416876"><ele>13.0</ele><time>2026-04-26T12:33:45.481Z</time></trkpt><trkpt lat="44.2063965" lon="8.416822"><ele>13.0</ele><time>2026-04-26T12:33:46.48Z</time></trkpt><trkpt lat="44.2062943" lon="8.4167663"><ele>13.0</ele><time>2026-04-26T12:33:47.482Z</time></trkpt><trkpt lat="44.2061918" lon="8.41672"><ele>11.6</ele><time>2026-04-26T12:33:48.483Z</time></trkpt><trkpt lat="44.206096" lon="8.4166847"><ele>10.200000000000001</ele><time>2026-04-26T12:33:49.479Z</time></trkpt><trkpt lat="44.206005" lon="8.4166535"><ele>8.8</ele><time>2026-04-26T12:33:50.479Z</time></trkpt><trkpt lat="44.2059127" lon="8.416625"><ele>7.4</ele><time>2026-04-26T12:33:51.48Z</time></trkpt><trkpt lat="44.205823" lon="8.4165987"><ele>6.0</ele><time>2026-04-26T12:33:52.48Z</time></trkpt><trkpt lat="44.205737" lon="8.4165743"><ele>5.833333333333333</ele><time>2026-04-26T12:33:53.479Z</time></trkpt><trkpt lat="44.2056517" lon="8.4165498"><ele>5.666666666666667</ele><time>2026-04-26T12:33:54.481Z</time></trkpt><trkpt lat="44.2055645" lon="8.4165262"><ele>5.5</ele><time>2026-04-26T12:33:55.48Z</time></trkpt><trkpt lat="44.2054777" lon="8.4165045"><ele>5.333333333333334</ele><time>2026-04-26T12:33:56.48Z</time></trkpt><trkpt lat="44.2053895" lon="8.4164842"><ele>5.166666666666667</ele><time>2026-04-26T12:33:57.482Z</time></trkpt><trkpt lat="44.2053025" lon="8.4164632"><ele>5.0</ele><time>2026-04-26T12:33:58.481Z</time></trkpt><trkpt lat="44.2052218" lon="8.4164407"><ele>5.0</ele><time>2026-04-26T12:33:59.481Z</time></trkpt><trkpt lat="44.2051445" lon="8.4164172"><ele>5.0</ele><time>2026-04-26T12:34:00.482Z</time></trkpt><trkpt lat="44.2050645" lon="8.416394"><ele>5.0</ele><time>2026-04-26T12:34:01.481Z</time></trkpt><trkpt lat="44.2049837" lon="8.4163728"><ele>5.0</ele><time>2026-04-26T12:34:02.481Z</time></trkpt><trkpt lat="44.2049087" lon="8.4163525"><ele>5.0</ele><time>2026-04-26T12:34:03.481Z</time></trkpt><trkpt lat="44.2048355" lon="8.4163308"><ele>5.0</ele><time>2026-04-26T12:34:04.478Z</time></trkpt><trkpt lat="44.2047588" lon="8.4163078"><ele>5.5</ele><time>2026-04-26T12:34:05.479Z</time></trkpt><trkpt lat="44.2046795" lon="8.4162855"><ele>6.0</ele><time>2026-04-26T12:34:06.48Z</time></trkpt><trkpt lat="44.2045978" lon="8.4162633"><ele>6.5</ele><time>2026-04-26T12:34:07.479Z</time></trkpt><trkpt lat="44.2045145" lon="8.4162402"><ele>7.0</ele><time>2026-04-26T12:34:08.481Z</time></trkpt><trkpt lat="44.2044295" lon="8.416215"><ele>7.499999999999999</ele><time>2026-04-26T12:34:09.483Z</time></trkpt><trkpt lat="44.2043435" lon="8.4161897"><ele>8.0</ele><time>2026-04-26T12:34:10.481Z</time></trkpt><trkpt lat="44.2042578" lon="8.4161645"><ele>7.999999999999999</ele><time>2026-04-26T12:34:11.482Z</time></trkpt><trkpt lat="44.2041758" lon="8.4161408"><ele>8.0</ele><time>2026-04-26T12:34:12.481Z</time></trkpt><trkpt lat="44.2041005" lon="8.4161182"><ele>8.0</ele><time>2026-04-26T12:34:13.48Z</time></trkpt><trkpt lat="44.2040292" lon="8.416097"><ele>8.0</ele><time>2026-04-26T12:34:14.48Z</time></trkpt><trkpt lat="44.2039538" lon="8.4160738"><ele>7.999999999999999</ele><time>2026-04-26T12:34:15.481Z</time></trkpt><trkpt lat="44.2038737" lon="8.4160528"><ele>8.0</ele><time>2026-04-26T12:34:16.482Z</time></trkpt><trkpt lat="44.2037892" lon="8.4160327"><ele>7.6000000000000005</ele><time>2026-04-26T12:34:17.481Z</time></trkpt><trkpt lat="44.2037015" lon="8.4160105"><ele>7.200000000000001</ele><time>2026-04-26T12:34:18.483Z</time></trkpt><trkpt lat="44.203612" lon="8.4159863"><ele>6.8</ele><time>2026-04-26T12:34:19.481Z</time></trkpt><trkpt lat="44.2035217" lon="8.4159622"><ele>6.4</ele><time>2026-04-26T12:34:20.481Z</time></trkpt><trkpt lat="44.2034322" lon="8.4159413"><ele>6.0</ele><time>2026-04-26T12:34:21.482Z</time></trkpt><trkpt lat="44.2033428" lon="8.4159273"><ele>6.0</ele><time>2026-04-26T12:34:22.482Z</time></trkpt><trkpt lat="44.2032538" lon="8.4159152"><ele>6.0</ele><time>2026-04-26T12:34:23.482Z</time></trkpt><trkpt lat="44.2031657" lon="8.4159062"><ele>6.0</ele><time>2026-04-26T12:34:24.482Z</time></trkpt><trkpt lat="44.203078" lon="8.4158997"><ele>6.0</ele><time>2026-04-26T12:34:25.481Z</time></trkpt><trkpt lat="44.2029903" lon="8.4158947"><ele>6.0</ele><time>2026-04-26T12:34:26.482Z</time></trkpt><trkpt lat="44.2029068" lon="8.4158868"><ele>6.0</ele><time>2026-04-26T12:34:27.48Z</time></trkpt><trkpt lat="44.2028332" lon="8.4158798"><ele>6.0</ele><time>2026-04-26T12:34:28.479Z</time></trkpt><trkpt lat="44.202768" lon="8.4158738"><ele>6.0</ele><time>2026-04-26T12:34:29.478Z</time></trkpt><trkpt lat="44.2026557" lon="8.4158682"><ele>6.0</ele><time>2026-04-26T12:34:31.476Z</time></trkpt><trkpt lat="44.2025703" lon="8.4158692"><ele>6.0</ele><time>2026-04-26T12:34:33.479Z</time></trkpt><trkpt lat="44.2024847" lon="8.4158678"><ele>6.0</ele><time>2026-04-26T12:34:35.482Z</time></trkpt><trkpt lat="44.2023657" lon="8.4158707"><ele>5.833333333333333</ele><time>2026-04-26T12:34:37.481Z</time></trkpt><trkpt lat="44.2022907" lon="8.4158795"><ele>5.666666666666667</ele><time>2026-04-26T12:34:38.479Z</time></trkpt><trkpt lat="44.2022083" lon="8.4158915"><ele>5.5</ele><time>2026-04-26T12:34:39.481Z</time></trkpt><trkpt lat="44.2021258" lon="8.4159077"><ele>5.333333333333334</ele><time>2026-04-26T12:34:40.48Z</time></trkpt><trkpt lat="44.202038" lon="8.4159302"><ele>5.166666666666667</ele><time>2026-04-26T12:34:41.481Z</time></trkpt><trkpt lat="44.2019435" lon="8.4159613"><ele>5.0</ele><time>2026-04-26T12:34:42.482Z</time></trkpt><trkpt lat="44.2018532" lon="8.415998"><ele>5.0</ele><time>2026-04-26T12:34:43.48Z</time></trkpt><trkpt lat="44.2017682" lon="8.4160363"><ele>5.0</ele><time>2026-04-26T12:34:44.48Z</time></trkpt><trkpt lat="44.2016808" lon="8.4160775"><ele>5.0</ele><time>2026-04-26T12:34:45.481Z</time></trkpt><trkpt lat="44.2015908" lon="8.4161227"><ele>5.0</ele><time>2026-04-26T12:34:46.481Z</time></trkpt><trkpt lat="44.2015025" lon="8.4161703"><ele>5.0</ele><time>2026-04-26T12:34:47.481Z</time></trkpt><trkpt lat="44.2014182" lon="8.4162155"><ele>4.8</ele><time>2026-04-26T12:34:48.483Z</time></trkpt><trkpt lat="44.2013287" lon="8.4162625"><ele>4.6</ele><time>2026-04-26T12:34:49.48Z</time></trkpt><trkpt lat="44.2012365" lon="8.4163088"><ele>4.4</ele><time>2026-04-26T12:34:50.48Z</time></trkpt><trkpt lat="44.2011453" lon="8.4163528"><ele>4.2</ele><time>2026-04-26T12:34:51.482Z</time></trkpt><trkpt lat="44.2010568" lon="8.4163952"><ele>4.0</ele><time>2026-04-26T12:34:52.48Z</time></trkpt><trkpt lat="44.2009702" lon="8.4164408"><ele>4.0</ele><time>2026-04-26T12:34:53.478Z</time></trkpt><trkpt lat="44.2008817" lon="8.4164872"><ele>4.0</ele><time>2026-04-26T12:34:54.479Z</time></trkpt><trkpt lat="44.2007933" lon="8.4165295"><ele>4.0</ele><time>2026-04-26T12:34:55.479Z</time></trkpt><trkpt lat="44.2007048" lon="8.4165725"><ele>4.0</ele><time>2026-04-26T12:34:56.481Z</time></trkpt><trkpt lat="44.2006172" lon="8.416618"><ele>4.0</ele><time>2026-04-26T12:34:57.481Z</time></trkpt><trkpt lat="44.2005305" lon="8.416666"><ele>6.6</ele><time>2026-04-26T12:34:58.481Z</time></trkpt><trkpt lat="44.2004443" lon="8.4167192"><ele>9.2</ele><time>2026-04-26T12:34:59.482Z</time></trkpt><trkpt lat="44.200357" lon="8.4167802"><ele>11.799999999999999</ele><time>2026-04-26T12:35:00.482Z</time></trkpt><trkpt lat="44.2002707" lon="8.4168525"><ele>14.4</ele><time>2026-04-26T12:35:01.481Z</time></trkpt><trkpt lat="44.200186" lon="8.4169342"><ele>17.0</ele><time>2026-04-26T12:35:02.482Z</time></trkpt><trkpt lat="44.2001022" lon="8.41702"><ele>17.0</ele><time>2026-04-26T12:35:03.482Z</time></trkpt><trkpt lat="44.2000175" lon="8.4171067"><ele>17.0</ele><time>2026-04-26T12:35:04.48Z</time></trkpt><trkpt lat="44.1999313" lon="8.4171947"><ele>17.0</ele><time>2026-04-26T12:35:05.478Z</time></trkpt><trkpt lat="44.1998437" lon="8.417287"><ele>17.0</ele><time>2026-04-26T12:35:06.478Z</time></trkpt><trkpt lat="44.1997587" lon="8.4173782"><ele>17.0</ele><time>2026-04-26T12:35:07.477Z</time></trkpt><trkpt lat="44.1996768" lon="8.4174692"><ele>23.5</ele><time>2026-04-26T12:35:08.476Z</time></trkpt><trkpt lat="44.1995967" lon="8.4175725"><ele>30.0</ele><time>2026-04-26T12:35:09.477Z</time></trkpt><trkpt lat="44.1995172" lon="8.4176883"><ele>36.5</ele><time>2026-04-26T12:35:10.475Z</time></trkpt><trkpt lat="44.1994448" lon="8.4178163"><ele>43.0</ele><time>2026-04-26T12:35:11.475Z</time></trkpt><trkpt lat="44.1993802" lon="8.4179535"><ele>39.199999999999996</ele><time>2026-04-26T12:35:12.475Z</time></trkpt><trkpt lat="44.1993252" lon="8.4180918"><ele>35.4</ele><time>2026-04-26T12:35:13.477Z</time></trkpt><trkpt lat="44.1992802" lon="8.4182297"><ele>31.599999999999998</ele><time>2026-04-26T12:35:14.478Z</time></trkpt><trkpt lat="44.1992408" lon="8.4183687"><ele>27.799999999999997</ele><time>2026-04-26T12:35:15.476Z</time></trkpt><trkpt lat="44.1992038" lon="8.4185117"><ele>24.0</ele><time>2026-04-26T12:35:16.475Z</time></trkpt><trkpt lat="44.1991652" lon="8.418657"><ele>24.0</ele><time>2026-04-26T12:35:17.475Z</time></trkpt><trkpt lat="44.1991177" lon="8.4188008"><ele>24.0</ele><time>2026-04-26T12:35:18.475Z</time></trkpt><trkpt lat="44.1990555" lon="8.4189397"><ele>24.0</ele><time>2026-04-26T12:35:19.476Z</time></trkpt><trkpt lat="44.1989737" lon="8.4190722"><ele>24.0</ele><time>2026-04-26T12:35:20.478Z</time></trkpt><trkpt lat="44.1988845" lon="8.4191927"><ele>23.75</ele><time>2026-04-26T12:35:21.478Z</time></trkpt><trkpt lat="44.1987985" lon="8.4193043"><ele>23.5</ele><time>2026-04-26T12:35:22.476Z</time></trkpt><trkpt lat="44.1987167" lon="8.4194208"><ele>23.25</ele><time>2026-04-26T12:35:23.475Z</time></trkpt><trkpt lat="44.1986422" lon="8.4195503"><ele>23.0</ele><time>2026-04-26T12:35:24.475Z</time></trkpt><trkpt lat="44.198576" lon="8.419692"><ele>23.0</ele><time>2026-04-26T12:35:25.475Z</time></trkpt><trkpt lat="44.1985173" lon="8.4198312"><ele>23.0</ele><time>2026-04-26T12:35:26.476Z</time></trkpt><trkpt lat="44.1984613" lon="8.4199677"><ele>23.0</ele><time>2026-04-26T12:35:27.476Z</time></trkpt><trkpt lat="44.198406" lon="8.4201075"><ele>23.0</ele><time>2026-04-26T12:35:28.475Z</time></trkpt><trkpt lat="44.198364" lon="8.4202538"><ele>23.0</ele><time>2026-04-26T12:35:29.476Z</time></trkpt><trkpt lat="44.1983528" lon="8.420406"><ele>23.0</ele><time>2026-04-26T12:35:30.478Z</time></trkpt><trkpt lat="44.19837" lon="8.420568"><ele>23.0</ele><time>2026-04-26T12:35:31.477Z</time></trkpt><trkpt lat="44.1983965" lon="8.4207235"><ele>23.0</ele><time>2026-04-26T12:35:32.476Z</time></trkpt><trkpt lat="44.1984208" lon="8.4208643"><ele>23.0</ele><time>2026-04-26T12:35:33.476Z</time></trkpt><trkpt lat="44.1984453" lon="8.4210017"><ele>24.0</ele><time>2026-04-26T12:35:34.478Z</time></trkpt><trkpt lat="44.1984657" lon="8.4211468"><ele>25.0</ele><time>2026-04-26T12:35:35.477Z</time></trkpt><trkpt lat="44.1984855" lon="8.4212998"><ele>25.999999999999996</ele><time>2026-04-26T12:35:36.479Z</time></trkpt><trkpt lat="44.1984998" lon="8.4214522"><ele>27.0</ele><time>2026-04-26T12:35:37.476Z</time></trkpt><trkpt lat="44.1985087" lon="8.4216043"><ele>28.0</ele><time>2026-04-26T12:35:38.474Z</time></trkpt><trkpt lat="44.1985137" lon="8.4217577"><ele>27.4</ele><time>2026-04-26T12:35:39.476Z</time></trkpt><trkpt lat="44.1985132" lon="8.4218975"><ele>26.799999999999997</ele><time>2026-04-26T12:35:40.476Z</time></trkpt><trkpt lat="44.1984988" lon="8.4220323"><ele>26.2</ele><time>2026-04-26T12:35:41.475Z</time></trkpt><trkpt lat="44.1984655" lon="8.4221687"><ele>25.6</ele><time>2026-04-26T12:35:42.476Z</time></trkpt><trkpt lat="44.1984183" lon="8.4223138"><ele>25.0</ele><time>2026-04-26T12:35:43.476Z</time></trkpt><trkpt lat="44.198365" lon="8.4224623"><ele>25.0</ele><time>2026-04-26T12:35:44.475Z</time></trkpt><trkpt lat="44.1983125" lon="8.4226063"><ele>25.0</ele><time>2026-04-26T12:35:45.478Z</time></trkpt><trkpt lat="44.198261" lon="8.4227443"><ele>25.0</ele><time>2026-04-26T12:35:46.479Z</time></trkpt><trkpt lat="44.1982087" lon="8.4228832"><ele>25.0</ele><time>2026-04-26T12:35:47.478Z</time></trkpt><trkpt lat="44.198152" lon="8.423028"><ele>37.0</ele><time>2026-04-26T12:35:48.478Z</time></trkpt><trkpt lat="44.1980912" lon="8.4231775"><ele>49.0</ele><time>2026-04-26T12:35:49.477Z</time></trkpt><trkpt lat="44.1980285" lon="8.4233273"><ele>61.0</ele><time>2026-04-26T12:35:50.477Z</time></trkpt><trkpt lat="44.197964" lon="8.4234748"><ele>73.0</ele><time>2026-04-26T12:35:51.478Z</time></trkpt><trkpt lat="44.1978957" lon="8.4236188"><ele>73.0</ele><time>2026-04-26T12:35:52.479Z</time></trkpt><trkpt lat="44.1978223" lon="8.4237588"><ele>73.0</ele><time>2026-04-26T12:35:53.477Z</time></trkpt><trkpt lat="44.1977428" lon="8.4238945"><ele>73.0</ele><time>2026-04-26T12:35:54.478Z</time></trkpt><trkpt lat="44.1976525" lon="8.424029"><ele>73.0</ele><time>2026-04-26T12:35:55.478Z</time></trkpt><trkpt lat="44.1975568" lon="8.4241552"><ele>74.25</ele><time>2026-04-26T12:35:56.479Z</time></trkpt><trkpt lat="44.1974555" lon="8.424276"><ele>75.5</ele><time>2026-04-26T12:35:57.477Z</time></trkpt><trkpt lat="44.197353" lon="8.4243938"><ele>76.75</ele><time>2026-04-26T12:35:58.478Z</time></trkpt><trkpt lat="44.1972518" lon="8.4245045"><ele>78.0</ele><time>2026-04-26T12:35:59.476Z</time></trkpt><trkpt lat="44.197155" lon="8.4246065"><ele>58.5</ele><time>2026-04-26T12:36:00.477Z</time></trkpt><trkpt lat="44.1970648" lon="8.4246997"><ele>39.0</ele><time>2026-04-26T12:36:01.477Z</time></trkpt><trkpt lat="44.1969752" lon="8.4247802"><ele>19.5</ele><time>2026-04-26T12:36:02.477Z</time></trkpt><trkpt lat="44.1968747" lon="8.4248475"><ele>0.0</ele><time>2026-04-26T12:36:03.479Z</time></trkpt><trkpt lat="44.19676" lon="8.424895"><ele>0.0</ele><time>2026-04-26T12:36:04.476Z</time></trkpt><trkpt lat="44.1966387" lon="8.42492"><ele>0.0</ele><time>2026-04-26T12:36:05.476Z</time></trkpt><trkpt lat="44.1965105" lon="8.4249235"><ele>0.0</ele><time>2026-04-26T12:36:06.475Z</time></trkpt><trkpt lat="44.1963832" lon="8.4249087"><ele>0.0</ele><time>2026-04-26T12:36:07.473Z</time></trkpt><trkpt lat="44.196262" lon="8.42488"><ele>0.0</ele><time>2026-04-26T12:36:08.471Z</time></trkpt><trkpt lat="44.1961445" lon="8.4248452"><ele>0.0</ele><time>2026-04-26T12:36:09.468Z</time></trkpt><trkpt lat="44.1959812" lon="8.4247932"><ele>0.0</ele><time>2026-04-26T12:36:10.865Z</time></trkpt><trkpt lat="44.1953723" lon="8.4246363"><ele>10.4</ele><time>2026-04-26T12:36:16.066Z</time></trkpt><trkpt lat="44.1952207" lon="8.4245515"><ele>20.8</ele><time>2026-04-26T12:36:17.473Z</time></trkpt><trkpt lat="44.1951403" lon="8.4245165"><ele>31.200000000000003</ele><time>2026-04-26T12:36:18.475Z</time></trkpt><trkpt lat="44.1950633" lon="8.4244643"><ele>41.6</ele><time>2026-04-26T12:36:19.479Z</time></trkpt><trkpt lat="44.194987" lon="8.4244148"><ele>52.0</ele><time>2026-04-26T12:36:20.477Z</time></trkpt><trkpt lat="44.19493" lon="8.4243373"><ele>51.99999999999999</ele><time>2026-04-26T12:36:21.473Z</time></trkpt><trkpt lat="44.1948983" lon="8.4242382"><ele>52.0</ele><time>2026-04-26T12:36:22.473Z</time></trkpt><trkpt lat="44.1948732" lon="8.4241193"><ele>52.0</ele><time>2026-04-26T12:36:23.473Z</time></trkpt><trkpt lat="44.1948405" lon="8.423998"><ele>52.0</ele><time>2026-04-26T12:36:24.475Z</time></trkpt><trkpt lat="44.194782" lon="8.423903"><ele>51.99999999999999</ele><time>2026-04-26T12:36:25.475Z</time></trkpt><trkpt lat="44.1947098" lon="8.4238278"><ele>52.0</ele><time>2026-04-26T12:36:26.477Z</time></trkpt><trkpt lat="44.1946315" lon="8.4237672"><ele>48.6</ele><time>2026-04-26T12:36:27.477Z</time></trkpt><trkpt lat="44.1945555" lon="8.423707"><ele>45.2</ele><time>2026-04-26T12:36:28.476Z</time></trkpt><trkpt lat="44.1944843" lon="8.4236292"><ele>41.8</ele><time>2026-04-26T12:36:29.477Z</time></trkpt><trkpt lat="44.1944185" lon="8.4235318"><ele>38.4</ele><time>2026-04-26T12:36:30.477Z</time></trkpt><trkpt lat="44.1943603" lon="8.4234285"><ele>35.0</ele><time>2026-04-26T12:36:31.476Z</time></trkpt><trkpt lat="44.19431" lon="8.4233177"><ele>35.0</ele><time>2026-04-26T12:36:32.474Z</time></trkpt><trkpt lat="44.1942572" lon="8.4232065"><ele>35.0</ele><time>2026-04-26T12:36:33.475Z</time></trkpt><trkpt lat="44.1941897" lon="8.4231113"><ele>35.0</ele><time>2026-04-26T12:36:34.478Z</time></trkpt><trkpt lat="44.1941088" lon="8.4230315"><ele>35.0</ele><time>2026-04-26T12:36:35.481Z</time></trkpt><trkpt lat="44.1940137" lon="8.4229713"><ele>35.0</ele><time>2026-04-26T12:36:36.479Z</time></trkpt><trkpt lat="44.1939105" lon="8.4229448"><ele>36.2</ele><time>2026-04-26T12:36:37.481Z</time></trkpt><trkpt lat="44.1938058" lon="8.4229462"><ele>37.4</ele><time>2026-04-26T12:36:38.481Z</time></trkpt><trkpt lat="44.1937077" lon="8.4229488"><ele>38.599999999999994</ele><time>2026-04-26T12:36:39.48Z</time></trkpt><trkpt lat="44.1936148" lon="8.4229315"><ele>39.8</ele><time>2026-04-26T12:36:40.48Z</time></trkpt><trkpt lat="44.1935228" lon="8.4228915"><ele>41.0</ele><time>2026-04-26T12:36:41.48Z</time></trkpt><trkpt lat="44.193432" lon="8.4228367"><ele>41.0</ele><time>2026-04-26T12:36:42.479Z</time></trkpt><trkpt lat="44.1933438" lon="8.4227675"><ele>41.0</ele><time>2026-04-26T12:36:43.477Z</time></trkpt><trkpt lat="44.1932568" lon="8.4226872"><ele>41.0</ele><time>2026-04-26T12:36:44.477Z</time></trkpt><trkpt lat="44.1931803" lon="8.422578"><ele>41.0</ele><time>2026-04-26T12:36:45.477Z</time></trkpt><trkpt lat="44.193111" lon="8.4224495"><ele>41.0</ele><time>2026-04-26T12:36:46.475Z</time></trkpt><trkpt lat="44.1930428" lon="8.422329"><ele>40.8</ele><time>2026-04-26T12:36:47.476Z</time></trkpt><trkpt lat="44.192969" lon="8.4222393"><ele>40.599999999999994</ele><time>2026-04-26T12:36:48.478Z</time></trkpt><trkpt lat="44.1928888" lon="8.422171"><ele>40.4</ele><time>2026-04-26T12:36:49.48Z</time></trkpt><trkpt lat="44.1928083" lon="8.4220967"><ele>40.2</ele><time>2026-04-26T12:36:50.479Z</time></trkpt><trkpt lat="44.1927385" lon="8.4220002"><ele>40.0</ele><time>2026-04-26T12:36:51.479Z</time></trkpt><trkpt lat="44.1926882" lon="8.4218858"><ele>40.0</ele><time>2026-04-26T12:36:52.478Z</time></trkpt><trkpt lat="44.1926623" lon="8.4217653"><ele>40.0</ele><time>2026-04-26T12:36:53.475Z</time></trkpt><trkpt lat="44.1926648" lon="8.4216338"><ele>40.0</ele><time>2026-04-26T12:36:54.479Z</time></trkpt><trkpt lat="44.1926617" lon="8.4215085"><ele>40.0</ele><time>2026-04-26T12:36:55.475Z</time></trkpt><trkpt lat="44.192633" lon="8.4213867"><ele>40.0</ele><time>2026-04-26T12:36:56.474Z</time></trkpt><trkpt lat="44.1925878" lon="8.4212713"><ele>43.0</ele><time>2026-04-26T12:36:57.473Z</time></trkpt><trkpt lat="44.1925267" lon="8.4211562"><ele>46.0</ele><time>2026-04-26T12:36:58.474Z</time></trkpt><trkpt lat="44.1924718" lon="8.4210465"><ele>49.0</ele><time>2026-04-26T12:36:59.475Z</time></trkpt><trkpt lat="44.1924203" lon="8.4209298"><ele>52.0</ele><time>2026-04-26T12:37:00.477Z</time></trkpt><trkpt lat="44.192362" lon="8.4208127"><ele>55.0</ele><time>2026-04-26T12:37:01.476Z</time></trkpt><trkpt lat="44.1922965" lon="8.420707"><ele>46.6</ele><time>2026-04-26T12:37:02.475Z</time></trkpt><trkpt lat="44.1922237" lon="8.4206095"><ele>38.2</ele><time>2026-04-26T12:37:03.476Z</time></trkpt><trkpt lat="44.1921482" lon="8.420514"><ele>29.8</ele><time>2026-04-26T12:37:04.477Z</time></trkpt><trkpt lat="44.1920718" lon="8.4204175"><ele>21.4</ele><time>2026-04-26T12:37:05.476Z</time></trkpt><trkpt lat="44.1919963" lon="8.4203138"><ele>13.0</ele><time>2026-04-26T12:37:06.475Z</time></trkpt><trkpt lat="44.191926" lon="8.4202015"><ele>13.0</ele><time>2026-04-26T12:37:07.473Z</time></trkpt><trkpt lat="44.1918625" lon="8.4200847"><ele>13.0</ele><time>2026-04-26T12:37:08.474Z</time></trkpt><trkpt lat="44.191808" lon="8.4199602"><ele>13.0</ele><time>2026-04-26T12:37:09.474Z</time></trkpt><trkpt lat="44.191765" lon="8.4198198"><ele>13.0</ele><time>2026-04-26T12:37:10.474Z</time></trkpt><trkpt lat="44.1917357" lon="8.4196625"><ele>13.0</ele><time>2026-04-26T12:37:11.478Z</time></trkpt><trkpt lat="44.191717" lon="8.4194898"><ele>16.0</ele><time>2026-04-26T12:37:12.479Z</time></trkpt><trkpt lat="44.1917047" lon="8.4193107"><ele>19.0</ele><time>2026-04-26T12:37:13.478Z</time></trkpt><trkpt lat="44.1916937" lon="8.4191327"><ele>22.0</ele><time>2026-04-26T12:37:14.48Z</time></trkpt><trkpt lat="44.1916832" lon="8.4189645"><ele>25.0</ele><time>2026-04-26T12:37:15.478Z</time></trkpt><trkpt lat="44.1916728" lon="8.4188007"><ele>25.0</ele><time>2026-04-26T12:37:16.479Z</time></trkpt><trkpt lat="44.1916612" lon="8.418633"><ele>25.0</ele><time>2026-04-26T12:37:17.479Z</time></trkpt><trkpt lat="44.191649" lon="8.4184615"><ele>25.0</ele><time>2026-04-26T12:37:18.478Z</time></trkpt><trkpt lat="44.1916377" lon="8.4182868"><ele>25.0</ele><time>2026-04-26T12:37:19.478Z</time></trkpt><trkpt lat="44.1916258" lon="8.418109"><ele>25.0</ele><time>2026-04-26T12:37:20.475Z</time></trkpt><trkpt lat="44.1916142" lon="8.4179253"><ele>25.0</ele><time>2026-04-26T12:37:21.475Z</time></trkpt><trkpt lat="44.1915973" lon="8.4177358"><ele>25.0</ele><time>2026-04-26T12:37:22.475Z</time></trkpt><trkpt lat="44.191568" lon="8.4175393"><ele>25.0</ele><time>2026-04-26T12:37:23.476Z</time></trkpt><trkpt lat="44.1915223" lon="8.4173397"><ele>19.5</ele><time>2026-04-26T12:37:24.479Z</time></trkpt><trkpt lat="44.1914568" lon="8.4171432"><ele>14.0</ele><time>2026-04-26T12:37:25.479Z</time></trkpt><trkpt lat="44.1913778" lon="8.4169628"><ele>8.5</ele><time>2026-04-26T12:37:26.479Z</time></trkpt><trkpt lat="44.1912957" lon="8.4168015"><ele>3.0</ele><time>2026-04-26T12:37:27.478Z</time></trkpt><trkpt lat="44.1912105" lon="8.4166488"><ele>3.0</ele><time>2026-04-26T12:37:28.478Z</time></trkpt><trkpt lat="44.1911273" lon="8.4165038"><ele>3.0</ele><time>2026-04-26T12:37:29.479Z</time></trkpt><trkpt lat="44.1910522" lon="8.4163717"><ele>3.0</ele><time>2026-04-26T12:37:30.477Z</time></trkpt><trkpt lat="44.1909807" lon="8.416243"><ele>3.0</ele><time>2026-04-26T12:37:31.479Z</time></trkpt><trkpt lat="44.1909072" lon="8.4161103"><ele>3.5</ele><time>2026-04-26T12:37:32.478Z</time></trkpt><trkpt lat="44.1908303" lon="8.415974"><ele>4.0</ele><time>2026-04-26T12:37:33.479Z</time></trkpt><trkpt lat="44.190751" lon="8.4158358"><ele>4.5</ele><time>2026-04-26T12:37:34.481Z</time></trkpt><trkpt lat="44.1906707" lon="8.415696"><ele>5.0</ele><time>2026-04-26T12:37:35.479Z</time></trkpt><trkpt lat="44.1905877" lon="8.415555"><ele>10.25</ele><time>2026-04-26T12:37:36.479Z</time></trkpt><trkpt lat="44.1905055" lon="8.415405"><ele>15.5</ele><time>2026-04-26T12:37:37.477Z</time></trkpt><trkpt lat="44.1904222" lon="8.41525"><ele>20.75</ele><time>2026-04-26T12:37:38.479Z</time></trkpt><trkpt lat="44.1903367" lon="8.4150902"><ele>26.0</ele><time>2026-04-26T12:37:39.479Z</time></trkpt><trkpt lat="44.1902508" lon="8.4149265"><ele>26.0</ele><time>2026-04-26T12:37:40.479Z</time></trkpt><trkpt lat="44.19017" lon="8.4147623"><ele>26.0</ele><time>2026-04-26T12:37:41.479Z</time></trkpt><trkpt lat="44.1900955" lon="8.414597"><ele>26.0</ele><time>2026-04-26T12:37:42.476Z</time></trkpt><trkpt lat="44.1900193" lon="8.4144358"><ele>26.0</ele><time>2026-04-26T12:37:43.474Z</time></trkpt><trkpt lat="44.189924" lon="8.414266"><ele>18.5</ele><time>2026-04-26T12:37:44.467Z</time></trkpt><trkpt lat="44.189678" lon="8.4138407"><ele>11.0</ele><time>2026-04-26T12:37:47.065Z</time></trkpt><trkpt lat="44.1895543" lon="8.4136105"><ele>11.0</ele><time>2026-04-26T12:37:48.468Z</time></trkpt><trkpt lat="44.1894737" lon="8.4134558"><ele>11.0</ele><time>2026-04-26T12:37:49.468Z</time></trkpt><trkpt lat="44.1891215" lon="8.4126998"><ele>11.666666666666666</ele><time>2026-04-26T12:37:54.066Z</time></trkpt><trkpt lat="44.1890893" lon="8.4123732"><ele>12.333333333333332</ele><time>2026-04-26T12:37:55.476Z</time></trkpt><trkpt lat="44.189036" lon="8.4121567"><ele>13.0</ele><time>2026-04-26T12:37:56.476Z</time></trkpt><trkpt lat="44.188959" lon="8.4119795"><ele>13.0</ele><time>2026-04-26T12:37:57.489Z</time></trkpt><trkpt lat="44.1888865" lon="8.411811"><ele>13.0</ele><time>2026-04-26T12:37:58.481Z</time></trkpt><trkpt lat="44.1888167" lon="8.4116533"><ele>13.0</ele><time>2026-04-26T12:37:59.477Z</time></trkpt><trkpt lat="44.1887485" lon="8.4115005"><ele>13.0</ele><time>2026-04-26T12:38:00.479Z</time></trkpt><trkpt lat="44.1886795" lon="8.4113458"><ele>18.25</ele><time>2026-04-26T12:38:01.479Z</time></trkpt><trkpt lat="44.1886105" lon="8.4111867"><ele>23.5</ele><time>2026-04-26T12:38:02.477Z</time></trkpt><trkpt lat="44.188541" lon="8.4110252"><ele>28.75</ele><time>2026-04-26T12:38:03.479Z</time></trkpt><trkpt lat="44.1884697" lon="8.4108653"><ele>34.0</ele><time>2026-04-26T12:38:04.485Z</time></trkpt><trkpt lat="44.1883958" lon="8.4107108"><ele>34.0</ele><time>2026-04-26T12:38:05.476Z</time></trkpt><trkpt lat="44.1883195" lon="8.4105618"><ele>34.0</ele><time>2026-04-26T12:38:06.48Z</time></trkpt><trkpt lat="44.1882445" lon="8.410422"><ele>34.0</ele><time>2026-04-26T12:38:07.479Z</time></trkpt><trkpt lat="44.1881715" lon="8.4102918"><ele>34.0</ele><time>2026-04-26T12:38:08.478Z</time></trkpt><trkpt lat="44.1880985" lon="8.4101658"><ele>25.75</ele><time>2026-04-26T12:38:09.478Z</time></trkpt><trkpt lat="44.1880225" lon="8.410042"><ele>17.5</ele><time>2026-04-26T12:38:10.477Z</time></trkpt><trkpt lat="44.18794" lon="8.4099195"><ele>9.25</ele><time>2026-04-26T12:38:11.477Z</time></trkpt><trkpt lat="44.1878545" lon="8.4097987"><ele>1.0</ele><time>2026-04-26T12:38:12.479Z</time></trkpt><trkpt lat="44.1877685" lon="8.409686"><ele>3.75</ele><time>2026-04-26T12:38:13.481Z</time></trkpt><trkpt lat="44.1876822" lon="8.4095803"><ele>6.5</ele><time>2026-04-26T12:38:14.481Z</time></trkpt><trkpt lat="44.1875947" lon="8.4094772"><ele>9.25</ele><time>2026-04-26T12:38:15.481Z</time></trkpt><trkpt lat="44.1875043" lon="8.4093722"><ele>12.0</ele><time>2026-04-26T12:38:16.479Z</time></trkpt><trkpt lat="44.1874105" lon="8.4092685"><ele>9.25</ele><time>2026-04-26T12:38:17.479Z</time></trkpt><trkpt lat="44.1873113" lon="8.4091727"><ele>6.5</ele><time>2026-04-26T12:38:18.479Z</time></trkpt><trkpt lat="44.1872055" lon="8.409093"><ele>3.75</ele><time>2026-04-26T12:38:19.481Z</time></trkpt><trkpt lat="44.1870972" lon="8.4090315"><ele>1.0</ele><time>2026-04-26T12:38:20.479Z</time></trkpt><trkpt lat="44.1869877" lon="8.408981"><ele>1.0</ele><time>2026-04-26T12:38:21.481Z</time></trkpt><trkpt lat="44.1868777" lon="8.4089265"><ele>1.0</ele><time>2026-04-26T12:38:22.479Z</time></trkpt><trkpt lat="44.1867708" lon="8.408857"><ele>1.0</ele><time>2026-04-26T12:38:23.478Z</time></trkpt><trkpt lat="44.1866705" lon="8.4087637"><ele>1.0</ele><time>2026-04-26T12:38:24.477Z</time></trkpt><trkpt lat="44.1865775" lon="8.4086503"><ele>1.75</ele><time>2026-04-26T12:38:25.477Z</time></trkpt><trkpt lat="44.1864908" lon="8.4085223"><ele>2.5</ele><time>2026-04-26T12:38:26.478Z</time></trkpt><trkpt lat="44.186408" lon="8.4083873"><ele>3.25</ele><time>2026-04-26T12:38:27.479Z</time></trkpt><trkpt lat="44.1863282" lon="8.4082503"><ele>4.0</ele><time>2026-04-26T12:38:28.48Z</time></trkpt><trkpt lat="44.1862513" lon="8.4081133"><ele>6.0</ele><time>2026-04-26T12:38:29.48Z</time></trkpt><trkpt lat="44.1861783" lon="8.4079748"><ele>8.0</ele><time>2026-04-26T12:38:30.479Z</time></trkpt><trkpt lat="44.1861045" lon="8.4078512"><ele>10.0</ele><time>2026-04-26T12:38:31.479Z</time></trkpt><trkpt lat="44.1860235" lon="8.4077412"><ele>12.0</ele><time>2026-04-26T12:38:32.479Z</time></trkpt><trkpt lat="44.1859288" lon="8.4076347"><ele>12.0</ele><time>2026-04-26T12:38:33.479Z</time></trkpt><trkpt lat="44.1858125" lon="8.4075307"><ele>12.0</ele><time>2026-04-26T12:38:34.476Z</time></trkpt><trkpt lat="44.1856705" lon="8.4074225"><ele>12.0</ele><time>2026-04-26T12:38:35.477Z</time></trkpt><trkpt lat="44.1855132" lon="8.4072935"><ele>13.0</ele><time>2026-04-26T12:38:36.477Z</time></trkpt><trkpt lat="44.1853543" lon="8.4071512"><ele>14.0</ele><time>2026-04-26T12:38:37.479Z</time></trkpt><trkpt lat="44.1851973" lon="8.4070068"><ele>15.0</ele><time>2026-04-26T12:38:38.479Z</time></trkpt><trkpt lat="44.1850418" lon="8.4068653"><ele>15.0</ele><time>2026-04-26T12:38:39.479Z</time></trkpt><trkpt lat="44.184885" lon="8.4067338"><ele>15.0</ele><time>2026-04-26T12:38:40.479Z</time></trkpt><trkpt lat="44.1847253" lon="8.4066065"><ele>15.0</ele><time>2026-04-26T12:38:41.479Z</time></trkpt><trkpt lat="44.1845763" lon="8.4064893"><ele>12.333333333333334</ele><time>2026-04-26T12:38:42.479Z</time></trkpt><trkpt lat="44.1844337" lon="8.4063747"><ele>9.666666666666668</ele><time>2026-04-26T12:38:43.479Z</time></trkpt><trkpt lat="44.184293" lon="8.4062582"><ele>7.0</ele><time>2026-04-26T12:38:44.478Z</time></trkpt><trkpt lat="44.184152" lon="8.4061382"><ele>8.666666666666668</ele><time>2026-04-26T12:38:45.479Z</time></trkpt><trkpt lat="44.1840132" lon="8.4060068"><ele>10.333333333333334</ele><time>2026-04-26T12:38:46.477Z</time></trkpt><trkpt lat="44.1838783" lon="8.4058703"><ele>12.0</ele><time>2026-04-26T12:38:47.477Z</time></trkpt><trkpt lat="44.1837527" lon="8.4057427"><ele>12.0</ele><time>2026-04-26T12:38:48.478Z</time></trkpt><trkpt lat="44.1836342" lon="8.4056173"><ele>12.0</ele><time>2026-04-26T12:38:49.478Z</time></trkpt><trkpt lat="44.1835187" lon="8.4054925"><ele>12.0</ele><time>2026-04-26T12:38:50.478Z</time></trkpt><trkpt lat="44.1834148" lon="8.4053668"><ele>12.0</ele><time>2026-04-26T12:38:51.478Z</time></trkpt><trkpt lat="44.1833262" lon="8.4052302"><ele>15.333333333333332</ele><time>2026-04-26T12:38:52.475Z</time></trkpt><trkpt lat="44.1832435" lon="8.4050668"><ele>18.666666666666664</ele><time>2026-04-26T12:38:53.476Z</time></trkpt><trkpt lat="44.1831607" lon="8.4048763"><ele>22.0</ele><time>2026-04-26T12:38:54.474Z</time></trkpt><trkpt lat="44.1830778" lon="8.404683"><ele>16.0</ele><time>2026-04-26T12:38:55.472Z</time></trkpt><trkpt lat="44.182756" lon="8.4039328"><ele>15.0</ele><time>2026-04-26T12:38:59.867Z</time></trkpt><trkpt lat="44.1826653" lon="8.403651"><ele>14.0</ele><time>2026-04-26T12:39:01.47Z</time></trkpt><trkpt lat="44.1826027" lon="8.4034415"><ele>13.0</ele><time>2026-04-26T12:39:02.474Z</time></trkpt><trkpt lat="44.1825458" lon="8.4032288"><ele>13.0</ele><time>2026-04-26T12:39:03.475Z</time></trkpt><trkpt lat="44.1824903" lon="8.4030012"><ele>13.0</ele><time>2026-04-26T12:39:04.475Z</time></trkpt><trkpt lat="44.1824352" lon="8.4027668"><ele>13.0</ele><time>2026-04-26T12:39:05.475Z</time></trkpt><trkpt lat="44.1823823" lon="8.4025328"><ele>12.0</ele><time>2026-04-26T12:39:06.485Z</time></trkpt><trkpt lat="44.182334" lon="8.4023117"><ele>11.0</ele><time>2026-04-26T12:39:07.474Z</time></trkpt><trkpt lat="44.1822828" lon="8.4020917"><ele>10.0</ele><time>2026-04-26T12:39:08.483Z</time></trkpt><trkpt lat="44.1822312" lon="8.4018707"><ele>10.0</ele><time>2026-04-26T12:39:09.481Z</time></trkpt><trkpt lat="44.1821825" lon="8.4016558"><ele>10.0</ele><time>2026-04-26T12:39:10.473Z</time></trkpt><trkpt lat="44.1821388" lon="8.4014568"><ele>10.0</ele><time>2026-04-26T12:39:11.475Z</time></trkpt><trkpt lat="44.1820937" lon="8.4012642"><ele>9.5</ele><time>2026-04-26T12:39:12.475Z</time></trkpt><trkpt lat="44.1820463" lon="8.4010692"><ele>9.0</ele><time>2026-04-26T12:39:13.474Z</time></trkpt><trkpt lat="44.1820017" lon="8.4008703"><ele>8.5</ele><time>2026-04-26T12:39:14.475Z</time></trkpt><trkpt lat="44.181961" lon="8.4006788"><ele>8.0</ele><time>2026-04-26T12:39:15.476Z</time></trkpt><trkpt lat="44.1819178" lon="8.400501"><ele>8.25</ele><time>2026-04-26T12:39:16.476Z</time></trkpt><trkpt lat="44.1818763" lon="8.400336"><ele>8.5</ele><time>2026-04-26T12:39:17.476Z</time></trkpt><trkpt lat="44.1818407" lon="8.4001772"><ele>8.75</ele><time>2026-04-26T12:39:18.474Z</time></trkpt><trkpt lat="44.1818083" lon="8.4000198"><ele>9.0</ele><time>2026-04-26T12:39:19.474Z</time></trkpt><trkpt lat="44.1817808" lon="8.3998735"><ele>9.0</ele><time>2026-04-26T12:39:20.474Z</time></trkpt><trkpt lat="44.1817643" lon="8.3997687"><ele>9.0</ele><time>2026-04-26T12:39:21.476Z</time></trkpt><trkpt lat="44.1817505" lon="8.3996773"><ele>9.0</ele><time>2026-04-26T12:39:29.478Z</time></trkpt><trkpt lat="44.181737" lon="8.3995515"><ele>9.0</ele><time>2026-04-26T12:39:31.478Z</time></trkpt><trkpt lat="44.1817275" lon="8.39944"><ele>9.0</ele><time>2026-04-26T12:39:32.476Z</time></trkpt><trkpt lat="44.1817208" lon="8.3993068"><ele>9.0</ele><time>2026-04-26T12:39:33.48Z</time></trkpt><trkpt lat="44.1817153" lon="8.399164"><ele>9.0</ele><time>2026-04-26T12:39:34.478Z</time></trkpt><trkpt lat="44.1817127" lon="8.3990057"><ele>9.0</ele><time>2026-04-26T12:39:35.478Z</time></trkpt><trkpt lat="44.1817102" lon="8.3988347"><ele>9.0</ele><time>2026-04-26T12:39:36.479Z</time></trkpt><trkpt lat="44.1817055" lon="8.39866"><ele>9.0</ele><time>2026-04-26T12:39:37.479Z</time></trkpt><trkpt lat="44.1817003" lon="8.3984855"><ele>8.75</ele><time>2026-04-26T12:39:38.478Z</time></trkpt><trkpt lat="44.1816957" lon="8.3983113"><ele>8.5</ele><time>2026-04-26T12:39:39.48Z</time></trkpt><trkpt lat="44.1816945" lon="8.3981367"><ele>8.25</ele><time>2026-04-26T12:39:40.479Z</time></trkpt><trkpt lat="44.181693" lon="8.3979618"><ele>8.0</ele><time>2026-04-26T12:39:41.478Z</time></trkpt><trkpt lat="44.181689" lon="8.3977867"><ele>7.5</ele><time>2026-04-26T12:39:42.48Z</time></trkpt><trkpt lat="44.1816863" lon="8.3976127"><ele>7.0</ele><time>2026-04-26T12:39:43.481Z</time></trkpt><trkpt lat="44.1816847" lon="8.3974322"><ele>6.5</ele><time>2026-04-26T12:39:44.479Z</time></trkpt><trkpt lat="44.1816827" lon="8.3972485"><ele>6.0</ele><time>2026-04-26T12:39:45.48Z</time></trkpt><trkpt lat="44.181679" lon="8.3970635"><ele>6.0</ele><time>2026-04-26T12:39:46.478Z</time></trkpt><trkpt lat="44.1816755" lon="8.3968767"><ele>6.0</ele><time>2026-04-26T12:39:47.476Z</time></trkpt><trkpt lat="44.1816722" lon="8.3966865"><ele>6.0</ele><time>2026-04-26T12:39:48.477Z</time></trkpt><trkpt lat="44.1816693" lon="8.3964933"><ele>6.0</ele><time>2026-04-26T12:39:49.477Z</time></trkpt><trkpt lat="44.1816662" lon="8.3962973"><ele>6.25</ele><time>2026-04-26T12:39:50.477Z</time></trkpt><trkpt lat="44.1816622" lon="8.3961032"><ele>6.5</ele><time>2026-04-26T12:39:51.501Z</time></trkpt><trkpt lat="44.1816577" lon="8.3959128"><ele>6.75</ele><time>2026-04-26T12:39:52.48Z</time></trkpt><trkpt lat="44.1816537" lon="8.3957353"><ele>7.0</ele><time>2026-04-26T12:39:53.48Z</time></trkpt><trkpt lat="44.1816498" lon="8.3955707"><ele>7.25</ele><time>2026-04-26T12:39:54.484Z</time></trkpt><trkpt lat="44.1816462" lon="8.3954112"><ele>7.5</ele><time>2026-04-26T12:39:55.482Z</time></trkpt><trkpt lat="44.1816427" lon="8.3952512"><ele>7.75</ele><time>2026-04-26T12:39:56.481Z</time></trkpt><trkpt lat="44.1816387" lon="8.395091"><ele>8.0</ele><time>2026-04-26T12:39:57.481Z</time></trkpt><trkpt lat="44.1816348" lon="8.3949272"><ele>8.0</ele><time>2026-04-26T12:39:58.481Z</time></trkpt><trkpt lat="44.1816328" lon="8.3947583"><ele>8.0</ele><time>2026-04-26T12:39:59.485Z</time></trkpt><trkpt lat="44.1816312" lon="8.3945815"><ele>8.0</ele><time>2026-04-26T12:40:00.482Z</time></trkpt><trkpt lat="44.1816277" lon="8.3943945"><ele>8.0</ele><time>2026-04-26T12:40:01.482Z</time></trkpt><trkpt lat="44.1816235" lon="8.3941968"><ele>8.0</ele><time>2026-04-26T12:40:02.482Z</time></trkpt><trkpt lat="44.1816202" lon="8.3939927"><ele>8.0</ele><time>2026-04-26T12:40:03.481Z</time></trkpt><trkpt lat="44.1816175" lon="8.393787"><ele>8.0</ele><time>2026-04-26T12:40:04.48Z</time></trkpt><trkpt lat="44.1816145" lon="8.3935803"><ele>8.0</ele><time>2026-04-26T12:40:05.482Z</time></trkpt><trkpt lat="44.1816105" lon="8.3933713"><ele>7.666666666666666</ele><time>2026-04-26T12:40:06.481Z</time></trkpt><trkpt lat="44.1816062" lon="8.3931613"><ele>7.333333333333334</ele><time>2026-04-26T12:40:07.484Z</time></trkpt><trkpt lat="44.1816017" lon="8.3929515"><ele>7.0</ele><time>2026-04-26T12:40:08.482Z</time></trkpt><trkpt lat="44.1815973" lon="8.3927432"><ele>6.75</ele><time>2026-04-26T12:40:09.483Z</time></trkpt><trkpt lat="44.1815937" lon="8.3925355"><ele>6.5</ele><time>2026-04-26T12:40:10.483Z</time></trkpt><trkpt lat="44.1815908" lon="8.3923293"><ele>6.25</ele><time>2026-04-26T12:40:11.48Z</time></trkpt><trkpt lat="44.181588" lon="8.3921252"><ele>6.0</ele><time>2026-04-26T12:40:12.479Z</time></trkpt><trkpt lat="44.1815843" lon="8.3919232"><ele>6.5</ele><time>2026-04-26T12:40:13.478Z</time></trkpt><trkpt lat="44.1815805" lon="8.3917268"><ele>7.0</ele><time>2026-04-26T12:40:14.479Z</time></trkpt><trkpt lat="44.1815775" lon="8.3915447"><ele>7.5</ele><time>2026-04-26T12:40:15.481Z</time></trkpt><trkpt lat="44.181575" lon="8.3913697"><ele>8.0</ele><time>2026-04-26T12:40:16.479Z</time></trkpt><trkpt lat="44.181572" lon="8.3911977"><ele>8.0</ele><time>2026-04-26T12:40:17.478Z</time></trkpt><trkpt lat="44.1815685" lon="8.3910235"><ele>8.0</ele><time>2026-04-26T12:40:18.48Z</time></trkpt><trkpt lat="44.181565" lon="8.3908455"><ele>8.0</ele><time>2026-04-26T12:40:19.481Z</time></trkpt><trkpt lat="44.1815618" lon="8.390663"><ele>8.0</ele><time>2026-04-26T12:40:20.481Z</time></trkpt><trkpt lat="44.1815587" lon="8.3904782"><ele>8.5</ele><time>2026-04-26T12:40:21.482Z</time></trkpt><trkpt lat="44.1815557" lon="8.3902932"><ele>9.0</ele><time>2026-04-26T12:40:22.482Z</time></trkpt><trkpt lat="44.181552" lon="8.3901203"><ele>9.5</ele><time>2026-04-26T12:40:23.484Z</time></trkpt><trkpt lat="44.1815493" lon="8.3899617"><ele>10.0</ele><time>2026-04-26T12:40:24.482Z</time></trkpt><trkpt lat="44.1815478" lon="8.3898025"><ele>10.0</ele><time>2026-04-26T12:40:25.484Z</time></trkpt><trkpt lat="44.181547" lon="8.3896412"><ele>10.0</ele><time>2026-04-26T12:40:26.482Z</time></trkpt><trkpt lat="44.1815438" lon="8.3894743"><ele>10.0</ele><time>2026-04-26T12:40:27.482Z</time></trkpt><trkpt lat="44.1815402" lon="8.3893022"><ele>10.0</ele><time>2026-04-26T12:40:28.481Z</time></trkpt><trkpt lat="44.1815372" lon="8.3891252"><ele>10.0</ele><time>2026-04-26T12:40:29.481Z</time></trkpt><trkpt lat="44.1815352" lon="8.388943"><ele>10.0</ele><time>2026-04-26T12:40:30.482Z</time></trkpt><trkpt lat="44.1815325" lon="8.3887568"><ele>10.0</ele><time>2026-04-26T12:40:31.481Z</time></trkpt><trkpt lat="44.1815267" lon="8.388567"><ele>10.0</ele><time>2026-04-26T12:40:32.48Z</time></trkpt><trkpt lat="44.1815222" lon="8.3883762"><ele>9.75</ele><time>2026-04-26T12:40:33.481Z</time></trkpt><trkpt lat="44.1815183" lon="8.3881847"><ele>9.5</ele><time>2026-04-26T12:40:34.481Z</time></trkpt><trkpt lat="44.1815153" lon="8.3879937"><ele>9.25</ele><time>2026-04-26T12:40:35.48Z</time></trkpt><trkpt lat="44.1815133" lon="8.3878027"><ele>9.0</ele><time>2026-04-26T12:40:36.477Z</time></trkpt><trkpt lat="44.1815108" lon="8.3876102"><ele>8.0</ele><time>2026-04-26T12:40:37.477Z</time></trkpt><trkpt lat="44.1815062" lon="8.387421"><ele>7.0</ele><time>2026-04-26T12:40:38.48Z</time></trkpt><trkpt lat="44.1814982" lon="8.387251"><ele>6.0</ele><time>2026-04-26T12:40:39.479Z</time></trkpt><trkpt lat="44.1814905" lon="8.3870773"><ele>5.0</ele><time>2026-04-26T12:40:40.483Z</time></trkpt><trkpt lat="44.1814783" lon="8.3868962"><ele>5.0</ele><time>2026-04-26T12:40:41.481Z</time></trkpt><trkpt lat="44.1814498" lon="8.3867118"><ele>5.0</ele><time>2026-04-26T12:40:42.482Z</time></trkpt><trkpt lat="44.1814052" lon="8.3865282"><ele>5.0</ele><time>2026-04-26T12:40:43.481Z</time></trkpt><trkpt lat="44.1813517" lon="8.3863495"><ele>5.0</ele><time>2026-04-26T12:40:44.481Z</time></trkpt><trkpt lat="44.1812955" lon="8.3861773"><ele>5.5</ele><time>2026-04-26T12:40:45.48Z</time></trkpt><trkpt lat="44.1812403" lon="8.3860102"><ele>6.0</ele><time>2026-04-26T12:40:46.48Z</time></trkpt><trkpt lat="44.1811873" lon="8.385845"><ele>6.5</ele><time>2026-04-26T12:40:47.48Z</time></trkpt><trkpt lat="44.1811385" lon="8.3856797"><ele>7.0</ele><time>2026-04-26T12:40:48.483Z</time></trkpt><trkpt lat="44.181095" lon="8.3855115"><ele>7.5</ele><time>2026-04-26T12:40:49.481Z</time></trkpt><trkpt lat="44.1810585" lon="8.3853475"><ele>8.0</ele><time>2026-04-26T12:40:50.482Z</time></trkpt><trkpt lat="44.181031" lon="8.385189"><ele>8.5</ele><time>2026-04-26T12:40:51.482Z</time></trkpt><trkpt lat="44.1810095" lon="8.3850322"><ele>9.0</ele><time>2026-04-26T12:40:52.483Z</time></trkpt><trkpt lat="44.180991" lon="8.3848783"><ele>9.0</ele><time>2026-04-26T12:40:53.482Z</time></trkpt><trkpt lat="44.1809715" lon="8.384724"><ele>9.0</ele><time>2026-04-26T12:40:54.483Z</time></trkpt><trkpt lat="44.1809488" lon="8.3845553"><ele>9.0</ele><time>2026-04-26T12:40:55.482Z</time></trkpt><trkpt lat="44.180929" lon="8.3843688"><ele>9.0</ele><time>2026-04-26T12:40:56.481Z</time></trkpt><trkpt lat="44.1809095" lon="8.3841682"><ele>9.5</ele><time>2026-04-26T12:40:57.483Z</time></trkpt><trkpt lat="44.1808905" lon="8.383963"><ele>10.0</ele><time>2026-04-26T12:40:58.482Z</time></trkpt><trkpt lat="44.18087" lon="8.3837567"><ele>10.5</ele><time>2026-04-26T12:40:59.481Z</time></trkpt><trkpt lat="44.1808383" lon="8.3835498"><ele>11.0</ele><time>2026-04-26T12:41:00.48Z</time></trkpt><trkpt lat="44.1807872" lon="8.3833462"><ele>9.333333333333332</ele><time>2026-04-26T12:41:01.477Z</time></trkpt><trkpt lat="44.1807155" lon="8.38315"><ele>7.666666666666666</ele><time>2026-04-26T12:41:02.479Z</time></trkpt><trkpt lat="44.1806278" lon="8.3829598"><ele>6.0</ele><time>2026-04-26T12:41:03.478Z</time></trkpt><trkpt lat="44.180533" lon="8.3827747"><ele>6.0</ele><time>2026-04-26T12:41:04.482Z</time></trkpt><trkpt lat="44.1804407" lon="8.3825932"><ele>6.0</ele><time>2026-04-26T12:41:05.482Z</time></trkpt><trkpt lat="44.1803522" lon="8.3824155"><ele>6.0</ele><time>2026-04-26T12:41:06.482Z</time></trkpt><trkpt lat="44.1802703" lon="8.3822397"><ele>8.0</ele><time>2026-04-26T12:41:07.483Z</time></trkpt><trkpt lat="44.1801993" lon="8.3820557"><ele>10.0</ele><time>2026-04-26T12:41:08.482Z</time></trkpt><trkpt lat="44.180139" lon="8.3818563"><ele>12.0</ele><time>2026-04-26T12:41:09.482Z</time></trkpt><trkpt lat="44.1800855" lon="8.3816438"><ele>12.0</ele><time>2026-04-26T12:41:10.482Z</time></trkpt><trkpt lat="44.1800342" lon="8.3814208"><ele>12.0</ele><time>2026-04-26T12:41:11.483Z</time></trkpt><trkpt lat="44.1799847" lon="8.3811872"><ele>12.0</ele><time>2026-04-26T12:41:12.483Z</time></trkpt><trkpt lat="44.1799367" lon="8.3809475"><ele>14.0</ele><time>2026-04-26T12:41:13.482Z</time></trkpt><trkpt lat="44.1798883" lon="8.3807073"><ele>16.0</ele><time>2026-04-26T12:41:14.482Z</time></trkpt><trkpt lat="44.1798405" lon="8.3804677"><ele>18.0</ele><time>2026-04-26T12:41:15.483Z</time></trkpt><trkpt lat="44.1797933" lon="8.3802272"><ele>14.666666666666666</ele><time>2026-04-26T12:41:16.484Z</time></trkpt><trkpt lat="44.1797465" lon="8.3799858"><ele>11.333333333333332</ele><time>2026-04-26T12:41:17.481Z</time></trkpt><trkpt lat="44.1797008" lon="8.3797445"><ele>8.0</ele><time>2026-04-26T12:41:18.483Z</time></trkpt><trkpt lat="44.1796547" lon="8.3795023"><ele>8.0</ele><time>2026-04-26T12:41:19.482Z</time></trkpt><trkpt lat="44.1796067" lon="8.3792598"><ele>8.0</ele><time>2026-04-26T12:41:20.481Z</time></trkpt><trkpt lat="44.1795573" lon="8.379018"><ele>8.0</ele><time>2026-04-26T12:41:21.482Z</time></trkpt><trkpt lat="44.1795082" lon="8.3787773"><ele>9.0</ele><time>2026-04-26T12:41:22.482Z</time></trkpt><trkpt lat="44.1794593" lon="8.3785398"><ele>10.0</ele><time>2026-04-26T12:41:23.48Z</time></trkpt><trkpt lat="44.1794132" lon="8.3783093"><ele>11.0</ele><time>2026-04-26T12:41:24.481Z</time></trkpt><trkpt lat="44.1793682" lon="8.3780843"><ele>12.0</ele><time>2026-04-26T12:41:25.48Z</time></trkpt><trkpt lat="44.1793227" lon="8.3778568"><ele>13.0</ele><time>2026-04-26T12:41:26.479Z</time></trkpt><trkpt lat="44.1792792" lon="8.3776252"><ele>14.0</ele><time>2026-04-26T12:41:27.481Z</time></trkpt><trkpt lat="44.1792383" lon="8.3773877"><ele>16.0</ele><time>2026-04-26T12:41:28.481Z</time></trkpt><trkpt lat="44.1791975" lon="8.3771403"><ele>18.0</ele><time>2026-04-26T12:41:29.482Z</time></trkpt><trkpt lat="44.1791503" lon="8.3768882"><ele>20.0</ele><time>2026-04-26T12:41:30.482Z</time></trkpt><trkpt lat="44.1790942" lon="8.3766363"><ele>20.0</ele><time>2026-04-26T12:41:31.482Z</time></trkpt><trkpt lat="44.1790335" lon="8.3763818"><ele>20.0</ele><time>2026-04-26T12:41:32.481Z</time></trkpt><trkpt lat="44.1789735" lon="8.3761272"><ele>20.0</ele><time>2026-04-26T12:41:33.481Z</time></trkpt><trkpt lat="44.178918" lon="8.3758717"><ele>15.333333333333334</ele><time>2026-04-26T12:41:34.481Z</time></trkpt><trkpt lat="44.1788683" lon="8.3756113"><ele>10.666666666666668</ele><time>2026-04-26T12:41:35.48Z</time></trkpt><trkpt lat="44.178825" lon="8.3753472"><ele>6.0</ele><time>2026-04-26T12:41:36.481Z</time></trkpt><trkpt lat="44.1787875" lon="8.3750835"><ele>6.0</ele><time>2026-04-26T12:41:37.482Z</time></trkpt><trkpt lat="44.1787533" lon="8.374824"><ele>6.0</ele><time>2026-04-26T12:41:38.481Z</time></trkpt><trkpt lat="44.1787197" lon="8.37457"><ele>6.0</ele><time>2026-04-26T12:41:39.483Z</time></trkpt><trkpt lat="44.1786835" lon="8.374322"><ele>7.0</ele><time>2026-04-26T12:41:40.481Z</time></trkpt><trkpt lat="44.1786437" lon="8.3740782"><ele>8.0</ele><time>2026-04-26T12:41:41.48Z</time></trkpt><trkpt lat="44.1785998" lon="8.3738363"><ele>9.0</ele><time>2026-04-26T12:41:42.482Z</time></trkpt><trkpt lat="44.1785502" lon="8.3735928"><ele>9.0</ele><time>2026-04-26T12:41:43.481Z</time></trkpt><trkpt lat="44.1784967" lon="8.3733448"><ele>9.0</ele><time>2026-04-26T12:41:44.481Z</time></trkpt><trkpt lat="44.1784415" lon="8.3730935"><ele>9.0</ele><time>2026-04-26T12:41:45.482Z</time></trkpt><trkpt lat="44.1783855" lon="8.3728407"><ele>10.666666666666668</ele><time>2026-04-26T12:41:46.481Z</time></trkpt><trkpt lat="44.1783283" lon="8.3725887"><ele>12.333333333333334</ele><time>2026-04-26T12:41:47.482Z</time></trkpt><trkpt lat="44.1782698" lon="8.372339"><ele>14.0</ele><time>2026-04-26T12:41:48.481Z</time></trkpt><trkpt lat="44.1782105" lon="8.3720933"><ele>10.0</ele><time>2026-04-26T12:41:49.479Z</time></trkpt><trkpt lat="44.1781507" lon="8.3718518"><ele>6.0</ele><time>2026-04-26T12:41:50.479Z</time></trkpt><trkpt lat="44.1780907" lon="8.3716145"><ele>2.0</ele><time>2026-04-26T12:41:51.48Z</time></trkpt><trkpt lat="44.1780292" lon="8.3713798"><ele>3.0</ele><time>2026-04-26T12:41:52.479Z</time></trkpt><trkpt lat="44.1779617" lon="8.371148"><ele>4.0</ele><time>2026-04-26T12:41:53.481Z</time></trkpt><trkpt lat="44.177882" lon="8.370918"><ele>5.0</ele><time>2026-04-26T12:41:54.482Z</time></trkpt><trkpt lat="44.1777917" lon="8.370692"><ele>9.666666666666666</ele><time>2026-04-26T12:41:55.483Z</time></trkpt><trkpt lat="44.1776918" lon="8.3704708"><ele>14.333333333333332</ele><time>2026-04-26T12:41:56.482Z</time></trkpt><trkpt lat="44.1775795" lon="8.3702598"><ele>19.0</ele><time>2026-04-26T12:41:57.482Z</time></trkpt><trkpt lat="44.1774493" lon="8.3700683"><ele>18.333333333333332</ele><time>2026-04-26T12:41:58.48Z</time></trkpt><trkpt lat="44.1773005" lon="8.3698988"><ele>17.666666666666668</ele><time>2026-04-26T12:41:59.48Z</time></trkpt><trkpt lat="44.1771372" lon="8.3697487"><ele>17.0</ele><time>2026-04-26T12:42:00.48Z</time></trkpt><trkpt lat="44.1769682" lon="8.3696127"><ele>17.0</ele><time>2026-04-26T12:42:01.48Z</time></trkpt><trkpt lat="44.1768052" lon="8.3694893"><ele>17.0</ele><time>2026-04-26T12:42:02.481Z</time></trkpt><trkpt lat="44.176655" lon="8.3693757"><ele>17.0</ele><time>2026-04-26T12:42:03.482Z</time></trkpt><trkpt lat="44.1765193" lon="8.3692602"><ele>21.333333333333336</ele><time>2026-04-26T12:42:04.481Z</time></trkpt><trkpt lat="44.1763967" lon="8.3691267"><ele>25.666666666666668</ele><time>2026-04-26T12:42:05.483Z</time></trkpt><trkpt lat="44.1762828" lon="8.3689798"><ele>30.0</ele><time>2026-04-26T12:42:06.482Z</time></trkpt><trkpt lat="44.1761668" lon="8.36884"><ele>30.0</ele><time>2026-04-26T12:42:07.481Z</time></trkpt><trkpt lat="44.1760387" lon="8.3687297"><ele>30.0</ele><time>2026-04-26T12:42:08.482Z</time></trkpt><trkpt lat="44.1758962" lon="8.3686595"><ele>30.0</ele><time>2026-04-26T12:42:09.482Z</time></trkpt><trkpt lat="44.1757522" lon="8.3686258"><ele>30.0</ele><time>2026-04-26T12:42:10.482Z</time></trkpt><trkpt lat="44.175618" lon="8.3686093"><ele>25.5</ele><time>2026-04-26T12:42:11.481Z</time></trkpt><trkpt lat="44.1754918" lon="8.3685925"><ele>21.0</ele><time>2026-04-26T12:42:12.483Z</time></trkpt><trkpt lat="44.175372" lon="8.3685737"><ele>16.5</ele><time>2026-04-26T12:42:13.481Z</time></trkpt><trkpt lat="44.1752537" lon="8.3685403"><ele>12.0</ele><time>2026-04-26T12:42:14.48Z</time></trkpt><trkpt lat="44.1751402" lon="8.368482"><ele>12.0</ele><time>2026-04-26T12:42:15.479Z</time></trkpt><trkpt lat="44.1750272" lon="8.3683942"><ele>12.0</ele><time>2026-04-26T12:42:16.478Z</time></trkpt><trkpt lat="44.1749107" lon="8.3682802"><ele>12.0</ele><time>2026-04-26T12:42:17.479Z</time></trkpt><trkpt lat="44.1747905" lon="8.3681502"><ele>12.0</ele><time>2026-04-26T12:42:18.48Z</time></trkpt><trkpt lat="44.1746692" lon="8.368011"><ele>13.5</ele><time>2026-04-26T12:42:19.48Z</time></trkpt><trkpt lat="44.1745492" lon="8.3678692"><ele>15.0</ele><time>2026-04-26T12:42:20.48Z</time></trkpt><trkpt lat="44.1744355" lon="8.367732"><ele>16.5</ele><time>2026-04-26T12:42:21.48Z</time></trkpt><trkpt lat="44.1743347" lon="8.3675998"><ele>18.0</ele><time>2026-04-26T12:42:22.48Z</time></trkpt><trkpt lat="44.1741652" lon="8.3673188"><ele>14.75</ele><time>2026-04-26T12:42:24.481Z</time></trkpt><trkpt lat="44.174094" lon="8.3671603"><ele>11.5</ele><time>2026-04-26T12:42:25.477Z</time></trkpt><trkpt lat="44.1740177" lon="8.3669998"><ele>8.25</ele><time>2026-04-26T12:42:26.476Z</time></trkpt><trkpt lat="44.1739275" lon="8.3668445"><ele>5.0</ele><time>2026-04-26T12:42:27.474Z</time></trkpt><trkpt lat="44.1738458" lon="8.3666822"><ele>5.0</ele><time>2026-04-26T12:42:28.471Z</time></trkpt><trkpt lat="44.1737768" lon="8.3665055"><ele>5.0</ele><time>2026-04-26T12:42:29.469Z</time></trkpt><trkpt lat="44.173731" lon="8.3663378"><ele>5.0</ele><time>2026-04-26T12:42:30.47Z</time></trkpt><trkpt lat="44.1736338" lon="8.3661055"><ele>6.666666666666667</ele><time>2026-04-26T12:42:31.477Z</time></trkpt><trkpt lat="44.1735743" lon="8.3659023"><ele>8.333333333333334</ele><time>2026-04-26T12:42:32.477Z</time></trkpt><trkpt lat="44.1735208" lon="8.3657052"><ele>10.0</ele><time>2026-04-26T12:42:33.479Z</time></trkpt><trkpt lat="44.1734737" lon="8.365506"><ele>12.666666666666668</ele><time>2026-04-26T12:42:34.483Z</time></trkpt><trkpt lat="44.1734347" lon="8.365298"><ele>15.333333333333334</ele><time>2026-04-26T12:42:35.479Z</time></trkpt><trkpt lat="44.1733985" lon="8.3650727"><ele>18.0</ele><time>2026-04-26T12:42:36.479Z</time></trkpt><trkpt lat="44.1733615" lon="8.3648403"><ele>22.0</ele><time>2026-04-26T12:42:37.482Z</time></trkpt><trkpt lat="44.1733245" lon="8.3646053"><ele>26.0</ele><time>2026-04-26T12:42:38.478Z</time></trkpt><trkpt lat="44.173288" lon="8.3643713"><ele>30.0</ele><time>2026-04-26T12:42:39.476Z</time></trkpt><trkpt lat="44.1732538" lon="8.3641402"><ele>30.0</ele><time>2026-04-26T12:42:40.476Z</time></trkpt><trkpt lat="44.173219" lon="8.3639013"><ele>30.0</ele><time>2026-04-26T12:42:41.476Z</time></trkpt><trkpt lat="44.1731795" lon="8.3636577"><ele>30.0</ele><time>2026-04-26T12:42:42.479Z</time></trkpt><trkpt lat="44.1731395" lon="8.3634123"><ele>23.666666666666668</ele><time>2026-04-26T12:42:43.479Z</time></trkpt><trkpt lat="44.1730995" lon="8.3631682"><ele>17.333333333333332</ele><time>2026-04-26T12:42:44.48Z</time></trkpt><trkpt lat="44.1730577" lon="8.3629258"><ele>11.0</ele><time>2026-04-26T12:42:45.483Z</time></trkpt><trkpt lat="44.173011" lon="8.362688"><ele>11.0</ele><time>2026-04-26T12:42:46.48Z</time></trkpt><trkpt lat="44.1729585" lon="8.3624525"><ele>11.0</ele><time>2026-04-26T12:42:47.479Z</time></trkpt><trkpt lat="44.172902" lon="8.3622195"><ele>11.0</ele><time>2026-04-26T12:42:48.479Z</time></trkpt><trkpt lat="44.1728462" lon="8.361995"><ele>14.333333333333332</ele><time>2026-04-26T12:42:49.479Z</time></trkpt><trkpt lat="44.1727947" lon="8.3617863"><ele>17.666666666666668</ele><time>2026-04-26T12:42:50.479Z</time></trkpt><trkpt lat="44.1727433" lon="8.3615813"><ele>21.0</ele><time>2026-04-26T12:42:51.478Z</time></trkpt><trkpt lat="44.1726917" lon="8.3613768"><ele>22.666666666666664</ele><time>2026-04-26T12:42:52.476Z</time></trkpt><trkpt lat="44.1726427" lon="8.3611648"><ele>24.333333333333332</ele><time>2026-04-26T12:42:53.475Z</time></trkpt><trkpt lat="44.1726057" lon="8.3609472"><ele>26.0</ele><time>2026-04-26T12:42:54.472Z</time></trkpt><trkpt lat="44.1725673" lon="8.3607185"><ele>25.25</ele><time>2026-04-26T12:42:55.472Z</time></trkpt><trkpt lat="44.1725185" lon="8.3605202"><ele>24.5</ele><time>2026-04-26T12:42:56.475Z</time></trkpt><trkpt lat="44.1724712" lon="8.3603278"><ele>23.75</ele><time>2026-04-26T12:42:57.477Z</time></trkpt><trkpt lat="44.1724238" lon="8.3601333"><ele>23.0</ele><time>2026-04-26T12:42:58.482Z</time></trkpt><trkpt lat="44.1723785" lon="8.3599497"><ele>19.0</ele><time>2026-04-26T12:42:59.482Z</time></trkpt><trkpt lat="44.172339" lon="8.3597775"><ele>14.999999999999998</ele><time>2026-04-26T12:43:00.48Z</time></trkpt><trkpt lat="44.1723057" lon="8.3596175"><ele>11.0</ele><time>2026-04-26T12:43:01.481Z</time></trkpt><trkpt lat="44.1722795" lon="8.3594778"><ele>7.0</ele><time>2026-04-26T12:43:02.48Z</time></trkpt><trkpt lat="44.1722668" lon="8.3593582"><ele>3.0</ele><time>2026-04-26T12:43:03.477Z</time></trkpt><trkpt lat="44.1722772" lon="8.3592622"><ele>2.8333333333333335</ele><time>2026-04-26T12:43:04.48Z</time></trkpt><trkpt lat="44.1723422" lon="8.3591242"><ele>2.6666666666666665</ele><time>2026-04-26T12:43:06.479Z</time></trkpt><trkpt lat="44.172313" lon="8.3589932"><ele>2.5</ele><time>2026-04-26T12:43:08.48Z</time></trkpt><trkpt lat="44.1722537" lon="8.3589562"><ele>2.333333333333333</ele><time>2026-04-26T12:43:09.481Z</time></trkpt><trkpt lat="44.1721945" lon="8.358911"><ele>2.1666666666666665</ele><time>2026-04-26T12:43:10.48Z</time></trkpt><trkpt lat="44.17215" lon="8.358826"><ele>2.0</ele><time>2026-04-26T12:43:11.481Z</time></trkpt><trkpt lat="44.1721223" lon="8.3587123"><ele>2.0</ele><time>2026-04-26T12:43:12.481Z</time></trkpt><trkpt lat="44.1720973" lon="8.3585832"><ele>2.0</ele><time>2026-04-26T12:43:13.48Z</time></trkpt><trkpt lat="44.172068" lon="8.3584527"><ele>2.0</ele><time>2026-04-26T12:43:14.48Z</time></trkpt><trkpt lat="44.1720348" lon="8.3583068"><ele>2.0</ele><time>2026-04-26T12:43:15.481Z</time></trkpt><trkpt lat="44.1720007" lon="8.358145"><ele>2.0</ele><time>2026-04-26T12:43:16.483Z</time></trkpt><trkpt lat="44.1719677" lon="8.3579797"><ele>2.25</ele><time>2026-04-26T12:43:17.482Z</time></trkpt><trkpt lat="44.1719357" lon="8.3578168"><ele>2.5</ele><time>2026-04-26T12:43:18.481Z</time></trkpt><trkpt lat="44.1719023" lon="8.3576488"><ele>2.75</ele><time>2026-04-26T12:43:19.48Z</time></trkpt><trkpt lat="44.1718688" lon="8.3574818"><ele>3.0</ele><time>2026-04-26T12:43:20.481Z</time></trkpt><trkpt lat="44.171836" lon="8.3573172"><ele>3.5</ele><time>2026-04-26T12:43:21.481Z</time></trkpt><trkpt lat="44.1718033" lon="8.3571548"><ele>4.0</ele><time>2026-04-26T12:43:22.483Z</time></trkpt><trkpt lat="44.1717713" lon="8.356994"><ele>4.5</ele><time>2026-04-26T12:43:23.482Z</time></trkpt><trkpt lat="44.1717402" lon="8.3568362"><ele>5.0</ele><time>2026-04-26T12:43:24.482Z</time></trkpt><trkpt lat="44.1717095" lon="8.3566823"><ele>5.0</ele><time>2026-04-26T12:43:25.482Z</time></trkpt><trkpt lat="44.1716785" lon="8.356531"><ele>5.0</ele><time>2026-04-26T12:43:26.481Z</time></trkpt><trkpt lat="44.1716485" lon="8.356379"><ele>5.0</ele><time>2026-04-26T12:43:27.482Z</time></trkpt><trkpt lat="44.1716173" lon="8.3562218"><ele>5.0</ele><time>2026-04-26T12:43:28.479Z</time></trkpt><trkpt lat="44.1715843" lon="8.3560563"><ele>5.25</ele><time>2026-04-26T12:43:29.481Z</time></trkpt><trkpt lat="44.1715517" lon="8.3558892"><ele>5.5</ele><time>2026-04-26T12:43:30.481Z</time></trkpt><trkpt lat="44.17152" lon="8.3557225"><ele>5.75</ele><time>2026-04-26T12:43:31.481Z</time></trkpt><trkpt lat="44.1714878" lon="8.3555533"><ele>6.0</ele><time>2026-04-26T12:43:32.481Z</time></trkpt><trkpt lat="44.171454" lon="8.3553797"><ele>6.0</ele><time>2026-04-26T12:43:33.482Z</time></trkpt><trkpt lat="44.1714187" lon="8.3552018"><ele>6.0</ele><time>2026-04-26T12:43:34.48Z</time></trkpt><trkpt lat="44.1713843" lon="8.3550205"><ele>6.0</ele><time>2026-04-26T12:43:35.48Z</time></trkpt><trkpt lat="44.1713452" lon="8.354838"><ele>6.0</ele><time>2026-04-26T12:43:36.48Z</time></trkpt><trkpt lat="44.17131" lon="8.3546523"><ele>6.0</ele><time>2026-04-26T12:43:37.479Z</time></trkpt><trkpt lat="44.1712735" lon="8.3544658"><ele>6.0</ele><time>2026-04-26T12:43:38.477Z</time></trkpt><trkpt lat="44.1712373" lon="8.3542778"><ele>6.0</ele><time>2026-04-26T12:43:39.479Z</time></trkpt><trkpt lat="44.1711923" lon="8.3540937"><ele>6.0</ele><time>2026-04-26T12:43:40.477Z</time></trkpt><trkpt lat="44.1711572" lon="8.3539078"><ele>6.8</ele><time>2026-04-26T12:43:41.48Z</time></trkpt><trkpt lat="44.1711262" lon="8.3537262"><ele>7.6</ele><time>2026-04-26T12:43:42.479Z</time></trkpt><trkpt lat="44.1710927" lon="8.3535638"><ele>8.4</ele><time>2026-04-26T12:43:43.477Z</time></trkpt><trkpt lat="44.171066" lon="8.3534368"><ele>9.2</ele><time>2026-04-26T12:43:44.476Z</time></trkpt><trkpt lat="44.1710467" lon="8.3533433"><ele>10.0</ele><time>2026-04-26T12:43:45.479Z</time></trkpt><trkpt lat="44.1710288" lon="8.3532443"><ele>10.0</ele><time>2026-04-26T12:43:47.479Z</time></trkpt><trkpt lat="44.1710037" lon="8.3531285"><ele>10.0</ele><time>2026-04-26T12:43:50.478Z</time></trkpt><trkpt lat="44.1709532" lon="8.3529437"><ele>10.0</ele><time>2026-04-26T12:43:52.475Z</time></trkpt><trkpt lat="44.1709187" lon="8.352827"><ele>10.0</ele><time>2026-04-26T12:43:53.473Z</time></trkpt><trkpt lat="44.1708795" lon="8.3527017"><ele>10.0</ele><time>2026-04-26T12:43:54.475Z</time></trkpt><trkpt lat="44.1708452" lon="8.3525858"><ele>10.0</ele><time>2026-04-26T12:43:55.474Z</time></trkpt><trkpt lat="44.1708163" lon="8.3524923"><ele>10.0</ele><time>2026-04-26T12:43:56.477Z</time></trkpt><trkpt lat="44.1707665" lon="8.352382"><ele>10.0</ele><time>2026-04-26T12:43:58.477Z</time></trkpt><trkpt lat="44.1707347" lon="8.3522883"><ele>10.0</ele><time>2026-04-26T12:44:01.475Z</time></trkpt><trkpt lat="44.1707002" lon="8.352164"><ele>10.0</ele><time>2026-04-26T12:44:04.478Z</time></trkpt><trkpt lat="44.1706785" lon="8.3520768"><ele>10.0</ele><time>2026-04-26T12:44:05.478Z</time></trkpt><trkpt lat="44.1706557" lon="8.3519712"><ele>8.8</ele><time>2026-04-26T12:44:06.479Z</time></trkpt><trkpt lat="44.1706317" lon="8.3518597"><ele>7.6</ele><time>2026-04-26T12:44:07.481Z</time></trkpt><trkpt lat="44.1706053" lon="8.351745"><ele>6.4</ele><time>2026-04-26T12:44:08.48Z</time></trkpt><trkpt lat="44.1705763" lon="8.3516222"><ele>5.2</ele><time>2026-04-26T12:44:09.483Z</time></trkpt><trkpt lat="44.1705487" lon="8.351491"><ele>4.0</ele><time>2026-04-26T12:44:10.48Z</time></trkpt><trkpt lat="44.170522" lon="8.351355"><ele>4.0</ele><time>2026-04-26T12:44:11.48Z</time></trkpt><trkpt lat="44.1704962" lon="8.3512215"><ele>4.0</ele><time>2026-04-26T12:44:12.479Z</time></trkpt><trkpt lat="44.1704727" lon="8.3510867"><ele>4.0</ele><time>2026-04-26T12:44:13.479Z</time></trkpt><trkpt lat="44.1704558" lon="8.350946"><ele>4.0</ele><time>2026-04-26T12:44:14.479Z</time></trkpt><trkpt lat="44.17045" lon="8.350798"><ele>4.0</ele><time>2026-04-26T12:44:15.479Z</time></trkpt><trkpt lat="44.1704502" lon="8.3506438"><ele>4.4</ele><time>2026-04-26T12:44:16.477Z</time></trkpt><trkpt lat="44.1704398" lon="8.3504855"><ele>4.800000000000001</ele><time>2026-04-26T12:44:17.478Z</time></trkpt><trkpt lat="44.1704137" lon="8.350326"><ele>5.199999999999999</ele><time>2026-04-26T12:44:18.478Z</time></trkpt><trkpt lat="44.1703807" lon="8.3501833"><ele>5.6</ele><time>2026-04-26T12:44:19.478Z</time></trkpt><trkpt lat="44.1703518" lon="8.3500508"><ele>6.0</ele><time>2026-04-26T12:44:20.479Z</time></trkpt><trkpt lat="44.1703447" lon="8.349923"><ele>6.0</ele><time>2026-04-26T12:44:21.479Z</time></trkpt><trkpt lat="44.1703685" lon="8.34979"><ele>6.0</ele><time>2026-04-26T12:44:22.48Z</time></trkpt><trkpt lat="44.1704102" lon="8.349654"><ele>6.0</ele><time>2026-04-26T12:44:23.479Z</time></trkpt><trkpt lat="44.1704593" lon="8.3495192"><ele>6.0</ele><time>2026-04-26T12:44:24.478Z</time></trkpt><trkpt lat="44.1705105" lon="8.3493893"><ele>6.0</ele><time>2026-04-26T12:44:25.48Z</time></trkpt><trkpt lat="44.1705645" lon="8.3492622"><ele>6.8</ele><time>2026-04-26T12:44:26.477Z</time></trkpt><trkpt lat="44.1706175" lon="8.349136"><ele>7.6</ele><time>2026-04-26T12:44:27.477Z</time></trkpt><trkpt lat="44.170662" lon="8.3490098"><ele>8.4</ele><time>2026-04-26T12:44:28.477Z</time></trkpt><trkpt lat="44.1706917" lon="8.3488802"><ele>9.2</ele><time>2026-04-26T12:44:29.478Z</time></trkpt><trkpt lat="44.1707035" lon="8.3487372"><ele>10.0</ele><time>2026-04-26T12:44:30.478Z</time></trkpt><trkpt lat="44.1707015" lon="8.3485867"><ele>10.75</ele><time>2026-04-26T12:44:31.479Z</time></trkpt><trkpt lat="44.1706925" lon="8.3484278"><ele>11.5</ele><time>2026-04-26T12:44:32.479Z</time></trkpt><trkpt lat="44.170678" lon="8.3482667"><ele>12.25</ele><time>2026-04-26T12:44:33.479Z</time></trkpt><trkpt lat="44.1706643" lon="8.348109"><ele>13.0</ele><time>2026-04-26T12:44:34.477Z</time></trkpt><trkpt lat="44.1706528" lon="8.3479538"><ele>13.0</ele><time>2026-04-26T12:44:35.479Z</time></trkpt><trkpt lat="44.1706423" lon="8.3478055"><ele>13.0</ele><time>2026-04-26T12:44:36.479Z</time></trkpt><trkpt lat="44.1706333" lon="8.347661"><ele>13.0</ele><time>2026-04-26T12:44:37.479Z</time></trkpt><trkpt lat="44.1706255" lon="8.3475158"><ele>13.0</ele><time>2026-04-26T12:44:38.48Z</time></trkpt><trkpt lat="44.1706188" lon="8.3473668"><ele>13.0</ele><time>2026-04-26T12:44:39.479Z</time></trkpt><trkpt lat="44.1706133" lon="8.3472132"><ele>12.75</ele><time>2026-04-26T12:44:40.477Z</time></trkpt><trkpt lat="44.17061" lon="8.3470565"><ele>12.5</ele><time>2026-04-26T12:44:41.475Z</time></trkpt><trkpt lat="44.1706098" lon="8.3468962"><ele>12.25</ele><time>2026-04-26T12:44:42.475Z</time></trkpt><trkpt lat="44.170614" lon="8.3467358"><ele>12.0</ele><time>2026-04-26T12:44:43.474Z</time></trkpt><trkpt lat="44.1706285" lon="8.3465768"><ele>12.0</ele><time>2026-04-26T12:44:44.476Z</time></trkpt><trkpt lat="44.1706453" lon="8.3464237"><ele>12.0</ele><time>2026-04-26T12:44:45.48Z</time></trkpt><trkpt lat="44.170656" lon="8.346276"><ele>12.0</ele><time>2026-04-26T12:44:46.477Z</time></trkpt><trkpt lat="44.1706615" lon="8.3461232"><ele>12.0</ele><time>2026-04-26T12:44:47.477Z</time></trkpt><trkpt lat="44.1706643" lon="8.3459822"><ele>12.0</ele><time>2026-04-26T12:44:48.475Z</time></trkpt><trkpt lat="44.1706567" lon="8.3458505"><ele>12.0</ele><time>2026-04-26T12:44:49.477Z</time></trkpt><trkpt lat="44.1706383" lon="8.3457198"><ele>12.0</ele><time>2026-04-26T12:44:50.476Z</time></trkpt><trkpt lat="44.1706113" lon="8.3455947"><ele>12.0</ele><time>2026-04-26T12:44:51.477Z</time></trkpt><trkpt lat="44.170587" lon="8.3454655"><ele>12.0</ele><time>2026-04-26T12:44:52.478Z</time></trkpt><trkpt lat="44.1705693" lon="8.3453307"><ele>12.0</ele><time>2026-04-26T12:44:53.479Z</time></trkpt><trkpt lat="44.1705618" lon="8.3451927"><ele>12.2</ele><time>2026-04-26T12:44:54.478Z</time></trkpt><trkpt lat="44.1705552" lon="8.3450608"><ele>12.399999999999999</ele><time>2026-04-26T12:44:55.477Z</time></trkpt><trkpt lat="44.1705488" lon="8.3449257"><ele>12.600000000000001</ele><time>2026-04-26T12:44:56.476Z</time></trkpt><trkpt lat="44.1705313" lon="8.3447823"><ele>12.8</ele><time>2026-04-26T12:44:57.478Z</time></trkpt><trkpt lat="44.1704943" lon="8.3446367"><ele>13.0</ele><time>2026-04-26T12:44:58.478Z</time></trkpt><trkpt lat="44.1704378" lon="8.3444908"><ele>13.0</ele><time>2026-04-26T12:44:59.478Z</time></trkpt><trkpt lat="44.1703687" lon="8.3443415"><ele>13.0</ele><time>2026-04-26T12:45:00.478Z</time></trkpt><trkpt lat="44.1702978" lon="8.3441918"><ele>13.0</ele><time>2026-04-26T12:45:01.474Z</time></trkpt><trkpt lat="44.1702288" lon="8.3440428"><ele>13.0</ele><time>2026-04-26T12:45:02.476Z</time></trkpt><trkpt lat="44.1701645" lon="8.343898"><ele>13.5</ele><time>2026-04-26T12:45:03.477Z</time></trkpt><trkpt lat="44.1701002" lon="8.3437663"><ele>14.0</ele><time>2026-04-26T12:45:04.478Z</time></trkpt><trkpt lat="44.1700385" lon="8.3436347"><ele>14.5</ele><time>2026-04-26T12:45:05.477Z</time></trkpt><trkpt lat="44.1699767" lon="8.3435022"><ele>15.0</ele><time>2026-04-26T12:45:06.477Z</time></trkpt><trkpt lat="44.1699135" lon="8.3433725"><ele>14.4</ele><time>2026-04-26T12:45:07.474Z</time></trkpt><trkpt lat="44.169853" lon="8.3432453"><ele>13.8</ele><time>2026-04-26T12:45:08.473Z</time></trkpt><trkpt lat="44.1697992" lon="8.3431262"><ele>13.2</ele><time>2026-04-26T12:45:09.475Z</time></trkpt><trkpt lat="44.1697462" lon="8.3430088"><ele>12.6</ele><time>2026-04-26T12:45:10.476Z</time></trkpt><trkpt lat="44.1696935" lon="8.3428888"><ele>12.0</ele><time>2026-04-26T12:45:11.475Z</time></trkpt><trkpt lat="44.1696452" lon="8.3427665"><ele>11.8</ele><time>2026-04-26T12:45:12.476Z</time></trkpt><trkpt lat="44.1695948" lon="8.3426468"><ele>11.6</ele><time>2026-04-26T12:45:13.476Z</time></trkpt><trkpt lat="44.1695415" lon="8.3425392"><ele>11.4</ele><time>2026-04-26T12:45:14.476Z</time></trkpt><trkpt lat="44.1694992" lon="8.3424327"><ele>11.200000000000001</ele><time>2026-04-26T12:45:15.475Z</time></trkpt><trkpt lat="44.1694617" lon="8.3423365"><ele>11.0</ele><time>2026-04-26T12:45:16.476Z</time></trkpt><trkpt lat="44.1694053" lon="8.3422028"><ele>10.5</ele><time>2026-04-26T12:45:18.479Z</time></trkpt><trkpt lat="44.1694233" lon="8.3420432"><ele>10.0</ele><time>2026-04-26T12:45:20.475Z</time></trkpt><trkpt lat="44.1694657" lon="8.3419593"><ele>9.5</ele><time>2026-04-26T12:45:21.475Z</time></trkpt><trkpt lat="44.1695" lon="8.3418503"><ele>9.0</ele><time>2026-04-26T12:45:22.475Z</time></trkpt><trkpt lat="44.1695255" lon="8.3417398"><ele>8.5</ele><time>2026-04-26T12:45:23.476Z</time></trkpt><trkpt lat="44.1695497" lon="8.3416355"><ele>8.0</ele><time>2026-04-26T12:45:24.476Z</time></trkpt><trkpt lat="44.1695737" lon="8.3415475"><ele>8.0</ele><time>2026-04-26T12:45:25.478Z</time></trkpt><trkpt lat="44.1695927" lon="8.3414637"><ele>8.0</ele><time>2026-04-26T12:45:26.478Z</time></trkpt><trkpt lat="44.1695902" lon="8.3413555"><ele>8.0</ele><time>2026-04-26T12:45:28.475Z</time></trkpt><trkpt lat="44.1696343" lon="8.3411398"><ele>8.0</ele><time>2026-04-26T12:45:30.471Z</time></trkpt><trkpt lat="44.169651" lon="8.3409655"><ele>8.0</ele><time>2026-04-26T12:45:31.476Z</time></trkpt><trkpt lat="44.169665" lon="8.3407572"><ele>7.75</ele><time>2026-04-26T12:45:32.475Z</time></trkpt><trkpt lat="44.1696765" lon="8.3405562"><ele>7.5</ele><time>2026-04-26T12:45:33.476Z</time></trkpt><trkpt lat="44.1696893" lon="8.3403692"><ele>7.25</ele><time>2026-04-26T12:45:34.479Z</time></trkpt><trkpt lat="44.1696962" lon="8.3401963"><ele>7.0</ele><time>2026-04-26T12:45:35.476Z</time></trkpt><trkpt lat="44.169706" lon="8.3400512"><ele>7.000000000000001</ele><time>2026-04-26T12:45:36.478Z</time></trkpt><trkpt lat="44.169721" lon="8.3399398"><ele>7.0</ele><time>2026-04-26T12:45:37.477Z</time></trkpt><trkpt lat="44.1697365" lon="8.3398393"><ele>7.0</ele><time>2026-04-26T12:45:38.477Z</time></trkpt><trkpt lat="44.1697565" lon="8.3397443"><ele>7.0</ele><time>2026-04-26T12:45:39.475Z</time></trkpt><trkpt lat="44.1697915" lon="8.339641"><ele>7.000000000000001</ele><time>2026-04-26T12:45:40.477Z</time></trkpt><trkpt lat="44.1698428" lon="8.3395413"><ele>7.0</ele><time>2026-04-26T12:45:41.478Z</time></trkpt><trkpt lat="44.169901" lon="8.3394472"><ele>7.833333333333334</ele><time>2026-04-26T12:45:42.477Z</time></trkpt><trkpt lat="44.1699563" lon="8.3393623"><ele>8.666666666666668</ele><time>2026-04-26T12:45:43.475Z</time></trkpt><trkpt lat="44.1700072" lon="8.3392822"><ele>9.5</ele><time>2026-04-26T12:45:44.477Z</time></trkpt><trkpt lat="44.1700472" lon="8.3392017"><ele>10.333333333333334</ele><time>2026-04-26T12:45:45.479Z</time></trkpt><trkpt lat="44.1700838" lon="8.3391267"><ele>11.166666666666666</ele><time>2026-04-26T12:45:46.476Z</time></trkpt><trkpt lat="44.1701685" lon="8.3390048"><ele>12.0</ele><time>2026-04-26T12:45:48.476Z</time></trkpt><trkpt lat="44.1702485" lon="8.3388907"><ele>11.833333333333334</ele><time>2026-04-26T12:45:50.476Z</time></trkpt><trkpt lat="44.1703332" lon="8.3387767"><ele>11.666666666666666</ele><time>2026-04-26T12:45:52.475Z</time></trkpt><trkpt lat="44.1703823" lon="8.3387132"><ele>11.5</ele><time>2026-04-26T12:45:53.476Z</time></trkpt><trkpt lat="44.1704708" lon="8.3385983"><ele>11.333333333333332</ele><time>2026-04-26T12:45:55.473Z</time></trkpt><trkpt lat="44.1705152" lon="8.338535"><ele>11.166666666666666</ele><time>2026-04-26T12:45:56.473Z</time></trkpt><trkpt lat="44.1705622" lon="8.3384737"><ele>11.0</ele><time>2026-04-26T12:45:57.475Z</time></trkpt><trkpt lat="44.1706428" lon="8.3383743"><ele>11.166666666666666</ele><time>2026-04-26T12:45:59.477Z</time></trkpt><trkpt lat="44.1707168" lon="8.3382457"><ele>11.333333333333332</ele><time>2026-04-26T12:46:01.479Z</time></trkpt><trkpt lat="44.170757" lon="8.338158"><ele>11.5</ele><time>2026-04-26T12:46:02.477Z</time></trkpt><trkpt lat="44.1708075" lon="8.338066"><ele>11.666666666666666</ele><time>2026-04-26T12:46:03.478Z</time></trkpt><trkpt lat="44.1708513" lon="8.3379737"><ele>11.833333333333334</ele><time>2026-04-26T12:46:04.478Z</time></trkpt><trkpt lat="44.1708912" lon="8.337885"><ele>12.0</ele><time>2026-04-26T12:46:05.476Z</time></trkpt><trkpt lat="44.170933" lon="8.3377933"><ele>11.666666666666666</ele><time>2026-04-26T12:46:06.476Z</time></trkpt><trkpt lat="44.1709743" lon="8.3376965"><ele>11.333333333333334</ele><time>2026-04-26T12:46:07.477Z</time></trkpt><trkpt lat="44.1710075" lon="8.3376082"><ele>11.0</ele><time>2026-04-26T12:46:08.478Z</time></trkpt><trkpt lat="44.1710408" lon="8.3375207"><ele>10.666666666666668</ele><time>2026-04-26T12:46:09.479Z</time></trkpt><trkpt lat="44.1710803" lon="8.3374187"><ele>10.333333333333334</ele><time>2026-04-26T12:46:10.479Z</time></trkpt><trkpt lat="44.1711285" lon="8.3373068"><ele>10.0</ele><time>2026-04-26T12:46:11.477Z</time></trkpt><trkpt lat="44.1711817" lon="8.3371827"><ele>9.6</ele><time>2026-04-26T12:46:12.479Z</time></trkpt><trkpt lat="44.1712348" lon="8.3370467"><ele>9.2</ele><time>2026-04-26T12:46:13.479Z</time></trkpt><trkpt lat="44.1712885" lon="8.336905"><ele>8.8</ele><time>2026-04-26T12:46:14.478Z</time></trkpt><trkpt lat="44.17134" lon="8.3367673"><ele>8.4</ele><time>2026-04-26T12:46:15.477Z</time></trkpt><trkpt lat="44.1713892" lon="8.3366447"><ele>8.0</ele><time>2026-04-26T12:46:16.498Z</time></trkpt><trkpt lat="44.1714327" lon="8.3365323"><ele>7.999999999999999</ele><time>2026-04-26T12:46:17.475Z</time></trkpt><trkpt lat="44.1714723" lon="8.3364338"><ele>8.0</ele><time>2026-04-26T12:46:18.475Z</time></trkpt><trkpt lat="44.1715165" lon="8.3363477"><ele>8.0</ele><time>2026-04-26T12:46:19.472Z</time></trkpt><trkpt lat="44.171553" lon="8.3362678"><ele>8.0</ele><time>2026-04-26T12:46:20.474Z</time></trkpt><trkpt lat="44.1716118" lon="8.3361365"><ele>7.999999999999999</ele><time>2026-04-26T12:46:22.474Z</time></trkpt><trkpt lat="44.1715872" lon="8.3360145"><ele>8.0</ele><time>2026-04-26T12:46:24.476Z</time></trkpt><trkpt lat="44.1715295" lon="8.3359613"><ele>7.833333333333333</ele><time>2026-04-26T12:46:25.475Z</time></trkpt><trkpt lat="44.1714628" lon="8.3358912"><ele>7.666666666666666</ele><time>2026-04-26T12:46:26.474Z</time></trkpt><trkpt lat="44.1713935" lon="8.3358253"><ele>7.5</ele><time>2026-04-26T12:46:27.475Z</time></trkpt><trkpt lat="44.1713283" lon="8.3357548"><ele>7.333333333333334</ele><time>2026-04-26T12:46:28.475Z</time></trkpt><trkpt lat="44.1712525" lon="8.3356858"><ele>7.166666666666667</ele><time>2026-04-26T12:46:29.474Z</time></trkpt><trkpt lat="44.1711845" lon="8.3356115"><ele>7.0</ele><time>2026-04-26T12:46:30.474Z</time></trkpt><trkpt lat="44.1711165" lon="8.3355482"><ele>7.000000000000001</ele><time>2026-04-26T12:46:31.474Z</time></trkpt><trkpt lat="44.171058" lon="8.3354837"><ele>7.0</ele><time>2026-04-26T12:46:32.476Z</time></trkpt><trkpt lat="44.171012" lon="8.3354123"><ele>7.0</ele><time>2026-04-26T12:46:33.476Z</time></trkpt><trkpt lat="44.170942" lon="8.3353288"><ele>7.0</ele><time>2026-04-26T12:46:35.475Z</time></trkpt><trkpt lat="44.1708607" lon="8.3352527"><ele>7.000000000000001</ele><time>2026-04-26T12:47:21.475Z</time></trkpt><trkpt lat="44.170804" lon="8.3351852"><ele>7.0</ele><time>2026-04-26T12:47:23.476Z</time></trkpt><trkpt lat="44.1707488" lon="8.3351143"><ele>7.000000000000001</ele><time>2026-04-26T12:47:25.475Z</time></trkpt><trkpt lat="44.1706965" lon="8.335064"><ele>7.0</ele><time>2026-04-26T12:47:26.477Z</time></trkpt><trkpt lat="44.1706403" lon="8.3350135"><ele>7.0</ele><time>2026-04-26T12:47:27.476Z</time></trkpt><trkpt lat="44.1705867" lon="8.3349643"><ele>7.0</ele><time>2026-04-26T12:47:28.477Z</time></trkpt><trkpt lat="44.1705458" lon="8.3348608"><ele>7.000000000000001</ele><time>2026-04-26T12:47:30.478Z</time></trkpt><trkpt lat="44.1706107" lon="8.3347217"><ele>7.0</ele><time>2026-04-26T12:47:32.474Z</time></trkpt><trkpt lat="44.1706645" lon="8.3346243"><ele>8.8</ele><time>2026-04-26T12:47:33.478Z</time></trkpt><trkpt lat="44.1707112" lon="8.334507"><ele>10.6</ele><time>2026-04-26T12:47:34.475Z</time></trkpt><trkpt lat="44.170737" lon="8.3344075"><ele>12.400000000000002</ele><time>2026-04-26T12:47:35.475Z</time></trkpt><trkpt lat="44.1707635" lon="8.334289"><ele>14.200000000000001</ele><time>2026-04-26T12:47:37.481Z</time></trkpt><trkpt lat="44.1708003" lon="8.3341423"><ele>16.0</ele><time>2026-04-26T12:47:40.478Z</time></trkpt><trkpt lat="44.1708347" lon="8.3340337"><ele>16.0</ele><time>2026-04-26T12:47:41.478Z</time></trkpt><trkpt lat="44.1708845" lon="8.3339105"><ele>16.0</ele><time>2026-04-26T12:47:42.478Z</time></trkpt><trkpt lat="44.1709447" lon="8.3337755"><ele>16.0</ele><time>2026-04-26T12:47:43.478Z</time></trkpt><trkpt lat="44.1710072" lon="8.3336352"><ele>16.0</ele><time>2026-04-26T12:47:44.48Z</time></trkpt><trkpt lat="44.1710717" lon="8.3334873"><ele>20.75</ele><time>2026-04-26T12:47:45.477Z</time></trkpt><trkpt lat="44.171137" lon="8.3333352"><ele>25.5</ele><time>2026-04-26T12:47:46.476Z</time></trkpt><trkpt lat="44.1712077" lon="8.3331713"><ele>30.25</ele><time>2026-04-26T12:47:47.476Z</time></trkpt><trkpt lat="44.1712817" lon="8.3329978"><ele>35.0</ele><time>2026-04-26T12:47:48.477Z</time></trkpt><trkpt lat="44.1713562" lon="8.3328215"><ele>28.333333333333332</ele><time>2026-04-26T12:47:49.476Z</time></trkpt><trkpt lat="44.1714315" lon="8.3326427"><ele>21.666666666666664</ele><time>2026-04-26T12:47:50.478Z</time></trkpt><trkpt lat="44.1715095" lon="8.3324545"><ele>15.0</ele><time>2026-04-26T12:47:51.478Z</time></trkpt><trkpt lat="44.1715915" lon="8.3322617"><ele>21.333333333333336</ele><time>2026-04-26T12:47:52.476Z</time></trkpt><trkpt lat="44.1716723" lon="8.332068"><ele>27.666666666666668</ele><time>2026-04-26T12:47:53.476Z</time></trkpt><trkpt lat="44.1717502" lon="8.3318813"><ele>34.0</ele><time>2026-04-26T12:47:54.477Z</time></trkpt><trkpt lat="44.171828" lon="8.3317033"><ele>34.0</ele><time>2026-04-26T12:47:55.477Z</time></trkpt><trkpt lat="44.1719105" lon="8.3315363"><ele>34.0</ele><time>2026-04-26T12:47:56.476Z</time></trkpt><trkpt lat="44.172004" lon="8.3313787"><ele>34.0</ele><time>2026-04-26T12:47:57.475Z</time></trkpt><trkpt lat="44.1721078" lon="8.33122"><ele>34.0</ele><time>2026-04-26T12:47:58.477Z</time></trkpt><trkpt lat="44.1722122" lon="8.33106"><ele>28.333333333333336</ele><time>2026-04-26T12:47:59.475Z</time></trkpt><trkpt lat="44.1723135" lon="8.330901"><ele>22.666666666666668</ele><time>2026-04-26T12:48:00.476Z</time></trkpt><trkpt lat="44.1724173" lon="8.3307403"><ele>17.0</ele><time>2026-04-26T12:48:01.477Z</time></trkpt><trkpt lat="44.172523" lon="8.3305812"><ele>25.0</ele><time>2026-04-26T12:48:02.48Z</time></trkpt><trkpt lat="44.172632" lon="8.3304302"><ele>33.0</ele><time>2026-04-26T12:48:03.477Z</time></trkpt><trkpt lat="44.1727447" lon="8.3302833"><ele>41.0</ele><time>2026-04-26T12:48:04.477Z</time></trkpt><trkpt lat="44.1728588" lon="8.3301317"><ele>41.0</ele><time>2026-04-26T12:48:05.478Z</time></trkpt><trkpt lat="44.1729727" lon="8.3299778"><ele>41.0</ele><time>2026-04-26T12:48:06.479Z</time></trkpt><trkpt lat="44.1730842" lon="8.329828"><ele>41.0</ele><time>2026-04-26T12:48:07.478Z</time></trkpt><trkpt lat="44.1731932" lon="8.3296895"><ele>39.0</ele><time>2026-04-26T12:48:08.478Z</time></trkpt><trkpt lat="44.1733083" lon="8.3295738"><ele>37.0</ele><time>2026-04-26T12:48:09.476Z</time></trkpt><trkpt lat="44.1734235" lon="8.3294583"><ele>35.0</ele><time>2026-04-26T12:48:10.479Z</time></trkpt><trkpt lat="44.1735333" lon="8.3293222"><ele>33.0</ele><time>2026-04-26T12:48:11.478Z</time></trkpt><trkpt lat="44.1736382" lon="8.3291675"><ele>33.0</ele><time>2026-04-26T12:48:12.478Z</time></trkpt><trkpt lat="44.1737405" lon="8.3289993"><ele>33.0</ele><time>2026-04-26T12:48:13.478Z</time></trkpt><trkpt lat="44.1738323" lon="8.3288193"><ele>33.0</ele><time>2026-04-26T12:48:14.479Z</time></trkpt><trkpt lat="44.1739142" lon="8.3286262"><ele>32.25</ele><time>2026-04-26T12:48:15.479Z</time></trkpt><trkpt lat="44.1739838" lon="8.3284307"><ele>31.5</ele><time>2026-04-26T12:48:16.479Z</time></trkpt><trkpt lat="44.1740443" lon="8.3282413"><ele>30.75</ele><time>2026-04-26T12:48:17.478Z</time></trkpt><trkpt lat="44.1740973" lon="8.3280657"><ele>30.0</ele><time>2026-04-26T12:48:18.478Z</time></trkpt><trkpt lat="44.174146" lon="8.327898"><ele>30.0</ele><time>2026-04-26T12:48:19.479Z</time></trkpt><trkpt lat="44.1741955" lon="8.3277295"><ele>30.0</ele><time>2026-04-26T12:48:20.478Z</time></trkpt><trkpt lat="44.1742395" lon="8.3275542"><ele>30.0</ele><time>2026-04-26T12:48:21.477Z</time></trkpt><trkpt lat="44.174272" lon="8.3273648"><ele>30.0</ele><time>2026-04-26T12:48:22.474Z</time></trkpt><trkpt lat="44.1743" lon="8.3271687"><ele>31.5</ele><time>2026-04-26T12:48:23.474Z</time></trkpt><trkpt lat="44.1743278" lon="8.3269763"><ele>33.0</ele><time>2026-04-26T12:48:24.475Z</time></trkpt><trkpt lat="44.1743543" lon="8.3267915"><ele>34.5</ele><time>2026-04-26T12:48:25.476Z</time></trkpt><trkpt lat="44.1743793" lon="8.3266045"><ele>36.0</ele><time>2026-04-26T12:48:26.477Z</time></trkpt><trkpt lat="44.1744042" lon="8.3264122"><ele>39.0</ele><time>2026-04-26T12:48:27.477Z</time></trkpt><trkpt lat="44.1744305" lon="8.3262125"><ele>42.0</ele><time>2026-04-26T12:48:28.477Z</time></trkpt><trkpt lat="44.174455" lon="8.3260032"><ele>45.0</ele><time>2026-04-26T12:48:29.477Z</time></trkpt><trkpt lat="44.1744823" lon="8.3257867"><ele>49.33333333333333</ele><time>2026-04-26T12:48:30.481Z</time></trkpt><trkpt lat="44.1745097" lon="8.3255578"><ele>53.666666666666664</ele><time>2026-04-26T12:48:31.478Z</time></trkpt><trkpt lat="44.1745363" lon="8.3253407"><ele>58.0</ele><time>2026-04-26T12:48:32.48Z</time></trkpt><trkpt lat="44.174563" lon="8.325128"><ele>58.0</ele><time>2026-04-26T12:48:33.479Z</time></trkpt><trkpt lat="44.1745902" lon="8.324924"><ele>58.0</ele><time>2026-04-26T12:48:34.478Z</time></trkpt><trkpt lat="44.1746145" lon="8.3247375"><ele>58.0</ele><time>2026-04-26T12:48:35.477Z</time></trkpt><trkpt lat="44.1746377" lon="8.3245655"><ele>58.0</ele><time>2026-04-26T12:48:36.476Z</time></trkpt><trkpt lat="44.1746607" lon="8.3244112"><ele>60.599999999999994</ele><time>2026-04-26T12:48:37.478Z</time></trkpt><trkpt lat="44.174686" lon="8.3242785"><ele>63.199999999999996</ele><time>2026-04-26T12:48:38.477Z</time></trkpt><trkpt lat="44.1747177" lon="8.3241678"><ele>65.8</ele><time>2026-04-26T12:48:39.478Z</time></trkpt><trkpt lat="44.1747598" lon="8.3240758"><ele>68.39999999999999</ele><time>2026-04-26T12:48:40.477Z</time></trkpt><trkpt lat="44.1748025" lon="8.3239977"><ele>71.0</ele><time>2026-04-26T12:48:41.476Z</time></trkpt><trkpt lat="44.1748243" lon="8.32382"><ele>74.8</ele><time>2026-04-26T12:48:43.476Z</time></trkpt><trkpt lat="44.1748045" lon="8.3236998"><ele>78.6</ele><time>2026-04-26T12:48:44.478Z</time></trkpt><trkpt lat="44.1748022" lon="8.323561"><ele>82.4</ele><time>2026-04-26T12:48:45.476Z</time></trkpt><trkpt lat="44.174828" lon="8.3234143"><ele>86.2</ele><time>2026-04-26T12:48:46.475Z</time></trkpt><trkpt lat="44.1748677" lon="8.3232618"><ele>90.0</ele><time>2026-04-26T12:48:47.474Z</time></trkpt><trkpt lat="44.174905" lon="8.3231075"><ele>78.5</ele><time>2026-04-26T12:48:48.474Z</time></trkpt><trkpt lat="44.1749423" lon="8.3229467"><ele>67.0</ele><time>2026-04-26T12:48:49.474Z</time></trkpt><trkpt lat="44.1749838" lon="8.3227645"><ele>55.5</ele><time>2026-04-26T12:48:50.476Z</time></trkpt><trkpt lat="44.1750337" lon="8.3225497"><ele>44.0</ele><time>2026-04-26T12:48:51.476Z</time></trkpt><trkpt lat="44.1750943" lon="8.3223282"><ele>51.33333333333333</ele><time>2026-04-26T12:48:52.478Z</time></trkpt><trkpt lat="44.1751532" lon="8.3221117"><ele>58.666666666666664</ele><time>2026-04-26T12:48:53.475Z</time></trkpt><trkpt lat="44.175198" lon="8.3218905"><ele>66.0</ele><time>2026-04-26T12:48:54.476Z</time></trkpt><trkpt lat="44.1752323" lon="8.3216728"><ele>66.0</ele><time>2026-04-26T12:48:55.476Z</time></trkpt><trkpt lat="44.1752598" lon="8.321457"><ele>66.0</ele><time>2026-04-26T12:48:56.476Z</time></trkpt><trkpt lat="44.1752818" lon="8.321241"><ele>66.0</ele><time>2026-04-26T12:48:57.476Z</time></trkpt><trkpt lat="44.1752983" lon="8.3210192"><ele>69.33333333333333</ele><time>2026-04-26T12:48:58.475Z</time></trkpt><trkpt lat="44.1753142" lon="8.3207897"><ele>72.66666666666666</ele><time>2026-04-26T12:48:59.476Z</time></trkpt><trkpt lat="44.1753275" lon="8.3205527"><ele>76.0</ele><time>2026-04-26T12:49:00.477Z</time></trkpt><trkpt lat="44.1753438" lon="8.3203123"><ele>79.66666666666666</ele><time>2026-04-26T12:49:01.476Z</time></trkpt><trkpt lat="44.1753732" lon="8.3200772"><ele>83.33333333333333</ele><time>2026-04-26T12:49:02.475Z</time></trkpt><trkpt lat="44.1754162" lon="8.3198672"><ele>87.0</ele><time>2026-04-26T12:49:03.485Z</time></trkpt><trkpt lat="44.1754587" lon="8.319679"><ele>89.5</ele><time>2026-04-26T12:49:04.475Z</time></trkpt><trkpt lat="44.1754917" lon="8.3195097"><ele>92.0</ele><time>2026-04-26T12:49:05.475Z</time></trkpt><trkpt lat="44.1754972" lon="8.3193475"><ele>94.5</ele><time>2026-04-26T12:49:06.476Z</time></trkpt><trkpt lat="44.1754672" lon="8.3191828"><ele>97.0</ele><time>2026-04-26T12:49:07.475Z</time></trkpt><trkpt lat="44.1754163" lon="8.319007"><ele>98.25</ele><time>2026-04-26T12:49:08.475Z</time></trkpt><trkpt lat="44.1753777" lon="8.3188217"><ele>99.5</ele><time>2026-04-26T12:49:09.475Z</time></trkpt><trkpt lat="44.1753627" lon="8.3186313"><ele>100.75</ele><time>2026-04-26T12:49:10.474Z</time></trkpt><trkpt lat="44.1753783" lon="8.3184402"><ele>102.0</ele><time>2026-04-26T12:49:11.472Z</time></trkpt><trkpt lat="44.1754265" lon="8.3182525"><ele>102.0</ele><time>2026-04-26T12:49:12.473Z</time></trkpt><trkpt lat="44.1755087" lon="8.3180695"><ele>102.0</ele><time>2026-04-26T12:49:13.473Z</time></trkpt><trkpt lat="44.1756083" lon="8.3178817"><ele>102.0</ele><time>2026-04-26T12:49:14.474Z</time></trkpt><trkpt lat="44.1757142" lon="8.3176888"><ele>102.0</ele><time>2026-04-26T12:49:15.474Z</time></trkpt><trkpt lat="44.1758263" lon="8.3175037"><ele>102.0</ele><time>2026-04-26T12:49:16.475Z</time></trkpt><trkpt lat="44.1759582" lon="8.3173287"><ele>102.0</ele><time>2026-04-26T12:49:17.476Z</time></trkpt><trkpt lat="44.1760988" lon="8.317163"><ele>102.0</ele><time>2026-04-26T12:49:18.476Z</time></trkpt><trkpt lat="44.1762357" lon="8.3169808"><ele>102.0</ele><time>2026-04-26T12:49:19.476Z</time></trkpt><trkpt lat="44.1763735" lon="8.316776"><ele>102.0</ele><time>2026-04-26T12:49:20.476Z</time></trkpt><trkpt lat="44.1765107" lon="8.3165617"><ele>99.33333333333333</ele><time>2026-04-26T12:49:21.476Z</time></trkpt><trkpt lat="44.1766457" lon="8.3163473"><ele>96.66666666666666</ele><time>2026-04-26T12:49:22.475Z</time></trkpt><trkpt lat="44.1767832" lon="8.3161265"><ele>94.0</ele><time>2026-04-26T12:49:23.475Z</time></trkpt><trkpt lat="44.176921" lon="8.31591"><ele>94.0</ele><time>2026-04-26T12:49:24.476Z</time></trkpt><trkpt lat="44.1770632" lon="8.315708"><ele>94.0</ele><time>2026-04-26T12:49:25.476Z</time></trkpt><trkpt lat="44.1772038" lon="8.315517"><ele>94.0</ele><time>2026-04-26T12:49:26.476Z</time></trkpt><trkpt lat="44.1773407" lon="8.3153312"><ele>92.0</ele><time>2026-04-26T12:49:27.477Z</time></trkpt><trkpt lat="44.1774723" lon="8.3151433"><ele>90.0</ele><time>2026-04-26T12:49:28.475Z</time></trkpt><trkpt lat="44.1775958" lon="8.3149373"><ele>88.0</ele><time>2026-04-26T12:49:29.477Z</time></trkpt><trkpt lat="44.177707" lon="8.3147158"><ele>98.33333333333333</ele><time>2026-04-26T12:49:30.476Z</time></trkpt><trkpt lat="44.1777992" lon="8.314498"><ele>108.66666666666666</ele><time>2026-04-26T12:49:31.478Z</time></trkpt><trkpt lat="44.177879" lon="8.3142972"><ele>119.0</ele><time>2026-04-26T12:49:32.478Z</time></trkpt><trkpt lat="44.1779677" lon="8.3141168"><ele>119.0</ele><time>2026-04-26T12:49:33.478Z</time></trkpt><trkpt lat="44.178082" lon="8.3139597"><ele>119.0</ele><time>2026-04-26T12:49:34.476Z</time></trkpt><trkpt lat="44.1782135" lon="8.313811"><ele>119.0</ele><time>2026-04-26T12:49:35.475Z</time></trkpt><trkpt lat="44.178346" lon="8.3136558"><ele>114.0</ele><time>2026-04-26T12:49:36.474Z</time></trkpt><trkpt lat="44.1784682" lon="8.313477"><ele>109.0</ele><time>2026-04-26T12:49:37.475Z</time></trkpt><trkpt lat="44.1785765" lon="8.3132855"><ele>104.0</ele><time>2026-04-26T12:49:38.475Z</time></trkpt><trkpt lat="44.1786642" lon="8.3130998"><ele>115.33333333333333</ele><time>2026-04-26T12:49:39.477Z</time></trkpt><trkpt lat="44.1787278" lon="8.3128873"><ele>126.66666666666666</ele><time>2026-04-26T12:49:40.476Z</time></trkpt><trkpt lat="44.1787682" lon="8.3126503"><ele>138.0</ele><time>2026-04-26T12:49:41.477Z</time></trkpt><trkpt lat="44.1787968" lon="8.3124207"><ele>145.66666666666666</ele><time>2026-04-26T12:49:42.477Z</time></trkpt><trkpt lat="44.1788277" lon="8.3122107"><ele>153.33333333333331</ele><time>2026-04-26T12:49:43.474Z</time></trkpt><trkpt lat="44.1788728" lon="8.3120077"><ele>161.0</ele><time>2026-04-26T12:49:44.475Z</time></trkpt><trkpt lat="44.1789337" lon="8.3118172"><ele>161.0</ele><time>2026-04-26T12:49:45.477Z</time></trkpt><trkpt lat="44.1789855" lon="8.3116425"><ele>161.0</ele><time>2026-04-26T12:49:46.476Z</time></trkpt><trkpt lat="44.1790133" lon="8.3114845"><ele>161.0</ele><time>2026-04-26T12:49:47.475Z</time></trkpt><trkpt lat="44.1790208" lon="8.3113328"><ele>161.0</ele><time>2026-04-26T12:49:48.477Z</time></trkpt><trkpt lat="44.1790125" lon="8.3111897"><ele>160.0</ele><time>2026-04-26T12:49:49.477Z</time></trkpt><trkpt lat="44.179002" lon="8.311063"><ele>159.0</ele><time>2026-04-26T12:49:50.479Z</time></trkpt><trkpt lat="44.1790052" lon="8.310958"><ele>158.0</ele><time>2026-04-26T12:49:51.477Z</time></trkpt><trkpt lat="44.1790018" lon="8.3108647"><ele>157.0</ele><time>2026-04-26T12:49:52.478Z</time></trkpt><trkpt lat="44.1789725" lon="8.3107862"><ele>156.0</ele><time>2026-04-26T12:49:53.477Z</time></trkpt><trkpt lat="44.1789192" lon="8.3107172"><ele>155.0</ele><time>2026-04-26T12:49:54.478Z</time></trkpt><trkpt lat="44.1788677" lon="8.3106298"><ele>155.4</ele><time>2026-04-26T12:49:55.477Z</time></trkpt><trkpt lat="44.1788458" lon="8.3105232"><ele>155.8</ele><time>2026-04-26T12:49:56.477Z</time></trkpt><trkpt lat="44.1788645" lon="8.310407"><ele>156.2</ele><time>2026-04-26T12:49:57.478Z</time></trkpt><trkpt lat="44.1789275" lon="8.3102957"><ele>156.6</ele><time>2026-04-26T12:49:58.478Z</time></trkpt><trkpt lat="44.1790217" lon="8.3102137"><ele>157.0</ele><time>2026-04-26T12:49:59.475Z</time></trkpt><trkpt lat="44.1791328" lon="8.3101455"><ele>154.0</ele><time>2026-04-26T12:50:00.475Z</time></trkpt><trkpt lat="44.1792377" lon="8.3100592"><ele>151.0</ele><time>2026-04-26T12:50:01.474Z</time></trkpt><trkpt lat="44.1793193" lon="8.3099342"><ele>148.0</ele><time>2026-04-26T12:50:02.474Z</time></trkpt><trkpt lat="44.179383" lon="8.3097668"><ele>145.0</ele><time>2026-04-26T12:50:03.478Z</time></trkpt><trkpt lat="44.1794423" lon="8.3095782"><ele>145.0</ele><time>2026-04-26T12:50:04.479Z</time></trkpt><trkpt lat="44.179506" lon="8.3093765"><ele>145.0</ele><time>2026-04-26T12:50:05.478Z</time></trkpt><trkpt lat="44.1795727" lon="8.3091658"><ele>145.0</ele><time>2026-04-26T12:50:06.478Z</time></trkpt><trkpt lat="44.1796328" lon="8.3089742"><ele>143.75</ele><time>2026-04-26T12:50:07.478Z</time></trkpt><trkpt lat="44.1796895" lon="8.308805"><ele>142.5</ele><time>2026-04-26T12:50:08.477Z</time></trkpt><trkpt lat="44.1797555" lon="8.3086622"><ele>141.25</ele><time>2026-04-26T12:50:09.478Z</time></trkpt><trkpt lat="44.1798432" lon="8.3085537"><ele>140.0</ele><time>2026-04-26T12:50:10.477Z</time></trkpt><trkpt lat="44.1799493" lon="8.3084958"><ele>140.0</ele><time>2026-04-26T12:50:11.477Z</time></trkpt><trkpt lat="44.1800818" lon="8.3084627"><ele>140.0</ele><time>2026-04-26T12:50:12.478Z</time></trkpt><trkpt lat="44.1802263" lon="8.3084258"><ele>140.0</ele><time>2026-04-26T12:50:13.478Z</time></trkpt><trkpt lat="44.1803612" lon="8.3083813"><ele>140.0</ele><time>2026-04-26T12:50:14.478Z</time></trkpt><trkpt lat="44.1804738" lon="8.3083137"><ele>140.0</ele><time>2026-04-26T12:50:15.477Z</time></trkpt><trkpt lat="44.1805618" lon="8.3082098"><ele>140.0</ele><time>2026-04-26T12:50:16.48Z</time></trkpt><trkpt lat="44.1806218" lon="8.3080687"><ele>140.0</ele><time>2026-04-26T12:50:17.478Z</time></trkpt><trkpt lat="44.1806548" lon="8.3078993"><ele>140.0</ele><time>2026-04-26T12:50:18.478Z</time></trkpt><trkpt lat="44.1806587" lon="8.3077223"><ele>143.25</ele><time>2026-04-26T12:50:19.478Z</time></trkpt><trkpt lat="44.1806312" lon="8.30756"><ele>146.5</ele><time>2026-04-26T12:50:20.479Z</time></trkpt><trkpt lat="44.1805637" lon="8.3074242"><ele>149.75</ele><time>2026-04-26T12:50:21.481Z</time></trkpt><trkpt lat="44.1804588" lon="8.3073145"><ele>153.0</ele><time>2026-04-26T12:50:22.481Z</time></trkpt><trkpt lat="44.1803243" lon="8.3072262"><ele>154.25</ele><time>2026-04-26T12:50:23.478Z</time></trkpt><trkpt lat="44.1801898" lon="8.3071522"><ele>155.5</ele><time>2026-04-26T12:50:24.479Z</time></trkpt><trkpt lat="44.1800787" lon="8.3070837"><ele>156.75</ele><time>2026-04-26T12:50:25.478Z</time></trkpt><trkpt lat="44.1799968" lon="8.3069978"><ele>158.0</ele><time>2026-04-26T12:50:26.476Z</time></trkpt><trkpt lat="44.1799592" lon="8.306891"><ele>158.0</ele><time>2026-04-26T12:50:27.474Z</time></trkpt><trkpt lat="44.1799682" lon="8.3067773"><ele>158.0</ele><time>2026-04-26T12:50:28.476Z</time></trkpt><trkpt lat="44.1800237" lon="8.3066638"><ele>158.0</ele><time>2026-04-26T12:50:29.48Z</time></trkpt><trkpt lat="44.1801173" lon="8.3065455"><ele>158.0</ele><time>2026-04-26T12:50:30.477Z</time></trkpt><trkpt lat="44.1802217" lon="8.3064245"><ele>158.0</ele><time>2026-04-26T12:50:31.479Z</time></trkpt><trkpt lat="44.1803337" lon="8.3062957"><ele>153.66666666666666</ele><time>2026-04-26T12:50:32.481Z</time></trkpt><trkpt lat="44.180453" lon="8.306158"><ele>149.33333333333334</ele><time>2026-04-26T12:50:33.479Z</time></trkpt><trkpt lat="44.1805753" lon="8.3060148"><ele>145.0</ele><time>2026-04-26T12:50:34.48Z</time></trkpt><trkpt lat="44.1806848" lon="8.3058848"><ele>145.0</ele><time>2026-04-26T12:50:35.479Z</time></trkpt><trkpt lat="44.1807753" lon="8.3057705"><ele>145.0</ele><time>2026-04-26T12:50:36.481Z</time></trkpt><trkpt lat="44.1808393" lon="8.3056597"><ele>145.0</ele><time>2026-04-26T12:50:37.481Z</time></trkpt><trkpt lat="44.180864" lon="8.3055347"><ele>145.0</ele><time>2026-04-26T12:50:38.477Z</time></trkpt><trkpt lat="44.1808455" lon="8.305391"><ele>145.0</ele><time>2026-04-26T12:50:39.479Z</time></trkpt><trkpt lat="44.1807898" lon="8.3052487"><ele>147.8</ele><time>2026-04-26T12:50:40.48Z</time></trkpt><trkpt lat="44.1807237" lon="8.3051302"><ele>150.6</ele><time>2026-04-26T12:50:41.479Z</time></trkpt><trkpt lat="44.180677" lon="8.3050183"><ele>153.4</ele><time>2026-04-26T12:50:42.481Z</time></trkpt><trkpt lat="44.180669" lon="8.3049032"><ele>156.2</ele><time>2026-04-26T12:50:43.479Z</time></trkpt><trkpt lat="44.180705" lon="8.3047893"><ele>159.0</ele><time>2026-04-26T12:50:44.479Z</time></trkpt><trkpt lat="44.1807798" lon="8.3046845"><ele>161.4</ele><time>2026-04-26T12:50:45.479Z</time></trkpt><trkpt lat="44.1808735" lon="8.304586"><ele>163.8</ele><time>2026-04-26T12:50:46.479Z</time></trkpt><trkpt lat="44.1809515" lon="8.3044935"><ele>166.20000000000002</ele><time>2026-04-26T12:50:47.479Z</time></trkpt><trkpt lat="44.1810113" lon="8.3043795"><ele>168.60000000000002</ele><time>2026-04-26T12:50:48.476Z</time></trkpt><trkpt lat="44.1810578" lon="8.3042333"><ele>171.0</ele><time>2026-04-26T12:50:49.476Z</time></trkpt><trkpt lat="44.1810933" lon="8.3040687"><ele>173.25</ele><time>2026-04-26T12:50:50.476Z</time></trkpt><trkpt lat="44.1811222" lon="8.3039013"><ele>175.5</ele><time>2026-04-26T12:50:51.475Z</time></trkpt><trkpt lat="44.1811392" lon="8.303736"><ele>177.75</ele><time>2026-04-26T12:50:52.478Z</time></trkpt><trkpt lat="44.1811308" lon="8.3035603"><ele>180.0</ele><time>2026-04-26T12:50:53.478Z</time></trkpt><trkpt lat="44.1810915" lon="8.30338"><ele>180.0</ele><time>2026-04-26T12:50:54.477Z</time></trkpt><trkpt lat="44.181059" lon="8.3031973"><ele>180.0</ele><time>2026-04-26T12:50:55.48Z</time></trkpt><trkpt lat="44.1810525" lon="8.3030037"><ele>180.0</ele><time>2026-04-26T12:50:56.479Z</time></trkpt><trkpt lat="44.1810678" lon="8.3027992"><ele>180.0</ele><time>2026-04-26T12:50:57.479Z</time></trkpt><trkpt lat="44.1810865" lon="8.3025947"><ele>182.25</ele><time>2026-04-26T12:50:58.477Z</time></trkpt><trkpt lat="44.1811062" lon="8.3024007"><ele>184.5</ele><time>2026-04-26T12:50:59.478Z</time></trkpt><trkpt lat="44.1811345" lon="8.3022152"><ele>186.75</ele><time>2026-04-26T12:51:00.479Z</time></trkpt><trkpt lat="44.181177" lon="8.3020367"><ele>189.0</ele><time>2026-04-26T12:51:01.48Z</time></trkpt><trkpt lat="44.1812315" lon="8.301869"><ele>189.25</ele><time>2026-04-26T12:51:02.479Z</time></trkpt><trkpt lat="44.1812998" lon="8.3017082"><ele>189.5</ele><time>2026-04-26T12:51:03.479Z</time></trkpt><trkpt lat="44.1813808" lon="8.3015625"><ele>189.75</ele><time>2026-04-26T12:51:04.489Z</time></trkpt><trkpt lat="44.1814698" lon="8.301426"><ele>190.0</ele><time>2026-04-26T12:51:05.479Z</time></trkpt><trkpt lat="44.181554" lon="8.3013012"><ele>190.0</ele><time>2026-04-26T12:51:06.478Z</time></trkpt><trkpt lat="44.1816253" lon="8.3011662"><ele>190.0</ele><time>2026-04-26T12:51:07.48Z</time></trkpt><trkpt lat="44.1816693" lon="8.3010065"><ele>190.0</ele><time>2026-04-26T12:51:08.478Z</time></trkpt><trkpt lat="44.1816868" lon="8.3008185"><ele>190.0</ele><time>2026-04-26T12:51:09.479Z</time></trkpt><trkpt lat="44.1817" lon="8.3006193"><ele>192.75</ele><time>2026-04-26T12:51:10.478Z</time></trkpt><trkpt lat="44.1817233" lon="8.3004245"><ele>195.5</ele><time>2026-04-26T12:51:11.478Z</time></trkpt><trkpt lat="44.1817618" lon="8.3002392"><ele>198.25</ele><time>2026-04-26T12:51:12.477Z</time></trkpt><trkpt lat="44.1818253" lon="8.300061"><ele>201.0</ele><time>2026-04-26T12:51:13.476Z</time></trkpt><trkpt lat="44.1819055" lon="8.2998863"><ele>202.0</ele><time>2026-04-26T12:51:14.475Z</time></trkpt><trkpt lat="44.1819987" lon="8.2997187"><ele>203.0</ele><time>2026-04-26T12:51:15.477Z</time></trkpt><trkpt lat="44.1820932" lon="8.2995543"><ele>204.0</ele><time>2026-04-26T12:51:16.478Z</time></trkpt><trkpt lat="44.1821775" lon="8.2993953"><ele>205.0</ele><time>2026-04-26T12:51:17.479Z</time></trkpt><trkpt lat="44.1822503" lon="8.2992352"><ele>205.0</ele><time>2026-04-26T12:51:18.479Z</time></trkpt><trkpt lat="44.182318" lon="8.2990765"><ele>205.0</ele><time>2026-04-26T12:51:19.48Z</time></trkpt><trkpt lat="44.1823845" lon="8.2989165"><ele>205.0</ele><time>2026-04-26T12:51:20.481Z</time></trkpt><trkpt lat="44.182444" lon="8.298769"><ele>205.0</ele><time>2026-04-26T12:51:21.482Z</time></trkpt><trkpt lat="44.1824943" lon="8.2986412"><ele>204.99999999999997</ele><time>2026-04-26T12:51:22.479Z</time></trkpt><trkpt lat="44.182546" lon="8.2985372"><ele>205.0</ele><time>2026-04-26T12:51:23.48Z</time></trkpt><trkpt lat="44.182587" lon="8.2984343"><ele>205.0</ele><time>2026-04-26T12:51:24.481Z</time></trkpt><trkpt lat="44.1826143" lon="8.2983357"><ele>205.0</ele><time>2026-04-26T12:51:25.477Z</time></trkpt><trkpt lat="44.1826542" lon="8.2982612"><ele>204.99999999999997</ele><time>2026-04-26T12:51:26.476Z</time></trkpt><trkpt lat="44.1827093" lon="8.2981942"><ele>205.0</ele><time>2026-04-26T12:51:27.477Z</time></trkpt><trkpt lat="44.182774" lon="8.2981248"><ele>203.99999999999997</ele><time>2026-04-26T12:51:28.475Z</time></trkpt><trkpt lat="44.1828387" lon="8.298047"><ele>203.0</ele><time>2026-04-26T12:51:29.475Z</time></trkpt><trkpt lat="44.1828992" lon="8.2979635"><ele>202.0</ele><time>2026-04-26T12:51:30.476Z</time></trkpt><trkpt lat="44.1829443" lon="8.2978898"><ele>201.0</ele><time>2026-04-26T12:51:31.476Z</time></trkpt><trkpt lat="44.1829918" lon="8.2977882"><ele>199.99999999999997</ele><time>2026-04-26T12:51:33.476Z</time></trkpt><trkpt lat="44.1829822" lon="8.2976825"><ele>199.0</ele><time>2026-04-26T12:52:32.475Z</time></trkpt><trkpt lat="44.1830002" lon="8.2975172"><ele>199.0</ele><time>2026-04-26T12:52:34.475Z</time></trkpt><trkpt lat="44.1830118" lon="8.2974072"><ele>199.0</ele><time>2026-04-26T12:52:35.475Z</time></trkpt><trkpt lat="44.183023" lon="8.2972873"><ele>199.0</ele><time>2026-04-26T12:52:36.477Z</time></trkpt><trkpt lat="44.1830412" lon="8.2971565"><ele>199.0</ele><time>2026-04-26T12:52:37.474Z</time></trkpt><trkpt lat="44.1830587" lon="8.2970055"><ele>199.0</ele><time>2026-04-26T12:52:38.474Z</time></trkpt><trkpt lat="44.1830742" lon="8.2968462"><ele>198.0</ele><time>2026-04-26T12:52:39.474Z</time></trkpt><trkpt lat="44.183088" lon="8.2966837"><ele>197.0</ele><time>2026-04-26T12:52:40.474Z</time></trkpt><trkpt lat="44.1830988" lon="8.2965182"><ele>196.0</ele><time>2026-04-26T12:52:41.474Z</time></trkpt><trkpt lat="44.1831053" lon="8.296351"><ele>195.0</ele><time>2026-04-26T12:52:42.476Z</time></trkpt><trkpt lat="44.183105" lon="8.2961928"><ele>195.0</ele><time>2026-04-26T12:52:43.473Z</time></trkpt><trkpt lat="44.1830955" lon="8.2960508"><ele>195.0</ele><time>2026-04-26T12:52:44.475Z</time></trkpt><trkpt lat="44.1830825" lon="8.295917"><ele>195.0</ele><time>2026-04-26T12:52:45.477Z</time></trkpt><trkpt lat="44.1830805" lon="8.2957828"><ele>195.0</ele><time>2026-04-26T12:52:46.478Z</time></trkpt><trkpt lat="44.1830947" lon="8.295646"><ele>195.0</ele><time>2026-04-26T12:52:47.478Z</time></trkpt><trkpt lat="44.1831328" lon="8.2955108"><ele>197.25</ele><time>2026-04-26T12:52:48.478Z</time></trkpt><trkpt lat="44.1831918" lon="8.2953798"><ele>199.5</ele><time>2026-04-26T12:52:49.479Z</time></trkpt><trkpt lat="44.1832577" lon="8.2952493"><ele>201.75</ele><time>2026-04-26T12:52:50.476Z</time></trkpt><trkpt lat="44.1833268" lon="8.2951168"><ele>204.0</ele><time>2026-04-26T12:52:51.476Z</time></trkpt><trkpt lat="44.1833907" lon="8.294993"><ele>204.0</ele><time>2026-04-26T12:52:52.474Z</time></trkpt><trkpt lat="44.1834552" lon="8.2948837"><ele>204.0</ele><time>2026-04-26T12:52:53.475Z</time></trkpt><trkpt lat="44.1835313" lon="8.2948013"><ele>204.0</ele><time>2026-04-26T12:52:54.476Z</time></trkpt><trkpt lat="44.1836165" lon="8.2947528"><ele>204.0</ele><time>2026-04-26T12:52:55.474Z</time></trkpt><trkpt lat="44.1837183" lon="8.2947345"><ele>204.0</ele><time>2026-04-26T12:52:56.478Z</time></trkpt><trkpt lat="44.1838315" lon="8.2947367"><ele>203.75</ele><time>2026-04-26T12:52:57.476Z</time></trkpt><trkpt lat="44.18395" lon="8.2947358"><ele>203.5</ele><time>2026-04-26T12:52:58.474Z</time></trkpt><trkpt lat="44.1840748" lon="8.2947252"><ele>203.25</ele><time>2026-04-26T12:52:59.475Z</time></trkpt><trkpt lat="44.1842052" lon="8.294685"><ele>203.0</ele><time>2026-04-26T12:53:00.475Z</time></trkpt><trkpt lat="44.184332" lon="8.294634"><ele>203.0</ele><time>2026-04-26T12:53:01.475Z</time></trkpt><trkpt lat="44.1844568" lon="8.294594"><ele>203.0</ele><time>2026-04-26T12:53:02.475Z</time></trkpt><trkpt lat="44.184582" lon="8.2945717"><ele>203.0</ele><time>2026-04-26T12:53:03.475Z</time></trkpt><trkpt lat="44.1847125" lon="8.2945667"><ele>203.0</ele><time>2026-04-26T12:53:04.475Z</time></trkpt><trkpt lat="44.1848483" lon="8.2945865"><ele>204.75</ele><time>2026-04-26T12:53:05.475Z</time></trkpt><trkpt lat="44.1849803" lon="8.29463"><ele>206.5</ele><time>2026-04-26T12:53:06.475Z</time></trkpt><trkpt lat="44.1851113" lon="8.2946777"><ele>208.25</ele><time>2026-04-26T12:53:07.475Z</time></trkpt><trkpt lat="44.185244" lon="8.2947073"><ele>210.0</ele><time>2026-04-26T12:53:08.478Z</time></trkpt><trkpt lat="44.1853777" lon="8.2947095"><ele>210.0</ele><time>2026-04-26T12:53:09.475Z</time></trkpt><trkpt lat="44.1855053" lon="8.2946923"><ele>210.0</ele><time>2026-04-26T12:53:10.476Z</time></trkpt><trkpt lat="44.1856247" lon="8.2946765"><ele>210.0</ele><time>2026-04-26T12:53:11.475Z</time></trkpt><trkpt lat="44.1857462" lon="8.2946772"><ele>210.0</ele><time>2026-04-26T12:53:12.476Z</time></trkpt><trkpt lat="44.1858723" lon="8.2946997"><ele>210.5</ele><time>2026-04-26T12:53:13.476Z</time></trkpt><trkpt lat="44.1860043" lon="8.294739"><ele>211.0</ele><time>2026-04-26T12:53:14.475Z</time></trkpt><trkpt lat="44.1861403" lon="8.294787"><ele>211.5</ele><time>2026-04-26T12:53:15.474Z</time></trkpt><trkpt lat="44.186278" lon="8.2948293"><ele>212.0</ele><time>2026-04-26T12:53:16.473Z</time></trkpt><trkpt lat="44.186412" lon="8.2948505"><ele>219.0</ele><time>2026-04-26T12:53:17.472Z</time></trkpt><trkpt lat="44.1865415" lon="8.2948487"><ele>226.0</ele><time>2026-04-26T12:53:18.474Z</time></trkpt><trkpt lat="44.1866697" lon="8.2948395"><ele>233.0</ele><time>2026-04-26T12:53:19.473Z</time></trkpt><trkpt lat="44.1867975" lon="8.2948443"><ele>240.0</ele><time>2026-04-26T12:53:20.473Z</time></trkpt><trkpt lat="44.1869223" lon="8.2948727"><ele>240.0</ele><time>2026-04-26T12:53:21.475Z</time></trkpt><trkpt lat="44.1870422" lon="8.2949142"><ele>240.0</ele><time>2026-04-26T12:53:22.475Z</time></trkpt><trkpt lat="44.1871473" lon="8.2949413"><ele>240.0</ele><time>2026-04-26T12:53:23.473Z</time></trkpt><trkpt lat="44.1872418" lon="8.2949358"><ele>240.0</ele><time>2026-04-26T12:53:24.476Z</time></trkpt><trkpt lat="44.1873277" lon="8.2948808"><ele>240.0</ele><time>2026-04-26T12:53:25.475Z</time></trkpt><trkpt lat="44.187407" lon="8.2947802"><ele>237.25</ele><time>2026-04-26T12:53:26.473Z</time></trkpt><trkpt lat="44.1874828" lon="8.2946493"><ele>234.5</ele><time>2026-04-26T12:53:27.475Z</time></trkpt><trkpt lat="44.187558" lon="8.2945112"><ele>231.75</ele><time>2026-04-26T12:53:28.476Z</time></trkpt><trkpt lat="44.1876335" lon="8.2943732"><ele>229.0</ele><time>2026-04-26T12:53:29.474Z</time></trkpt><trkpt lat="44.1877075" lon="8.2942475"><ele>229.0</ele><time>2026-04-26T12:53:30.476Z</time></trkpt><trkpt lat="44.187793" lon="8.2941437"><ele>229.0</ele><time>2026-04-26T12:53:31.474Z</time></trkpt><trkpt lat="44.1878927" lon="8.2940495"><ele>229.0</ele><time>2026-04-26T12:53:32.475Z</time></trkpt><trkpt lat="44.1880037" lon="8.2939678"><ele>229.0</ele><time>2026-04-26T12:53:33.474Z</time></trkpt><trkpt lat="44.188124" lon="8.2939045"><ele>226.75</ele><time>2026-04-26T12:53:34.475Z</time></trkpt><trkpt lat="44.1882577" lon="8.2938658"><ele>224.5</ele><time>2026-04-26T12:53:35.476Z</time></trkpt><trkpt lat="44.1883898" lon="8.293835"><ele>222.25</ele><time>2026-04-26T12:53:36.478Z</time></trkpt><trkpt lat="44.1885238" lon="8.2937952"><ele>220.0</ele><time>2026-04-26T12:53:37.476Z</time></trkpt><trkpt lat="44.1886608" lon="8.2937467"><ele>220.0</ele><time>2026-04-26T12:53:38.477Z</time></trkpt><trkpt lat="44.1887957" lon="8.293695"><ele>220.0</ele><time>2026-04-26T12:53:39.476Z</time></trkpt><trkpt lat="44.1889248" lon="8.2936603"><ele>220.0</ele><time>2026-04-26T12:53:40.473Z</time></trkpt><trkpt lat="44.1890518" lon="8.2936298"><ele>220.0</ele><time>2026-04-26T12:53:41.474Z</time></trkpt><trkpt lat="44.1891797" lon="8.293574"><ele>224.0</ele><time>2026-04-26T12:53:42.473Z</time></trkpt><trkpt lat="44.1893027" lon="8.2934993"><ele>228.0</ele><time>2026-04-26T12:53:43.474Z</time></trkpt><trkpt lat="44.1894235" lon="8.2934228"><ele>232.0</ele><time>2026-04-26T12:53:44.476Z</time></trkpt><trkpt lat="44.1895372" lon="8.2933535"><ele>236.0</ele><time>2026-04-26T12:53:45.475Z</time></trkpt><trkpt lat="44.18965" lon="8.2932817"><ele>236.0</ele><time>2026-04-26T12:53:46.476Z</time></trkpt><trkpt lat="44.1897638" lon="8.2932198"><ele>236.0</ele><time>2026-04-26T12:53:47.477Z</time></trkpt><trkpt lat="44.1898833" lon="8.2931885"><ele>236.0</ele><time>2026-04-26T12:53:48.475Z</time></trkpt><trkpt lat="44.1900077" lon="8.293185"><ele>236.0</ele><time>2026-04-26T12:53:49.474Z</time></trkpt><trkpt lat="44.1901353" lon="8.2932018"><ele>239.60000000000002</ele><time>2026-04-26T12:53:50.475Z</time></trkpt><trkpt lat="44.1902493" lon="8.2932283"><ele>243.20000000000002</ele><time>2026-04-26T12:53:51.477Z</time></trkpt><trkpt lat="44.1903587" lon="8.2932478"><ele>246.79999999999998</ele><time>2026-04-26T12:53:52.475Z</time></trkpt><trkpt lat="44.1904663" lon="8.2932432"><ele>250.39999999999998</ele><time>2026-04-26T12:53:53.476Z</time></trkpt><trkpt lat="44.1905732" lon="8.2932035"><ele>254.0</ele><time>2026-04-26T12:53:54.475Z</time></trkpt><trkpt lat="44.1906755" lon="8.2931297"><ele>253.25</ele><time>2026-04-26T12:53:55.475Z</time></trkpt><trkpt lat="44.1907662" lon="8.293017"><ele>252.5</ele><time>2026-04-26T12:53:56.474Z</time></trkpt><trkpt lat="44.1908482" lon="8.2928773"><ele>251.75</ele><time>2026-04-26T12:53:57.476Z</time></trkpt><trkpt lat="44.1909335" lon="8.292734"><ele>251.0</ele><time>2026-04-26T12:53:58.475Z</time></trkpt><trkpt lat="44.1910238" lon="8.2926025"><ele>251.0</ele><time>2026-04-26T12:53:59.475Z</time></trkpt><trkpt lat="44.1910987" lon="8.2924667"><ele>251.0</ele><time>2026-04-26T12:54:00.477Z</time></trkpt><trkpt lat="44.191158" lon="8.2923332"><ele>251.0</ele><time>2026-04-26T12:54:01.476Z</time></trkpt><trkpt lat="44.191225" lon="8.2922075"><ele>251.0</ele><time>2026-04-26T12:54:02.477Z</time></trkpt><trkpt lat="44.1913085" lon="8.2920935"><ele>252.75</ele><time>2026-04-26T12:54:03.476Z</time></trkpt><trkpt lat="44.1914033" lon="8.2920003"><ele>254.5</ele><time>2026-04-26T12:54:04.473Z</time></trkpt><trkpt lat="44.1915193" lon="8.2919252"><ele>256.25</ele><time>2026-04-26T12:54:05.473Z</time></trkpt><trkpt lat="44.1916483" lon="8.2918658"><ele>258.0</ele><time>2026-04-26T12:54:06.474Z</time></trkpt><trkpt lat="44.191774" lon="8.2918025"><ele>258.0</ele><time>2026-04-26T12:54:07.474Z</time></trkpt><trkpt lat="44.1918857" lon="8.2917293"><ele>258.0</ele><time>2026-04-26T12:54:08.473Z</time></trkpt><trkpt lat="44.1919923" lon="8.2916582"><ele>258.0</ele><time>2026-04-26T12:54:09.475Z</time></trkpt><trkpt lat="44.1921038" lon="8.2916075"><ele>258.0</ele><time>2026-04-26T12:54:10.473Z</time></trkpt><trkpt lat="44.1922123" lon="8.2915743"><ele>258.0</ele><time>2026-04-26T12:54:11.474Z</time></trkpt><trkpt lat="44.1923183" lon="8.2915343"><ele>258.0</ele><time>2026-04-26T12:54:12.474Z</time></trkpt><trkpt lat="44.192423" lon="8.2914642"><ele>258.0</ele><time>2026-04-26T12:54:13.474Z</time></trkpt><trkpt lat="44.1925135" lon="8.2913652"><ele>258.0</ele><time>2026-04-26T12:54:14.474Z</time></trkpt><trkpt lat="44.192589" lon="8.2912395"><ele>260.5</ele><time>2026-04-26T12:54:15.475Z</time></trkpt><trkpt lat="44.1926497" lon="8.291095"><ele>263.0</ele><time>2026-04-26T12:54:16.475Z</time></trkpt><trkpt lat="44.1926977" lon="8.2909412"><ele>265.5</ele><time>2026-04-26T12:54:17.476Z</time></trkpt><trkpt lat="44.1927418" lon="8.2907757"><ele>268.0</ele><time>2026-04-26T12:54:18.476Z</time></trkpt><trkpt lat="44.1927993" lon="8.2906127"><ele>266.75</ele><time>2026-04-26T12:54:19.475Z</time></trkpt><trkpt lat="44.1928625" lon="8.2904488"><ele>265.5</ele><time>2026-04-26T12:54:20.477Z</time></trkpt><trkpt lat="44.1929268" lon="8.2902932"><ele>264.25</ele><time>2026-04-26T12:54:21.477Z</time></trkpt><trkpt lat="44.1929867" lon="8.2901528"><ele>263.0</ele><time>2026-04-26T12:54:22.479Z</time></trkpt><trkpt lat="44.1930507" lon="8.2900358"><ele>263.0</ele><time>2026-04-26T12:54:23.477Z</time></trkpt><trkpt lat="44.1931335" lon="8.2899427"><ele>263.0</ele><time>2026-04-26T12:54:24.476Z</time></trkpt><trkpt lat="44.1932305" lon="8.2898702"><ele>263.0</ele><time>2026-04-26T12:54:25.476Z</time></trkpt><trkpt lat="44.1933255" lon="8.2897945"><ele>263.0</ele><time>2026-04-26T12:54:26.476Z</time></trkpt><trkpt lat="44.1934103" lon="8.2896853"><ele>263.0</ele><time>2026-04-26T12:54:27.478Z</time></trkpt><trkpt lat="44.19347" lon="8.2895407"><ele>268.25</ele><time>2026-04-26T12:54:28.475Z</time></trkpt><trkpt lat="44.1934953" lon="8.2893743"><ele>273.5</ele><time>2026-04-26T12:54:29.474Z</time></trkpt><trkpt lat="44.1935038" lon="8.2891928"><ele>278.75</ele><time>2026-04-26T12:54:30.477Z</time></trkpt><trkpt lat="44.1935062" lon="8.2890177"><ele>284.0</ele><time>2026-04-26T12:54:31.475Z</time></trkpt><trkpt lat="44.1935045" lon="8.2888427"><ele>284.75</ele><time>2026-04-26T12:54:32.475Z</time></trkpt><trkpt lat="44.1935087" lon="8.288666"><ele>285.5</ele><time>2026-04-26T12:54:33.477Z</time></trkpt><trkpt lat="44.1935118" lon="8.2884942"><ele>286.25</ele><time>2026-04-26T12:54:34.477Z</time></trkpt><trkpt lat="44.1935137" lon="8.2883232"><ele>287.0</ele><time>2026-04-26T12:54:35.477Z</time></trkpt><trkpt lat="44.1935037" lon="8.2881467"><ele>288.25</ele><time>2026-04-26T12:54:36.477Z</time></trkpt><trkpt lat="44.1934772" lon="8.287972"><ele>289.5</ele><time>2026-04-26T12:54:37.475Z</time></trkpt><trkpt lat="44.1934323" lon="8.2878017"><ele>290.75</ele><time>2026-04-26T12:54:38.478Z</time></trkpt><trkpt lat="44.193379" lon="8.2876402"><ele>292.0</ele><time>2026-04-26T12:54:39.476Z</time></trkpt><trkpt lat="44.193316" lon="8.2874972"><ele>292.0</ele><time>2026-04-26T12:54:40.477Z</time></trkpt><trkpt lat="44.1932397" lon="8.2873705"><ele>292.0</ele><time>2026-04-26T12:54:41.477Z</time></trkpt><trkpt lat="44.1931503" lon="8.2872565"><ele>292.0</ele><time>2026-04-26T12:54:42.479Z</time></trkpt><trkpt lat="44.1930577" lon="8.2871592"><ele>292.0</ele><time>2026-04-26T12:54:43.479Z</time></trkpt><trkpt lat="44.1929728" lon="8.2870698"><ele>289.8</ele><time>2026-04-26T12:54:44.479Z</time></trkpt><trkpt lat="44.192904" lon="8.2869722"><ele>287.6</ele><time>2026-04-26T12:54:45.479Z</time></trkpt><trkpt lat="44.1928652" lon="8.2868498"><ele>285.40000000000003</ele><time>2026-04-26T12:54:46.478Z</time></trkpt><trkpt lat="44.1928645" lon="8.2867043"><ele>283.2</ele><time>2026-04-26T12:54:47.479Z</time></trkpt><trkpt lat="44.1929047" lon="8.2865547"><ele>281.0</ele><time>2026-04-26T12:54:48.479Z</time></trkpt><trkpt lat="44.1929778" lon="8.2864108"><ele>280.0</ele><time>2026-04-26T12:54:49.479Z</time></trkpt><trkpt lat="44.1930622" lon="8.2862697"><ele>279.0</ele><time>2026-04-26T12:54:50.479Z</time></trkpt><trkpt lat="44.1931365" lon="8.2861387"><ele>278.0</ele><time>2026-04-26T12:54:51.478Z</time></trkpt><trkpt lat="44.193201" lon="8.2860068"><ele>277.0</ele><time>2026-04-26T12:54:52.478Z</time></trkpt><trkpt lat="44.1932578" lon="8.2858643"><ele>281.5</ele><time>2026-04-26T12:54:53.477Z</time></trkpt><trkpt lat="44.1932993" lon="8.2857138"><ele>286.0</ele><time>2026-04-26T12:54:54.478Z</time></trkpt><trkpt lat="44.193322" lon="8.2855525"><ele>290.5</ele><time>2026-04-26T12:54:55.477Z</time></trkpt><trkpt lat="44.1933338" lon="8.285387"><ele>295.0</ele><time>2026-04-26T12:54:56.476Z</time></trkpt><trkpt lat="44.1933442" lon="8.285212"><ele>295.25</ele><time>2026-04-26T12:54:57.479Z</time></trkpt><trkpt lat="44.1933562" lon="8.285028"><ele>295.5</ele><time>2026-04-26T12:54:58.479Z</time></trkpt><trkpt lat="44.1933695" lon="8.2848382"><ele>295.75</ele><time>2026-04-26T12:54:59.479Z</time></trkpt><trkpt lat="44.193382" lon="8.2846507"><ele>296.0</ele><time>2026-04-26T12:55:00.481Z</time></trkpt><trkpt lat="44.1933958" lon="8.284468"><ele>297.75</ele><time>2026-04-26T12:55:01.481Z</time></trkpt><trkpt lat="44.1934178" lon="8.2842927"><ele>299.5</ele><time>2026-04-26T12:55:02.48Z</time></trkpt><trkpt lat="44.193461" lon="8.2841393"><ele>301.25</ele><time>2026-04-26T12:55:03.48Z</time></trkpt><trkpt lat="44.1935307" lon="8.2840138"><ele>303.0</ele><time>2026-04-26T12:55:04.479Z</time></trkpt><trkpt lat="44.1936245" lon="8.2839232"><ele>307.25</ele><time>2026-04-26T12:55:05.479Z</time></trkpt><trkpt lat="44.1937278" lon="8.28385"><ele>311.5</ele><time>2026-04-26T12:55:06.479Z</time></trkpt><trkpt lat="44.1938263" lon="8.2837638"><ele>315.75</ele><time>2026-04-26T12:55:07.477Z</time></trkpt><trkpt lat="44.1939162" lon="8.2836523"><ele>320.0</ele><time>2026-04-26T12:55:08.476Z</time></trkpt><trkpt lat="44.1940018" lon="8.28353"><ele>317.75</ele><time>2026-04-26T12:55:09.476Z</time></trkpt><trkpt lat="44.1940967" lon="8.2834262"><ele>315.5</ele><time>2026-04-26T12:55:10.476Z</time></trkpt><trkpt lat="44.1942083" lon="8.2833502"><ele>313.25</ele><time>2026-04-26T12:55:11.477Z</time></trkpt><trkpt lat="44.1943195" lon="8.2833042"><ele>311.0</ele><time>2026-04-26T12:55:12.478Z</time></trkpt><trkpt lat="44.1944218" lon="8.2832723"><ele>311.0</ele><time>2026-04-26T12:55:13.476Z</time></trkpt><trkpt lat="44.194515" lon="8.2832213"><ele>311.0</ele><time>2026-04-26T12:55:14.477Z</time></trkpt><trkpt lat="44.1945938" lon="8.2831365"><ele>311.0</ele><time>2026-04-26T12:55:15.477Z</time></trkpt><trkpt lat="44.1946638" lon="8.2830435"><ele>311.0</ele><time>2026-04-26T12:55:16.478Z</time></trkpt><trkpt lat="44.1947218" lon="8.2829293"><ele>311.0</ele><time>2026-04-26T12:55:17.477Z</time></trkpt><trkpt lat="44.1947527" lon="8.2827867"><ele>316.0</ele><time>2026-04-26T12:55:18.476Z</time></trkpt><trkpt lat="44.1947695" lon="8.2826297"><ele>321.0</ele><time>2026-04-26T12:55:19.476Z</time></trkpt><trkpt lat="44.1947822" lon="8.2824732"><ele>326.0</ele><time>2026-04-26T12:55:20.475Z</time></trkpt><trkpt lat="44.1947942" lon="8.2823167"><ele>331.0</ele><time>2026-04-26T12:55:21.476Z</time></trkpt><trkpt lat="44.194811" lon="8.2821593"><ele>327.0</ele><time>2026-04-26T12:55:22.477Z</time></trkpt><trkpt lat="44.1948395" lon="8.2819953"><ele>323.0</ele><time>2026-04-26T12:55:23.477Z</time></trkpt><trkpt lat="44.1948868" lon="8.2818325"><ele>319.0</ele><time>2026-04-26T12:55:24.478Z</time></trkpt><trkpt lat="44.1949537" lon="8.2816842"><ele>315.0</ele><time>2026-04-26T12:55:25.476Z</time></trkpt><trkpt lat="44.1950242" lon="8.2815357"><ele>315.25</ele><time>2026-04-26T12:55:26.477Z</time></trkpt><trkpt lat="44.195081" lon="8.281372"><ele>315.5</ele><time>2026-04-26T12:55:27.477Z</time></trkpt><trkpt lat="44.195123" lon="8.2811985"><ele>315.75</ele><time>2026-04-26T12:55:28.477Z</time></trkpt><trkpt lat="44.1951552" lon="8.2810227"><ele>316.0</ele><time>2026-04-26T12:55:29.478Z</time></trkpt><trkpt lat="44.195183" lon="8.2808443"><ele>316.0</ele><time>2026-04-26T12:55:30.477Z</time></trkpt><trkpt lat="44.1952067" lon="8.2806638"><ele>316.0</ele><time>2026-04-26T12:55:31.477Z</time></trkpt><trkpt lat="44.1952282" lon="8.2804823"><ele>316.0</ele><time>2026-04-26T12:55:32.478Z</time></trkpt><trkpt lat="44.1952503" lon="8.2803083"><ele>316.0</ele><time>2026-04-26T12:55:33.48Z</time></trkpt><trkpt lat="44.1952773" lon="8.2801448"><ele>314.5</ele><time>2026-04-26T12:55:34.48Z</time></trkpt><trkpt lat="44.1953078" lon="8.2799835"><ele>313.0</ele><time>2026-04-26T12:55:35.478Z</time></trkpt><trkpt lat="44.1953237" lon="8.2798108"><ele>311.5</ele><time>2026-04-26T12:55:36.478Z</time></trkpt><trkpt lat="44.1953172" lon="8.2796275"><ele>310.0</ele><time>2026-04-26T12:55:37.477Z</time></trkpt><trkpt lat="44.1953007" lon="8.2794355"><ele>310.0</ele><time>2026-04-26T12:55:38.478Z</time></trkpt><trkpt lat="44.1952842" lon="8.2792438"><ele>310.0</ele><time>2026-04-26T12:55:39.479Z</time></trkpt><trkpt lat="44.1952727" lon="8.2790627"><ele>310.0</ele><time>2026-04-26T12:55:40.477Z</time></trkpt><trkpt lat="44.1952618" lon="8.2788962"><ele>310.0</ele><time>2026-04-26T12:55:41.478Z</time></trkpt><trkpt lat="44.1952488" lon="8.2787443"><ele>310.0</ele><time>2026-04-26T12:55:42.476Z</time></trkpt><trkpt lat="44.1952382" lon="8.2786018"><ele>310.0</ele><time>2026-04-26T12:55:43.476Z</time></trkpt><trkpt lat="44.1952368" lon="8.2784713"><ele>310.0</ele><time>2026-04-26T12:55:44.475Z</time></trkpt><trkpt lat="44.195259" lon="8.2783513"><ele>310.0</ele><time>2026-04-26T12:55:45.475Z</time></trkpt><trkpt lat="44.195311" lon="8.278247"><ele>310.0</ele><time>2026-04-26T12:55:46.476Z</time></trkpt><trkpt lat="44.195386" lon="8.2781557"><ele>309.2</ele><time>2026-04-26T12:55:47.476Z</time></trkpt><trkpt lat="44.1954767" lon="8.278066"><ele>308.4</ele><time>2026-04-26T12:55:48.478Z</time></trkpt><trkpt lat="44.195569" lon="8.2779722"><ele>307.6</ele><time>2026-04-26T12:55:49.476Z</time></trkpt><trkpt lat="44.1956495" lon="8.277878"><ele>306.8</ele><time>2026-04-26T12:55:50.478Z</time></trkpt><trkpt lat="44.195711" lon="8.2777803"><ele>306.0</ele><time>2026-04-26T12:55:51.48Z</time></trkpt><trkpt lat="44.1957508" lon="8.2776695"><ele>311.20000000000005</ele><time>2026-04-26T12:55:52.477Z</time></trkpt><trkpt lat="44.1957677" lon="8.2775435"><ele>316.40000000000003</ele><time>2026-04-26T12:55:53.478Z</time></trkpt><trkpt lat="44.1957602" lon="8.2774065"><ele>321.6</ele><time>2026-04-26T12:55:54.477Z</time></trkpt><trkpt lat="44.1957428" lon="8.2772582"><ele>326.8</ele><time>2026-04-26T12:55:55.477Z</time></trkpt><trkpt lat="44.195734" lon="8.277101"><ele>332.0</ele><time>2026-04-26T12:55:56.478Z</time></trkpt><trkpt lat="44.195739" lon="8.2769365"><ele>333.75</ele><time>2026-04-26T12:55:57.478Z</time></trkpt><trkpt lat="44.1957527" lon="8.2767665"><ele>335.5</ele><time>2026-04-26T12:55:58.477Z</time></trkpt><trkpt lat="44.1957668" lon="8.2765968"><ele>337.25</ele><time>2026-04-26T12:55:59.478Z</time></trkpt><trkpt lat="44.1957823" lon="8.2764163"><ele>339.0</ele><time>2026-04-26T12:56:00.477Z</time></trkpt><trkpt lat="44.1957962" lon="8.276245"><ele>340.0</ele><time>2026-04-26T12:56:01.477Z</time></trkpt><trkpt lat="44.195812" lon="8.2760827"><ele>341.0</ele><time>2026-04-26T12:56:02.477Z</time></trkpt><trkpt lat="44.1958292" lon="8.2759187"><ele>342.0</ele><time>2026-04-26T12:56:03.477Z</time></trkpt><trkpt lat="44.195849" lon="8.2757547"><ele>343.0</ele><time>2026-04-26T12:56:04.479Z</time></trkpt><trkpt lat="44.1958785" lon="8.2755893"><ele>343.0</ele><time>2026-04-26T12:56:05.478Z</time></trkpt><trkpt lat="44.1959157" lon="8.2754212"><ele>343.0</ele><time>2026-04-26T12:56:06.477Z</time></trkpt><trkpt lat="44.1959548" lon="8.2752505"><ele>343.0</ele><time>2026-04-26T12:56:07.475Z</time></trkpt><trkpt lat="44.1960027" lon="8.2750865"><ele>343.0</ele><time>2026-04-26T12:56:08.475Z</time></trkpt><trkpt lat="44.1960607" lon="8.2749382"><ele>343.0</ele><time>2026-04-26T12:56:09.475Z</time></trkpt><trkpt lat="44.1961263" lon="8.2748197"><ele>343.0</ele><time>2026-04-26T12:56:10.475Z</time></trkpt><trkpt lat="44.196189" lon="8.2747215"><ele>343.0</ele><time>2026-04-26T12:56:11.477Z</time></trkpt><trkpt lat="44.1962383" lon="8.2746277"><ele>343.0</ele><time>2026-04-26T12:56:12.479Z</time></trkpt><trkpt lat="44.1962645" lon="8.274527"><ele>343.0</ele><time>2026-04-26T12:56:13.476Z</time></trkpt><trkpt lat="44.1962542" lon="8.2744187"><ele>343.0</ele><time>2026-04-26T12:56:14.476Z</time></trkpt><trkpt lat="44.1962033" lon="8.274328"><ele>344.3333333333333</ele><time>2026-04-26T12:56:15.477Z</time></trkpt><trkpt lat="44.1961178" lon="8.2742632"><ele>345.66666666666663</ele><time>2026-04-26T12:56:16.477Z</time></trkpt><trkpt lat="44.196033" lon="8.2742163"><ele>347.0</ele><time>2026-04-26T12:56:17.475Z</time></trkpt><trkpt lat="44.1959625" lon="8.274157"><ele>348.3333333333333</ele><time>2026-04-26T12:56:18.476Z</time></trkpt><trkpt lat="44.1959152" lon="8.2740657"><ele>349.6666666666667</ele><time>2026-04-26T12:56:19.478Z</time></trkpt><trkpt lat="44.1958972" lon="8.2739438"><ele>351.0</ele><time>2026-04-26T12:56:20.479Z</time></trkpt><trkpt lat="44.1959067" lon="8.2738205"><ele>351.4</ele><time>2026-04-26T12:56:21.478Z</time></trkpt><trkpt lat="44.195941" lon="8.2737178"><ele>351.8</ele><time>2026-04-26T12:56:22.479Z</time></trkpt><trkpt lat="44.1959978" lon="8.2736392"><ele>352.2</ele><time>2026-04-26T12:56:23.477Z</time></trkpt><trkpt lat="44.196076" lon="8.273598"><ele>352.59999999999997</ele><time>2026-04-26T12:56:24.479Z</time></trkpt><trkpt lat="44.196175" lon="8.2735907"><ele>353.0</ele><time>2026-04-26T12:56:25.477Z</time></trkpt><trkpt lat="44.1962857" lon="8.273594"><ele>353.0</ele><time>2026-04-26T12:56:26.476Z</time></trkpt><trkpt lat="44.1963883" lon="8.2735943"><ele>353.0</ele><time>2026-04-26T12:56:27.476Z</time></trkpt><trkpt lat="44.1964823" lon="8.2735928"><ele>353.0</ele><time>2026-04-26T12:56:28.477Z</time></trkpt><trkpt lat="44.1965695" lon="8.2735778"><ele>353.0</ele><time>2026-04-26T12:56:29.476Z</time></trkpt><trkpt lat="44.1966507" lon="8.273546"><ele>353.0</ele><time>2026-04-26T12:56:30.477Z</time></trkpt><trkpt lat="44.196715" lon="8.2734745"><ele>355.59999999999997</ele><time>2026-04-26T12:56:31.477Z</time></trkpt><trkpt lat="44.1967448" lon="8.2733643"><ele>358.2</ele><time>2026-04-26T12:56:32.473Z</time></trkpt><trkpt lat="44.1967328" lon="8.2732368"><ele>360.8</ele><time>2026-04-26T12:56:33.475Z</time></trkpt><trkpt lat="44.1966732" lon="8.2731017"><ele>363.4</ele><time>2026-04-26T12:56:34.473Z</time></trkpt><trkpt lat="44.1966017" lon="8.2729758"><ele>366.0</ele><time>2026-04-26T12:56:35.477Z</time></trkpt><trkpt lat="44.19654" lon="8.2728575"><ele>360.5</ele><time>2026-04-26T12:56:36.478Z</time></trkpt><trkpt lat="44.1964943" lon="8.2727277"><ele>355.0</ele><time>2026-04-26T12:56:37.477Z</time></trkpt><trkpt lat="44.1964685" lon="8.2725742"><ele>349.5</ele><time>2026-04-26T12:56:38.478Z</time></trkpt><trkpt lat="44.1964582" lon="8.2724022"><ele>344.0</ele><time>2026-04-26T12:56:39.478Z</time></trkpt><trkpt lat="44.1964548" lon="8.2722478"><ele>344.0</ele><time>2026-04-26T12:56:40.477Z</time></trkpt><trkpt lat="44.1964507" lon="8.2721095"><ele>344.0</ele><time>2026-04-26T12:56:41.477Z</time></trkpt><trkpt lat="44.196452" lon="8.2719728"><ele>344.0</ele><time>2026-04-26T12:56:42.478Z</time></trkpt><trkpt lat="44.1964687" lon="8.271835"><ele>344.0</ele><time>2026-04-26T12:56:43.477Z</time></trkpt><trkpt lat="44.1965068" lon="8.2716985"><ele>344.0</ele><time>2026-04-26T12:56:44.477Z</time></trkpt><trkpt lat="44.1965615" lon="8.2715662"><ele>350.0</ele><time>2026-04-26T12:56:45.478Z</time></trkpt><trkpt lat="44.1966387" lon="8.2714472"><ele>356.0</ele><time>2026-04-26T12:56:46.478Z</time></trkpt><trkpt lat="44.1967327" lon="8.271341"><ele>362.0</ele><time>2026-04-26T12:56:47.477Z</time></trkpt><trkpt lat="44.1968342" lon="8.2712352"><ele>368.0</ele><time>2026-04-26T12:56:48.476Z</time></trkpt><trkpt lat="44.1969345" lon="8.2711288"><ele>368.0</ele><time>2026-04-26T12:56:49.476Z</time></trkpt><trkpt lat="44.1970268" lon="8.2710195"><ele>368.0</ele><time>2026-04-26T12:56:50.476Z</time></trkpt><trkpt lat="44.1971052" lon="8.2708882"><ele>368.0</ele><time>2026-04-26T12:56:51.477Z</time></trkpt><trkpt lat="44.1971713" lon="8.2707388"><ele>368.0</ele><time>2026-04-26T12:56:52.476Z</time></trkpt><trkpt lat="44.1972243" lon="8.2705997"><ele>368.6666666666667</ele><time>2026-04-26T12:56:53.475Z</time></trkpt><trkpt lat="44.1972688" lon="8.2704792"><ele>369.33333333333337</ele><time>2026-04-26T12:56:54.476Z</time></trkpt><trkpt lat="44.1973073" lon="8.270362"><ele>370.0</ele><time>2026-04-26T12:56:55.477Z</time></trkpt><trkpt lat="44.1973298" lon="8.2702513"><ele>370.6666666666667</ele><time>2026-04-26T12:56:56.474Z</time></trkpt><trkpt lat="44.1973298" lon="8.270137"><ele>371.3333333333333</ele><time>2026-04-26T12:56:57.473Z</time></trkpt><trkpt lat="44.197295" lon="8.270015"><ele>372.0</ele><time>2026-04-26T12:56:58.474Z</time></trkpt><trkpt lat="44.1972315" lon="8.2698985"><ele>372.0</ele><time>2026-04-26T12:56:59.475Z</time></trkpt><trkpt lat="44.1971615" lon="8.2697887"><ele>372.0</ele><time>2026-04-26T12:57:00.478Z</time></trkpt><trkpt lat="44.197096" lon="8.2696825"><ele>372.0</ele><time>2026-04-26T12:57:01.477Z</time></trkpt><trkpt lat="44.1970387" lon="8.2695798"><ele>372.0</ele><time>2026-04-26T12:57:02.475Z</time></trkpt><trkpt lat="44.196996" lon="8.26947"><ele>372.0</ele><time>2026-04-26T12:57:03.477Z</time></trkpt><trkpt lat="44.196972" lon="8.2693442"><ele>371.8</ele><time>2026-04-26T12:57:04.478Z</time></trkpt><trkpt lat="44.1969748" lon="8.2692015"><ele>371.6</ele><time>2026-04-26T12:57:05.477Z</time></trkpt><trkpt lat="44.1970072" lon="8.2690585"><ele>371.40000000000003</ele><time>2026-04-26T12:57:06.479Z</time></trkpt><trkpt lat="44.1970693" lon="8.2689325"><ele>371.20000000000005</ele><time>2026-04-26T12:57:07.481Z</time></trkpt><trkpt lat="44.197149" lon="8.268808"><ele>371.0</ele><time>2026-04-26T12:57:08.48Z</time></trkpt><trkpt lat="44.1972327" lon="8.268677"><ele>369.75</ele><time>2026-04-26T12:57:09.477Z</time></trkpt><trkpt lat="44.1973165" lon="8.2685467"><ele>368.5</ele><time>2026-04-26T12:57:10.477Z</time></trkpt><trkpt lat="44.1974037" lon="8.2684223"><ele>367.25</ele><time>2026-04-26T12:57:11.478Z</time></trkpt><trkpt lat="44.1974807" lon="8.2682952"><ele>366.0</ele><time>2026-04-26T12:57:12.477Z</time></trkpt><trkpt lat="44.1975588" lon="8.2681655"><ele>370.0</ele><time>2026-04-26T12:57:13.477Z</time></trkpt><trkpt lat="44.1976333" lon="8.2680537"><ele>374.0</ele><time>2026-04-26T12:57:14.478Z</time></trkpt><trkpt lat="44.1977037" lon="8.2679525"><ele>378.0</ele><time>2026-04-26T12:57:15.477Z</time></trkpt><trkpt lat="44.1977767" lon="8.2678673"><ele>382.0</ele><time>2026-04-26T12:57:16.477Z</time></trkpt><trkpt lat="44.1978622" lon="8.2678167"><ele>386.0</ele><time>2026-04-26T12:57:17.477Z</time></trkpt><trkpt lat="44.1979575" lon="8.2677983"><ele>385.99999999999994</ele><time>2026-04-26T12:57:18.475Z</time></trkpt><trkpt lat="44.1980442" lon="8.267797"><ele>386.0</ele><time>2026-04-26T12:57:19.476Z</time></trkpt><trkpt lat="44.1981182" lon="8.2677958"><ele>386.0</ele><time>2026-04-26T12:57:20.473Z</time></trkpt><trkpt lat="44.1981877" lon="8.2677742"><ele>386.0</ele><time>2026-04-26T12:57:21.472Z</time></trkpt><trkpt lat="44.1982372" lon="8.267707"><ele>385.99999999999994</ele><time>2026-04-26T12:57:22.472Z</time></trkpt><trkpt lat="44.1982537" lon="8.2675978"><ele>386.0</ele><time>2026-04-26T12:57:23.472Z</time></trkpt><trkpt lat="44.198236" lon="8.267461"><ele>387.75</ele><time>2026-04-26T12:57:24.473Z</time></trkpt><trkpt lat="44.1982113" lon="8.2672922"><ele>389.5</ele><time>2026-04-26T12:57:25.475Z</time></trkpt><trkpt lat="44.1982032" lon="8.2671128"><ele>391.25</ele><time>2026-04-26T12:57:26.475Z</time></trkpt><trkpt lat="44.1981883" lon="8.266933"><ele>393.0</ele><time>2026-04-26T12:57:27.475Z</time></trkpt><trkpt lat="44.1981382" lon="8.2667605"><ele>393.0</ele><time>2026-04-26T12:57:28.479Z</time></trkpt><trkpt lat="44.1980672" lon="8.2665908"><ele>393.0</ele><time>2026-04-26T12:57:29.473Z</time></trkpt><trkpt lat="44.1979947" lon="8.2664235"><ele>393.0</ele><time>2026-04-26T12:57:30.472Z</time></trkpt><trkpt lat="44.1979315" lon="8.266271"><ele>393.0</ele><time>2026-04-26T12:57:31.474Z</time></trkpt><trkpt lat="44.1978735" lon="8.2661353"><ele>395.2</ele><time>2026-04-26T12:57:32.475Z</time></trkpt><trkpt lat="44.1978222" lon="8.2660108"><ele>397.4</ele><time>2026-04-26T12:57:33.477Z</time></trkpt><trkpt lat="44.1977883" lon="8.2658878"><ele>399.59999999999997</ele><time>2026-04-26T12:57:34.477Z</time></trkpt><trkpt lat="44.197781" lon="8.2657553"><ele>401.79999999999995</ele><time>2026-04-26T12:57:35.476Z</time></trkpt><trkpt lat="44.1978102" lon="8.2656273"><ele>404.0</ele><time>2026-04-26T12:57:36.48Z</time></trkpt><trkpt lat="44.1978747" lon="8.2655148"><ele>404.0</ele><time>2026-04-26T12:57:37.476Z</time></trkpt><trkpt lat="44.197969" lon="8.2654127"><ele>404.0</ele><time>2026-04-26T12:57:38.477Z</time></trkpt><trkpt lat="44.1980633" lon="8.2652948"><ele>404.0</ele><time>2026-04-26T12:57:39.475Z</time></trkpt><trkpt lat="44.1981388" lon="8.265147"><ele>404.0</ele><time>2026-04-26T12:57:40.475Z</time></trkpt><trkpt lat="44.1981883" lon="8.2649723"><ele>409.25</ele><time>2026-04-26T12:57:41.476Z</time></trkpt><trkpt lat="44.1982243" lon="8.2647823"><ele>414.5</ele><time>2026-04-26T12:57:42.476Z</time></trkpt><trkpt lat="44.1982522" lon="8.2645893"><ele>419.75</ele><time>2026-04-26T12:57:43.476Z</time></trkpt><trkpt lat="44.1982757" lon="8.2644127"><ele>425.0</ele><time>2026-04-26T12:57:44.474Z</time></trkpt><trkpt lat="44.1982998" lon="8.2642423"><ele>425.0</ele><time>2026-04-26T12:57:45.475Z</time></trkpt><trkpt lat="44.198327" lon="8.2640785"><ele>425.0</ele><time>2026-04-26T12:57:46.474Z</time></trkpt><trkpt lat="44.1983655" lon="8.2639275"><ele>425.0</ele><time>2026-04-26T12:57:47.474Z</time></trkpt><trkpt lat="44.198426" lon="8.2638015"><ele>425.0</ele><time>2026-04-26T12:57:48.477Z</time></trkpt><trkpt lat="44.19851" lon="8.2636947"><ele>423.6</ele><time>2026-04-26T12:57:49.476Z</time></trkpt><trkpt lat="44.1986118" lon="8.2636135"><ele>422.2</ele><time>2026-04-26T12:57:50.476Z</time></trkpt><trkpt lat="44.1987282" lon="8.2635753"><ele>420.79999999999995</ele><time>2026-04-26T12:57:51.476Z</time></trkpt><trkpt lat="44.1988387" lon="8.2635705"><ele>419.4</ele><time>2026-04-26T12:57:52.475Z</time></trkpt><trkpt lat="44.1989367" lon="8.2635745"><ele>418.0</ele><time>2026-04-26T12:57:53.475Z</time></trkpt><trkpt lat="44.1990248" lon="8.26355"><ele>422.79999999999995</ele><time>2026-04-26T12:57:54.476Z</time></trkpt><trkpt lat="44.199106" lon="8.2634867"><ele>427.6</ele><time>2026-04-26T12:57:55.476Z</time></trkpt><trkpt lat="44.1991708" lon="8.2633885"><ele>432.40000000000003</ele><time>2026-04-26T12:57:56.475Z</time></trkpt><trkpt lat="44.1992188" lon="8.2632698"><ele>437.20000000000005</ele><time>2026-04-26T12:57:57.477Z</time></trkpt><trkpt lat="44.1992437" lon="8.2631402"><ele>442.0</ele><time>2026-04-26T12:57:58.476Z</time></trkpt><trkpt lat="44.199237" lon="8.263006"><ele>443.20000000000005</ele><time>2026-04-26T12:57:59.475Z</time></trkpt><trkpt lat="44.199193" lon="8.262876"><ele>444.40000000000003</ele><time>2026-04-26T12:58:00.477Z</time></trkpt><trkpt lat="44.1991225" lon="8.2627565"><ele>445.59999999999997</ele><time>2026-04-26T12:58:01.478Z</time></trkpt><trkpt lat="44.1990403" lon="8.2626462"><ele>446.79999999999995</ele><time>2026-04-26T12:58:02.477Z</time></trkpt><trkpt lat="44.1989567" lon="8.2625425"><ele>448.0</ele><time>2026-04-26T12:58:03.479Z</time></trkpt><trkpt lat="44.1988842" lon="8.2624327"><ele>442.75</ele><time>2026-04-26T12:58:04.477Z</time></trkpt><trkpt lat="44.1988335" lon="8.2623018"><ele>437.5</ele><time>2026-04-26T12:58:05.477Z</time></trkpt><trkpt lat="44.1988103" lon="8.262153"><ele>432.25</ele><time>2026-04-26T12:58:06.479Z</time></trkpt><trkpt lat="44.1988143" lon="8.2619943"><ele>427.0</ele><time>2026-04-26T12:58:07.479Z</time></trkpt><trkpt lat="44.1988425" lon="8.2618237"><ele>427.0</ele><time>2026-04-26T12:58:08.478Z</time></trkpt><trkpt lat="44.198882" lon="8.261648"><ele>427.0</ele><time>2026-04-26T12:58:09.475Z</time></trkpt><trkpt lat="44.1989213" lon="8.2614828"><ele>427.0</ele><time>2026-04-26T12:58:10.475Z</time></trkpt><trkpt lat="44.1989557" lon="8.261316"><ele>427.0</ele><time>2026-04-26T12:58:11.475Z</time></trkpt><trkpt lat="44.1989802" lon="8.2611503"><ele>426.5</ele><time>2026-04-26T12:58:12.474Z</time></trkpt><trkpt lat="44.1989973" lon="8.2609927"><ele>426.0</ele><time>2026-04-26T12:58:13.475Z</time></trkpt><trkpt lat="44.199016" lon="8.2608352"><ele>425.5</ele><time>2026-04-26T12:58:14.476Z</time></trkpt><trkpt lat="44.1990558" lon="8.2606865"><ele>425.0</ele><time>2026-04-26T12:58:15.476Z</time></trkpt><trkpt lat="44.1991255" lon="8.2605677"><ele>429.5</ele><time>2026-04-26T12:58:16.475Z</time></trkpt><trkpt lat="44.1992168" lon="8.2604922"><ele>434.0</ele><time>2026-04-26T12:58:17.475Z</time></trkpt><trkpt lat="44.1993232" lon="8.2604652"><ele>438.5</ele><time>2026-04-26T12:58:18.478Z</time></trkpt><trkpt lat="44.1994465" lon="8.2604843"><ele>443.0</ele><time>2026-04-26T12:58:19.475Z</time></trkpt><trkpt lat="44.1995728" lon="8.2605283"><ele>443.0</ele><time>2026-04-26T12:58:20.473Z</time></trkpt><trkpt lat="44.1996913" lon="8.2605887"><ele>443.0</ele><time>2026-04-26T12:58:21.474Z</time></trkpt><trkpt lat="44.1997982" lon="8.2606547"><ele>443.0</ele><time>2026-04-26T12:58:22.474Z</time></trkpt><trkpt lat="44.199909" lon="8.2607042"><ele>443.0</ele><time>2026-04-26T12:58:23.473Z</time></trkpt><trkpt lat="44.2000265" lon="8.2607168"><ele>448.25</ele><time>2026-04-26T12:58:24.475Z</time></trkpt><trkpt lat="44.2001512" lon="8.2606955"><ele>453.5</ele><time>2026-04-26T12:58:25.473Z</time></trkpt><trkpt lat="44.2002717" lon="8.2606397"><ele>458.75</ele><time>2026-04-26T12:58:26.474Z</time></trkpt><trkpt lat="44.20038" lon="8.2605572"><ele>464.0</ele><time>2026-04-26T12:58:27.476Z</time></trkpt><trkpt lat="44.2004765" lon="8.2604635"><ele>464.0</ele><time>2026-04-26T12:58:28.476Z</time></trkpt><trkpt lat="44.2005513" lon="8.260365"><ele>464.0</ele><time>2026-04-26T12:58:29.475Z</time></trkpt><trkpt lat="44.2006008" lon="8.2602525"><ele>464.0</ele><time>2026-04-26T12:58:30.475Z</time></trkpt><trkpt lat="44.2006233" lon="8.2601227"><ele>464.0</ele><time>2026-04-26T12:58:31.475Z</time></trkpt><trkpt lat="44.2006178" lon="8.259989"><ele>464.0</ele><time>2026-04-26T12:58:32.475Z</time></trkpt><trkpt lat="44.2005868" lon="8.2598713"><ele>467.4</ele><time>2026-04-26T12:58:33.475Z</time></trkpt><trkpt lat="44.2005277" lon="8.2597693"><ele>470.79999999999995</ele><time>2026-04-26T12:58:34.476Z</time></trkpt><trkpt lat="44.2004437" lon="8.2596955"><ele>474.20000000000005</ele><time>2026-04-26T12:58:35.473Z</time></trkpt><trkpt lat="44.200346" lon="8.259652"><ele>477.6</ele><time>2026-04-26T12:58:36.475Z</time></trkpt><trkpt lat="44.2002422" lon="8.2596213"><ele>481.0</ele><time>2026-04-26T12:58:37.473Z</time></trkpt><trkpt lat="44.2001333" lon="8.2595747"><ele>481.0</ele><time>2026-04-26T12:58:38.475Z</time></trkpt><trkpt lat="44.2000243" lon="8.2595048"><ele>481.0</ele><time>2026-04-26T12:58:39.478Z</time></trkpt><trkpt lat="44.1999227" lon="8.2594172"><ele>481.0</ele><time>2026-04-26T12:58:40.476Z</time></trkpt><trkpt lat="44.1998283" lon="8.2593058"><ele>481.0</ele><time>2026-04-26T12:58:41.475Z</time></trkpt><trkpt lat="44.1997565" lon="8.2591762"><ele>480.0</ele><time>2026-04-26T12:58:42.475Z</time></trkpt><trkpt lat="44.199721" lon="8.2590272"><ele>479.0</ele><time>2026-04-26T12:58:43.474Z</time></trkpt><trkpt lat="44.199724" lon="8.258862"><ele>478.0</ele><time>2026-04-26T12:58:44.474Z</time></trkpt><trkpt lat="44.1997667" lon="8.2587083"><ele>477.0</ele><time>2026-04-26T12:58:45.476Z</time></trkpt><trkpt lat="44.1998435" lon="8.2585753"><ele>477.0</ele><time>2026-04-26T12:58:46.475Z</time></trkpt><trkpt lat="44.1999352" lon="8.2584658"><ele>477.0</ele><time>2026-04-26T12:58:47.475Z</time></trkpt><trkpt lat="44.2000353" lon="8.2583852"><ele>477.0</ele><time>2026-04-26T12:58:48.476Z</time></trkpt><trkpt lat="44.2001495" lon="8.2583315"><ele>477.0</ele><time>2026-04-26T12:58:49.476Z</time></trkpt><trkpt lat="44.2002748" lon="8.2583085"><ele>477.0</ele><time>2026-04-26T12:58:50.475Z</time></trkpt><trkpt lat="44.2003905" lon="8.2583103"><ele>477.00000000000006</ele><time>2026-04-26T12:58:51.475Z</time></trkpt><trkpt lat="44.2004995" lon="8.258308"><ele>477.00000000000006</ele><time>2026-04-26T12:58:52.475Z</time></trkpt><trkpt lat="44.2006045" lon="8.2582958"><ele>477.0</ele><time>2026-04-26T12:58:53.474Z</time></trkpt><trkpt lat="44.2007073" lon="8.2582625"><ele>477.0</ele><time>2026-04-26T12:58:54.475Z</time></trkpt><trkpt lat="44.2008212" lon="8.2582022"><ele>479.25</ele><time>2026-04-26T12:58:55.475Z</time></trkpt><trkpt lat="44.2009387" lon="8.2581138"><ele>481.5</ele><time>2026-04-26T12:58:56.475Z</time></trkpt><trkpt lat="44.201039" lon="8.2579817"><ele>483.75</ele><time>2026-04-26T12:58:57.477Z</time></trkpt><trkpt lat="44.2011172" lon="8.2578113"><ele>486.0</ele><time>2026-04-26T12:58:58.476Z</time></trkpt><trkpt lat="44.2011617" lon="8.2576065"><ele>486.0</ele><time>2026-04-26T12:58:59.474Z</time></trkpt><trkpt lat="44.2011742" lon="8.2573793"><ele>486.0</ele><time>2026-04-26T12:59:00.473Z</time></trkpt><trkpt lat="44.2011533" lon="8.2571677"><ele>486.0</ele><time>2026-04-26T12:59:01.473Z</time></trkpt><trkpt lat="44.2011223" lon="8.2569832"><ele>486.75</ele><time>2026-04-26T12:59:02.476Z</time></trkpt><trkpt lat="44.201112" lon="8.256798"><ele>487.5</ele><time>2026-04-26T12:59:03.475Z</time></trkpt><trkpt lat="44.2011395" lon="8.256609"><ele>488.25</ele><time>2026-04-26T12:59:04.476Z</time></trkpt><trkpt lat="44.201209" lon="8.2564392"><ele>489.0</ele><time>2026-04-26T12:59:05.477Z</time></trkpt><trkpt lat="44.2013135" lon="8.2562942"><ele>489.0</ele><time>2026-04-26T12:59:06.477Z</time></trkpt><trkpt lat="44.2014217" lon="8.2561662"><ele>489.0</ele><time>2026-04-26T12:59:07.476Z</time></trkpt><trkpt lat="44.2015062" lon="8.2560295"><ele>489.0</ele><time>2026-04-26T12:59:08.475Z</time></trkpt><trkpt lat="44.2015595" lon="8.2558617"><ele>489.0</ele><time>2026-04-26T12:59:09.476Z</time></trkpt><trkpt lat="44.201575" lon="8.2556658"><ele>495.25</ele><time>2026-04-26T12:59:10.476Z</time></trkpt><trkpt lat="44.2015672" lon="8.2554553"><ele>501.5</ele><time>2026-04-26T12:59:11.477Z</time></trkpt><trkpt lat="44.2015655" lon="8.2552492"><ele>507.75</ele><time>2026-04-26T12:59:12.477Z</time></trkpt><trkpt lat="44.2015897" lon="8.2550603"><ele>514.0</ele><time>2026-04-26T12:59:13.476Z</time></trkpt><trkpt lat="44.201652" lon="8.2548975"><ele>514.0</ele><time>2026-04-26T12:59:14.478Z</time></trkpt><trkpt lat="44.201746" lon="8.254774"><ele>514.0</ele><time>2026-04-26T12:59:15.477Z</time></trkpt><trkpt lat="44.2018508" lon="8.2546978"><ele>514.0</ele><time>2026-04-26T12:59:16.475Z</time></trkpt><trkpt lat="44.201953" lon="8.2546515"><ele>514.0</ele><time>2026-04-26T12:59:17.475Z</time></trkpt><trkpt lat="44.2020477" lon="8.2546088"><ele>514.0</ele><time>2026-04-26T12:59:18.475Z</time></trkpt><trkpt lat="44.2021292" lon="8.2545432"><ele>514.0</ele><time>2026-04-26T12:59:19.475Z</time></trkpt><trkpt lat="44.2021902" lon="8.2544435"><ele>514.0</ele><time>2026-04-26T12:59:20.475Z</time></trkpt><trkpt lat="44.2022208" lon="8.2543175"><ele>514.0</ele><time>2026-04-26T12:59:21.476Z</time></trkpt><trkpt lat="44.2022178" lon="8.2541843"><ele>514.0</ele><time>2026-04-26T12:59:22.475Z</time></trkpt><trkpt lat="44.2021847" lon="8.2540588"><ele>515.6</ele><time>2026-04-26T12:59:23.474Z</time></trkpt><trkpt lat="44.2021272" lon="8.2539488"><ele>517.2</ele><time>2026-04-26T12:59:24.475Z</time></trkpt><trkpt lat="44.2020652" lon="8.2538503"><ele>518.8000000000001</ele><time>2026-04-26T12:59:25.474Z</time></trkpt><trkpt lat="44.2020072" lon="8.2537453"><ele>520.4</ele><time>2026-04-26T12:59:26.476Z</time></trkpt><trkpt lat="44.201966" lon="8.2536277"><ele>522.0</ele><time>2026-04-26T12:59:27.477Z</time></trkpt><trkpt lat="44.2019415" lon="8.2535008"><ele>522.0</ele><time>2026-04-26T12:59:28.477Z</time></trkpt><trkpt lat="44.2019378" lon="8.2533628"><ele>522.0</ele><time>2026-04-26T12:59:29.476Z</time></trkpt><trkpt lat="44.2019597" lon="8.2532205"><ele>522.0</ele><time>2026-04-26T12:59:30.477Z</time></trkpt><trkpt lat="44.2019993" lon="8.2530812"><ele>522.0</ele><time>2026-04-26T12:59:31.476Z</time></trkpt><trkpt lat="44.2020422" lon="8.2529542"><ele>522.0</ele><time>2026-04-26T12:59:32.477Z</time></trkpt><trkpt lat="44.2020795" lon="8.252827"><ele>521.8000000000001</ele><time>2026-04-26T12:59:33.477Z</time></trkpt><trkpt lat="44.202102" lon="8.2526908"><ele>521.6</ele><time>2026-04-26T12:59:34.476Z</time></trkpt><trkpt lat="44.2021072" lon="8.2525483"><ele>521.4000000000001</ele><time>2026-04-26T12:59:35.477Z</time></trkpt><trkpt lat="44.2020965" lon="8.2523995"><ele>521.2</ele><time>2026-04-26T12:59:36.478Z</time></trkpt><trkpt lat="44.2020747" lon="8.2522543"><ele>521.0</ele><time>2026-04-26T12:59:37.477Z</time></trkpt><trkpt lat="44.2020568" lon="8.2521138"><ele>521.6</ele><time>2026-04-26T12:59:38.476Z</time></trkpt><trkpt lat="44.2020567" lon="8.251975"><ele>522.2</ele><time>2026-04-26T12:59:39.476Z</time></trkpt><trkpt lat="44.2020802" lon="8.2518387"><ele>522.8</ele><time>2026-04-26T12:59:40.478Z</time></trkpt><trkpt lat="44.2021277" lon="8.2517087"><ele>523.4</ele><time>2026-04-26T12:59:41.475Z</time></trkpt><trkpt lat="44.2021962" lon="8.2515912"><ele>524.0</ele><time>2026-04-26T12:59:42.476Z</time></trkpt><trkpt lat="44.2022822" lon="8.2515002"><ele>527.0</ele><time>2026-04-26T12:59:43.476Z</time></trkpt><trkpt lat="44.2023773" lon="8.2514438"><ele>530.0</ele><time>2026-04-26T12:59:44.477Z</time></trkpt><trkpt lat="44.2024712" lon="8.2514032"><ele>533.0</ele><time>2026-04-26T12:59:45.477Z</time></trkpt><trkpt lat="44.202557" lon="8.2513572"><ele>536.0</ele><time>2026-04-26T12:59:46.476Z</time></trkpt><trkpt lat="44.2026285" lon="8.2512915"><ele>539.0</ele><time>2026-04-26T12:59:47.475Z</time></trkpt><trkpt lat="44.2026828" lon="8.2512068"><ele>539.0</ele><time>2026-04-26T12:59:48.474Z</time></trkpt><trkpt lat="44.2027212" lon="8.2511042"><ele>539.0</ele><time>2026-04-26T12:59:49.476Z</time></trkpt><trkpt lat="44.202742" lon="8.2509882"><ele>539.0</ele><time>2026-04-26T12:59:50.473Z</time></trkpt><trkpt lat="44.202736" lon="8.2508632"><ele>539.0</ele><time>2026-04-26T12:59:51.475Z</time></trkpt><trkpt lat="44.2027108" lon="8.2507522"><ele>539.0</ele><time>2026-04-26T12:59:52.476Z</time></trkpt><trkpt lat="44.2026863" lon="8.2506417"><ele>539.0</ele><time>2026-04-26T12:59:53.476Z</time></trkpt><trkpt lat="44.2026837" lon="8.2505258"><ele>538.4</ele><time>2026-04-26T12:59:54.479Z</time></trkpt><trkpt lat="44.2027085" lon="8.2504128"><ele>537.8</ele><time>2026-04-26T12:59:55.477Z</time></trkpt><trkpt lat="44.20276" lon="8.2503057"><ele>537.2</ele><time>2026-04-26T12:59:56.477Z</time></trkpt><trkpt lat="44.2028283" lon="8.2501783"><ele>536.6</ele><time>2026-04-26T12:59:57.478Z</time></trkpt><trkpt lat="44.2029203" lon="8.2500222"><ele>536.0</ele><time>2026-04-26T12:59:58.476Z</time></trkpt><trkpt lat="44.2030437" lon="8.249846"><ele>542.3333333333333</ele><time>2026-04-26T12:59:59.477Z</time></trkpt><trkpt lat="44.203177" lon="8.2496582"><ele>548.6666666666666</ele><time>2026-04-26T13:00:00.477Z</time></trkpt><trkpt lat="44.2032945" lon="8.249464"><ele>555.0</ele><time>2026-04-26T13:00:01.475Z</time></trkpt><trkpt lat="44.2033895" lon="8.2492788"><ele>555.0</ele><time>2026-04-26T13:00:02.477Z</time></trkpt><trkpt lat="44.2034715" lon="8.2490837"><ele>555.0</ele><time>2026-04-26T13:00:03.478Z</time></trkpt><trkpt lat="44.2035333" lon="8.248866"><ele>555.0</ele><time>2026-04-26T13:00:04.476Z</time></trkpt><trkpt lat="44.2035817" lon="8.2486525"><ele>552.5</ele><time>2026-04-26T13:00:05.478Z</time></trkpt><trkpt lat="44.203641" lon="8.248472"><ele>550.0</ele><time>2026-04-26T13:00:06.477Z</time></trkpt><trkpt lat="44.2037195" lon="8.2483078"><ele>547.5</ele><time>2026-04-26T13:00:07.476Z</time></trkpt><trkpt lat="44.2038155" lon="8.2481705"><ele>545.0</ele><time>2026-04-26T13:00:08.475Z</time></trkpt><trkpt lat="44.2039233" lon="8.2480677"><ele>548.5</ele><time>2026-04-26T13:00:09.475Z</time></trkpt><trkpt lat="44.2040468" lon="8.2480153"><ele>552.0</ele><time>2026-04-26T13:00:10.475Z</time></trkpt><trkpt lat="44.2041767" lon="8.2480205"><ele>555.5</ele><time>2026-04-26T13:00:11.474Z</time></trkpt><trkpt lat="44.204301" lon="8.2480807"><ele>559.0</ele><time>2026-04-26T13:00:12.473Z</time></trkpt><trkpt lat="44.2044017" lon="8.2481773"><ele>559.0</ele><time>2026-04-26T13:00:13.474Z</time></trkpt><trkpt lat="44.204488" lon="8.2482742"><ele>559.0</ele><time>2026-04-26T13:00:14.474Z</time></trkpt><trkpt lat="44.204563" lon="8.2483225"><ele>559.0</ele><time>2026-04-26T13:00:15.474Z</time></trkpt><trkpt lat="44.2046403" lon="8.2483082"><ele>559.0</ele><time>2026-04-26T13:00:16.474Z</time></trkpt><trkpt lat="44.2047117" lon="8.2482305"><ele>559.0</ele><time>2026-04-26T13:00:17.476Z</time></trkpt><trkpt lat="44.204761" lon="8.2481073"><ele>559.0</ele><time>2026-04-26T13:00:18.475Z</time></trkpt><trkpt lat="44.2047688" lon="8.2479513"><ele>559.0</ele><time>2026-04-26T13:00:19.476Z</time></trkpt><trkpt lat="44.204732" lon="8.247789"><ele>559.0</ele><time>2026-04-26T13:00:20.473Z</time></trkpt><trkpt lat="44.204659" lon="8.2476352"><ele>559.0</ele><time>2026-04-26T13:00:21.476Z</time></trkpt><trkpt lat="44.2045858" lon="8.2475005"><ele>559.0</ele><time>2026-04-26T13:00:22.473Z</time></trkpt><trkpt lat="44.2045348" lon="8.2473662"><ele>559.0</ele><time>2026-04-26T13:00:23.474Z</time></trkpt><trkpt lat="44.2045202" lon="8.2472152"><ele>559.0</ele><time>2026-04-26T13:00:24.478Z</time></trkpt><trkpt lat="44.2045513" lon="8.247054"><ele>559.0</ele><time>2026-04-26T13:00:25.476Z</time></trkpt><trkpt lat="44.2046172" lon="8.246896"><ele>558.0</ele><time>2026-04-26T13:00:26.48Z</time></trkpt><trkpt lat="44.2046948" lon="8.2467665"><ele>557.0</ele><time>2026-04-26T13:00:27.478Z</time></trkpt><trkpt lat="44.2047928" lon="8.246687"><ele>556.0</ele><time>2026-04-26T13:00:28.478Z</time></trkpt><trkpt lat="44.2049038" lon="8.2466702"><ele>555.0</ele><time>2026-04-26T13:00:29.475Z</time></trkpt><trkpt lat="44.2050275" lon="8.2467132"><ele>562.3333333333334</ele><time>2026-04-26T13:00:30.476Z</time></trkpt><trkpt lat="44.205165" lon="8.2467818"><ele>569.6666666666667</ele><time>2026-04-26T13:00:31.477Z</time></trkpt><trkpt lat="44.2053083" lon="8.2468433"><ele>577.0</ele><time>2026-04-26T13:00:32.476Z</time></trkpt><trkpt lat="44.2054605" lon="8.2468773"><ele>577.0</ele><time>2026-04-26T13:00:33.476Z</time></trkpt><trkpt lat="44.2056247" lon="8.2468745"><ele>577.0</ele><time>2026-04-26T13:00:34.476Z</time></trkpt><trkpt lat="44.2057915" lon="8.2468375"><ele>577.0</ele><time>2026-04-26T13:00:35.476Z</time></trkpt><trkpt lat="44.2059487" lon="8.2467725"><ele>578.2</ele><time>2026-04-26T13:00:36.475Z</time></trkpt><trkpt lat="44.2060867" lon="8.2467155"><ele>579.4000000000001</ele><time>2026-04-26T13:00:37.473Z</time></trkpt><trkpt lat="44.2062048" lon="8.2466988"><ele>580.5999999999999</ele><time>2026-04-26T13:00:38.472Z</time></trkpt><trkpt lat="44.2062967" lon="8.2466783"><ele>581.8</ele><time>2026-04-26T13:00:39.472Z</time></trkpt><trkpt lat="44.206374" lon="8.246616"><ele>583.0</ele><time>2026-04-26T13:00:40.474Z</time></trkpt><trkpt lat="44.2064412" lon="8.2465082"><ele>586.0</ele><time>2026-04-26T13:00:41.475Z</time></trkpt><trkpt lat="44.206504" lon="8.246393"><ele>589.0</ele><time>2026-04-26T13:00:42.477Z</time></trkpt><trkpt lat="44.2065855" lon="8.2462973"><ele>592.0</ele><time>2026-04-26T13:00:43.475Z</time></trkpt><trkpt lat="44.2066995" lon="8.246221"><ele>595.0</ele><time>2026-04-26T13:00:44.475Z</time></trkpt><trkpt lat="44.2068062" lon="8.2461617"><ele>595.0</ele><time>2026-04-26T13:00:45.475Z</time></trkpt><trkpt lat="44.2068887" lon="8.2461048"><ele>595.0</ele><time>2026-04-26T13:00:46.475Z</time></trkpt><trkpt lat="44.2069358" lon="8.2460292"><ele>595.0</ele><time>2026-04-26T13:00:47.475Z</time></trkpt><trkpt lat="44.2069457" lon="8.2459205"><ele>595.0</ele><time>2026-04-26T13:00:48.475Z</time></trkpt><trkpt lat="44.2069155" lon="8.2457863"><ele>595.0</ele><time>2026-04-26T13:00:49.475Z</time></trkpt><trkpt lat="44.2068585" lon="8.2456368"><ele>595.0</ele><time>2026-04-26T13:00:50.475Z</time></trkpt><trkpt lat="44.2067868" lon="8.2454723"><ele>595.0</ele><time>2026-04-26T13:00:51.475Z</time></trkpt><trkpt lat="44.2067205" lon="8.2453227"><ele>595.0</ele><time>2026-04-26T13:00:52.476Z</time></trkpt><trkpt lat="44.2066733" lon="8.2451823"><ele>595.0</ele><time>2026-04-26T13:00:53.475Z</time></trkpt><trkpt lat="44.2066593" lon="8.2450485"><ele>595.0</ele><time>2026-04-26T13:00:54.476Z</time></trkpt><trkpt lat="44.2066848" lon="8.2449372"><ele>595.0</ele><time>2026-04-26T13:00:55.475Z</time></trkpt><trkpt lat="44.2067502" lon="8.2448432"><ele>595.0</ele><time>2026-04-26T13:00:56.475Z</time></trkpt><trkpt lat="44.2068408" lon="8.2447557"><ele>595.0</ele><time>2026-04-26T13:00:57.477Z</time></trkpt><trkpt lat="44.2069268" lon="8.2446467"><ele>595.0</ele><time>2026-04-26T13:00:58.475Z</time></trkpt><trkpt lat="44.2070005" lon="8.2445007"><ele>593.5</ele><time>2026-04-26T13:00:59.477Z</time></trkpt><trkpt lat="44.207067" lon="8.2443332"><ele>592.0</ele><time>2026-04-26T13:01:00.477Z</time></trkpt><trkpt lat="44.207136" lon="8.244161"><ele>590.5</ele><time>2026-04-26T13:01:01.474Z</time></trkpt><trkpt lat="44.207208" lon="8.2439858"><ele>589.0</ele><time>2026-04-26T13:01:02.474Z</time></trkpt><trkpt lat="44.207284" lon="8.2438112"><ele>597.0</ele><time>2026-04-26T13:01:03.475Z</time></trkpt><trkpt lat="44.2073667" lon="8.243638"><ele>605.0</ele><time>2026-04-26T13:01:04.474Z</time></trkpt><trkpt lat="44.2074527" lon="8.2434618"><ele>613.0</ele><time>2026-04-26T13:01:05.477Z</time></trkpt><trkpt lat="44.2075363" lon="8.2432802"><ele>610.0</ele><time>2026-04-26T13:01:06.475Z</time></trkpt><trkpt lat="44.2076155" lon="8.2430952"><ele>607.0</ele><time>2026-04-26T13:01:07.476Z</time></trkpt><trkpt lat="44.2076942" lon="8.2429117"><ele>604.0</ele><time>2026-04-26T13:01:08.475Z</time></trkpt><trkpt lat="44.207771" lon="8.2427338"><ele>604.0</ele><time>2026-04-26T13:01:09.475Z</time></trkpt><trkpt lat="44.207844" lon="8.2425622"><ele>604.0</ele><time>2026-04-26T13:01:10.477Z</time></trkpt><trkpt lat="44.2079155" lon="8.2423935"><ele>604.0</ele><time>2026-04-26T13:01:11.475Z</time></trkpt><trkpt lat="44.207989" lon="8.2422295"><ele>604.0</ele><time>2026-04-26T13:01:12.476Z</time></trkpt><trkpt lat="44.2080695" lon="8.2420728"><ele>601.25</ele><time>2026-04-26T13:01:13.474Z</time></trkpt><trkpt lat="44.2081468" lon="8.2419263"><ele>598.5</ele><time>2026-04-26T13:01:14.475Z</time></trkpt><trkpt lat="44.2082202" lon="8.24179"><ele>595.75</ele><time>2026-04-26T13:01:15.475Z</time></trkpt><trkpt lat="44.2082955" lon="8.2416537"><ele>593.0</ele><time>2026-04-26T13:01:16.475Z</time></trkpt><trkpt lat="44.2083688" lon="8.2415177"><ele>599.4</ele><time>2026-04-26T13:01:17.476Z</time></trkpt><trkpt lat="44.2084403" lon="8.2413848"><ele>605.8</ele><time>2026-04-26T13:01:18.478Z</time></trkpt><trkpt lat="44.2085" lon="8.2412578"><ele>612.2</ele><time>2026-04-26T13:01:19.478Z</time></trkpt><trkpt lat="44.2085358" lon="8.2411252"><ele>618.6</ele><time>2026-04-26T13:01:20.476Z</time></trkpt><trkpt lat="44.2085313" lon="8.240985"><ele>625.0</ele><time>2026-04-26T13:01:21.477Z</time></trkpt><trkpt lat="44.2084875" lon="8.2408422"><ele>625.0</ele><time>2026-04-26T13:01:22.476Z</time></trkpt><trkpt lat="44.2084322" lon="8.2407022"><ele>625.0</ele><time>2026-04-26T13:01:23.476Z</time></trkpt><trkpt lat="44.2084038" lon="8.2405618"><ele>625.0</ele><time>2026-04-26T13:01:24.476Z</time></trkpt><trkpt lat="44.2084118" lon="8.2404008"><ele>625.0</ele><time>2026-04-26T13:01:25.475Z</time></trkpt><trkpt lat="44.2084493" lon="8.2402113"><ele>625.0</ele><time>2026-04-26T13:01:26.476Z</time></trkpt><trkpt lat="44.2085025" lon="8.2400122"><ele>625.0</ele><time>2026-04-26T13:01:27.474Z</time></trkpt><trkpt lat="44.2085573" lon="8.2398178"><ele>625.0</ele><time>2026-04-26T13:01:28.475Z</time></trkpt><trkpt lat="44.2086143" lon="8.2396057"><ele>625.6666666666667</ele><time>2026-04-26T13:01:29.476Z</time></trkpt><trkpt lat="44.2086677" lon="8.2393798"><ele>626.3333333333334</ele><time>2026-04-26T13:01:30.477Z</time></trkpt><trkpt lat="44.2087083" lon="8.2391417"><ele>627.0</ele><time>2026-04-26T13:01:31.477Z</time></trkpt><trkpt lat="44.2087345" lon="8.2388887"><ele>627.0</ele><time>2026-04-26T13:01:32.477Z</time></trkpt><trkpt lat="44.2087512" lon="8.238632"><ele>627.0</ele><time>2026-04-26T13:01:33.477Z</time></trkpt><trkpt lat="44.208766" lon="8.2383612"><ele>627.0</ele><time>2026-04-26T13:01:34.478Z</time></trkpt><trkpt lat="44.2087753" lon="8.2380855"><ele>626.6666666666666</ele><time>2026-04-26T13:01:35.477Z</time></trkpt><trkpt lat="44.208782" lon="8.2378118"><ele>626.3333333333333</ele><time>2026-04-26T13:01:36.478Z</time></trkpt><trkpt lat="44.208786" lon="8.2375567"><ele>626.0</ele><time>2026-04-26T13:01:37.48Z</time></trkpt><trkpt lat="44.2088012" lon="8.2373133"><ele>625.0</ele><time>2026-04-26T13:01:38.477Z</time></trkpt><trkpt lat="44.2088347" lon="8.2370925"><ele>624.0</ele><time>2026-04-26T13:01:39.478Z</time></trkpt><trkpt lat="44.2088915" lon="8.2368855"><ele>623.0</ele><time>2026-04-26T13:01:40.477Z</time></trkpt><trkpt lat="44.2089757" lon="8.2366812"><ele>632.3333333333333</ele><time>2026-04-26T13:01:41.478Z</time></trkpt><trkpt lat="44.2090827" lon="8.2364683"><ele>641.6666666666666</ele><time>2026-04-26T13:01:42.479Z</time></trkpt><trkpt lat="44.2091948" lon="8.2362377"><ele>651.0</ele><time>2026-04-26T13:01:43.476Z</time></trkpt><trkpt lat="44.2092947" lon="8.2359928"><ele>651.0</ele><time>2026-04-26T13:01:44.477Z</time></trkpt><trkpt lat="44.2093845" lon="8.2357685"><ele>651.0</ele><time>2026-04-26T13:01:45.478Z</time></trkpt><trkpt lat="44.2094703" lon="8.2355662"><ele>651.0</ele><time>2026-04-26T13:01:46.477Z</time></trkpt><trkpt lat="44.2095443" lon="8.2353633"><ele>650.0</ele><time>2026-04-26T13:01:47.476Z</time></trkpt><trkpt lat="44.2095972" lon="8.2351428"><ele>649.0</ele><time>2026-04-26T13:01:48.477Z</time></trkpt><trkpt lat="44.2096308" lon="8.2349002"><ele>648.0</ele><time>2026-04-26T13:01:49.476Z</time></trkpt><trkpt lat="44.2096552" lon="8.2346668"><ele>648.25</ele><time>2026-04-26T13:01:50.475Z</time></trkpt><trkpt lat="44.2096725" lon="8.2344555"><ele>648.5</ele><time>2026-04-26T13:01:51.476Z</time></trkpt><trkpt lat="44.2096638" lon="8.2342575"><ele>648.75</ele><time>2026-04-26T13:01:52.475Z</time></trkpt><trkpt lat="44.2096325" lon="8.2340612"><ele>649.0</ele><time>2026-04-26T13:01:53.475Z</time></trkpt><trkpt lat="44.209613" lon="8.2338675"><ele>649.0</ele><time>2026-04-26T13:01:54.478Z</time></trkpt><trkpt lat="44.2096202" lon="8.233676"><ele>649.0</ele><time>2026-04-26T13:01:55.478Z</time></trkpt><trkpt lat="44.2096538" lon="8.2335025"><ele>649.0</ele><time>2026-04-26T13:01:56.477Z</time></trkpt><trkpt lat="44.2097097" lon="8.23336"><ele>649.0</ele><time>2026-04-26T13:01:57.478Z</time></trkpt><trkpt lat="44.209793" lon="8.2332463"><ele>653.5</ele><time>2026-04-26T13:01:58.477Z</time></trkpt><trkpt lat="44.2099038" lon="8.233157"><ele>658.0</ele><time>2026-04-26T13:01:59.477Z</time></trkpt><trkpt lat="44.2100328" lon="8.2330747"><ele>662.5</ele><time>2026-04-26T13:02:00.476Z</time></trkpt><trkpt lat="44.2101693" lon="8.2329853"><ele>667.0</ele><time>2026-04-26T13:02:01.475Z</time></trkpt><trkpt lat="44.2102928" lon="8.2328902"><ele>667.0</ele><time>2026-04-26T13:02:02.475Z</time></trkpt><trkpt lat="44.2103988" lon="8.2327992"><ele>667.0</ele><time>2026-04-26T13:02:03.475Z</time></trkpt><trkpt lat="44.2104842" lon="8.2327057"><ele>667.0</ele><time>2026-04-26T13:02:04.476Z</time></trkpt><trkpt lat="44.2105415" lon="8.2325992"><ele>667.0</ele><time>2026-04-26T13:02:05.477Z</time></trkpt><trkpt lat="44.2105575" lon="8.232485"><ele>667.0</ele><time>2026-04-26T13:02:06.477Z</time></trkpt><trkpt lat="44.2105185" lon="8.23237"><ele>667.6</ele><time>2026-04-26T13:02:07.475Z</time></trkpt><trkpt lat="44.210441" lon="8.232262"><ele>668.2</ele><time>2026-04-26T13:02:08.478Z</time></trkpt><trkpt lat="44.2103602" lon="8.2321508"><ele>668.8</ele><time>2026-04-26T13:02:09.476Z</time></trkpt><trkpt lat="44.2103065" lon="8.2320325"><ele>669.4</ele><time>2026-04-26T13:02:10.476Z</time></trkpt><trkpt lat="44.2102902" lon="8.2319027"><ele>670.0</ele><time>2026-04-26T13:02:11.475Z</time></trkpt><trkpt lat="44.2103212" lon="8.2317767"><ele>670.0</ele><time>2026-04-26T13:02:12.475Z</time></trkpt><trkpt lat="44.210395" lon="8.2316695"><ele>670.0</ele><time>2026-04-26T13:02:13.477Z</time></trkpt><trkpt lat="44.210504" lon="8.2315712"><ele>670.0</ele><time>2026-04-26T13:02:14.474Z</time></trkpt><trkpt lat="44.21063" lon="8.2314588"><ele>670.0</ele><time>2026-04-26T13:02:15.475Z</time></trkpt><trkpt lat="44.2107422" lon="8.2313385"><ele>672.5</ele><time>2026-04-26T13:02:16.475Z</time></trkpt><trkpt lat="44.2108408" lon="8.2312317"><ele>675.0</ele><time>2026-04-26T13:02:17.473Z</time></trkpt><trkpt lat="44.2109348" lon="8.2311637"><ele>677.5</ele><time>2026-04-26T13:02:18.474Z</time></trkpt><trkpt lat="44.2110445" lon="8.2311383"><ele>680.0</ele><time>2026-04-26T13:02:19.474Z</time></trkpt><trkpt lat="44.211173" lon="8.2311513"><ele>680.0</ele><time>2026-04-26T13:02:20.474Z</time></trkpt><trkpt lat="44.2113065" lon="8.231202"><ele>680.0</ele><time>2026-04-26T13:02:21.476Z</time></trkpt><trkpt lat="44.211446" lon="8.2312695"><ele>680.0</ele><time>2026-04-26T13:02:22.474Z</time></trkpt><trkpt lat="44.2116082" lon="8.2313462"><ele>681.0</ele><time>2026-04-26T13:02:23.474Z</time></trkpt><trkpt lat="44.211771" lon="8.2314058"><ele>682.0</ele><time>2026-04-26T13:02:24.474Z</time></trkpt><trkpt lat="44.21195" lon="8.2314525"><ele>683.0</ele><time>2026-04-26T13:02:25.475Z</time></trkpt><trkpt lat="44.2121162" lon="8.2314968"><ele>689.5</ele><time>2026-04-26T13:02:26.475Z</time></trkpt><trkpt lat="44.2122628" lon="8.231544"><ele>696.0</ele><time>2026-04-26T13:02:27.475Z</time></trkpt><trkpt lat="44.2123957" lon="8.2316255"><ele>702.5</ele><time>2026-04-26T13:02:28.475Z</time></trkpt><trkpt lat="44.2125062" lon="8.231713"><ele>709.0</ele><time>2026-04-26T13:02:29.479Z</time></trkpt><trkpt lat="44.2125972" lon="8.2317747"><ele>709.0</ele><time>2026-04-26T13:02:30.474Z</time></trkpt><trkpt lat="44.212674" lon="8.2318008"><ele>709.0</ele><time>2026-04-26T13:02:31.475Z</time></trkpt><trkpt lat="44.2127693" lon="8.2317823"><ele>709.0</ele><time>2026-04-26T13:02:32.475Z</time></trkpt><trkpt lat="44.2128807" lon="8.2317393"><ele>709.0</ele><time>2026-04-26T13:02:33.475Z</time></trkpt><trkpt lat="44.2129955" lon="8.2316563"><ele>709.0</ele><time>2026-04-26T13:02:34.475Z</time></trkpt><trkpt lat="44.2131235" lon="8.2315578"><ele>705.5</ele><time>2026-04-26T13:02:35.475Z</time></trkpt><trkpt lat="44.2132522" lon="8.2314673"><ele>702.0</ele><time>2026-04-26T13:02:36.476Z</time></trkpt><trkpt lat="44.2133638" lon="8.2313638"><ele>698.5</ele><time>2026-04-26T13:02:37.476Z</time></trkpt><trkpt lat="44.2134623" lon="8.2312293"><ele>695.0</ele><time>2026-04-26T13:02:38.476Z</time></trkpt><trkpt lat="44.2135473" lon="8.231096"><ele>695.0</ele><time>2026-04-26T13:02:39.474Z</time></trkpt><trkpt lat="44.2136172" lon="8.2309792"><ele>695.0</ele><time>2026-04-26T13:02:40.474Z</time></trkpt><trkpt lat="44.2136842" lon="8.230877"><ele>695.0</ele><time>2026-04-26T13:02:41.475Z</time></trkpt><trkpt lat="44.2137555" lon="8.2307797"><ele>695.0</ele><time>2026-04-26T13:02:42.475Z</time></trkpt><trkpt lat="44.2138337" lon="8.2306967"><ele>695.0</ele><time>2026-04-26T13:02:43.477Z</time></trkpt><trkpt lat="44.2139207" lon="8.2306418"><ele>696.8333333333333</ele><time>2026-04-26T13:02:44.476Z</time></trkpt><trkpt lat="44.2140112" lon="8.2306122"><ele>698.6666666666666</ele><time>2026-04-26T13:02:45.477Z</time></trkpt><trkpt lat="44.2141037" lon="8.2306017"><ele>700.5</ele><time>2026-04-26T13:02:46.477Z</time></trkpt><trkpt lat="44.21419" lon="8.2305937"><ele>702.3333333333334</ele><time>2026-04-26T13:02:47.475Z</time></trkpt><trkpt lat="44.2142667" lon="8.2305635"><ele>704.1666666666667</ele><time>2026-04-26T13:02:48.479Z</time></trkpt><trkpt lat="44.2143285" lon="8.2305055"><ele>706.0</ele><time>2026-04-26T13:02:49.477Z</time></trkpt><trkpt lat="44.21438" lon="8.2304248"><ele>706.0</ele><time>2026-04-26T13:02:50.477Z</time></trkpt><trkpt lat="44.2144242" lon="8.2303205"><ele>706.0</ele><time>2026-04-26T13:02:51.478Z</time></trkpt><trkpt lat="44.2144677" lon="8.2302018"><ele>706.0</ele><time>2026-04-26T13:02:52.478Z</time></trkpt><trkpt lat="44.214514" lon="8.2300752"><ele>706.0</ele><time>2026-04-26T13:02:53.478Z</time></trkpt><trkpt lat="44.2145598" lon="8.2299492"><ele>706.0</ele><time>2026-04-26T13:02:54.478Z</time></trkpt><trkpt lat="44.2146038" lon="8.2298202"><ele>702.8</ele><time>2026-04-26T13:02:55.478Z</time></trkpt><trkpt lat="44.2146487" lon="8.2296877"><ele>699.5999999999999</ele><time>2026-04-26T13:02:56.478Z</time></trkpt><trkpt lat="44.2146998" lon="8.2295572"><ele>696.4</ele><time>2026-04-26T13:02:57.479Z</time></trkpt><trkpt lat="44.2147585" lon="8.2294365"><ele>693.2</ele><time>2026-04-26T13:02:58.477Z</time></trkpt><trkpt lat="44.214823" lon="8.2293255"><ele>690.0</ele><time>2026-04-26T13:02:59.478Z</time></trkpt><trkpt lat="44.2148935" lon="8.2292178"><ele>695.3333333333334</ele><time>2026-04-26T13:03:00.479Z</time></trkpt><trkpt lat="44.2149818" lon="8.2291022"><ele>700.6666666666667</ele><time>2026-04-26T13:03:01.477Z</time></trkpt><trkpt lat="44.2151055" lon="8.2289722"><ele>706.0</ele><time>2026-04-26T13:03:02.479Z</time></trkpt><trkpt lat="44.2152638" lon="8.2288318"><ele>706.0</ele><time>2026-04-26T13:03:03.478Z</time></trkpt><trkpt lat="44.2154268" lon="8.2286758"><ele>706.0</ele><time>2026-04-26T13:03:04.477Z</time></trkpt><trkpt lat="44.215583" lon="8.228512"><ele>706.0</ele><time>2026-04-26T13:03:05.478Z</time></trkpt><trkpt lat="44.2157365" lon="8.2283657"><ele>707.6666666666667</ele><time>2026-04-26T13:03:06.477Z</time></trkpt><trkpt lat="44.215889" lon="8.2282587"><ele>709.3333333333334</ele><time>2026-04-26T13:03:07.478Z</time></trkpt><trkpt lat="44.2160327" lon="8.2281848"><ele>711.0</ele><time>2026-04-26T13:03:08.478Z</time></trkpt><trkpt lat="44.2161682" lon="8.2280897"><ele>711.0</ele><time>2026-04-26T13:03:09.478Z</time></trkpt><trkpt lat="44.2162985" lon="8.2279507"><ele>711.0</ele><time>2026-04-26T13:03:10.478Z</time></trkpt><trkpt lat="44.2164318" lon="8.2277632"><ele>711.0</ele><time>2026-04-26T13:03:11.478Z</time></trkpt><trkpt lat="44.216551" lon="8.227574"><ele>712.75</ele><time>2026-04-26T13:03:12.478Z</time></trkpt><trkpt lat="44.2166545" lon="8.2274087"><ele>714.5</ele><time>2026-04-26T13:03:13.479Z</time></trkpt><trkpt lat="44.2167478" lon="8.2272697"><ele>716.25</ele><time>2026-04-26T13:03:14.478Z</time></trkpt><trkpt lat="44.2168292" lon="8.2271583"><ele>718.0</ele><time>2026-04-26T13:03:15.479Z</time></trkpt><trkpt lat="44.21691" lon="8.2270755"><ele>718.0</ele><time>2026-04-26T13:03:16.479Z</time></trkpt><trkpt lat="44.2169845" lon="8.2270173"><ele>718.0</ele><time>2026-04-26T13:03:17.478Z</time></trkpt><trkpt lat="44.2170548" lon="8.2269773"><ele>718.0</ele><time>2026-04-26T13:03:18.478Z</time></trkpt><trkpt lat="44.2171287" lon="8.2269378"><ele>718.0</ele><time>2026-04-26T13:03:19.477Z</time></trkpt><trkpt lat="44.217227" lon="8.2269065"><ele>718.0</ele><time>2026-04-26T13:03:20.477Z</time></trkpt><trkpt lat="44.2173368" lon="8.2268875"><ele>725.5</ele><time>2026-04-26T13:03:21.477Z</time></trkpt><trkpt lat="44.2174678" lon="8.2268745"><ele>733.0</ele><time>2026-04-26T13:03:22.478Z</time></trkpt><trkpt lat="44.2176065" lon="8.2268762"><ele>740.5</ele><time>2026-04-26T13:03:23.477Z</time></trkpt><trkpt lat="44.2177297" lon="8.226878"><ele>748.0</ele><time>2026-04-26T13:03:24.478Z</time></trkpt><trkpt lat="44.2178358" lon="8.2268607"><ele>748.0</ele><time>2026-04-26T13:03:25.477Z</time></trkpt><trkpt lat="44.2179302" lon="8.2268063"><ele>748.0</ele><time>2026-04-26T13:03:26.477Z</time></trkpt><trkpt lat="44.2180015" lon="8.2267032"><ele>748.0</ele><time>2026-04-26T13:03:27.478Z</time></trkpt><trkpt lat="44.2180445" lon="8.2265532"><ele>748.0</ele><time>2026-04-26T13:03:28.476Z</time></trkpt><trkpt lat="44.2180623" lon="8.2264078"><ele>748.0</ele><time>2026-04-26T13:03:29.477Z</time></trkpt><trkpt lat="44.2180688" lon="8.2262772"><ele>751.5999999999999</ele><time>2026-04-26T13:03:30.476Z</time></trkpt><trkpt lat="44.2180915" lon="8.2261587"><ele>755.1999999999999</ele><time>2026-04-26T13:03:31.478Z</time></trkpt><trkpt lat="44.2181453" lon="8.2260453"><ele>758.8</ele><time>2026-04-26T13:03:32.479Z</time></trkpt><trkpt lat="44.2182293" lon="8.2259542"><ele>762.4</ele><time>2026-04-26T13:03:33.478Z</time></trkpt><trkpt lat="44.2183323" lon="8.2258858"><ele>766.0</ele><time>2026-04-26T13:03:34.478Z</time></trkpt><trkpt lat="44.2184363" lon="8.2258307"><ele>766.0</ele><time>2026-04-26T13:03:35.479Z</time></trkpt><trkpt lat="44.2185322" lon="8.2257712"><ele>766.0</ele><time>2026-04-26T13:03:36.478Z</time></trkpt><trkpt lat="44.2186227" lon="8.2256897"><ele>766.0</ele><time>2026-04-26T13:03:37.477Z</time></trkpt><trkpt lat="44.2186947" lon="8.2255813"><ele>766.0</ele><time>2026-04-26T13:03:38.478Z</time></trkpt><trkpt lat="44.2187355" lon="8.2254427"><ele>766.0</ele><time>2026-04-26T13:03:39.478Z</time></trkpt><trkpt lat="44.2187542" lon="8.2252873"><ele>761.1999999999999</ele><time>2026-04-26T13:03:40.477Z</time></trkpt><trkpt lat="44.2187665" lon="8.2251378"><ele>756.4</ele><time>2026-04-26T13:03:41.478Z</time></trkpt><trkpt lat="44.2187922" lon="8.2249927"><ele>751.6</ele><time>2026-04-26T13:03:42.478Z</time></trkpt><trkpt lat="44.2188272" lon="8.2248698"><ele>746.8</ele><time>2026-04-26T13:03:43.479Z</time></trkpt><trkpt lat="44.218871" lon="8.224757"><ele>742.0</ele><time>2026-04-26T13:03:44.479Z</time></trkpt><trkpt lat="44.2189313" lon="8.2246473"><ele>749.0</ele><time>2026-04-26T13:03:45.479Z</time></trkpt><trkpt lat="44.2190092" lon="8.224545"><ele>756.0</ele><time>2026-04-26T13:03:46.478Z</time></trkpt><trkpt lat="44.2190938" lon="8.2244478"><ele>763.0</ele><time>2026-04-26T13:03:47.478Z</time></trkpt><trkpt lat="44.2191767" lon="8.2243448"><ele>770.0</ele><time>2026-04-26T13:03:48.479Z</time></trkpt><trkpt lat="44.21925" lon="8.2242272"><ele>777.0</ele><time>2026-04-26T13:03:49.48Z</time></trkpt><trkpt lat="44.2193068" lon="8.2241058"><ele>777.0</ele><time>2026-04-26T13:03:50.478Z</time></trkpt><trkpt lat="44.2193513" lon="8.223999"><ele>777.0</ele><time>2026-04-26T13:03:51.479Z</time></trkpt><trkpt lat="44.2194042" lon="8.2239083"><ele>777.0</ele><time>2026-04-26T13:03:52.476Z</time></trkpt><trkpt lat="44.2194783" lon="8.2238402"><ele>777.0</ele><time>2026-04-26T13:03:53.476Z</time></trkpt><trkpt lat="44.219569" lon="8.2237935"><ele>777.0</ele><time>2026-04-26T13:03:54.477Z</time></trkpt><trkpt lat="44.2196698" lon="8.22377"><ele>779.6</ele><time>2026-04-26T13:03:55.475Z</time></trkpt><trkpt lat="44.2197732" lon="8.2237533"><ele>782.2</ele><time>2026-04-26T13:03:56.477Z</time></trkpt><trkpt lat="44.2198762" lon="8.2237372"><ele>784.8</ele><time>2026-04-26T13:03:57.479Z</time></trkpt><trkpt lat="44.219973" lon="8.2237252"><ele>787.4</ele><time>2026-04-26T13:03:58.477Z</time></trkpt><trkpt lat="44.2200543" lon="8.223714"><ele>790.0</ele><time>2026-04-26T13:03:59.478Z</time></trkpt><trkpt lat="44.2201263" lon="8.223696"><ele>789.9999999999999</ele><time>2026-04-26T13:04:00.476Z</time></trkpt><trkpt lat="44.2201873" lon="8.2236472"><ele>790.0</ele><time>2026-04-26T13:04:01.476Z</time></trkpt><trkpt lat="44.2202248" lon="8.2235562"><ele>790.0</ele><time>2026-04-26T13:04:02.477Z</time></trkpt><trkpt lat="44.22023" lon="8.2234347"><ele>790.0</ele><time>2026-04-26T13:04:03.477Z</time></trkpt><trkpt lat="44.2202067" lon="8.2232932"><ele>789.9999999999999</ele><time>2026-04-26T13:04:04.478Z</time></trkpt><trkpt lat="44.220195" lon="8.223153"><ele>790.0</ele><time>2026-04-26T13:04:05.479Z</time></trkpt><trkpt lat="44.2202073" lon="8.2230175"><ele>790.6666666666666</ele><time>2026-04-26T13:04:06.477Z</time></trkpt><trkpt lat="44.2202175" lon="8.2228958"><ele>791.3333333333333</ele><time>2026-04-26T13:04:07.478Z</time></trkpt><trkpt lat="44.220197" lon="8.2227798"><ele>792.0</ele><time>2026-04-26T13:04:08.475Z</time></trkpt><trkpt lat="44.2201433" lon="8.2226742"><ele>792.6666666666667</ele><time>2026-04-26T13:04:09.477Z</time></trkpt><trkpt lat="44.2200823" lon="8.2225852"><ele>793.3333333333334</ele><time>2026-04-26T13:04:10.476Z</time></trkpt><trkpt lat="44.2200375" lon="8.2224898"><ele>794.0</ele><time>2026-04-26T13:04:11.477Z</time></trkpt><trkpt lat="44.2200155" lon="8.222376"><ele>794.0</ele><time>2026-04-26T13:04:12.477Z</time></trkpt><trkpt lat="44.2200208" lon="8.2222527"><ele>794.0</ele><time>2026-04-26T13:04:13.478Z</time></trkpt><trkpt lat="44.2200502" lon="8.2221155"><ele>794.0</ele><time>2026-04-26T13:04:14.477Z</time></trkpt><trkpt lat="44.2200938" lon="8.2219612"><ele>794.0</ele><time>2026-04-26T13:04:15.479Z</time></trkpt><trkpt lat="44.2201477" lon="8.2218117"><ele>794.0</ele><time>2026-04-26T13:04:16.477Z</time></trkpt><trkpt lat="44.220206" lon="8.2216855"><ele>794.0</ele><time>2026-04-26T13:04:17.476Z</time></trkpt><trkpt lat="44.2202685" lon="8.2215785"><ele>794.0</ele><time>2026-04-26T13:04:18.476Z</time></trkpt><trkpt lat="44.220344" lon="8.2214825"><ele>794.0</ele><time>2026-04-26T13:04:19.475Z</time></trkpt><trkpt lat="44.220439" lon="8.2214057"><ele>794.0</ele><time>2026-04-26T13:04:20.477Z</time></trkpt><trkpt lat="44.2205548" lon="8.2213505"><ele>794.0</ele><time>2026-04-26T13:04:21.477Z</time></trkpt><trkpt lat="44.2206815" lon="8.2212962"><ele>796.5</ele><time>2026-04-26T13:04:22.477Z</time></trkpt><trkpt lat="44.2208003" lon="8.2212312"><ele>799.0</ele><time>2026-04-26T13:04:23.477Z</time></trkpt><trkpt lat="44.2209098" lon="8.2211507"><ele>801.5</ele><time>2026-04-26T13:04:24.477Z</time></trkpt><trkpt lat="44.2210045" lon="8.2210505"><ele>804.0</ele><time>2026-04-26T13:04:25.478Z</time></trkpt><trkpt lat="44.221099" lon="8.2209405"><ele>804.0</ele><time>2026-04-26T13:04:26.476Z</time></trkpt><trkpt lat="44.221197" lon="8.2208393"><ele>804.0</ele><time>2026-04-26T13:04:27.477Z</time></trkpt><trkpt lat="44.221295" lon="8.220753"><ele>804.0</ele><time>2026-04-26T13:04:28.478Z</time></trkpt><trkpt lat="44.221398" lon="8.220685"><ele>804.0</ele><time>2026-04-26T13:04:29.477Z</time></trkpt><trkpt lat="44.2215093" lon="8.2206315"><ele>801.75</ele><time>2026-04-26T13:04:30.477Z</time></trkpt><trkpt lat="44.2216298" lon="8.2205998"><ele>799.5</ele><time>2026-04-26T13:04:31.477Z</time></trkpt><trkpt lat="44.2217583" lon="8.2205813"><ele>797.25</ele><time>2026-04-26T13:04:32.476Z</time></trkpt><trkpt lat="44.2218955" lon="8.22057"><ele>795.0</ele><time>2026-04-26T13:04:33.478Z</time></trkpt><trkpt lat="44.2220307" lon="8.2205587"><ele>795.0</ele><time>2026-04-26T13:04:34.477Z</time></trkpt><trkpt lat="44.222163" lon="8.2205528"><ele>795.0</ele><time>2026-04-26T13:04:35.476Z</time></trkpt><trkpt lat="44.2222873" lon="8.2205433"><ele>795.0</ele><time>2026-04-26T13:04:36.477Z</time></trkpt><trkpt lat="44.2224068" lon="8.2205258"><ele>795.0</ele><time>2026-04-26T13:04:37.478Z</time></trkpt><trkpt lat="44.2225227" lon="8.220498"><ele>797.8</ele><time>2026-04-26T13:04:38.475Z</time></trkpt><trkpt lat="44.2226308" lon="8.2204572"><ele>800.6</ele><time>2026-04-26T13:04:39.477Z</time></trkpt><trkpt lat="44.2227312" lon="8.2204197"><ele>803.4000000000001</ele><time>2026-04-26T13:04:40.476Z</time></trkpt><trkpt lat="44.222832" lon="8.2204007"><ele>806.2</ele><time>2026-04-26T13:04:41.474Z</time></trkpt><trkpt lat="44.2229322" lon="8.220408"><ele>809.0</ele><time>2026-04-26T13:04:42.475Z</time></trkpt><trkpt lat="44.2230258" lon="8.2204272"><ele>809.0</ele><time>2026-04-26T13:04:43.476Z</time></trkpt><trkpt lat="44.2231148" lon="8.2204262"><ele>809.0</ele><time>2026-04-26T13:04:44.474Z</time></trkpt><trkpt lat="44.2232045" lon="8.2203898"><ele>809.0</ele><time>2026-04-26T13:04:45.476Z</time></trkpt><trkpt lat="44.2232915" lon="8.2203318"><ele>809.0</ele><time>2026-04-26T13:04:46.476Z</time></trkpt><trkpt lat="44.2233717" lon="8.2202627"><ele>809.0</ele><time>2026-04-26T13:04:47.476Z</time></trkpt><trkpt lat="44.2234403" lon="8.2201875"><ele>812.3333333333334</ele><time>2026-04-26T13:04:48.477Z</time></trkpt><trkpt lat="44.223504" lon="8.2201112"><ele>815.6666666666667</ele><time>2026-04-26T13:04:49.477Z</time></trkpt><trkpt lat="44.223572" lon="8.220036"><ele>819.0</ele><time>2026-04-26T13:04:50.477Z</time></trkpt><trkpt lat="44.2236418" lon="8.2199618"><ele>822.3333333333333</ele><time>2026-04-26T13:04:51.477Z</time></trkpt><trkpt lat="44.2237218" lon="8.2199088"><ele>825.6666666666666</ele><time>2026-04-26T13:04:52.477Z</time></trkpt><trkpt lat="44.2237963" lon="8.2198705"><ele>829.0</ele><time>2026-04-26T13:04:53.476Z</time></trkpt><trkpt lat="44.2238677" lon="8.2198268"><ele>826.3333333333333</ele><time>2026-04-26T13:04:54.479Z</time></trkpt><trkpt lat="44.2239327" lon="8.2197642"><ele>823.6666666666666</ele><time>2026-04-26T13:04:55.478Z</time></trkpt><trkpt lat="44.2239947" lon="8.219687"><ele>821.0</ele><time>2026-04-26T13:04:56.476Z</time></trkpt><trkpt lat="44.2240583" lon="8.219593"><ele>818.3333333333333</ele><time>2026-04-26T13:04:57.478Z</time></trkpt><trkpt lat="44.2241233" lon="8.2194938"><ele>815.6666666666666</ele><time>2026-04-26T13:04:58.476Z</time></trkpt><trkpt lat="44.2241847" lon="8.21939"><ele>813.0</ele><time>2026-04-26T13:04:59.476Z</time></trkpt><trkpt lat="44.2242358" lon="8.2192717"><ele>820.0</ele><time>2026-04-26T13:05:00.478Z</time></trkpt><trkpt lat="44.2242667" lon="8.219133"><ele>827.0</ele><time>2026-04-26T13:05:01.476Z</time></trkpt><trkpt lat="44.2242875" lon="8.2189835"><ele>834.0</ele><time>2026-04-26T13:05:02.477Z</time></trkpt><trkpt lat="44.2243072" lon="8.2188372"><ele>841.0</ele><time>2026-04-26T13:05:03.478Z</time></trkpt><trkpt lat="44.2243183" lon="8.2187057"><ele>848.0</ele><time>2026-04-26T13:05:04.48Z</time></trkpt><trkpt lat="44.2242997" lon="8.2185787"><ele>850.4</ele><time>2026-04-26T13:05:05.475Z</time></trkpt><trkpt lat="44.2242463" lon="8.2184608"><ele>852.8</ele><time>2026-04-26T13:05:06.476Z</time></trkpt><trkpt lat="44.2241812" lon="8.2183605"><ele>855.2</ele><time>2026-04-26T13:05:07.476Z</time></trkpt><trkpt lat="44.2241218" lon="8.21826"><ele>857.6</ele><time>2026-04-26T13:05:08.476Z</time></trkpt><trkpt lat="44.2240775" lon="8.2181387"><ele>860.0</ele><time>2026-04-26T13:05:09.476Z</time></trkpt><trkpt lat="44.2240532" lon="8.2179898"><ele>861.0</ele><time>2026-04-26T13:05:10.477Z</time></trkpt><trkpt lat="44.2240428" lon="8.2178202"><ele>862.0</ele><time>2026-04-26T13:05:11.477Z</time></trkpt><trkpt lat="44.224036" lon="8.217643"><ele>863.0</ele><time>2026-04-26T13:05:12.477Z</time></trkpt><trkpt lat="44.2240327" lon="8.217482"><ele>864.0</ele><time>2026-04-26T13:05:13.477Z</time></trkpt><trkpt lat="44.2240418" lon="8.2173283"><ele>862.0</ele><time>2026-04-26T13:05:14.478Z</time></trkpt><trkpt lat="44.224068" lon="8.2171798"><ele>860.0</ele><time>2026-04-26T13:05:15.478Z</time></trkpt><trkpt lat="44.2241123" lon="8.2170303"><ele>858.0</ele><time>2026-04-26T13:05:16.478Z</time></trkpt><trkpt lat="44.2241732" lon="8.2168848"><ele>856.0</ele><time>2026-04-26T13:05:17.478Z</time></trkpt><trkpt lat="44.2242458" lon="8.2167512"><ele>856.0</ele><time>2026-04-26T13:05:18.476Z</time></trkpt><trkpt lat="44.224329" lon="8.2166333"><ele>856.0</ele><time>2026-04-26T13:05:19.477Z</time></trkpt><trkpt lat="44.2244067" lon="8.2165212"><ele>856.0</ele><time>2026-04-26T13:05:20.477Z</time></trkpt><trkpt lat="44.2244633" lon="8.2163928"><ele>856.0</ele><time>2026-04-26T13:05:21.477Z</time></trkpt><trkpt lat="44.2245095" lon="8.2162465"><ele>854.5999999999999</ele><time>2026-04-26T13:05:22.478Z</time></trkpt><trkpt lat="44.2245728" lon="8.2161115"><ele>853.1999999999999</ele><time>2026-04-26T13:05:23.478Z</time></trkpt><trkpt lat="44.2246408" lon="8.215987"><ele>851.8</ele><time>2026-04-26T13:05:24.478Z</time></trkpt><trkpt lat="44.2246923" lon="8.2158477"><ele>850.4000000000001</ele><time>2026-04-26T13:05:25.475Z</time></trkpt><trkpt lat="44.224724" lon="8.2157035"><ele>849.0</ele><time>2026-04-26T13:05:26.476Z</time></trkpt><trkpt lat="44.2247537" lon="8.2155757"><ele>851.2</ele><time>2026-04-26T13:05:27.478Z</time></trkpt><trkpt lat="44.2247975" lon="8.2154617"><ele>853.4000000000001</ele><time>2026-04-26T13:05:28.477Z</time></trkpt><trkpt lat="44.2248592" lon="8.2153613"><ele>855.6</ele><time>2026-04-26T13:05:29.477Z</time></trkpt><trkpt lat="44.2249373" lon="8.2152772"><ele>857.8</ele><time>2026-04-26T13:05:30.476Z</time></trkpt><trkpt lat="44.2250333" lon="8.2152243"><ele>860.0</ele><time>2026-04-26T13:05:31.475Z</time></trkpt><trkpt lat="44.2251405" lon="8.2152008"><ele>860.0</ele><time>2026-04-26T13:05:32.474Z</time></trkpt><trkpt lat="44.2252552" lon="8.2151893"><ele>860.0</ele><time>2026-04-26T13:05:33.478Z</time></trkpt><trkpt lat="44.2253553" lon="8.2151652"><ele>860.0</ele><time>2026-04-26T13:05:34.477Z</time></trkpt><trkpt lat="44.2254418" lon="8.215141"><ele>860.0</ele><time>2026-04-26T13:05:35.477Z</time></trkpt><trkpt lat="44.2255228" lon="8.2151352"><ele>860.0</ele><time>2026-04-26T13:05:36.477Z</time></trkpt><trkpt lat="44.2256077" lon="8.2151625"><ele>860.6</ele><time>2026-04-26T13:05:37.479Z</time></trkpt><trkpt lat="44.2256825" lon="8.2152252"><ele>861.2</ele><time>2026-04-26T13:05:38.478Z</time></trkpt><trkpt lat="44.2257397" lon="8.2153237"><ele>861.8</ele><time>2026-04-26T13:05:39.478Z</time></trkpt><trkpt lat="44.2257913" lon="8.2154447"><ele>862.4</ele><time>2026-04-26T13:05:40.477Z</time></trkpt><trkpt lat="44.2258467" lon="8.215575"><ele>863.0</ele><time>2026-04-26T13:05:41.477Z</time></trkpt><trkpt lat="44.2259232" lon="8.2156917"><ele>871.0</ele><time>2026-04-26T13:05:42.478Z</time></trkpt><trkpt lat="44.2260075" lon="8.2157933"><ele>879.0</ele><time>2026-04-26T13:05:43.475Z</time></trkpt><trkpt lat="44.2261045" lon="8.2158677"><ele>887.0</ele><time>2026-04-26T13:05:44.475Z</time></trkpt><trkpt lat="44.2262153" lon="8.2158953"><ele>895.0</ele><time>2026-04-26T13:05:45.475Z</time></trkpt><trkpt lat="44.2263298" lon="8.2159207"><ele>895.0</ele><time>2026-04-26T13:05:46.475Z</time></trkpt><trkpt lat="44.226444" lon="8.2159482"><ele>895.0</ele><time>2026-04-26T13:05:47.475Z</time></trkpt><trkpt lat="44.2265573" lon="8.2159595"><ele>895.0</ele><time>2026-04-26T13:05:48.474Z</time></trkpt><trkpt lat="44.2266748" lon="8.215942"><ele>895.0</ele><time>2026-04-26T13:05:49.474Z</time></trkpt><trkpt lat="44.2267822" lon="8.2159148"><ele>894.2</ele><time>2026-04-26T13:05:50.475Z</time></trkpt><trkpt lat="44.2268803" lon="8.2158997"><ele>893.4</ele><time>2026-04-26T13:05:51.475Z</time></trkpt><trkpt lat="44.2269802" lon="8.2159192"><ele>892.5999999999999</ele><time>2026-04-26T13:05:52.475Z</time></trkpt><trkpt lat="44.2270782" lon="8.2159722"><ele>891.8</ele><time>2026-04-26T13:05:53.474Z</time></trkpt><trkpt lat="44.2271712" lon="8.2160588"><ele>891.0</ele><time>2026-04-26T13:05:54.475Z</time></trkpt><trkpt lat="44.2272498" lon="8.2161688"><ele>890.1999999999999</ele><time>2026-04-26T13:05:55.473Z</time></trkpt><trkpt lat="44.2273165" lon="8.2162738"><ele>889.3999999999999</ele><time>2026-04-26T13:05:56.474Z</time></trkpt><trkpt lat="44.2273773" lon="8.2163547"><ele>888.6</ele><time>2026-04-26T13:05:57.473Z</time></trkpt><trkpt lat="44.2274473" lon="8.2164047"><ele>887.8</ele><time>2026-04-26T13:05:58.474Z</time></trkpt><trkpt lat="44.2275395" lon="8.216413"><ele>887.0</ele><time>2026-04-26T13:05:59.475Z</time></trkpt><trkpt lat="44.227646" lon="8.216393"><ele>887.0</ele><time>2026-04-26T13:06:00.474Z</time></trkpt><trkpt lat="44.2277523" lon="8.2163523"><ele>887.0</ele><time>2026-04-26T13:06:01.475Z</time></trkpt><trkpt lat="44.227855" lon="8.216281"><ele>887.0</ele><time>2026-04-26T13:06:02.474Z</time></trkpt><trkpt lat="44.2279485" lon="8.2161703"><ele>887.0</ele><time>2026-04-26T13:06:03.476Z</time></trkpt><trkpt lat="44.228045" lon="8.2160343"><ele>890.0</ele><time>2026-04-26T13:06:04.475Z</time></trkpt><trkpt lat="44.228147" lon="8.2158967"><ele>893.0</ele><time>2026-04-26T13:06:05.477Z</time></trkpt><trkpt lat="44.2282465" lon="8.215762"><ele>896.0</ele><time>2026-04-26T13:06:06.475Z</time></trkpt><trkpt lat="44.2283332" lon="8.2156422"><ele>899.0</ele><time>2026-04-26T13:06:07.476Z</time></trkpt><trkpt lat="44.2284043" lon="8.215516"><ele>899.0</ele><time>2026-04-26T13:06:08.476Z</time></trkpt><trkpt lat="44.2284543" lon="8.2153775"><ele>899.0</ele><time>2026-04-26T13:06:09.475Z</time></trkpt><trkpt lat="44.2284903" lon="8.2152267"><ele>899.0</ele><time>2026-04-26T13:06:10.475Z</time></trkpt><trkpt lat="44.2285268" lon="8.2150745"><ele>899.0</ele><time>2026-04-26T13:06:11.475Z</time></trkpt><trkpt lat="44.2285695" lon="8.2149305"><ele>896.2</ele><time>2026-04-26T13:06:12.476Z</time></trkpt><trkpt lat="44.2286142" lon="8.2148033"><ele>893.4000000000001</ele><time>2026-04-26T13:06:13.475Z</time></trkpt><trkpt lat="44.2286598" lon="8.214689"><ele>890.6</ele><time>2026-04-26T13:06:14.475Z</time></trkpt><trkpt lat="44.2287153" lon="8.2145915"><ele>887.8</ele><time>2026-04-26T13:06:15.476Z</time></trkpt><trkpt lat="44.2287862" lon="8.2145205"><ele>885.0</ele><time>2026-04-26T13:06:16.477Z</time></trkpt><trkpt lat="44.2288708" lon="8.2144792"><ele>885.0</ele><time>2026-04-26T13:06:17.475Z</time></trkpt><trkpt lat="44.228959" lon="8.214478"><ele>885.0</ele><time>2026-04-26T13:06:18.477Z</time></trkpt><trkpt lat="44.2290447" lon="8.2145117"><ele>885.0</ele><time>2026-04-26T13:06:19.474Z</time></trkpt><trkpt lat="44.22913" lon="8.2145795"><ele>885.0</ele><time>2026-04-26T13:06:20.474Z</time></trkpt><trkpt lat="44.2292143" lon="8.2146643"><ele>885.0</ele><time>2026-04-26T13:06:21.474Z</time></trkpt><trkpt lat="44.2292977" lon="8.2147447"><ele>888.0</ele><time>2026-04-26T13:06:22.473Z</time></trkpt><trkpt lat="44.2293828" lon="8.2148058"><ele>891.0</ele><time>2026-04-26T13:06:23.475Z</time></trkpt><trkpt lat="44.2294713" lon="8.2148482"><ele>894.0</ele><time>2026-04-26T13:06:24.476Z</time></trkpt><trkpt lat="44.2295635" lon="8.2148658"><ele>897.0</ele><time>2026-04-26T13:06:25.476Z</time></trkpt><trkpt lat="44.229659" lon="8.21485"><ele>900.0</ele><time>2026-04-26T13:06:26.475Z</time></trkpt><trkpt lat="44.2297625" lon="8.2147978"><ele>903.25</ele><time>2026-04-26T13:06:27.478Z</time></trkpt><trkpt lat="44.2298688" lon="8.2147222"><ele>906.5</ele><time>2026-04-26T13:06:28.476Z</time></trkpt><trkpt lat="44.229973" lon="8.214647"><ele>909.75</ele><time>2026-04-26T13:06:29.475Z</time></trkpt><trkpt lat="44.2300732" lon="8.214577"><ele>913.0</ele><time>2026-04-26T13:06:30.476Z</time></trkpt><trkpt lat="44.2301608" lon="8.2145042"><ele>913.0</ele><time>2026-04-26T13:06:31.476Z</time></trkpt><trkpt lat="44.2302402" lon="8.2144258"><ele>913.0</ele><time>2026-04-26T13:06:32.475Z</time></trkpt><trkpt lat="44.2303168" lon="8.2143575"><ele>913.0</ele><time>2026-04-26T13:06:33.478Z</time></trkpt><trkpt lat="44.230391" lon="8.2143058"><ele>913.0</ele><time>2026-04-26T13:06:34.476Z</time></trkpt><trkpt lat="44.2304733" lon="8.2142808"><ele>913.0</ele><time>2026-04-26T13:06:35.477Z</time></trkpt><trkpt lat="44.2305697" lon="8.2142968"><ele>917.2</ele><time>2026-04-26T13:06:36.478Z</time></trkpt><trkpt lat="44.2306727" lon="8.2143357"><ele>921.4</ele><time>2026-04-26T13:06:37.474Z</time></trkpt><trkpt lat="44.2307735" lon="8.2143645"><ele>925.6000000000001</ele><time>2026-04-26T13:06:38.476Z</time></trkpt><trkpt lat="44.2308687" lon="8.214363"><ele>929.8000000000001</ele><time>2026-04-26T13:06:39.476Z</time></trkpt><trkpt lat="44.2309658" lon="8.2143365"><ele>934.0</ele><time>2026-04-26T13:06:40.475Z</time></trkpt><trkpt lat="44.2310623" lon="8.2142955"><ele>933.9999999999999</ele><time>2026-04-26T13:06:41.476Z</time></trkpt><trkpt lat="44.2311513" lon="8.2142507"><ele>934.0</ele><time>2026-04-26T13:06:42.476Z</time></trkpt><trkpt lat="44.2312188" lon="8.214213"><ele>934.0</ele><time>2026-04-26T13:06:43.475Z</time></trkpt><trkpt lat="44.231301" lon="8.214236"><ele>934.0</ele><time>2026-04-26T13:06:45.473Z</time></trkpt><trkpt lat="44.2313385" lon="8.214309"><ele>933.9999999999999</ele><time>2026-04-26T13:06:47.474Z</time></trkpt><trkpt lat="44.2314138" lon="8.2142752"><ele>934.0</ele><time>2026-04-26T13:14:32.476Z</time></trkpt><trkpt lat="44.231374" lon="8.2141655"><ele>933.9999999999999</ele><time>2026-04-26T13:14:35.48Z</time></trkpt><trkpt lat="44.2313608" lon="8.214076"><ele>934.0</ele><time>2026-04-26T13:14:38.477Z</time></trkpt><trkpt lat="44.2314157" lon="8.213972"><ele>934.0</ele><time>2026-04-26T13:14:40.479Z</time></trkpt><trkpt lat="44.2314613" lon="8.2139"><ele>934.0</ele><time>2026-04-26T13:14:41.48Z</time></trkpt><trkpt lat="44.2315063" lon="8.2138125"><ele>933.9999999999999</ele><time>2026-04-26T13:14:42.481Z</time></trkpt><trkpt lat="44.231544" lon="8.2137058"><ele>934.0</ele><time>2026-04-26T13:14:43.48Z</time></trkpt><trkpt lat="44.2315765" lon="8.2135898"><ele>936.6</ele><time>2026-04-26T13:14:44.48Z</time></trkpt><trkpt lat="44.2316075" lon="8.2134613"><ele>939.2</ele><time>2026-04-26T13:14:45.48Z</time></trkpt><trkpt lat="44.2316387" lon="8.213331"><ele>941.8000000000001</ele><time>2026-04-26T13:14:46.478Z</time></trkpt><trkpt lat="44.231668" lon="8.2132013"><ele>944.4000000000001</ele><time>2026-04-26T13:14:47.479Z</time></trkpt><trkpt lat="44.2316965" lon="8.2130695"><ele>947.0</ele><time>2026-04-26T13:14:48.479Z</time></trkpt><trkpt lat="44.2317208" lon="8.2129292"><ele>947.0</ele><time>2026-04-26T13:14:49.477Z</time></trkpt><trkpt lat="44.2317382" lon="8.2127902"><ele>947.0</ele><time>2026-04-26T13:14:50.478Z</time></trkpt><trkpt lat="44.2317455" lon="8.2126503"><ele>947.0</ele><time>2026-04-26T13:14:51.478Z</time></trkpt><trkpt lat="44.2317497" lon="8.2124965"><ele>947.0</ele><time>2026-04-26T13:14:52.476Z</time></trkpt><trkpt lat="44.2317557" lon="8.2123358"><ele>947.0</ele><time>2026-04-26T13:14:53.478Z</time></trkpt><trkpt lat="44.2317668" lon="8.2121712"><ele>946.5</ele><time>2026-04-26T13:14:54.475Z</time></trkpt><trkpt lat="44.231787" lon="8.2120073"><ele>946.0</ele><time>2026-04-26T13:14:55.477Z</time></trkpt><trkpt lat="44.2318153" lon="8.2118477"><ele>945.5</ele><time>2026-04-26T13:14:56.476Z</time></trkpt><trkpt lat="44.2318507" lon="8.2116855"><ele>945.0</ele><time>2026-04-26T13:14:57.476Z</time></trkpt><trkpt lat="44.231899" lon="8.2115147"><ele>942.0</ele><time>2026-04-26T13:14:58.477Z</time></trkpt><trkpt lat="44.231965" lon="8.2113392"><ele>939.0</ele><time>2026-04-26T13:14:59.478Z</time></trkpt><trkpt lat="44.2320463" lon="8.2111613"><ele>936.0</ele><time>2026-04-26T13:15:00.479Z</time></trkpt><trkpt lat="44.2321318" lon="8.2109983"><ele>933.0</ele><time>2026-04-26T13:15:01.477Z</time></trkpt><trkpt lat="44.232206" lon="8.2108305"><ele>930.0</ele><time>2026-04-26T13:15:02.477Z</time></trkpt><trkpt lat="44.2322595" lon="8.2106263"><ele>927.0</ele><time>2026-04-26T13:15:03.476Z</time></trkpt><trkpt lat="44.2323027" lon="8.2103932"><ele>924.0</ele><time>2026-04-26T13:15:04.476Z</time></trkpt><trkpt lat="44.2323422" lon="8.2101492"><ele>940.0</ele><time>2026-04-26T13:15:05.478Z</time></trkpt><trkpt lat="44.2323847" lon="8.2098982"><ele>956.0</ele><time>2026-04-26T13:15:06.477Z</time></trkpt><trkpt lat="44.2324335" lon="8.2096397"><ele>972.0</ele><time>2026-04-26T13:15:07.478Z</time></trkpt><trkpt lat="44.232491" lon="8.2093902"><ele>972.0</ele><time>2026-04-26T13:15:08.478Z</time></trkpt><trkpt lat="44.2325515" lon="8.2091683"><ele>972.0</ele><time>2026-04-26T13:15:09.477Z</time></trkpt><trkpt lat="44.2326112" lon="8.2089727"><ele>972.0</ele><time>2026-04-26T13:15:10.477Z</time></trkpt><trkpt lat="44.2326545" lon="8.2087913"><ele>973.0</ele><time>2026-04-26T13:15:11.476Z</time></trkpt><trkpt lat="44.232673" lon="8.2086057"><ele>974.0</ele><time>2026-04-26T13:15:12.476Z</time></trkpt><trkpt lat="44.2326658" lon="8.2084063"><ele>975.0</ele><time>2026-04-26T13:15:13.476Z</time></trkpt><trkpt lat="44.232653" lon="8.2082167"><ele>976.0</ele><time>2026-04-26T13:15:14.476Z</time></trkpt><trkpt lat="44.2326417" lon="8.2080493"><ele>979.0</ele><time>2026-04-26T13:15:15.477Z</time></trkpt><trkpt lat="44.2326157" lon="8.2079113"><ele>981.9999999999999</ele><time>2026-04-26T13:15:16.477Z</time></trkpt><trkpt lat="44.2325575" lon="8.2077808"><ele>984.9999999999999</ele><time>2026-04-26T13:15:17.477Z</time></trkpt><trkpt lat="44.2324687" lon="8.2076723"><ele>988.0</ele><time>2026-04-26T13:15:18.476Z</time></trkpt><trkpt lat="44.232382" lon="8.2075812"><ele>991.0</ele><time>2026-04-26T13:15:19.475Z</time></trkpt><trkpt lat="44.232321" lon="8.2074773"><ele>983.5</ele><time>2026-04-26T13:15:20.476Z</time></trkpt><trkpt lat="44.2322875" lon="8.2073438"><ele>976.0</ele><time>2026-04-26T13:15:21.475Z</time></trkpt><trkpt lat="44.2322757" lon="8.2071893"><ele>968.5</ele><time>2026-04-26T13:15:22.478Z</time></trkpt><trkpt lat="44.2322607" lon="8.2070185"><ele>961.0</ele><time>2026-04-26T13:15:23.476Z</time></trkpt><trkpt lat="44.2322308" lon="8.2068473"><ele>961.0</ele><time>2026-04-26T13:15:24.478Z</time></trkpt><trkpt lat="44.232196" lon="8.206699"><ele>960.9999999999999</ele><time>2026-04-26T13:15:25.476Z</time></trkpt><trkpt lat="44.2321652" lon="8.2065563"><ele>960.9999999999999</ele><time>2026-04-26T13:15:26.477Z</time></trkpt><trkpt lat="44.2321543" lon="8.2064058"><ele>961.0</ele><time>2026-04-26T13:15:27.477Z</time></trkpt><trkpt lat="44.2321723" lon="8.20624"><ele>961.0</ele><time>2026-04-26T13:15:28.477Z</time></trkpt><trkpt lat="44.2322057" lon="8.2060518"><ele>959.3333333333333</ele><time>2026-04-26T13:15:29.477Z</time></trkpt><trkpt lat="44.2322462" lon="8.2058548"><ele>957.6666666666667</ele><time>2026-04-26T13:15:30.48Z</time></trkpt><trkpt lat="44.23229" lon="8.2056443"><ele>956.0</ele><time>2026-04-26T13:15:31.479Z</time></trkpt><trkpt lat="44.2323385" lon="8.2054197"><ele>971.6666666666667</ele><time>2026-04-26T13:15:32.478Z</time></trkpt><trkpt lat="44.232388" lon="8.2051865"><ele>987.3333333333333</ele><time>2026-04-26T13:15:33.481Z</time></trkpt><trkpt lat="44.2324367" lon="8.2049547"><ele>1003.0</ele><time>2026-04-26T13:15:34.479Z</time></trkpt><trkpt lat="44.232478" lon="8.2047185"><ele>1003.0</ele><time>2026-04-26T13:15:35.481Z</time></trkpt><trkpt lat="44.2325093" lon="8.2044677"><ele>1003.0</ele><time>2026-04-26T13:15:36.48Z</time></trkpt><trkpt lat="44.2325322" lon="8.2042163"><ele>1003.0</ele><time>2026-04-26T13:15:37.479Z</time></trkpt><trkpt lat="44.2325398" lon="8.2039863"><ele>1002.6666666666666</ele><time>2026-04-26T13:15:38.479Z</time></trkpt><trkpt lat="44.2325452" lon="8.2037708"><ele>1002.3333333333333</ele><time>2026-04-26T13:15:39.479Z</time></trkpt><trkpt lat="44.2325652" lon="8.2035573"><ele>1002.0</ele><time>2026-04-26T13:15:40.479Z</time></trkpt><trkpt lat="44.2326078" lon="8.2033403"><ele>1004.0</ele><time>2026-04-26T13:15:41.479Z</time></trkpt><trkpt lat="44.2326545" lon="8.2031395"><ele>1006.0</ele><time>2026-04-26T13:15:42.477Z</time></trkpt><trkpt lat="44.2326785" lon="8.2029595"><ele>1008.0</ele><time>2026-04-26T13:15:43.476Z</time></trkpt><trkpt lat="44.2326712" lon="8.202785"><ele>1010.0</ele><time>2026-04-26T13:15:44.474Z</time></trkpt><trkpt lat="44.2326328" lon="8.2025957"><ele>1010.0</ele><time>2026-04-26T13:15:45.477Z</time></trkpt><trkpt lat="44.2325818" lon="8.2023963"><ele>1010.0</ele><time>2026-04-26T13:15:46.478Z</time></trkpt><trkpt lat="44.232518" lon="8.2022072"><ele>1010.0</ele><time>2026-04-26T13:15:47.478Z</time></trkpt><trkpt lat="44.2324462" lon="8.202042"><ele>1010.0</ele><time>2026-04-26T13:15:48.48Z</time></trkpt><trkpt lat="44.2323698" lon="8.2018988"><ele>1009.0</ele><time>2026-04-26T13:15:49.478Z</time></trkpt><trkpt lat="44.232302" lon="8.201774"><ele>1008.0</ele><time>2026-04-26T13:15:50.48Z</time></trkpt><trkpt lat="44.2322518" lon="8.2016555"><ele>1007.0</ele><time>2026-04-26T13:15:51.48Z</time></trkpt><trkpt lat="44.2322228" lon="8.2015263"><ele>1006.0</ele><time>2026-04-26T13:15:52.479Z</time></trkpt><trkpt lat="44.2322182" lon="8.2013822"><ele>1005.0</ele><time>2026-04-26T13:15:53.479Z</time></trkpt><trkpt lat="44.2322313" lon="8.2012232"><ele>1005.0</ele><time>2026-04-26T13:15:54.479Z</time></trkpt><trkpt lat="44.2322537" lon="8.20105"><ele>1005.0</ele><time>2026-04-26T13:15:55.48Z</time></trkpt><trkpt lat="44.2322717" lon="8.2008728"><ele>1005.0</ele><time>2026-04-26T13:15:56.48Z</time></trkpt><trkpt lat="44.2322655" lon="8.200698"><ele>1005.0</ele><time>2026-04-26T13:15:57.479Z</time></trkpt><trkpt lat="44.2322273" lon="8.200524"><ele>1008.0</ele><time>2026-04-26T13:15:58.478Z</time></trkpt><trkpt lat="44.2321715" lon="8.200355"><ele>1011.0</ele><time>2026-04-26T13:15:59.478Z</time></trkpt><trkpt lat="44.2321065" lon="8.2001867"><ele>1014.0</ele><time>2026-04-26T13:16:00.477Z</time></trkpt><trkpt lat="44.2320288" lon="8.2000245"><ele>1017.0</ele><time>2026-04-26T13:16:01.478Z</time></trkpt><trkpt lat="44.2319343" lon="8.1998655"><ele>1023.6666666666667</ele><time>2026-04-26T13:16:02.476Z</time></trkpt><trkpt lat="44.2318253" lon="8.1997022"><ele>1030.3333333333335</ele><time>2026-04-26T13:16:03.479Z</time></trkpt><trkpt lat="44.2317087" lon="8.1995352"><ele>1037.0</ele><time>2026-04-26T13:16:04.478Z</time></trkpt><trkpt lat="44.231588" lon="8.1993687"><ele>1037.3333333333335</ele><time>2026-04-26T13:16:05.477Z</time></trkpt><trkpt lat="44.2314697" lon="8.1992052"><ele>1037.6666666666667</ele><time>2026-04-26T13:16:06.476Z</time></trkpt><trkpt lat="44.2313583" lon="8.1990462"><ele>1038.0</ele><time>2026-04-26T13:16:07.474Z</time></trkpt><trkpt lat="44.2312388" lon="8.1988995"><ele>1038.0</ele><time>2026-04-26T13:16:08.473Z</time></trkpt><trkpt lat="44.2311298" lon="8.1987427"><ele>1038.0</ele><time>2026-04-26T13:16:09.475Z</time></trkpt><trkpt lat="44.231034" lon="8.1986003"><ele>1038.0</ele><time>2026-04-26T13:16:10.474Z</time></trkpt><trkpt lat="44.2309492" lon="8.1984708"><ele>1038.0</ele><time>2026-04-26T13:16:11.475Z</time></trkpt><trkpt lat="44.2308727" lon="8.1983598"><ele>1038.0</ele><time>2026-04-26T13:16:12.475Z</time></trkpt><trkpt lat="44.2308052" lon="8.1982625"><ele>1038.0</ele><time>2026-04-26T13:16:13.475Z</time></trkpt><trkpt lat="44.2307455" lon="8.1981817"><ele>1038.0</ele><time>2026-04-26T13:16:14.474Z</time></trkpt><trkpt lat="44.2306912" lon="8.1981122"><ele>1038.0</ele><time>2026-04-26T13:16:15.472Z</time></trkpt><trkpt lat="44.2306413" lon="8.1980482"><ele>1038.0</ele><time>2026-04-26T13:16:16.472Z</time></trkpt><trkpt lat="44.2305773" lon="8.1979867"><ele>1038.0</ele><time>2026-04-26T13:16:18.469Z</time></trkpt><trkpt lat="44.2304962" lon="8.1978698"><ele>1037.6666666666667</ele><time>2026-04-26T13:16:20.472Z</time></trkpt><trkpt lat="44.2304442" lon="8.1978065"><ele>1037.3333333333333</ele><time>2026-04-26T13:16:21.473Z</time></trkpt><trkpt lat="44.2303908" lon="8.197732"><ele>1037.0</ele><time>2026-04-26T13:16:22.476Z</time></trkpt><trkpt lat="44.2303417" lon="8.1976273"><ele>1036.6666666666665</ele><time>2026-04-26T13:16:23.476Z</time></trkpt><trkpt lat="44.2303058" lon="8.1975287"><ele>1036.3333333333333</ele><time>2026-04-26T13:16:24.476Z</time></trkpt><trkpt lat="44.2302768" lon="8.1974112"><ele>1036.0</ele><time>2026-04-26T13:16:25.477Z</time></trkpt><trkpt lat="44.2302653" lon="8.197287"><ele>1036.8333333333333</ele><time>2026-04-26T13:16:26.477Z</time></trkpt><trkpt lat="44.230274" lon="8.197173"><ele>1037.6666666666665</ele><time>2026-04-26T13:16:27.478Z</time></trkpt><trkpt lat="44.2302987" lon="8.1970607"><ele>1038.5</ele><time>2026-04-26T13:16:28.48Z</time></trkpt><trkpt lat="44.230341" lon="8.1969522"><ele>1039.3333333333333</ele><time>2026-04-26T13:16:29.478Z</time></trkpt><trkpt lat="44.2304052" lon="8.1968585"><ele>1040.1666666666667</ele><time>2026-04-26T13:16:30.48Z</time></trkpt><trkpt lat="44.2304878" lon="8.1967873"><ele>1041.0</ele><time>2026-04-26T13:16:31.478Z</time></trkpt><trkpt lat="44.2305867" lon="8.1967505"><ele>1039.2</ele><time>2026-04-26T13:16:32.475Z</time></trkpt><trkpt lat="44.230696" lon="8.1967438"><ele>1037.3999999999999</ele><time>2026-04-26T13:16:33.475Z</time></trkpt><trkpt lat="44.2308047" lon="8.1967427"><ele>1035.6</ele><time>2026-04-26T13:16:34.475Z</time></trkpt><trkpt lat="44.2309168" lon="8.1967435"><ele>1033.8</ele><time>2026-04-26T13:16:35.474Z</time></trkpt><trkpt lat="44.2310327" lon="8.1967467"><ele>1032.0</ele><time>2026-04-26T13:16:36.478Z</time></trkpt><trkpt lat="44.2311527" lon="8.1967482"><ele>1032.0</ele><time>2026-04-26T13:16:37.476Z</time></trkpt><trkpt lat="44.2312785" lon="8.1967507"><ele>1032.0</ele><time>2026-04-26T13:16:38.478Z</time></trkpt><trkpt lat="44.2314058" lon="8.1967497"><ele>1032.0</ele><time>2026-04-26T13:16:39.48Z</time></trkpt><trkpt lat="44.231528" lon="8.1967472"><ele>1032.0</ele><time>2026-04-26T13:16:40.478Z</time></trkpt><trkpt lat="44.2316423" lon="8.1967292"><ele>1032.2</ele><time>2026-04-26T13:16:41.477Z</time></trkpt><trkpt lat="44.2317492" lon="8.196688"><ele>1032.4</ele><time>2026-04-26T13:16:42.476Z</time></trkpt><trkpt lat="44.2318407" lon="8.1966207"><ele>1032.6</ele><time>2026-04-26T13:16:43.476Z</time></trkpt><trkpt lat="44.231927" lon="8.1965432"><ele>1032.8</ele><time>2026-04-26T13:16:44.475Z</time></trkpt><trkpt lat="44.2320037" lon="8.1964553"><ele>1033.0</ele><time>2026-04-26T13:16:45.474Z</time></trkpt><trkpt lat="44.2320723" lon="8.1963713"><ele>1032.8333333333333</ele><time>2026-04-26T13:16:46.476Z</time></trkpt><trkpt lat="44.2321425" lon="8.1962893"><ele>1032.6666666666665</ele><time>2026-04-26T13:16:47.475Z</time></trkpt><trkpt lat="44.2322108" lon="8.1962155"><ele>1032.5</ele><time>2026-04-26T13:16:48.477Z</time></trkpt><trkpt lat="44.2322792" lon="8.1961368"><ele>1032.3333333333333</ele><time>2026-04-26T13:16:49.476Z</time></trkpt><trkpt lat="44.2323417" lon="8.1960618"><ele>1032.1666666666667</ele><time>2026-04-26T13:16:50.474Z</time></trkpt><trkpt lat="44.2324113" lon="8.1959772"><ele>1032.0</ele><time>2026-04-26T13:16:51.477Z</time></trkpt><trkpt lat="44.2324927" lon="8.1958872"><ele>1032.0</ele><time>2026-04-26T13:16:52.477Z</time></trkpt><trkpt lat="44.2325718" lon="8.1957765"><ele>1032.0</ele><time>2026-04-26T13:16:53.477Z</time></trkpt><trkpt lat="44.232655" lon="8.195654"><ele>1032.0</ele><time>2026-04-26T13:16:54.477Z</time></trkpt><trkpt lat="44.2327357" lon="8.1955217"><ele>1032.0</ele><time>2026-04-26T13:16:55.478Z</time></trkpt><trkpt lat="44.232823" lon="8.1954052"><ele>1029.0</ele><time>2026-04-26T13:16:56.476Z</time></trkpt><trkpt lat="44.2329105" lon="8.1953193"><ele>1026.0</ele><time>2026-04-26T13:16:57.476Z</time></trkpt><trkpt lat="44.232998" lon="8.195276"><ele>1023.0</ele><time>2026-04-26T13:16:58.473Z</time></trkpt><trkpt lat="44.2330852" lon="8.1952742"><ele>1020.0</ele><time>2026-04-26T13:16:59.474Z</time></trkpt><trkpt lat="44.233183" lon="8.1952893"><ele>1017.0</ele><time>2026-04-26T13:17:00.475Z</time></trkpt><trkpt lat="44.233287" lon="8.1953077"><ele>1017.0</ele><time>2026-04-26T13:17:01.476Z</time></trkpt><trkpt lat="44.2333885" lon="8.1953422"><ele>1017.0</ele><time>2026-04-26T13:17:02.476Z</time></trkpt><trkpt lat="44.2335032" lon="8.1953703"><ele>1017.0</ele><time>2026-04-26T13:17:03.475Z</time></trkpt><trkpt lat="44.2336185" lon="8.1953905"><ele>1017.0</ele><time>2026-04-26T13:17:04.476Z</time></trkpt><trkpt lat="44.2337433" lon="8.195406"><ele>1017.0</ele><time>2026-04-26T13:17:05.479Z</time></trkpt><trkpt lat="44.2338578" lon="8.1954228"><ele>1017.0</ele><time>2026-04-26T13:17:06.475Z</time></trkpt><trkpt lat="44.2339685" lon="8.1954547"><ele>1017.0</ele><time>2026-04-26T13:17:07.475Z</time></trkpt><trkpt lat="44.2340713" lon="8.1955093"><ele>1017.0</ele><time>2026-04-26T13:17:08.475Z</time></trkpt><trkpt lat="44.2341817" lon="8.19558"><ele>1015.0</ele><time>2026-04-26T13:17:09.478Z</time></trkpt><trkpt lat="44.2342798" lon="8.1956482"><ele>1013.0</ele><time>2026-04-26T13:17:10.474Z</time></trkpt><trkpt lat="44.2343932" lon="8.1956923"><ele>1011.0</ele><time>2026-04-26T13:17:11.474Z</time></trkpt><trkpt lat="44.2345185" lon="8.1957315"><ele>1009.0</ele><time>2026-04-26T13:17:12.474Z</time></trkpt><trkpt lat="44.234631" lon="8.1957578"><ele>1011.8333333333333</ele><time>2026-04-26T13:17:13.473Z</time></trkpt><trkpt lat="44.234736" lon="8.195781"><ele>1014.6666666666666</ele><time>2026-04-26T13:17:14.474Z</time></trkpt><trkpt lat="44.234836" lon="8.1957912"><ele>1017.5</ele><time>2026-04-26T13:17:15.474Z</time></trkpt><trkpt lat="44.234919" lon="8.1958172"><ele>1020.3333333333333</ele><time>2026-04-26T13:17:16.475Z</time></trkpt><trkpt lat="44.2350022" lon="8.1958328"><ele>1023.1666666666666</ele><time>2026-04-26T13:17:17.474Z</time></trkpt><trkpt lat="44.235076" lon="8.1958285"><ele>1026.0</ele><time>2026-04-26T13:17:18.475Z</time></trkpt><trkpt lat="44.235137" lon="8.195798"><ele>1026.0</ele><time>2026-04-26T13:17:19.474Z</time></trkpt><trkpt lat="44.23519" lon="8.1956887"><ele>1026.0</ele><time>2026-04-26T13:17:21.472Z</time></trkpt><trkpt lat="44.2351268" lon="8.1955045"><ele>1026.0</ele><time>2026-04-26T13:17:23.471Z</time></trkpt><trkpt lat="44.2350572" lon="8.1954047"><ele>1026.0</ele><time>2026-04-26T13:17:24.471Z</time></trkpt><trkpt lat="44.2349747" lon="8.1953205"><ele>1026.0</ele><time>2026-04-26T13:17:25.472Z</time></trkpt><trkpt lat="44.2348922" lon="8.195254"><ele>1025.5</ele><time>2026-04-26T13:17:26.473Z</time></trkpt><trkpt lat="44.2348143" lon="8.1952"><ele>1025.0</ele><time>2026-04-26T13:17:27.474Z</time></trkpt><trkpt lat="44.2347483" lon="8.1951352"><ele>1024.5</ele><time>2026-04-26T13:17:28.475Z</time></trkpt><trkpt lat="44.2347017" lon="8.1950435"><ele>1024.0</ele><time>2026-04-26T13:17:29.474Z</time></trkpt><trkpt lat="44.2346752" lon="8.1949175"><ele>1023.5</ele><time>2026-04-26T13:17:30.475Z</time></trkpt><trkpt lat="44.2346567" lon="8.194772"><ele>1023.0</ele><time>2026-04-26T13:17:31.474Z</time></trkpt><trkpt lat="44.2346505" lon="8.1946055"><ele>1017.0</ele><time>2026-04-26T13:17:32.477Z</time></trkpt><trkpt lat="44.2346433" lon="8.194441"><ele>1011.0</ele><time>2026-04-26T13:17:33.474Z</time></trkpt><trkpt lat="44.2346367" lon="8.1942848"><ele>1005.0</ele><time>2026-04-26T13:17:34.476Z</time></trkpt><trkpt lat="44.2346188" lon="8.1941527"><ele>999.0</ele><time>2026-04-26T13:17:35.474Z</time></trkpt><trkpt lat="44.2345937" lon="8.1940258"><ele>993.0</ele><time>2026-04-26T13:17:36.474Z</time></trkpt><trkpt lat="44.234566" lon="8.193908"><ele>993.0</ele><time>2026-04-26T13:17:37.475Z</time></trkpt><trkpt lat="44.2345365" lon="8.1937892"><ele>993.0</ele><time>2026-04-26T13:17:38.474Z</time></trkpt><trkpt lat="44.234511" lon="8.1936702"><ele>993.0</ele><time>2026-04-26T13:17:39.475Z</time></trkpt><trkpt lat="44.2344755" lon="8.1935593"><ele>993.0</ele><time>2026-04-26T13:17:40.475Z</time></trkpt><trkpt lat="44.2344335" lon="8.193457"><ele>993.0</ele><time>2026-04-26T13:17:41.474Z</time></trkpt><trkpt lat="44.2343948" lon="8.1933443"><ele>993.0</ele><time>2026-04-26T13:17:42.475Z</time></trkpt><trkpt lat="44.2343485" lon="8.1932355"><ele>994.8</ele><time>2026-04-26T13:17:43.474Z</time></trkpt><trkpt lat="44.2342917" lon="8.1931272"><ele>996.5999999999999</ele><time>2026-04-26T13:17:44.475Z</time></trkpt><trkpt lat="44.234238" lon="8.1930065"><ele>998.4000000000001</ele><time>2026-04-26T13:17:45.473Z</time></trkpt><trkpt lat="44.234185" lon="8.1928722"><ele>1000.2</ele><time>2026-04-26T13:17:46.473Z</time></trkpt><trkpt lat="44.2341357" lon="8.1927268"><ele>1002.0</ele><time>2026-04-26T13:17:47.473Z</time></trkpt><trkpt lat="44.2340898" lon="8.192577"><ele>1002.0</ele><time>2026-04-26T13:17:48.473Z</time></trkpt><trkpt lat="44.2340238" lon="8.19243"><ele>1002.0</ele><time>2026-04-26T13:17:49.473Z</time></trkpt><trkpt lat="44.2339515" lon="8.1922957"><ele>1002.0</ele><time>2026-04-26T13:17:50.475Z</time></trkpt><trkpt lat="44.2338683" lon="8.1921577"><ele>1002.0</ele><time>2026-04-26T13:17:51.475Z</time></trkpt><trkpt lat="44.2337992" lon="8.1920217"><ele>997.2</ele><time>2026-04-26T13:17:52.477Z</time></trkpt><trkpt lat="44.2337355" lon="8.1918818"><ele>992.4000000000001</ele><time>2026-04-26T13:17:53.476Z</time></trkpt><trkpt lat="44.2336765" lon="8.1917343"><ele>987.5999999999999</ele><time>2026-04-26T13:17:54.476Z</time></trkpt><trkpt lat="44.2336333" lon="8.1915967"><ele>982.8</ele><time>2026-04-26T13:17:55.475Z</time></trkpt><trkpt lat="44.2336105" lon="8.1914657"><ele>978.0</ele><time>2026-04-26T13:17:56.475Z</time></trkpt><trkpt lat="44.2336153" lon="8.1913385"><ele>976.5</ele><time>2026-04-26T13:17:57.477Z</time></trkpt><trkpt lat="44.2336645" lon="8.1912117"><ele>975.0</ele><time>2026-04-26T13:17:58.476Z</time></trkpt><trkpt lat="44.2337292" lon="8.1910777"><ele>973.5</ele><time>2026-04-26T13:17:59.476Z</time></trkpt><trkpt lat="44.2338005" lon="8.1909587"><ele>972.0</ele><time>2026-04-26T13:18:00.476Z</time></trkpt><trkpt lat="44.2339055" lon="8.1908315"><ele>973.5</ele><time>2026-04-26T13:18:01.477Z</time></trkpt><trkpt lat="44.2340115" lon="8.1907083"><ele>975.0</ele><time>2026-04-26T13:18:02.479Z</time></trkpt><trkpt lat="44.2341252" lon="8.1905937"><ele>976.5</ele><time>2026-04-26T13:18:03.476Z</time></trkpt><trkpt lat="44.2342395" lon="8.1904683"><ele>978.0</ele><time>2026-04-26T13:18:04.475Z</time></trkpt><trkpt lat="44.2343493" lon="8.1903513"><ele>978.0</ele><time>2026-04-26T13:18:05.477Z</time></trkpt><trkpt lat="44.2344258" lon="8.1902288"><ele>978.0</ele><time>2026-04-26T13:18:06.477Z</time></trkpt><trkpt lat="44.2344912" lon="8.1901015"><ele>978.0</ele><time>2026-04-26T13:18:07.475Z</time></trkpt><trkpt lat="44.2345513" lon="8.1899967"><ele>978.0</ele><time>2026-04-26T13:18:08.477Z</time></trkpt><trkpt lat="44.2345995" lon="8.1899178"><ele>978.0</ele><time>2026-04-26T13:18:09.477Z</time></trkpt><trkpt lat="44.234633" lon="8.1898372"><ele>979.5999999999999</ele><time>2026-04-26T13:18:10.474Z</time></trkpt><trkpt lat="44.2345888" lon="8.189679"><ele>981.1999999999999</ele><time>2026-04-26T13:18:12.474Z</time></trkpt><trkpt lat="44.2344948" lon="8.189605"><ele>982.8</ele><time>2026-04-26T13:18:13.473Z</time></trkpt><trkpt lat="44.2344068" lon="8.189537"><ele>984.4</ele><time>2026-04-26T13:18:14.473Z</time></trkpt><trkpt lat="44.234301" lon="8.1894693"><ele>986.0</ele><time>2026-04-26T13:18:15.472Z</time></trkpt><trkpt lat="44.234195" lon="8.1894007"><ele>986.0</ele><time>2026-04-26T13:18:16.476Z</time></trkpt><trkpt lat="44.2341038" lon="8.1893327"><ele>985.9999999999999</ele><time>2026-04-26T13:18:17.476Z</time></trkpt><trkpt lat="44.2340347" lon="8.1892575"><ele>985.9999999999999</ele><time>2026-04-26T13:18:18.475Z</time></trkpt><trkpt lat="44.2339873" lon="8.1891512"><ele>986.0</ele><time>2026-04-26T13:18:19.477Z</time></trkpt><trkpt lat="44.2339652" lon="8.1890195"><ele>986.0</ele><time>2026-04-26T13:18:20.475Z</time></trkpt><trkpt lat="44.2339498" lon="8.1888865"><ele>981.1999999999999</ele><time>2026-04-26T13:18:21.476Z</time></trkpt><trkpt lat="44.2339087" lon="8.1887458"><ele>976.3999999999999</ele><time>2026-04-26T13:18:22.476Z</time></trkpt><trkpt lat="44.2338377" lon="8.1886078"><ele>971.6</ele><time>2026-04-26T13:18:23.477Z</time></trkpt><trkpt lat="44.2337678" lon="8.1885022"><ele>966.8</ele><time>2026-04-26T13:18:24.475Z</time></trkpt><trkpt lat="44.2337132" lon="8.188398"><ele>962.0</ele><time>2026-04-26T13:18:25.476Z</time></trkpt><trkpt lat="44.233691" lon="8.1882587"><ele>960.0</ele><time>2026-04-26T13:18:26.476Z</time></trkpt><trkpt lat="44.233713" lon="8.1880967"><ele>958.0</ele><time>2026-04-26T13:18:27.477Z</time></trkpt><trkpt lat="44.233747" lon="8.1879253"><ele>956.0</ele><time>2026-04-26T13:18:28.476Z</time></trkpt><trkpt lat="44.2337902" lon="8.187738"><ele>954.0</ele><time>2026-04-26T13:18:29.476Z</time></trkpt><trkpt lat="44.2338425" lon="8.1875615"><ele>954.0</ele><time>2026-04-26T13:18:30.476Z</time></trkpt><trkpt lat="44.2339117" lon="8.1874045"><ele>954.0</ele><time>2026-04-26T13:18:31.477Z</time></trkpt><trkpt lat="44.2340033" lon="8.187273"><ele>954.0</ele><time>2026-04-26T13:18:32.477Z</time></trkpt><trkpt lat="44.2341175" lon="8.1871508"><ele>954.0</ele><time>2026-04-26T13:18:33.477Z</time></trkpt><trkpt lat="44.2342375" lon="8.1870203"><ele>951.5</ele><time>2026-04-26T13:18:34.473Z</time></trkpt><trkpt lat="44.2343445" lon="8.1868972"><ele>949.0</ele><time>2026-04-26T13:18:35.473Z</time></trkpt><trkpt lat="44.2344377" lon="8.186751"><ele>946.5</ele><time>2026-04-26T13:18:36.474Z</time></trkpt><trkpt lat="44.234523" lon="8.186569"><ele>944.0</ele><time>2026-04-26T13:18:37.474Z</time></trkpt><trkpt lat="44.2346037" lon="8.1863722"><ele>944.0</ele><time>2026-04-26T13:18:38.475Z</time></trkpt><trkpt lat="44.2346665" lon="8.18618"><ele>944.0</ele><time>2026-04-26T13:18:39.476Z</time></trkpt><trkpt lat="44.234712" lon="8.1859907"><ele>944.0</ele><time>2026-04-26T13:18:40.475Z</time></trkpt><trkpt lat="44.234741" lon="8.1857965"><ele>944.0</ele><time>2026-04-26T13:18:41.475Z</time></trkpt><trkpt lat="44.2347725" lon="8.1856237"><ele>946.0</ele><time>2026-04-26T13:18:42.476Z</time></trkpt><trkpt lat="44.2348175" lon="8.185464"><ele>948.0</ele><time>2026-04-26T13:18:43.477Z</time></trkpt><trkpt lat="44.2348902" lon="8.1853058"><ele>950.0</ele><time>2026-04-26T13:18:44.475Z</time></trkpt><trkpt lat="44.234984" lon="8.185137"><ele>952.0</ele><time>2026-04-26T13:18:45.477Z</time></trkpt><trkpt lat="44.2351" lon="8.1849787"><ele>952.0</ele><time>2026-04-26T13:18:46.477Z</time></trkpt><trkpt lat="44.2352252" lon="8.1848468"><ele>952.0</ele><time>2026-04-26T13:18:47.478Z</time></trkpt><trkpt lat="44.2353362" lon="8.1847413"><ele>952.0</ele><time>2026-04-26T13:18:48.476Z</time></trkpt><trkpt lat="44.2354358" lon="8.1846578"><ele>952.0</ele><time>2026-04-26T13:18:49.477Z</time></trkpt><trkpt lat="44.2355307" lon="8.1846048"><ele>947.8</ele><time>2026-04-26T13:18:50.476Z</time></trkpt><trkpt lat="44.235629" lon="8.1845802"><ele>943.6</ele><time>2026-04-26T13:18:51.477Z</time></trkpt><trkpt lat="44.235739" lon="8.1845733"><ele>939.3999999999999</ele><time>2026-04-26T13:18:52.476Z</time></trkpt><trkpt lat="44.2358488" lon="8.1845945"><ele>935.1999999999999</ele><time>2026-04-26T13:18:53.477Z</time></trkpt><trkpt lat="44.2359608" lon="8.1846575"><ele>931.0</ele><time>2026-04-26T13:18:54.476Z</time></trkpt><trkpt lat="44.2360838" lon="8.1847562"><ele>936.25</ele><time>2026-04-26T13:18:55.476Z</time></trkpt><trkpt lat="44.2362202" lon="8.1848615"><ele>941.5</ele><time>2026-04-26T13:18:56.476Z</time></trkpt><trkpt lat="44.2363447" lon="8.184962"><ele>946.75</ele><time>2026-04-26T13:18:57.476Z</time></trkpt><trkpt lat="44.2364538" lon="8.1850698"><ele>952.0</ele><time>2026-04-26T13:18:58.475Z</time></trkpt><trkpt lat="44.2365462" lon="8.1851883"><ele>952.0</ele><time>2026-04-26T13:18:59.473Z</time></trkpt><trkpt lat="44.2366283" lon="8.1852998"><ele>952.0</ele><time>2026-04-26T13:19:00.473Z</time></trkpt><trkpt lat="44.2366973" lon="8.1853942"><ele>952.0</ele><time>2026-04-26T13:19:01.474Z</time></trkpt><trkpt lat="44.2367628" lon="8.1854533"><ele>952.0</ele><time>2026-04-26T13:19:02.473Z</time></trkpt><trkpt lat="44.2368335" lon="8.185482"><ele>952.0</ele><time>2026-04-26T13:19:03.475Z</time></trkpt><trkpt lat="44.2369392" lon="8.1853833"><ele>952.0</ele><time>2026-04-26T13:19:05.475Z</time></trkpt><trkpt lat="44.2369645" lon="8.185278"><ele>952.0</ele><time>2026-04-26T13:19:06.475Z</time></trkpt><trkpt lat="44.2369523" lon="8.1851725"><ele>952.0</ele><time>2026-04-26T13:19:07.473Z</time></trkpt><trkpt lat="44.2369245" lon="8.1850312"><ele>952.0</ele><time>2026-04-26T13:19:08.475Z</time></trkpt><trkpt lat="44.2368892" lon="8.184865"><ele>952.0</ele><time>2026-04-26T13:19:09.475Z</time></trkpt><trkpt lat="44.236837" lon="8.1846733"><ele>949.5</ele><time>2026-04-26T13:19:10.475Z</time></trkpt><trkpt lat="44.2367925" lon="8.1844942"><ele>947.0</ele><time>2026-04-26T13:19:11.474Z</time></trkpt><trkpt lat="44.236748" lon="8.1843225"><ele>944.5</ele><time>2026-04-26T13:19:12.475Z</time></trkpt><trkpt lat="44.2367048" lon="8.1841498"><ele>942.0</ele><time>2026-04-26T13:19:13.472Z</time></trkpt><trkpt lat="44.2366735" lon="8.1839662"><ele>940.5</ele><time>2026-04-26T13:19:14.472Z</time></trkpt><trkpt lat="44.2366465" lon="8.1837747"><ele>939.0</ele><time>2026-04-26T13:19:15.476Z</time></trkpt><trkpt lat="44.2366252" lon="8.183589"><ele>937.5</ele><time>2026-04-26T13:19:16.475Z</time></trkpt><trkpt lat="44.2366132" lon="8.1834187"><ele>936.0</ele><time>2026-04-26T13:19:17.475Z</time></trkpt><trkpt lat="44.2366115" lon="8.183264"><ele>933.1999999999999</ele><time>2026-04-26T13:19:18.476Z</time></trkpt><trkpt lat="44.2366342" lon="8.1831187"><ele>930.3999999999999</ele><time>2026-04-26T13:19:19.476Z</time></trkpt><trkpt lat="44.2366598" lon="8.182976"><ele>927.6</ele><time>2026-04-26T13:19:20.476Z</time></trkpt><trkpt lat="44.236692" lon="8.1828373"><ele>924.8</ele><time>2026-04-26T13:19:21.478Z</time></trkpt><trkpt lat="44.2367162" lon="8.1827147"><ele>922.0</ele><time>2026-04-26T13:19:22.476Z</time></trkpt><trkpt lat="44.2367617" lon="8.1826033"><ele>922.0</ele><time>2026-04-26T13:19:23.475Z</time></trkpt><trkpt lat="44.236818" lon="8.1824877"><ele>922.0</ele><time>2026-04-26T13:19:24.477Z</time></trkpt><trkpt lat="44.2368682" lon="8.182383"><ele>922.0</ele><time>2026-04-26T13:19:25.475Z</time></trkpt><trkpt lat="44.2369207" lon="8.1822813"><ele>922.0</ele><time>2026-04-26T13:19:26.475Z</time></trkpt><trkpt lat="44.2369777" lon="8.1821663"><ele>922.0</ele><time>2026-04-26T13:19:27.477Z</time></trkpt><trkpt lat="44.2370415" lon="8.182048"><ele>920.8</ele><time>2026-04-26T13:19:28.477Z</time></trkpt><trkpt lat="44.2371165" lon="8.1819293"><ele>919.6</ele><time>2026-04-26T13:19:29.477Z</time></trkpt><trkpt lat="44.2371953" lon="8.18184"><ele>918.3999999999999</ele><time>2026-04-26T13:19:30.478Z</time></trkpt><trkpt lat="44.2372765" lon="8.1817867"><ele>917.1999999999999</ele><time>2026-04-26T13:19:31.476Z</time></trkpt><trkpt lat="44.2373518" lon="8.1817817"><ele>916.0</ele><time>2026-04-26T13:19:32.476Z</time></trkpt><trkpt lat="44.2374287" lon="8.1818288"><ele>916.0</ele><time>2026-04-26T13:19:33.475Z</time></trkpt><trkpt lat="44.2374998" lon="8.181912"><ele>915.9999999999999</ele><time>2026-04-26T13:19:34.476Z</time></trkpt><trkpt lat="44.2375695" lon="8.1819907"><ele>915.9999999999999</ele><time>2026-04-26T13:19:35.475Z</time></trkpt><trkpt lat="44.237647" lon="8.1820553"><ele>916.0</ele><time>2026-04-26T13:19:36.476Z</time></trkpt><trkpt lat="44.2377292" lon="8.1821085"><ele>916.0</ele><time>2026-04-26T13:19:37.475Z</time></trkpt><trkpt lat="44.2378165" lon="8.182161"><ele>916.0</ele><time>2026-04-26T13:19:38.474Z</time></trkpt><trkpt lat="44.2378975" lon="8.1821998"><ele>915.9999999999999</ele><time>2026-04-26T13:19:39.477Z</time></trkpt><trkpt lat="44.237981" lon="8.18225"><ele>915.9999999999999</ele><time>2026-04-26T13:19:40.475Z</time></trkpt><trkpt lat="44.2380638" lon="8.182308"><ele>916.0</ele><time>2026-04-26T13:19:41.475Z</time></trkpt><trkpt lat="44.2381503" lon="8.1823715"><ele>916.0</ele><time>2026-04-26T13:19:42.476Z</time></trkpt><trkpt lat="44.2382358" lon="8.1824243"><ele>917.0</ele><time>2026-04-26T13:19:43.475Z</time></trkpt><trkpt lat="44.238308" lon="8.1824663"><ele>917.9999999999999</ele><time>2026-04-26T13:19:44.474Z</time></trkpt><trkpt lat="44.238422" lon="8.1824257"><ele>918.9999999999999</ele><time>2026-04-26T13:19:46.475Z</time></trkpt><trkpt lat="44.238484" lon="8.1822847"><ele>920.0</ele><time>2026-04-26T13:19:48.472Z</time></trkpt><trkpt lat="44.2384918" lon="8.1821905"><ele>921.0</ele><time>2026-04-26T13:19:49.472Z</time></trkpt><trkpt lat="44.2384923" lon="8.1820788"><ele>921.0</ele><time>2026-04-26T13:19:50.472Z</time></trkpt><trkpt lat="44.2384978" lon="8.1819368"><ele>920.9999999999999</ele><time>2026-04-26T13:19:51.474Z</time></trkpt><trkpt lat="44.238511" lon="8.1817908"><ele>920.9999999999999</ele><time>2026-04-26T13:19:52.476Z</time></trkpt><trkpt lat="44.2385153" lon="8.1816665"><ele>921.0</ele><time>2026-04-26T13:19:53.475Z</time></trkpt><trkpt lat="44.2384947" lon="8.1815338"><ele>921.0</ele><time>2026-04-26T13:19:54.475Z</time></trkpt><trkpt lat="44.2384627" lon="8.1813755"><ele>921.5</ele><time>2026-04-26T13:19:55.475Z</time></trkpt><trkpt lat="44.2384175" lon="8.1812007"><ele>922.0</ele><time>2026-04-26T13:19:56.474Z</time></trkpt><trkpt lat="44.2383677" lon="8.1810412"><ele>922.5</ele><time>2026-04-26T13:19:57.474Z</time></trkpt><trkpt lat="44.2382958" lon="8.180894"><ele>923.0</ele><time>2026-04-26T13:19:58.476Z</time></trkpt><trkpt lat="44.2382178" lon="8.1807728"><ele>915.0</ele><time>2026-04-26T13:19:59.479Z</time></trkpt><trkpt lat="44.2381342" lon="8.1806823"><ele>907.0</ele><time>2026-04-26T13:20:00.475Z</time></trkpt><trkpt lat="44.2380653" lon="8.1806023"><ele>899.0</ele><time>2026-04-26T13:20:01.475Z</time></trkpt><trkpt lat="44.2380075" lon="8.1805115"><ele>891.0</ele><time>2026-04-26T13:20:02.475Z</time></trkpt><trkpt lat="44.23797" lon="8.180385"><ele>883.0</ele><time>2026-04-26T13:20:03.477Z</time></trkpt><trkpt lat="44.2379543" lon="8.1802295"><ele>883.0</ele><time>2026-04-26T13:20:04.475Z</time></trkpt><trkpt lat="44.2379652" lon="8.180082"><ele>883.0</ele><time>2026-04-26T13:20:05.478Z</time></trkpt><trkpt lat="44.2379715" lon="8.1799538"><ele>883.0</ele><time>2026-04-26T13:20:06.477Z</time></trkpt><trkpt lat="44.2379465" lon="8.1798487"><ele>883.0</ele><time>2026-04-26T13:20:07.474Z</time></trkpt><trkpt lat="44.237894" lon="8.1797508"><ele>883.0</ele><time>2026-04-26T13:20:08.475Z</time></trkpt><trkpt lat="44.2378447" lon="8.1796473"><ele>883.5</ele><time>2026-04-26T13:20:09.476Z</time></trkpt><trkpt lat="44.2378117" lon="8.1795097"><ele>884.0</ele><time>2026-04-26T13:20:10.476Z</time></trkpt><trkpt lat="44.2378003" lon="8.179349"><ele>884.5</ele><time>2026-04-26T13:20:11.477Z</time></trkpt><trkpt lat="44.237803" lon="8.1791643"><ele>885.0</ele><time>2026-04-26T13:20:12.475Z</time></trkpt><trkpt lat="44.2378025" lon="8.1789658"><ele>886.6666666666667</ele><time>2026-04-26T13:20:13.473Z</time></trkpt><trkpt lat="44.2377818" lon="8.1787587"><ele>888.3333333333334</ele><time>2026-04-26T13:20:14.472Z</time></trkpt><trkpt lat="44.2377283" lon="8.178532"><ele>890.0</ele><time>2026-04-26T13:20:15.475Z</time></trkpt><trkpt lat="44.2376715" lon="8.1783108"><ele>891.0</ele><time>2026-04-26T13:20:16.474Z</time></trkpt><trkpt lat="44.2376228" lon="8.178096"><ele>892.0</ele><time>2026-04-26T13:20:17.475Z</time></trkpt><trkpt lat="44.237579" lon="8.1778963"><ele>893.0</ele><time>2026-04-26T13:20:18.475Z</time></trkpt><trkpt lat="44.2375458" lon="8.177719"><ele>894.0</ele><time>2026-04-26T13:20:19.475Z</time></trkpt><trkpt lat="44.2375058" lon="8.1775652"><ele>894.0</ele><time>2026-04-26T13:20:20.474Z</time></trkpt><trkpt lat="44.2374605" lon="8.1774373"><ele>894.0</ele><time>2026-04-26T13:20:21.475Z</time></trkpt><trkpt lat="44.2374313" lon="8.1773278"><ele>894.0</ele><time>2026-04-26T13:20:22.476Z</time></trkpt><trkpt lat="44.2374258" lon="8.1772213"><ele>894.0</ele><time>2026-04-26T13:20:23.475Z</time></trkpt><trkpt lat="44.237445" lon="8.1771143"><ele>894.0</ele><time>2026-04-26T13:20:24.476Z</time></trkpt><trkpt lat="44.2374775" lon="8.176995"><ele>894.0</ele><time>2026-04-26T13:20:25.476Z</time></trkpt><trkpt lat="44.2375142" lon="8.1768618"><ele>894.0</ele><time>2026-04-26T13:20:26.477Z</time></trkpt><trkpt lat="44.2375403" lon="8.1767113"><ele>894.0</ele><time>2026-04-26T13:20:27.477Z</time></trkpt><trkpt lat="44.2375497" lon="8.1765368"><ele>894.0</ele><time>2026-04-26T13:20:28.476Z</time></trkpt><trkpt lat="44.2375403" lon="8.1763413"><ele>894.0</ele><time>2026-04-26T13:20:29.476Z</time></trkpt><trkpt lat="44.2375073" lon="8.1761355"><ele>895.5</ele><time>2026-04-26T13:20:30.477Z</time></trkpt><trkpt lat="44.237461" lon="8.1759393"><ele>897.0</ele><time>2026-04-26T13:20:31.476Z</time></trkpt><trkpt lat="44.2374125" lon="8.1757592"><ele>898.5</ele><time>2026-04-26T13:20:32.475Z</time></trkpt><trkpt lat="44.237362" lon="8.1755945"><ele>900.0</ele><time>2026-04-26T13:20:33.475Z</time></trkpt><trkpt lat="44.237293" lon="8.1754487"><ele>891.25</ele><time>2026-04-26T13:20:34.475Z</time></trkpt><trkpt lat="44.2371933" lon="8.175318"><ele>882.5</ele><time>2026-04-26T13:20:35.476Z</time></trkpt><trkpt lat="44.2370762" lon="8.1751875"><ele>873.75</ele><time>2026-04-26T13:20:36.476Z</time></trkpt><trkpt lat="44.2369718" lon="8.1750612"><ele>865.0</ele><time>2026-04-26T13:20:37.476Z</time></trkpt><trkpt lat="44.236882" lon="8.1749415"><ele>863.6</ele><time>2026-04-26T13:20:38.475Z</time></trkpt><trkpt lat="44.236809" lon="8.1748315"><ele>862.2</ele><time>2026-04-26T13:20:39.475Z</time></trkpt><trkpt lat="44.2367645" lon="8.1747202"><ele>860.8</ele><time>2026-04-26T13:20:40.474Z</time></trkpt><trkpt lat="44.2367555" lon="8.1745967"><ele>859.4</ele><time>2026-04-26T13:20:41.477Z</time></trkpt><trkpt lat="44.2367868" lon="8.1744722"><ele>858.0</ele><time>2026-04-26T13:20:42.479Z</time></trkpt><trkpt lat="44.2368462" lon="8.1743395"><ele>858.0</ele><time>2026-04-26T13:20:43.477Z</time></trkpt><trkpt lat="44.2369283" lon="8.1741818"><ele>858.0</ele><time>2026-04-26T13:20:44.477Z</time></trkpt><trkpt lat="44.2370213" lon="8.1740083"><ele>858.0</ele><time>2026-04-26T13:20:45.478Z</time></trkpt><trkpt lat="44.2371077" lon="8.1738363"><ele>858.0</ele><time>2026-04-26T13:20:46.477Z</time></trkpt><trkpt lat="44.2371787" lon="8.173668"><ele>859.25</ele><time>2026-04-26T13:20:47.478Z</time></trkpt><trkpt lat="44.2372477" lon="8.1735155"><ele>860.5</ele><time>2026-04-26T13:20:48.477Z</time></trkpt><trkpt lat="44.2373225" lon="8.1733883"><ele>861.75</ele><time>2026-04-26T13:20:49.48Z</time></trkpt><trkpt lat="44.2374055" lon="8.173293"><ele>863.0</ele><time>2026-04-26T13:20:50.475Z</time></trkpt><trkpt lat="44.2375088" lon="8.1732493"><ele>863.0</ele><time>2026-04-26T13:20:51.475Z</time></trkpt><trkpt lat="44.2376278" lon="8.1732393"><ele>863.0</ele><time>2026-04-26T13:20:52.475Z</time></trkpt><trkpt lat="44.2377673" lon="8.1732527"><ele>863.0</ele><time>2026-04-26T13:20:53.476Z</time></trkpt><trkpt lat="44.237918" lon="8.1732885"><ele>863.0</ele><time>2026-04-26T13:20:54.476Z</time></trkpt><trkpt lat="44.238051" lon="8.1733285"><ele>865.0</ele><time>2026-04-26T13:20:55.474Z</time></trkpt><trkpt lat="44.238172" lon="8.173372"><ele>867.0</ele><time>2026-04-26T13:20:56.476Z</time></trkpt><trkpt lat="44.2382747" lon="8.1734028"><ele>869.0</ele><time>2026-04-26T13:20:57.476Z</time></trkpt><trkpt lat="44.2383643" lon="8.1734257"><ele>871.0</ele><time>2026-04-26T13:20:58.475Z</time></trkpt><trkpt lat="44.2384365" lon="8.1734132"><ele>873.0</ele><time>2026-04-26T13:20:59.477Z</time></trkpt><trkpt lat="44.2384858" lon="8.1733423"><ele>873.0</ele><time>2026-04-26T13:21:00.476Z</time></trkpt><trkpt lat="44.2385023" lon="8.1732345"><ele>873.0</ele><time>2026-04-26T13:21:01.475Z</time></trkpt><trkpt lat="44.238489" lon="8.1731082"><ele>873.0</ele><time>2026-04-26T13:21:02.474Z</time></trkpt><trkpt lat="44.2384722" lon="8.1729593"><ele>873.0</ele><time>2026-04-26T13:21:03.473Z</time></trkpt><trkpt lat="44.2384907" lon="8.1728355"><ele>873.0</ele><time>2026-04-26T13:21:04.472Z</time></trkpt><trkpt lat="44.2385478" lon="8.1727262"><ele>867.0</ele><time>2026-04-26T13:21:05.473Z</time></trkpt><trkpt lat="44.2386318" lon="8.1726152"><ele>861.0</ele><time>2026-04-26T13:21:06.474Z</time></trkpt><trkpt lat="44.238722" lon="8.172484"><ele>855.0</ele><time>2026-04-26T13:21:07.473Z</time></trkpt><trkpt lat="44.238806" lon="8.1723073"><ele>849.0</ele><time>2026-04-26T13:21:08.474Z</time></trkpt><trkpt lat="44.2388783" lon="8.1721155"><ele>848.5</ele><time>2026-04-26T13:21:09.474Z</time></trkpt><trkpt lat="44.2389385" lon="8.1719277"><ele>848.0</ele><time>2026-04-26T13:21:10.475Z</time></trkpt><trkpt lat="44.2390025" lon="8.1717653"><ele>847.5</ele><time>2026-04-26T13:21:11.476Z</time></trkpt><trkpt lat="44.2390548" lon="8.1716233"><ele>847.0</ele><time>2026-04-26T13:21:12.476Z</time></trkpt><trkpt lat="44.2391252" lon="8.171541"><ele>847.0</ele><time>2026-04-26T13:21:13.477Z</time></trkpt><trkpt lat="44.2392113" lon="8.1715087"><ele>847.0</ele><time>2026-04-26T13:21:14.475Z</time></trkpt><trkpt lat="44.2392962" lon="8.1715135"><ele>847.0</ele><time>2026-04-26T13:21:15.476Z</time></trkpt><trkpt lat="44.23938" lon="8.171555"><ele>847.0</ele><time>2026-04-26T13:21:16.477Z</time></trkpt><trkpt lat="44.2394762" lon="8.1716212"><ele>847.0</ele><time>2026-04-26T13:21:17.475Z</time></trkpt><trkpt lat="44.2395797" lon="8.1717022"><ele>847.0</ele><time>2026-04-26T13:21:18.476Z</time></trkpt><trkpt lat="44.2396772" lon="8.171784"><ele>847.0</ele><time>2026-04-26T13:21:19.476Z</time></trkpt><trkpt lat="44.239771" lon="8.1718705"><ele>847.0</ele><time>2026-04-26T13:21:20.475Z</time></trkpt><trkpt lat="44.2398552" lon="8.1719523"><ele>847.0</ele><time>2026-04-26T13:21:21.475Z</time></trkpt><trkpt lat="44.239929" lon="8.1720125"><ele>847.0</ele><time>2026-04-26T13:21:22.475Z</time></trkpt><trkpt lat="44.2399997" lon="8.1720335"><ele>846.0</ele><time>2026-04-26T13:21:23.474Z</time></trkpt><trkpt lat="44.240093" lon="8.172045"><ele>845.0</ele><time>2026-04-26T13:21:24.475Z</time></trkpt><trkpt lat="44.2401907" lon="8.1720593"><ele>844.0</ele><time>2026-04-26T13:21:25.473Z</time></trkpt><trkpt lat="44.2402978" lon="8.1720872"><ele>843.0</ele><time>2026-04-26T13:21:26.472Z</time></trkpt><trkpt lat="44.240392" lon="8.1721163"><ele>842.0</ele><time>2026-04-26T13:21:27.472Z</time></trkpt><trkpt lat="44.2404773" lon="8.1721308"><ele>842.0000000000001</ele><time>2026-04-26T13:21:28.471Z</time></trkpt><trkpt lat="44.2405525" lon="8.1721195"><ele>842.0</ele><time>2026-04-26T13:21:29.472Z</time></trkpt><trkpt lat="44.2406177" lon="8.1720733"><ele>842.0</ele><time>2026-04-26T13:21:30.474Z</time></trkpt><trkpt lat="44.2406608" lon="8.1720078"><ele>842.0</ele><time>2026-04-26T13:21:31.474Z</time></trkpt><trkpt lat="44.2406648" lon="8.1719193"><ele>842.0</ele><time>2026-04-26T13:21:32.476Z</time></trkpt><trkpt lat="44.240626" lon="8.1718282"><ele>842.0000000000001</ele><time>2026-04-26T13:21:33.475Z</time></trkpt><trkpt lat="44.2405627" lon="8.171742"><ele>842.0</ele><time>2026-04-26T13:21:34.475Z</time></trkpt><trkpt lat="44.2404787" lon="8.1716555"><ele>842.0</ele><time>2026-04-26T13:21:35.474Z</time></trkpt><trkpt lat="44.2403868" lon="8.1715552"><ele>842.0</ele><time>2026-04-26T13:21:36.473Z</time></trkpt><trkpt lat="44.2402912" lon="8.171431"><ele>842.0</ele><time>2026-04-26T13:21:37.473Z</time></trkpt><trkpt lat="44.2402055" lon="8.1712798"><ele>842.0</ele><time>2026-04-26T13:21:38.473Z</time></trkpt><trkpt lat="44.240126" lon="8.171098"><ele>841.6666666666667</ele><time>2026-04-26T13:21:39.475Z</time></trkpt><trkpt lat="44.2400638" lon="8.1708908"><ele>841.3333333333333</ele><time>2026-04-26T13:21:40.474Z</time></trkpt><trkpt lat="44.2400033" lon="8.1706793"><ele>841.0</ele><time>2026-04-26T13:21:41.474Z</time></trkpt><trkpt lat="44.2399317" lon="8.170502"><ele>843.0</ele><time>2026-04-26T13:21:42.476Z</time></trkpt><trkpt lat="44.2398582" lon="8.1703335"><ele>845.0</ele><time>2026-04-26T13:21:43.476Z</time></trkpt><trkpt lat="44.2397672" lon="8.1701742"><ele>847.0</ele><time>2026-04-26T13:21:44.476Z</time></trkpt><trkpt lat="44.2396718" lon="8.1700092"><ele>849.0</ele><time>2026-04-26T13:21:45.476Z</time></trkpt><trkpt lat="44.2395643" lon="8.1698498"><ele>840.3333333333333</ele><time>2026-04-26T13:21:46.473Z</time></trkpt><trkpt lat="44.2394427" lon="8.1697057"><ele>831.6666666666666</ele><time>2026-04-26T13:21:47.477Z</time></trkpt><trkpt lat="44.2393065" lon="8.1695712"><ele>823.0</ele><time>2026-04-26T13:21:48.475Z</time></trkpt><trkpt lat="44.2391608" lon="8.1694348"><ele>823.0</ele><time>2026-04-26T13:21:49.477Z</time></trkpt><trkpt lat="44.2390277" lon="8.1693058"><ele>823.0</ele><time>2026-04-26T13:21:50.474Z</time></trkpt><trkpt lat="44.2389067" lon="8.169198"><ele>823.0</ele><time>2026-04-26T13:21:51.473Z</time></trkpt><trkpt lat="44.2388083" lon="8.1690958"><ele>823.0</ele><time>2026-04-26T13:21:52.473Z</time></trkpt><trkpt lat="44.2387357" lon="8.1689965"><ele>821.9999999999999</ele><time>2026-04-26T13:21:53.473Z</time></trkpt><trkpt lat="44.238688" lon="8.1689052"><ele>821.0</ele><time>2026-04-26T13:21:54.475Z</time></trkpt><trkpt lat="44.2386842" lon="8.1688123"><ele>820.0</ele><time>2026-04-26T13:21:55.475Z</time></trkpt><trkpt lat="44.2387292" lon="8.1687307"><ele>819.0</ele><time>2026-04-26T13:21:56.475Z</time></trkpt><trkpt lat="44.2388063" lon="8.16866"><ele>817.9999999999999</ele><time>2026-04-26T13:21:57.475Z</time></trkpt><trkpt lat="44.2389037" lon="8.1685895"><ele>817.0</ele><time>2026-04-26T13:21:58.474Z</time></trkpt><trkpt lat="44.2390197" lon="8.1685067"><ele>817.0</ele><time>2026-04-26T13:21:59.476Z</time></trkpt><trkpt lat="44.239132" lon="8.1684103"><ele>817.0</ele><time>2026-04-26T13:22:00.474Z</time></trkpt><trkpt lat="44.239231" lon="8.168309"><ele>817.0</ele><time>2026-04-26T13:22:01.474Z</time></trkpt><trkpt lat="44.2393137" lon="8.1682107"><ele>817.0</ele><time>2026-04-26T13:22:02.474Z</time></trkpt><trkpt lat="44.239366" lon="8.1681115"><ele>818.2</ele><time>2026-04-26T13:22:03.475Z</time></trkpt><trkpt lat="44.2393833" lon="8.168017"><ele>819.4000000000001</ele><time>2026-04-26T13:22:04.474Z</time></trkpt><trkpt lat="44.2392965" lon="8.1678965"><ele>820.5999999999999</ele><time>2026-04-26T13:22:06.474Z</time></trkpt><trkpt lat="44.2392315" lon="8.167909"><ele>821.8</ele><time>2026-04-26T13:22:07.474Z</time></trkpt><trkpt lat="44.2391433" lon="8.1679543"><ele>823.0</ele><time>2026-04-26T13:22:08.473Z</time></trkpt><trkpt lat="44.2390445" lon="8.1680097"><ele>819.4</ele><time>2026-04-26T13:22:09.474Z</time></trkpt><trkpt lat="44.2389473" lon="8.1680548"><ele>815.8</ele><time>2026-04-26T13:22:10.474Z</time></trkpt><trkpt lat="44.2388525" lon="8.1680737"><ele>812.2</ele><time>2026-04-26T13:22:11.475Z</time></trkpt><trkpt lat="44.2387522" lon="8.1680707"><ele>808.6</ele><time>2026-04-26T13:22:12.477Z</time></trkpt><trkpt lat="44.238655" lon="8.1680508"><ele>805.0</ele><time>2026-04-26T13:22:13.475Z</time></trkpt><trkpt lat="44.238564" lon="8.1680267"><ele>805.0</ele><time>2026-04-26T13:22:14.474Z</time></trkpt><trkpt lat="44.2384725" lon="8.1679955"><ele>805.0</ele><time>2026-04-26T13:22:15.473Z</time></trkpt><trkpt lat="44.2383775" lon="8.1679678"><ele>805.0</ele><time>2026-04-26T13:22:16.474Z</time></trkpt><trkpt lat="44.2382835" lon="8.1679365"><ele>805.0</ele><time>2026-04-26T13:22:17.473Z</time></trkpt><trkpt lat="44.2381953" lon="8.1678922"><ele>805.0</ele><time>2026-04-26T13:22:18.474Z</time></trkpt><trkpt lat="44.238117" lon="8.1678222"><ele>802.3333333333333</ele><time>2026-04-26T13:22:19.475Z</time></trkpt><trkpt lat="44.2380667" lon="8.1677535"><ele>799.6666666666666</ele><time>2026-04-26T13:22:20.476Z</time></trkpt><trkpt lat="44.2380252" lon="8.1676618"><ele>797.0</ele><time>2026-04-26T13:22:22.475Z</time></trkpt><trkpt lat="44.2379525" lon="8.1676077"><ele>794.3333333333333</ele><time>2026-04-26T13:23:12.477Z</time></trkpt><trkpt lat="44.2378573" lon="8.167512"><ele>791.6666666666666</ele><time>2026-04-26T13:23:14.476Z</time></trkpt><trkpt lat="44.2378058" lon="8.1674402"><ele>789.0</ele><time>2026-04-26T13:23:15.476Z</time></trkpt><trkpt lat="44.237748" lon="8.1673235"><ele>789.0</ele><time>2026-04-26T13:23:16.475Z</time></trkpt><trkpt lat="44.2376893" lon="8.1671827"><ele>789.0</ele><time>2026-04-26T13:23:17.474Z</time></trkpt><trkpt lat="44.2376268" lon="8.1670342"><ele>789.0</ele><time>2026-04-26T13:23:18.475Z</time></trkpt><trkpt lat="44.2375737" lon="8.1668655"><ele>789.0</ele><time>2026-04-26T13:23:19.476Z</time></trkpt><trkpt lat="44.2375267" lon="8.166688"><ele>789.25</ele><time>2026-04-26T13:23:20.474Z</time></trkpt><trkpt lat="44.2374658" lon="8.1665232"><ele>789.5</ele><time>2026-04-26T13:23:21.475Z</time></trkpt><trkpt lat="44.2373783" lon="8.1663775"><ele>789.75</ele><time>2026-04-26T13:23:22.475Z</time></trkpt><trkpt lat="44.237261" lon="8.1662553"><ele>790.0</ele><time>2026-04-26T13:23:23.477Z</time></trkpt><trkpt lat="44.2371187" lon="8.1661455"><ele>790.0</ele><time>2026-04-26T13:23:24.475Z</time></trkpt><trkpt lat="44.2369757" lon="8.1660467"><ele>790.0</ele><time>2026-04-26T13:23:25.476Z</time></trkpt><trkpt lat="44.2368375" lon="8.165958"><ele>790.0</ele><time>2026-04-26T13:23:26.474Z</time></trkpt><trkpt lat="44.2367032" lon="8.1658888"><ele>790.0</ele><time>2026-04-26T13:23:27.476Z</time></trkpt><trkpt lat="44.2365593" lon="8.16585"><ele>790.0</ele><time>2026-04-26T13:23:28.473Z</time></trkpt><trkpt lat="44.2364227" lon="8.1658487"><ele>790.0</ele><time>2026-04-26T13:23:29.474Z</time></trkpt><trkpt lat="44.2362908" lon="8.165849"><ele>790.0</ele><time>2026-04-26T13:23:30.475Z</time></trkpt><trkpt lat="44.2361628" lon="8.1658155"><ele>789.5</ele><time>2026-04-26T13:23:31.473Z</time></trkpt><trkpt lat="44.2360382" lon="8.1657548"><ele>789.0</ele><time>2026-04-26T13:23:32.475Z</time></trkpt><trkpt lat="44.2359217" lon="8.1656627"><ele>788.5</ele><time>2026-04-26T13:23:33.477Z</time></trkpt><trkpt lat="44.235823" lon="8.1655373"><ele>788.0</ele><time>2026-04-26T13:23:34.477Z</time></trkpt><trkpt lat="44.2357348" lon="8.1653732"><ele>788.0</ele><time>2026-04-26T13:23:35.476Z</time></trkpt><trkpt lat="44.2356555" lon="8.1652057"><ele>788.0</ele><time>2026-04-26T13:23:36.477Z</time></trkpt><trkpt lat="44.2355707" lon="8.1650527"><ele>788.0</ele><time>2026-04-26T13:23:37.475Z</time></trkpt><trkpt lat="44.235465" lon="8.164917"><ele>788.0</ele><time>2026-04-26T13:23:38.474Z</time></trkpt><trkpt lat="44.2353327" lon="8.1648"><ele>782.5</ele><time>2026-04-26T13:23:39.475Z</time></trkpt><trkpt lat="44.235209" lon="8.1647075"><ele>777.0</ele><time>2026-04-26T13:23:40.475Z</time></trkpt><trkpt lat="44.2351045" lon="8.1646065"><ele>771.5</ele><time>2026-04-26T13:23:41.476Z</time></trkpt><trkpt lat="44.2350295" lon="8.164482"><ele>766.0</ele><time>2026-04-26T13:23:42.475Z</time></trkpt><trkpt lat="44.234987" lon="8.1643317"><ele>766.0</ele><time>2026-04-26T13:23:43.476Z</time></trkpt><trkpt lat="44.2349848" lon="8.164166"><ele>766.0</ele><time>2026-04-26T13:23:44.475Z</time></trkpt><trkpt lat="44.235022" lon="8.1639963"><ele>766.0</ele><time>2026-04-26T13:23:45.475Z</time></trkpt><trkpt lat="44.2350938" lon="8.1638155"><ele>766.0</ele><time>2026-04-26T13:23:46.474Z</time></trkpt><trkpt lat="44.2351767" lon="8.1636297"><ele>766.5</ele><time>2026-04-26T13:23:47.474Z</time></trkpt><trkpt lat="44.2352457" lon="8.163457"><ele>767.0</ele><time>2026-04-26T13:23:48.473Z</time></trkpt><trkpt lat="44.2352798" lon="8.1632883"><ele>767.5</ele><time>2026-04-26T13:23:49.475Z</time></trkpt><trkpt lat="44.2352748" lon="8.1631282"><ele>768.0</ele><time>2026-04-26T13:23:50.475Z</time></trkpt><trkpt lat="44.2352265" lon="8.1629755"><ele>768.0</ele><time>2026-04-26T13:23:51.475Z</time></trkpt><trkpt lat="44.2351392" lon="8.1628403"><ele>768.0</ele><time>2026-04-26T13:23:52.475Z</time></trkpt><trkpt lat="44.2350232" lon="8.1627263"><ele>768.0</ele><time>2026-04-26T13:23:53.473Z</time></trkpt><trkpt lat="44.2348967" lon="8.162631"><ele>768.0</ele><time>2026-04-26T13:23:54.478Z</time></trkpt><trkpt lat="44.234782" lon="8.1625397"><ele>768.25</ele><time>2026-04-26T13:23:55.472Z</time></trkpt><trkpt lat="44.2346912" lon="8.162435"><ele>768.5</ele><time>2026-04-26T13:23:56.472Z</time></trkpt><trkpt lat="44.2346328" lon="8.1623007"><ele>768.75</ele><time>2026-04-26T13:23:57.476Z</time></trkpt><trkpt lat="44.2346072" lon="8.1621388"><ele>769.0</ele><time>2026-04-26T13:23:58.474Z</time></trkpt><trkpt lat="44.2346127" lon="8.1619587"><ele>769.5</ele><time>2026-04-26T13:23:59.474Z</time></trkpt><trkpt lat="44.2346353" lon="8.161766"><ele>770.0</ele><time>2026-04-26T13:24:00.473Z</time></trkpt><trkpt lat="44.234662" lon="8.1615655"><ele>770.5</ele><time>2026-04-26T13:24:01.473Z</time></trkpt><trkpt lat="44.2346783" lon="8.161358"><ele>771.0</ele><time>2026-04-26T13:24:02.471Z</time></trkpt><trkpt lat="44.234675" lon="8.1611362"><ele>765.0</ele><time>2026-04-26T13:24:03.473Z</time></trkpt><trkpt lat="44.2346542" lon="8.1609092"><ele>759.0</ele><time>2026-04-26T13:24:04.476Z</time></trkpt><trkpt lat="44.2346238" lon="8.160688"><ele>753.0</ele><time>2026-04-26T13:24:05.475Z</time></trkpt><trkpt lat="44.2345937" lon="8.1604787"><ele>752.25</ele><time>2026-04-26T13:24:06.475Z</time></trkpt><trkpt lat="44.2345558" lon="8.160285"><ele>751.5</ele><time>2026-04-26T13:24:07.475Z</time></trkpt><trkpt lat="44.2344947" lon="8.1601012"><ele>750.75</ele><time>2026-04-26T13:24:08.474Z</time></trkpt><trkpt lat="44.234409" lon="8.1599252"><ele>750.0</ele><time>2026-04-26T13:24:09.475Z</time></trkpt><trkpt lat="44.2343193" lon="8.1597635"><ele>750.0</ele><time>2026-04-26T13:24:10.475Z</time></trkpt><trkpt lat="44.2342422" lon="8.159609"><ele>750.0</ele><time>2026-04-26T13:24:11.475Z</time></trkpt><trkpt lat="44.2341848" lon="8.1594393"><ele>750.0</ele><time>2026-04-26T13:24:12.475Z</time></trkpt><trkpt lat="44.2341392" lon="8.1592562"><ele>750.0</ele><time>2026-04-26T13:24:13.475Z</time></trkpt><trkpt lat="44.234097" lon="8.1590793"><ele>749.5</ele><time>2026-04-26T13:24:14.475Z</time></trkpt><trkpt lat="44.2340625" lon="8.1589128"><ele>749.0</ele><time>2026-04-26T13:24:15.475Z</time></trkpt><trkpt lat="44.2340475" lon="8.1587518"><ele>748.5</ele><time>2026-04-26T13:24:16.475Z</time></trkpt><trkpt lat="44.2340577" lon="8.1585888"><ele>748.0</ele><time>2026-04-26T13:24:17.476Z</time></trkpt><trkpt lat="44.234074" lon="8.1584157"><ele>748.0</ele><time>2026-04-26T13:24:18.475Z</time></trkpt><trkpt lat="44.2340862" lon="8.1582318"><ele>748.0</ele><time>2026-04-26T13:24:19.474Z</time></trkpt><trkpt lat="44.2340898" lon="8.1580332"><ele>748.0</ele><time>2026-04-26T13:24:20.474Z</time></trkpt><trkpt lat="44.234084" lon="8.1578353"><ele>748.0</ele><time>2026-04-26T13:24:21.476Z</time></trkpt><trkpt lat="44.2340788" lon="8.1576447"><ele>745.6666666666667</ele><time>2026-04-26T13:24:22.476Z</time></trkpt><trkpt lat="44.2340887" lon="8.1574498"><ele>743.3333333333334</ele><time>2026-04-26T13:24:23.476Z</time></trkpt><trkpt lat="44.2341172" lon="8.1572405"><ele>741.0</ele><time>2026-04-26T13:24:24.477Z</time></trkpt><trkpt lat="44.23416" lon="8.1570188"><ele>736.6666666666666</ele><time>2026-04-26T13:24:25.476Z</time></trkpt><trkpt lat="44.2342113" lon="8.1567853"><ele>732.3333333333333</ele><time>2026-04-26T13:24:26.475Z</time></trkpt><trkpt lat="44.2342667" lon="8.1565525"><ele>728.0</ele><time>2026-04-26T13:24:27.477Z</time></trkpt><trkpt lat="44.2343253" lon="8.1563215"><ele>726.3333333333333</ele><time>2026-04-26T13:24:28.475Z</time></trkpt><trkpt lat="44.2343822" lon="8.1560763"><ele>724.6666666666666</ele><time>2026-04-26T13:24:29.477Z</time></trkpt><trkpt lat="44.2344293" lon="8.1558337"><ele>723.0</ele><time>2026-04-26T13:24:30.477Z</time></trkpt><trkpt lat="44.2344635" lon="8.1556015"><ele>721.6666666666666</ele><time>2026-04-26T13:24:31.476Z</time></trkpt><trkpt lat="44.2344808" lon="8.1553798"><ele>720.3333333333333</ele><time>2026-04-26T13:24:32.477Z</time></trkpt><trkpt lat="44.2344798" lon="8.1551602"><ele>719.0</ele><time>2026-04-26T13:24:33.477Z</time></trkpt><trkpt lat="44.234459" lon="8.1549402"><ele>718.3333333333333</ele><time>2026-04-26T13:24:34.475Z</time></trkpt><trkpt lat="44.2344165" lon="8.1547202"><ele>717.6666666666666</ele><time>2026-04-26T13:24:35.475Z</time></trkpt><trkpt lat="44.2343598" lon="8.1545117"><ele>717.0</ele><time>2026-04-26T13:24:36.476Z</time></trkpt><trkpt lat="44.2342933" lon="8.1543168"><ele>717.0</ele><time>2026-04-26T13:24:37.476Z</time></trkpt><trkpt lat="44.2342262" lon="8.1541313"><ele>717.0</ele><time>2026-04-26T13:24:38.476Z</time></trkpt><trkpt lat="44.2341665" lon="8.1539568"><ele>717.0</ele><time>2026-04-26T13:24:39.477Z</time></trkpt><trkpt lat="44.2341123" lon="8.1537912"><ele>717.0</ele><time>2026-04-26T13:24:40.477Z</time></trkpt><trkpt lat="44.2340697" lon="8.1536228"><ele>716.5</ele><time>2026-04-26T13:24:41.476Z</time></trkpt><trkpt lat="44.2340452" lon="8.1534412"><ele>716.0</ele><time>2026-04-26T13:24:42.475Z</time></trkpt><trkpt lat="44.2340393" lon="8.1532412"><ele>715.5</ele><time>2026-04-26T13:24:43.474Z</time></trkpt><trkpt lat="44.2340398" lon="8.1530312"><ele>715.0</ele><time>2026-04-26T13:24:44.475Z</time></trkpt><trkpt lat="44.2340398" lon="8.1528255"><ele>714.6666666666667</ele><time>2026-04-26T13:24:45.475Z</time></trkpt><trkpt lat="44.2340208" lon="8.1526227"><ele>714.3333333333334</ele><time>2026-04-26T13:24:46.475Z</time></trkpt><trkpt lat="44.2339827" lon="8.1524158"><ele>714.0</ele><time>2026-04-26T13:24:47.478Z</time></trkpt><trkpt lat="44.2339288" lon="8.1522012"><ele>714.0</ele><time>2026-04-26T13:24:48.476Z</time></trkpt><trkpt lat="44.2338633" lon="8.1519775"><ele>714.0</ele><time>2026-04-26T13:24:49.476Z</time></trkpt><trkpt lat="44.2337958" lon="8.1517482"><ele>714.0</ele><time>2026-04-26T13:24:50.477Z</time></trkpt><trkpt lat="44.23373" lon="8.1515153"><ele>714.0</ele><time>2026-04-26T13:24:51.477Z</time></trkpt><trkpt lat="44.233665" lon="8.1512785"><ele>714.0</ele><time>2026-04-26T13:24:52.475Z</time></trkpt><trkpt lat="44.2336038" lon="8.1510565"><ele>714.0</ele><time>2026-04-26T13:24:53.476Z</time></trkpt><trkpt lat="44.2335375" lon="8.1508457"><ele>718.0</ele><time>2026-04-26T13:24:54.476Z</time></trkpt><trkpt lat="44.2334507" lon="8.150635"><ele>722.0</ele><time>2026-04-26T13:24:55.476Z</time></trkpt><trkpt lat="44.2333413" lon="8.150428"><ele>726.0</ele><time>2026-04-26T13:24:56.475Z</time></trkpt><trkpt lat="44.2332212" lon="8.1502243"><ele>721.0</ele><time>2026-04-26T13:24:57.476Z</time></trkpt><trkpt lat="44.2331057" lon="8.1500337"><ele>716.0</ele><time>2026-04-26T13:24:58.475Z</time></trkpt><trkpt lat="44.2329988" lon="8.1498552"><ele>711.0</ele><time>2026-04-26T13:24:59.474Z</time></trkpt><trkpt lat="44.2329085" lon="8.1496747"><ele>710.0</ele><time>2026-04-26T13:25:00.475Z</time></trkpt><trkpt lat="44.2328418" lon="8.1494878"><ele>709.0</ele><time>2026-04-26T13:25:01.474Z</time></trkpt><trkpt lat="44.232806" lon="8.1492962"><ele>708.0</ele><time>2026-04-26T13:25:02.474Z</time></trkpt><trkpt lat="44.2328035" lon="8.14909"><ele>707.0</ele><time>2026-04-26T13:25:03.474Z</time></trkpt><trkpt lat="44.2328228" lon="8.1488683"><ele>706.0</ele><time>2026-04-26T13:25:04.473Z</time></trkpt><trkpt lat="44.2328473" lon="8.148626"><ele>705.0</ele><time>2026-04-26T13:25:05.475Z</time></trkpt><trkpt lat="44.2328713" lon="8.148378"><ele>704.0</ele><time>2026-04-26T13:25:06.475Z</time></trkpt><trkpt lat="44.2328963" lon="8.1481232"><ele>703.3333333333333</ele><time>2026-04-26T13:25:07.472Z</time></trkpt><trkpt lat="44.232922" lon="8.1478782"><ele>702.6666666666666</ele><time>2026-04-26T13:25:08.472Z</time></trkpt><trkpt lat="44.2329473" lon="8.147649"><ele>702.0</ele><time>2026-04-26T13:25:09.474Z</time></trkpt><trkpt lat="44.2329808" lon="8.1474365"><ele>701.3333333333334</ele><time>2026-04-26T13:25:10.474Z</time></trkpt><trkpt lat="44.233032" lon="8.1472242"><ele>700.6666666666667</ele><time>2026-04-26T13:25:11.475Z</time></trkpt><trkpt lat="44.2331068" lon="8.1470027"><ele>700.0</ele><time>2026-04-26T13:25:12.475Z</time></trkpt><trkpt lat="44.2331947" lon="8.146767"><ele>702.0</ele><time>2026-04-26T13:25:13.475Z</time></trkpt><trkpt lat="44.2332847" lon="8.1465275"><ele>704.0</ele><time>2026-04-26T13:25:14.474Z</time></trkpt><trkpt lat="44.2333778" lon="8.146306"><ele>706.0</ele><time>2026-04-26T13:25:15.474Z</time></trkpt><trkpt lat="44.2334637" lon="8.1460995"><ele>706.0</ele><time>2026-04-26T13:25:16.472Z</time></trkpt><trkpt lat="44.2335303" lon="8.145893"><ele>706.0</ele><time>2026-04-26T13:25:17.474Z</time></trkpt><trkpt lat="44.233566" lon="8.1456728"><ele>706.0</ele><time>2026-04-26T13:25:18.478Z</time></trkpt><trkpt lat="44.2335693" lon="8.145439"><ele>705.0</ele><time>2026-04-26T13:25:19.475Z</time></trkpt><trkpt lat="44.2335563" lon="8.1451833"><ele>704.0</ele><time>2026-04-26T13:25:20.476Z</time></trkpt><trkpt lat="44.2335452" lon="8.1449103"><ele>703.0</ele><time>2026-04-26T13:25:21.477Z</time></trkpt><trkpt lat="44.2335357" lon="8.1446287"><ele>701.6666666666667</ele><time>2026-04-26T13:25:22.476Z</time></trkpt><trkpt lat="44.2335298" lon="8.1443447"><ele>700.3333333333334</ele><time>2026-04-26T13:25:23.478Z</time></trkpt><trkpt lat="44.2335303" lon="8.1440628"><ele>699.0</ele><time>2026-04-26T13:25:24.476Z</time></trkpt><trkpt lat="44.2335308" lon="8.1437845"><ele>698.3333333333334</ele><time>2026-04-26T13:25:25.475Z</time></trkpt><trkpt lat="44.2335273" lon="8.1435182"><ele>697.6666666666667</ele><time>2026-04-26T13:25:26.473Z</time></trkpt><trkpt lat="44.2335205" lon="8.1432693"><ele>697.0</ele><time>2026-04-26T13:25:27.474Z</time></trkpt><trkpt lat="44.2335105" lon="8.1430343"><ele>696.0</ele><time>2026-04-26T13:25:28.474Z</time></trkpt><trkpt lat="44.2335008" lon="8.1428053"><ele>695.0</ele><time>2026-04-26T13:25:29.473Z</time></trkpt><trkpt lat="44.2334963" lon="8.1425783"><ele>694.0</ele><time>2026-04-26T13:25:30.472Z</time></trkpt><trkpt lat="44.2335078" lon="8.1423355"><ele>693.0</ele><time>2026-04-26T13:25:31.47Z</time></trkpt><trkpt lat="44.233541" lon="8.1420733"><ele>692.0</ele><time>2026-04-26T13:25:32.47Z</time></trkpt><trkpt lat="44.2335925" lon="8.1417987"><ele>691.0</ele><time>2026-04-26T13:25:33.471Z</time></trkpt><trkpt lat="44.2336432" lon="8.1415107"><ele>689.6666666666667</ele><time>2026-04-26T13:25:34.471Z</time></trkpt><trkpt lat="44.2336918" lon="8.1412187"><ele>688.3333333333334</ele><time>2026-04-26T13:25:35.474Z</time></trkpt><trkpt lat="44.2337373" lon="8.1409137"><ele>687.0</ele><time>2026-04-26T13:25:36.474Z</time></trkpt><trkpt lat="44.2337733" lon="8.1405948"><ele>686.5</ele><time>2026-04-26T13:25:37.475Z</time></trkpt><trkpt lat="44.2338018" lon="8.1402577"><ele>686.0</ele><time>2026-04-26T13:25:38.475Z</time></trkpt><trkpt lat="44.2338247" lon="8.1399115"><ele>686.0</ele><time>2026-04-26T13:25:39.475Z</time></trkpt><trkpt lat="44.2338448" lon="8.1395665"><ele>686.0</ele><time>2026-04-26T13:25:40.476Z</time></trkpt><trkpt lat="44.2338623" lon="8.1392325"><ele>685.5</ele><time>2026-04-26T13:25:41.476Z</time></trkpt><trkpt lat="44.233879" lon="8.1389048"><ele>685.0</ele><time>2026-04-26T13:25:42.476Z</time></trkpt><trkpt lat="44.2338968" lon="8.1385803"><ele>685.0</ele><time>2026-04-26T13:25:43.475Z</time></trkpt><trkpt lat="44.2339148" lon="8.1382578"><ele>685.0</ele><time>2026-04-26T13:25:44.477Z</time></trkpt><trkpt lat="44.2339323" lon="8.1379368"><ele>684.0</ele><time>2026-04-26T13:25:45.477Z</time></trkpt><trkpt lat="44.233949" lon="8.1376192"><ele>683.0</ele><time>2026-04-26T13:25:46.476Z</time></trkpt><trkpt lat="44.2339665" lon="8.1373065"><ele>682.0</ele><time>2026-04-26T13:25:47.476Z</time></trkpt><trkpt lat="44.233985" lon="8.1369987"><ele>681.0</ele><time>2026-04-26T13:25:48.479Z</time></trkpt><trkpt lat="44.2340033" lon="8.136694"><ele>680.0</ele><time>2026-04-26T13:25:49.476Z</time></trkpt><trkpt lat="44.234021" lon="8.1364037"><ele>679.6666666666666</ele><time>2026-04-26T13:25:50.476Z</time></trkpt><trkpt lat="44.2340373" lon="8.1361335"><ele>679.3333333333334</ele><time>2026-04-26T13:25:51.476Z</time></trkpt><trkpt lat="44.2340547" lon="8.1358807"><ele>679.0</ele><time>2026-04-26T13:25:52.475Z</time></trkpt><trkpt lat="44.2340733" lon="8.1356418"><ele>679.0</ele><time>2026-04-26T13:25:53.474Z</time></trkpt><trkpt lat="44.2340905" lon="8.1354192"><ele>679.0</ele><time>2026-04-26T13:25:54.475Z</time></trkpt><trkpt lat="44.2341078" lon="8.1352127"><ele>679.0</ele><time>2026-04-26T13:25:55.474Z</time></trkpt><trkpt lat="44.2341245" lon="8.1350245"><ele>679.0</ele><time>2026-04-26T13:25:56.474Z</time></trkpt><trkpt lat="44.2341377" lon="8.1348503"><ele>678.25</ele><time>2026-04-26T13:25:57.474Z</time></trkpt><trkpt lat="44.2341453" lon="8.1346907"><ele>677.5</ele><time>2026-04-26T13:25:58.474Z</time></trkpt><trkpt lat="44.234151" lon="8.1345287"><ele>676.75</ele><time>2026-04-26T13:25:59.475Z</time></trkpt><trkpt lat="44.2341618" lon="8.1343565"><ele>676.0</ele><time>2026-04-26T13:26:00.478Z</time></trkpt><trkpt lat="44.2341863" lon="8.1341807"><ele>676.25</ele><time>2026-04-26T13:26:01.476Z</time></trkpt><trkpt lat="44.2342248" lon="8.1339993"><ele>676.5</ele><time>2026-04-26T13:26:02.478Z</time></trkpt><trkpt lat="44.2342668" lon="8.1338178"><ele>676.75</ele><time>2026-04-26T13:26:03.478Z</time></trkpt><trkpt lat="44.2343047" lon="8.133647"><ele>677.0</ele><time>2026-04-26T13:26:04.477Z</time></trkpt><trkpt lat="44.2343387" lon="8.1334745"><ele>677.0</ele><time>2026-04-26T13:26:05.474Z</time></trkpt><trkpt lat="44.234368" lon="8.1332933"><ele>677.0</ele><time>2026-04-26T13:26:06.476Z</time></trkpt><trkpt lat="44.234394" lon="8.1331008"><ele>677.0</ele><time>2026-04-26T13:26:07.476Z</time></trkpt><trkpt lat="44.234421" lon="8.132906"><ele>677.0</ele><time>2026-04-26T13:26:08.477Z</time></trkpt><trkpt lat="44.2344468" lon="8.1327178"><ele>676.75</ele><time>2026-04-26T13:26:09.478Z</time></trkpt><trkpt lat="44.2344745" lon="8.132541"><ele>676.5</ele><time>2026-04-26T13:26:10.476Z</time></trkpt><trkpt lat="44.2345103" lon="8.132365"><ele>676.25</ele><time>2026-04-26T13:26:11.477Z</time></trkpt><trkpt lat="44.2345548" lon="8.1321872"><ele>676.0</ele><time>2026-04-26T13:26:12.475Z</time></trkpt><trkpt lat="44.234599" lon="8.1320125"><ele>676.0</ele><time>2026-04-26T13:26:13.478Z</time></trkpt><trkpt lat="44.2346413" lon="8.1318482"><ele>676.0</ele><time>2026-04-26T13:26:14.475Z</time></trkpt><trkpt lat="44.234684" lon="8.1316867"><ele>676.0</ele><time>2026-04-26T13:26:15.482Z</time></trkpt><trkpt lat="44.2347268" lon="8.131523"><ele>676.0</ele><time>2026-04-26T13:26:16.478Z</time></trkpt><trkpt lat="44.2347673" lon="8.131353"><ele>674.75</ele><time>2026-04-26T13:26:17.477Z</time></trkpt><trkpt lat="44.2348057" lon="8.1311833"><ele>673.5</ele><time>2026-04-26T13:26:18.476Z</time></trkpt><trkpt lat="44.234848" lon="8.1310142"><ele>672.25</ele><time>2026-04-26T13:26:19.477Z</time></trkpt><trkpt lat="44.2348945" lon="8.1308433"><ele>671.0</ele><time>2026-04-26T13:26:20.474Z</time></trkpt><trkpt lat="44.2349417" lon="8.1306785"><ele>671.0</ele><time>2026-04-26T13:26:21.477Z</time></trkpt><trkpt lat="44.2349865" lon="8.1305188"><ele>671.0</ele><time>2026-04-26T13:26:22.474Z</time></trkpt><trkpt lat="44.235027" lon="8.1303585"><ele>671.0</ele><time>2026-04-26T13:26:23.477Z</time></trkpt><trkpt lat="44.2350555" lon="8.1301878"><ele>671.0</ele><time>2026-04-26T13:26:24.476Z</time></trkpt><trkpt lat="44.235061" lon="8.129999"><ele>670.6666666666666</ele><time>2026-04-26T13:26:25.477Z</time></trkpt><trkpt lat="44.2350458" lon="8.1297927"><ele>670.3333333333334</ele><time>2026-04-26T13:26:26.476Z</time></trkpt><trkpt lat="44.235017" lon="8.1295737"><ele>670.0</ele><time>2026-04-26T13:26:27.478Z</time></trkpt><trkpt lat="44.2349825" lon="8.1293445"><ele>670.0</ele><time>2026-04-26T13:26:28.477Z</time></trkpt><trkpt lat="44.2349487" lon="8.1291137"><ele>670.0</ele><time>2026-04-26T13:26:29.477Z</time></trkpt><trkpt lat="44.2349162" lon="8.1288767"><ele>670.0</ele><time>2026-04-26T13:26:30.482Z</time></trkpt><trkpt lat="44.234883" lon="8.128636"><ele>670.0</ele><time>2026-04-26T13:26:31.478Z</time></trkpt><trkpt lat="44.2348478" lon="8.1283922"><ele>670.0</ele><time>2026-04-26T13:26:32.477Z</time></trkpt><trkpt lat="44.2348133" lon="8.1281445"><ele>670.0</ele><time>2026-04-26T13:26:33.478Z</time></trkpt><trkpt lat="44.2347798" lon="8.1278945"><ele>670.3333333333334</ele><time>2026-04-26T13:26:34.477Z</time></trkpt><trkpt lat="44.2347458" lon="8.1276415"><ele>670.6666666666666</ele><time>2026-04-26T13:26:35.477Z</time></trkpt><trkpt lat="44.2347107" lon="8.1273843"><ele>671.0</ele><time>2026-04-26T13:26:36.477Z</time></trkpt><trkpt lat="44.2346742" lon="8.1271237"><ele>671.3333333333333</ele><time>2026-04-26T13:26:37.478Z</time></trkpt><trkpt lat="44.2346365" lon="8.1268677"><ele>671.6666666666666</ele><time>2026-04-26T13:26:38.478Z</time></trkpt><trkpt lat="44.2346007" lon="8.1266305"><ele>672.0</ele><time>2026-04-26T13:26:39.478Z</time></trkpt><trkpt lat="44.2345665" lon="8.1264103"><ele>673.0</ele><time>2026-04-26T13:26:40.476Z</time></trkpt><trkpt lat="44.2345352" lon="8.126207"><ele>674.0</ele><time>2026-04-26T13:26:41.476Z</time></trkpt><trkpt lat="44.2345107" lon="8.1260142"><ele>675.0</ele><time>2026-04-26T13:26:42.479Z</time></trkpt><trkpt lat="44.2345077" lon="8.1258248"><ele>676.0</ele><time>2026-04-26T13:26:43.478Z</time></trkpt><trkpt lat="44.2345332" lon="8.1256458"><ele>676.5</ele><time>2026-04-26T13:26:44.477Z</time></trkpt><trkpt lat="44.234591" lon="8.1254783"><ele>677.0</ele><time>2026-04-26T13:26:45.477Z</time></trkpt><trkpt lat="44.2346827" lon="8.1253233"><ele>677.5</ele><time>2026-04-26T13:26:46.477Z</time></trkpt><trkpt lat="44.234805" lon="8.1251693"><ele>678.0</ele><time>2026-04-26T13:26:47.477Z</time></trkpt><trkpt lat="44.2349317" lon="8.1250185"><ele>676.75</ele><time>2026-04-26T13:26:48.477Z</time></trkpt><trkpt lat="44.2350512" lon="8.1248798"><ele>675.5</ele><time>2026-04-26T13:26:49.477Z</time></trkpt><trkpt lat="44.2351648" lon="8.1247535"><ele>674.25</ele><time>2026-04-26T13:26:50.476Z</time></trkpt><trkpt lat="44.2352657" lon="8.1246218"><ele>673.0</ele><time>2026-04-26T13:26:51.477Z</time></trkpt><trkpt lat="44.2353477" lon="8.1244758"><ele>673.0</ele><time>2026-04-26T13:26:52.476Z</time></trkpt><trkpt lat="44.2354147" lon="8.1243163"><ele>673.0</ele><time>2026-04-26T13:26:53.477Z</time></trkpt><trkpt lat="44.2354635" lon="8.1241328"><ele>673.0</ele><time>2026-04-26T13:26:54.478Z</time></trkpt><trkpt lat="44.2355052" lon="8.1239363"><ele>673.0</ele><time>2026-04-26T13:26:55.478Z</time></trkpt><trkpt lat="44.2355473" lon="8.1237478"><ele>674.0</ele><time>2026-04-26T13:26:56.476Z</time></trkpt><trkpt lat="44.2355847" lon="8.123566"><ele>675.0</ele><time>2026-04-26T13:26:57.475Z</time></trkpt><trkpt lat="44.2356203" lon="8.1233872"><ele>676.0</ele><time>2026-04-26T13:26:58.476Z</time></trkpt><trkpt lat="44.2356565" lon="8.12321"><ele>677.0</ele><time>2026-04-26T13:26:59.476Z</time></trkpt><trkpt lat="44.2356913" lon="8.1230352"><ele>673.0</ele><time>2026-04-26T13:27:00.475Z</time></trkpt><trkpt lat="44.2357307" lon="8.1228653"><ele>669.0</ele><time>2026-04-26T13:27:01.476Z</time></trkpt><trkpt lat="44.2357702" lon="8.1227053"><ele>665.0</ele><time>2026-04-26T13:27:02.477Z</time></trkpt><trkpt lat="44.2358042" lon="8.1225548"><ele>661.0</ele><time>2026-04-26T13:27:03.475Z</time></trkpt><trkpt lat="44.235834" lon="8.12241"><ele>661.1999999999999</ele><time>2026-04-26T13:27:04.477Z</time></trkpt><trkpt lat="44.2358623" lon="8.1222678"><ele>661.4</ele><time>2026-04-26T13:27:05.476Z</time></trkpt><trkpt lat="44.2358913" lon="8.122121"><ele>661.6</ele><time>2026-04-26T13:27:06.476Z</time></trkpt><trkpt lat="44.2359183" lon="8.1219705"><ele>661.8</ele><time>2026-04-26T13:27:07.476Z</time></trkpt><trkpt lat="44.2359472" lon="8.1218188"><ele>662.0</ele><time>2026-04-26T13:27:08.475Z</time></trkpt><trkpt lat="44.2359835" lon="8.1216645"><ele>661.75</ele><time>2026-04-26T13:27:09.474Z</time></trkpt><trkpt lat="44.2360205" lon="8.1215035"><ele>661.5</ele><time>2026-04-26T13:27:10.473Z</time></trkpt><trkpt lat="44.2360513" lon="8.1213355"><ele>661.25</ele><time>2026-04-26T13:27:11.475Z</time></trkpt><trkpt lat="44.2360677" lon="8.1211615"><ele>661.0</ele><time>2026-04-26T13:27:12.474Z</time></trkpt><trkpt lat="44.2360698" lon="8.1209842"><ele>661.0</ele><time>2026-04-26T13:27:13.478Z</time></trkpt><trkpt lat="44.2360697" lon="8.1207973"><ele>661.0</ele><time>2026-04-26T13:27:14.476Z</time></trkpt><trkpt lat="44.2360778" lon="8.1206068"><ele>661.0</ele><time>2026-04-26T13:27:15.477Z</time></trkpt><trkpt lat="44.2360833" lon="8.1204078"><ele>661.0</ele><time>2026-04-26T13:27:16.478Z</time></trkpt><trkpt lat="44.2360905" lon="8.120204"><ele>659.25</ele><time>2026-04-26T13:27:17.477Z</time></trkpt><trkpt lat="44.2360965" lon="8.1199982"><ele>657.5</ele><time>2026-04-26T13:27:18.477Z</time></trkpt><trkpt lat="44.2361017" lon="8.1197897"><ele>655.75</ele><time>2026-04-26T13:27:19.476Z</time></trkpt><trkpt lat="44.2361072" lon="8.1195817"><ele>654.0</ele><time>2026-04-26T13:27:20.476Z</time></trkpt><trkpt lat="44.2361145" lon="8.1193717"><ele>653.25</ele><time>2026-04-26T13:27:21.477Z</time></trkpt><trkpt lat="44.2361235" lon="8.1191625"><ele>652.5</ele><time>2026-04-26T13:27:22.479Z</time></trkpt><trkpt lat="44.2361315" lon="8.1189657"><ele>651.75</ele><time>2026-04-26T13:27:23.477Z</time></trkpt><trkpt lat="44.2361393" lon="8.1187788"><ele>651.0</ele><time>2026-04-26T13:27:24.478Z</time></trkpt><trkpt lat="44.2361505" lon="8.1186"><ele>651.0</ele><time>2026-04-26T13:27:25.478Z</time></trkpt><trkpt lat="44.2361683" lon="8.1184335"><ele>651.0</ele><time>2026-04-26T13:27:26.478Z</time></trkpt><trkpt lat="44.2362035" lon="8.118272"><ele>651.0</ele><time>2026-04-26T13:27:27.48Z</time></trkpt><trkpt lat="44.2362562" lon="8.118109"><ele>651.0</ele><time>2026-04-26T13:27:28.479Z</time></trkpt><trkpt lat="44.2363203" lon="8.1179413"><ele>650.5</ele><time>2026-04-26T13:27:29.48Z</time></trkpt><trkpt lat="44.2363832" lon="8.1177747"><ele>650.0</ele><time>2026-04-26T13:27:30.479Z</time></trkpt><trkpt lat="44.2364423" lon="8.1176113"><ele>649.5</ele><time>2026-04-26T13:27:31.478Z</time></trkpt><trkpt lat="44.2364985" lon="8.117452"><ele>649.0</ele><time>2026-04-26T13:27:32.477Z</time></trkpt><trkpt lat="44.2365535" lon="8.1173038"><ele>648.4000000000001</ele><time>2026-04-26T13:27:33.477Z</time></trkpt><trkpt lat="44.2366083" lon="8.1171677"><ele>647.8</ele><time>2026-04-26T13:27:34.475Z</time></trkpt><trkpt lat="44.2366612" lon="8.117042"><ele>647.2</ele><time>2026-04-26T13:27:35.475Z</time></trkpt><trkpt lat="44.236705" lon="8.1169307"><ele>646.5999999999999</ele><time>2026-04-26T13:27:36.476Z</time></trkpt><trkpt lat="44.2367372" lon="8.1168345"><ele>646.0</ele><time>2026-04-26T13:27:37.477Z</time></trkpt><trkpt lat="44.2367622" lon="8.1167365"><ele>646.0</ele><time>2026-04-26T13:27:38.479Z</time></trkpt><trkpt lat="44.2367933" lon="8.116629"><ele>646.0</ele><time>2026-04-26T13:27:39.479Z</time></trkpt><trkpt lat="44.2368338" lon="8.1165175"><ele>646.0</ele><time>2026-04-26T13:27:40.478Z</time></trkpt><trkpt lat="44.2368812" lon="8.1164047"><ele>646.0</ele><time>2026-04-26T13:27:41.477Z</time></trkpt><trkpt lat="44.2369347" lon="8.1163003"><ele>646.0</ele><time>2026-04-26T13:27:42.479Z</time></trkpt><trkpt lat="44.2369862" lon="8.1162112"><ele>646.0</ele><time>2026-04-26T13:27:43.476Z</time></trkpt><trkpt lat="44.2370293" lon="8.116124"><ele>645.4</ele><time>2026-04-26T13:27:44.478Z</time></trkpt><trkpt lat="44.2370772" lon="8.1160277"><ele>644.8</ele><time>2026-04-26T13:27:45.478Z</time></trkpt><trkpt lat="44.2371408" lon="8.1159312"><ele>644.1999999999999</ele><time>2026-04-26T13:27:46.477Z</time></trkpt><trkpt lat="44.2372217" lon="8.1158305"><ele>643.5999999999999</ele><time>2026-04-26T13:27:47.478Z</time></trkpt><trkpt lat="44.237315" lon="8.1157222"><ele>643.0</ele><time>2026-04-26T13:27:48.482Z</time></trkpt><trkpt lat="44.2374103" lon="8.1156082"><ele>642.75</ele><time>2026-04-26T13:27:49.479Z</time></trkpt><trkpt lat="44.237508" lon="8.1154875"><ele>642.5</ele><time>2026-04-26T13:27:50.478Z</time></trkpt><trkpt lat="44.2376088" lon="8.1153605"><ele>642.25</ele><time>2026-04-26T13:27:51.478Z</time></trkpt><trkpt lat="44.237714" lon="8.1152258"><ele>642.0</ele><time>2026-04-26T13:27:52.479Z</time></trkpt><trkpt lat="44.2378228" lon="8.1150857"><ele>642.0</ele><time>2026-04-26T13:27:53.479Z</time></trkpt><trkpt lat="44.2379373" lon="8.1149448"><ele>642.0</ele><time>2026-04-26T13:27:54.481Z</time></trkpt><trkpt lat="44.2380627" lon="8.114804"><ele>642.0</ele><time>2026-04-26T13:27:55.478Z</time></trkpt><trkpt lat="44.2381965" lon="8.1146623"><ele>641.6666666666666</ele><time>2026-04-26T13:27:56.477Z</time></trkpt><trkpt lat="44.2383403" lon="8.1145192"><ele>641.3333333333333</ele><time>2026-04-26T13:27:57.48Z</time></trkpt><trkpt lat="44.2384942" lon="8.1143745"><ele>641.0</ele><time>2026-04-26T13:27:58.478Z</time></trkpt><trkpt lat="44.2386547" lon="8.1142347"><ele>641.0</ele><time>2026-04-26T13:27:59.478Z</time></trkpt><trkpt lat="44.2388215" lon="8.1141002"><ele>641.0</ele><time>2026-04-26T13:28:00.478Z</time></trkpt><trkpt lat="44.2389918" lon="8.1139737"><ele>641.0</ele><time>2026-04-26T13:28:01.476Z</time></trkpt><trkpt lat="44.239165" lon="8.1138582"><ele>641.6666666666666</ele><time>2026-04-26T13:28:02.48Z</time></trkpt><trkpt lat="44.239341" lon="8.1137508"><ele>642.3333333333334</ele><time>2026-04-26T13:28:03.479Z</time></trkpt><trkpt lat="44.2395197" lon="8.1136498"><ele>643.0</ele><time>2026-04-26T13:28:04.478Z</time></trkpt><trkpt lat="44.2397018" lon="8.1135562"><ele>642.6666666666667</ele><time>2026-04-26T13:28:05.478Z</time></trkpt><trkpt lat="44.2398888" lon="8.1134718"><ele>642.3333333333334</ele><time>2026-04-26T13:28:06.484Z</time></trkpt><trkpt lat="44.2400802" lon="8.113397"><ele>642.0</ele><time>2026-04-26T13:28:07.484Z</time></trkpt><trkpt lat="44.2402737" lon="8.1133307"><ele>642.0</ele><time>2026-04-26T13:28:08.481Z</time></trkpt><trkpt lat="44.2404682" lon="8.1132687"><ele>642.0</ele><time>2026-04-26T13:28:09.482Z</time></trkpt><trkpt lat="44.2406632" lon="8.1132068"><ele>642.0</ele><time>2026-04-26T13:28:10.486Z</time></trkpt><trkpt lat="44.240859" lon="8.1131445"><ele>643.0</ele><time>2026-04-26T13:28:11.482Z</time></trkpt><trkpt lat="44.2410555" lon="8.1130803"><ele>644.0</ele><time>2026-04-26T13:28:12.482Z</time></trkpt><trkpt lat="44.2412547" lon="8.1130155"><ele>645.0</ele><time>2026-04-26T13:28:13.481Z</time></trkpt><trkpt lat="44.24145" lon="8.1129537"><ele>644.3333333333334</ele><time>2026-04-26T13:28:14.482Z</time></trkpt><trkpt lat="44.2416487" lon="8.1128918"><ele>643.6666666666667</ele><time>2026-04-26T13:28:15.482Z</time></trkpt><trkpt lat="44.2418508" lon="8.1128293"><ele>643.0</ele><time>2026-04-26T13:28:16.481Z</time></trkpt><trkpt lat="44.242046" lon="8.1127678"><ele>643.0</ele><time>2026-04-26T13:28:17.483Z</time></trkpt><trkpt lat="44.2422312" lon="8.112709"><ele>643.0</ele><time>2026-04-26T13:28:18.484Z</time></trkpt><trkpt lat="44.2424068" lon="8.1126522"><ele>643.0</ele><time>2026-04-26T13:28:19.482Z</time></trkpt><trkpt lat="44.242572" lon="8.1125977"><ele>642.3333333333334</ele><time>2026-04-26T13:28:20.482Z</time></trkpt><trkpt lat="44.2427363" lon="8.1125475"><ele>641.6666666666666</ele><time>2026-04-26T13:28:21.483Z</time></trkpt><trkpt lat="44.2429045" lon="8.1125132"><ele>641.0</ele><time>2026-04-26T13:28:22.481Z</time></trkpt><trkpt lat="44.24308" lon="8.1125053"><ele>641.0</ele><time>2026-04-26T13:28:23.478Z</time></trkpt><trkpt lat="44.2432637" lon="8.1125238"><ele>641.0</ele><time>2026-04-26T13:28:24.478Z</time></trkpt><trkpt lat="44.2434523" lon="8.1125663"><ele>641.0</ele><time>2026-04-26T13:28:25.48Z</time></trkpt><trkpt lat="44.2436467" lon="8.1126282"><ele>641.0</ele><time>2026-04-26T13:28:26.48Z</time></trkpt><trkpt lat="44.2438468" lon="8.1126972"><ele>641.0</ele><time>2026-04-26T13:28:27.48Z</time></trkpt><trkpt lat="44.2440508" lon="8.112766"><ele>641.0</ele><time>2026-04-26T13:28:28.484Z</time></trkpt><trkpt lat="44.2442542" lon="8.1128338"><ele>640.3333333333333</ele><time>2026-04-26T13:28:29.483Z</time></trkpt><trkpt lat="44.244452" lon="8.1129008"><ele>639.6666666666666</ele><time>2026-04-26T13:28:30.483Z</time></trkpt><trkpt lat="44.2446443" lon="8.1129647"><ele>639.0</ele><time>2026-04-26T13:28:31.483Z</time></trkpt><trkpt lat="44.2448315" lon="8.1130272"><ele>638.6666666666666</ele><time>2026-04-26T13:28:32.482Z</time></trkpt><trkpt lat="44.2450113" lon="8.1130875"><ele>638.3333333333333</ele><time>2026-04-26T13:28:33.48Z</time></trkpt><trkpt lat="44.2451803" lon="8.1131458"><ele>638.0</ele><time>2026-04-26T13:28:34.48Z</time></trkpt><trkpt lat="44.2453438" lon="8.1132103"><ele>637.3333333333333</ele><time>2026-04-26T13:28:35.483Z</time></trkpt><trkpt lat="44.2455093" lon="8.113296"><ele>636.6666666666666</ele><time>2026-04-26T13:28:36.481Z</time></trkpt><trkpt lat="44.2456758" lon="8.1134118"><ele>636.0</ele><time>2026-04-26T13:28:37.483Z</time></trkpt><trkpt lat="44.2458467" lon="8.1135537"><ele>636.0</ele><time>2026-04-26T13:28:38.484Z</time></trkpt><trkpt lat="44.2460175" lon="8.113713"><ele>636.0</ele><time>2026-04-26T13:28:39.481Z</time></trkpt><trkpt lat="44.2461962" lon="8.113879"><ele>636.0</ele><time>2026-04-26T13:28:40.48Z</time></trkpt><trkpt lat="44.2463803" lon="8.1140505"><ele>637.0</ele><time>2026-04-26T13:28:41.48Z</time></trkpt><trkpt lat="44.246564" lon="8.1142182"><ele>638.0</ele><time>2026-04-26T13:28:42.48Z</time></trkpt><trkpt lat="44.2467528" lon="8.1143908"><ele>639.0</ele><time>2026-04-26T13:28:43.481Z</time></trkpt><trkpt lat="44.2469407" lon="8.1145638"><ele>639.0</ele><time>2026-04-26T13:28:44.479Z</time></trkpt><trkpt lat="44.2471245" lon="8.1147342"><ele>639.0</ele><time>2026-04-26T13:28:45.478Z</time></trkpt><trkpt lat="44.2473043" lon="8.114903"><ele>639.0</ele><time>2026-04-26T13:28:46.477Z</time></trkpt><trkpt lat="44.2474757" lon="8.1150645"><ele>642.6666666666666</ele><time>2026-04-26T13:28:47.476Z</time></trkpt><trkpt lat="44.2476442" lon="8.115216"><ele>646.3333333333333</ele><time>2026-04-26T13:28:48.477Z</time></trkpt><trkpt lat="44.2478222" lon="8.1153582"><ele>650.0</ele><time>2026-04-26T13:28:49.476Z</time></trkpt><trkpt lat="44.2480023" lon="8.1154805"><ele>658.0</ele><time>2026-04-26T13:28:50.476Z</time></trkpt><trkpt lat="44.248183" lon="8.1155822"><ele>666.0</ele><time>2026-04-26T13:28:51.478Z</time></trkpt><trkpt lat="44.248371" lon="8.1156537"><ele>674.0</ele><time>2026-04-26T13:28:52.48Z</time></trkpt><trkpt lat="44.2485707" lon="8.1156917"><ele>674.0</ele><time>2026-04-26T13:28:53.478Z</time></trkpt><trkpt lat="44.248781" lon="8.1156947"><ele>674.0</ele><time>2026-04-26T13:28:54.478Z</time></trkpt><trkpt lat="44.249" lon="8.1156797"><ele>674.0</ele><time>2026-04-26T13:28:55.477Z</time></trkpt><trkpt lat="44.2492175" lon="8.1156612"><ele>674.3333333333333</ele><time>2026-04-26T13:28:56.477Z</time></trkpt><trkpt lat="44.2494302" lon="8.1156425"><ele>674.6666666666666</ele><time>2026-04-26T13:28:57.477Z</time></trkpt><trkpt lat="44.2496327" lon="8.1156302"><ele>675.0</ele><time>2026-04-26T13:28:58.477Z</time></trkpt><trkpt lat="44.2498233" lon="8.1156297"><ele>675.0</ele><time>2026-04-26T13:28:59.475Z</time></trkpt><trkpt lat="44.2500122" lon="8.1156505"><ele>675.0</ele><time>2026-04-26T13:29:00.478Z</time></trkpt><trkpt lat="44.250203" lon="8.1157012"><ele>675.0</ele><time>2026-04-26T13:29:01.476Z</time></trkpt><trkpt lat="44.2503863" lon="8.1157772"><ele>667.3333333333334</ele><time>2026-04-26T13:29:02.476Z</time></trkpt><trkpt lat="44.2505545" lon="8.1158722"><ele>659.6666666666667</ele><time>2026-04-26T13:29:03.477Z</time></trkpt><trkpt lat="44.2507145" lon="8.1159888"><ele>652.0</ele><time>2026-04-26T13:29:04.477Z</time></trkpt><trkpt lat="44.250872" lon="8.1161273"><ele>652.0</ele><time>2026-04-26T13:29:05.477Z</time></trkpt><trkpt lat="44.2510322" lon="8.1162735"><ele>652.0</ele><time>2026-04-26T13:29:06.476Z</time></trkpt><trkpt lat="44.2511898" lon="8.1164193"><ele>652.0</ele><time>2026-04-26T13:29:07.475Z</time></trkpt><trkpt lat="44.2513383" lon="8.1165635"><ele>650.3333333333334</ele><time>2026-04-26T13:29:08.478Z</time></trkpt><trkpt lat="44.2514795" lon="8.1167013"><ele>648.6666666666666</ele><time>2026-04-26T13:29:09.477Z</time></trkpt><trkpt lat="44.2516197" lon="8.1168333"><ele>647.0</ele><time>2026-04-26T13:29:10.476Z</time></trkpt><trkpt lat="44.2517617" lon="8.1169525"><ele>647.0</ele><time>2026-04-26T13:29:11.473Z</time></trkpt><trkpt lat="44.2519082" lon="8.1170543"><ele>647.0</ele><time>2026-04-26T13:29:12.475Z</time></trkpt><trkpt lat="44.252049" lon="8.117131"><ele>647.0</ele><time>2026-04-26T13:29:13.475Z</time></trkpt><trkpt lat="44.252185" lon="8.1171973"><ele>651.5</ele><time>2026-04-26T13:29:14.476Z</time></trkpt><trkpt lat="44.2523192" lon="8.1172565"><ele>656.0</ele><time>2026-04-26T13:29:15.476Z</time></trkpt><trkpt lat="44.2524553" lon="8.117305"><ele>660.5</ele><time>2026-04-26T13:29:16.475Z</time></trkpt><trkpt lat="44.2525942" lon="8.1173323"><ele>665.0</ele><time>2026-04-26T13:29:17.477Z</time></trkpt><trkpt lat="44.2527367" lon="8.1173308"><ele>665.0</ele><time>2026-04-26T13:29:18.477Z</time></trkpt><trkpt lat="44.2528763" lon="8.1173078"><ele>665.0</ele><time>2026-04-26T13:29:19.476Z</time></trkpt><trkpt lat="44.2530073" lon="8.1172957"><ele>665.0</ele><time>2026-04-26T13:29:20.478Z</time></trkpt><trkpt lat="44.2531308" lon="8.1173063"><ele>665.0</ele><time>2026-04-26T13:29:21.476Z</time></trkpt><trkpt lat="44.253254" lon="8.117343"><ele>659.25</ele><time>2026-04-26T13:29:22.475Z</time></trkpt><trkpt lat="44.2533732" lon="8.117404"><ele>653.5</ele><time>2026-04-26T13:29:23.475Z</time></trkpt><trkpt lat="44.2534927" lon="8.1174717"><ele>647.75</ele><time>2026-04-26T13:29:24.476Z</time></trkpt><trkpt lat="44.2536152" lon="8.1175553"><ele>642.0</ele><time>2026-04-26T13:29:25.474Z</time></trkpt><trkpt lat="44.2537337" lon="8.1176385"><ele>642.0</ele><time>2026-04-26T13:29:26.474Z</time></trkpt><trkpt lat="44.2538497" lon="8.11772"><ele>642.0</ele><time>2026-04-26T13:29:27.475Z</time></trkpt><trkpt lat="44.2539568" lon="8.1177923"><ele>642.0</ele><time>2026-04-26T13:29:28.475Z</time></trkpt><trkpt lat="44.2540582" lon="8.1178692"><ele>642.0</ele><time>2026-04-26T13:29:29.477Z</time></trkpt><trkpt lat="44.2541552" lon="8.1179157"><ele>641.4</ele><time>2026-04-26T13:29:30.476Z</time></trkpt><trkpt lat="44.2542462" lon="8.1179153"><ele>640.8000000000001</ele><time>2026-04-26T13:29:31.479Z</time></trkpt><trkpt lat="44.254326" lon="8.11787"><ele>640.2</ele><time>2026-04-26T13:29:32.477Z</time></trkpt><trkpt lat="44.2543897" lon="8.1177828"><ele>639.6</ele><time>2026-04-26T13:29:33.476Z</time></trkpt><trkpt lat="44.2544248" lon="8.1176648"><ele>639.0</ele><time>2026-04-26T13:29:34.478Z</time></trkpt><trkpt lat="44.254426" lon="8.1175265"><ele>639.5</ele><time>2026-04-26T13:29:35.476Z</time></trkpt><trkpt lat="44.2544003" lon="8.1173768"><ele>640.0</ele><time>2026-04-26T13:29:36.474Z</time></trkpt><trkpt lat="44.2543648" lon="8.1172187"><ele>640.5</ele><time>2026-04-26T13:29:37.474Z</time></trkpt><trkpt lat="44.2543278" lon="8.1170562"><ele>641.0</ele><time>2026-04-26T13:29:38.476Z</time></trkpt><trkpt lat="44.2542933" lon="8.1168905"><ele>641.0</ele><time>2026-04-26T13:29:39.476Z</time></trkpt><trkpt lat="44.2542615" lon="8.1167265"><ele>641.0</ele><time>2026-04-26T13:29:40.477Z</time></trkpt><trkpt lat="44.254239" lon="8.1165625"><ele>641.0</ele><time>2026-04-26T13:29:41.478Z</time></trkpt><trkpt lat="44.2542315" lon="8.116393"><ele>641.0</ele><time>2026-04-26T13:29:42.477Z</time></trkpt><trkpt lat="44.2542467" lon="8.1162242"><ele>642.5</ele><time>2026-04-26T13:29:43.477Z</time></trkpt><trkpt lat="44.2542803" lon="8.1160658"><ele>644.0</ele><time>2026-04-26T13:29:44.477Z</time></trkpt><trkpt lat="44.2543343" lon="8.1159247"><ele>645.5</ele><time>2026-04-26T13:29:45.477Z</time></trkpt><trkpt lat="44.2544093" lon="8.1157998"><ele>647.0</ele><time>2026-04-26T13:29:46.477Z</time></trkpt><trkpt lat="44.2545087" lon="8.1156963"><ele>650.25</ele><time>2026-04-26T13:29:47.475Z</time></trkpt><trkpt lat="44.2546237" lon="8.1156148"><ele>653.5</ele><time>2026-04-26T13:29:48.478Z</time></trkpt><trkpt lat="44.254744" lon="8.1155303"><ele>656.75</ele><time>2026-04-26T13:29:49.476Z</time></trkpt><trkpt lat="44.2548657" lon="8.1154443"><ele>660.0</ele><time>2026-04-26T13:29:50.475Z</time></trkpt><trkpt lat="44.2549788" lon="8.1153657"><ele>652.0</ele><time>2026-04-26T13:29:51.477Z</time></trkpt><trkpt lat="44.2550847" lon="8.115297"><ele>644.0</ele><time>2026-04-26T13:29:52.476Z</time></trkpt><trkpt lat="44.255195" lon="8.1152488"><ele>636.0</ele><time>2026-04-26T13:29:53.474Z</time></trkpt><trkpt lat="44.2553192" lon="8.1152312"><ele>628.0</ele><time>2026-04-26T13:29:54.474Z</time></trkpt><trkpt lat="44.2554483" lon="8.115252"><ele>628.0</ele><time>2026-04-26T13:29:55.473Z</time></trkpt><trkpt lat="44.2555817" lon="8.1152975"><ele>628.0</ele><time>2026-04-26T13:29:56.473Z</time></trkpt><trkpt lat="44.2557075" lon="8.1153458"><ele>628.0</ele><time>2026-04-26T13:29:57.474Z</time></trkpt><trkpt lat="44.2558347" lon="8.1154097"><ele>628.0</ele><time>2026-04-26T13:29:58.476Z</time></trkpt><trkpt lat="44.2559568" lon="8.1154783"><ele>627.75</ele><time>2026-04-26T13:29:59.473Z</time></trkpt><trkpt lat="44.2560788" lon="8.115569"><ele>627.5</ele><time>2026-04-26T13:30:00.474Z</time></trkpt><trkpt lat="44.2562007" lon="8.1156785"><ele>627.25</ele><time>2026-04-26T13:30:01.474Z</time></trkpt><trkpt lat="44.2563163" lon="8.1157977"><ele>627.0</ele><time>2026-04-26T13:30:02.475Z</time></trkpt><trkpt lat="44.2564208" lon="8.1159322"><ele>627.25</ele><time>2026-04-26T13:30:03.477Z</time></trkpt><trkpt lat="44.25651" lon="8.1160808"><ele>627.5</ele><time>2026-04-26T13:30:04.476Z</time></trkpt><trkpt lat="44.2565915" lon="8.116249"><ele>627.75</ele><time>2026-04-26T13:30:05.476Z</time></trkpt><trkpt lat="44.2566683" lon="8.1164217"><ele>628.0</ele><time>2026-04-26T13:30:06.476Z</time></trkpt><trkpt lat="44.2567457" lon="8.1165972"><ele>632.3333333333334</ele><time>2026-04-26T13:30:07.476Z</time></trkpt><trkpt lat="44.256825" lon="8.1167728"><ele>636.6666666666666</ele><time>2026-04-26T13:30:08.475Z</time></trkpt><trkpt lat="44.2569082" lon="8.1169475"><ele>641.0</ele><time>2026-04-26T13:30:09.477Z</time></trkpt><trkpt lat="44.256998" lon="8.1171172"><ele>641.0</ele><time>2026-04-26T13:30:10.477Z</time></trkpt><trkpt lat="44.2570878" lon="8.1172777"><ele>641.0</ele><time>2026-04-26T13:30:11.477Z</time></trkpt><trkpt lat="44.257174" lon="8.1174318"><ele>641.0</ele><time>2026-04-26T13:30:12.477Z</time></trkpt><trkpt lat="44.2572525" lon="8.1175943"><ele>641.0</ele><time>2026-04-26T13:30:13.477Z</time></trkpt><trkpt lat="44.2573147" lon="8.1177732"><ele>638.5</ele><time>2026-04-26T13:30:14.476Z</time></trkpt><trkpt lat="44.2573592" lon="8.1179648"><ele>636.0</ele><time>2026-04-26T13:30:15.476Z</time></trkpt><trkpt lat="44.2573887" lon="8.1181668"><ele>633.5</ele><time>2026-04-26T13:30:16.476Z</time></trkpt><trkpt lat="44.2574168" lon="8.1183698"><ele>631.0</ele><time>2026-04-26T13:30:17.476Z</time></trkpt><trkpt lat="44.2574473" lon="8.118563"><ele>631.0</ele><time>2026-04-26T13:30:18.477Z</time></trkpt><trkpt lat="44.2574898" lon="8.1187457"><ele>631.0</ele><time>2026-04-26T13:30:19.479Z</time></trkpt><trkpt lat="44.2575428" lon="8.1189255"><ele>631.0</ele><time>2026-04-26T13:30:20.479Z</time></trkpt><trkpt lat="44.2576025" lon="8.119098"><ele>631.0</ele><time>2026-04-26T13:30:21.477Z</time></trkpt><trkpt lat="44.2576642" lon="8.119263"><ele>630.75</ele><time>2026-04-26T13:30:22.478Z</time></trkpt><trkpt lat="44.2577263" lon="8.1194268"><ele>630.5</ele><time>2026-04-26T13:30:23.479Z</time></trkpt><trkpt lat="44.2577837" lon="8.1195857"><ele>630.25</ele><time>2026-04-26T13:30:24.477Z</time></trkpt><trkpt lat="44.2578377" lon="8.1197332"><ele>630.0</ele><time>2026-04-26T13:30:25.475Z</time></trkpt><trkpt lat="44.2578882" lon="8.1198633"><ele>629.8</ele><time>2026-04-26T13:30:26.477Z</time></trkpt><trkpt lat="44.2579387" lon="8.1199552"><ele>629.6</ele><time>2026-04-26T13:30:27.476Z</time></trkpt><trkpt lat="44.2580057" lon="8.1200402"><ele>629.4</ele><time>2026-04-26T13:30:28.476Z</time></trkpt><trkpt lat="44.2580982" lon="8.1201142"><ele>629.2</ele><time>2026-04-26T13:30:29.479Z</time></trkpt><trkpt lat="44.258213" lon="8.1201513"><ele>629.0</ele><time>2026-04-26T13:30:30.479Z</time></trkpt><trkpt lat="44.258344" lon="8.120152"><ele>627.0</ele><time>2026-04-26T13:30:31.478Z</time></trkpt><trkpt lat="44.2584767" lon="8.1201312"><ele>625.0</ele><time>2026-04-26T13:30:32.482Z</time></trkpt><trkpt lat="44.2586088" lon="8.1201038"><ele>623.0</ele><time>2026-04-26T13:30:33.48Z</time></trkpt><trkpt lat="44.258733" lon="8.1200807"><ele>621.0</ele><time>2026-04-26T13:30:34.48Z</time></trkpt><trkpt lat="44.2588442" lon="8.1200647"><ele>621.0</ele><time>2026-04-26T13:30:35.477Z</time></trkpt><trkpt lat="44.2589435" lon="8.1200788"><ele>621.0</ele><time>2026-04-26T13:30:36.478Z</time></trkpt><trkpt lat="44.2590302" lon="8.1201483"><ele>621.0</ele><time>2026-04-26T13:30:37.478Z</time></trkpt><trkpt lat="44.259122" lon="8.1202492"><ele>621.0</ele><time>2026-04-26T13:30:38.476Z</time></trkpt><trkpt lat="44.2592342" lon="8.1203377"><ele>621.0</ele><time>2026-04-26T13:30:39.477Z</time></trkpt><trkpt lat="44.2593618" lon="8.1203985"><ele>623.5</ele><time>2026-04-26T13:30:40.476Z</time></trkpt><trkpt lat="44.259493" lon="8.1204177"><ele>626.0</ele><time>2026-04-26T13:30:41.478Z</time></trkpt><trkpt lat="44.2596295" lon="8.1203908"><ele>628.5</ele><time>2026-04-26T13:30:42.478Z</time></trkpt><trkpt lat="44.2597665" lon="8.120316"><ele>631.0</ele><time>2026-04-26T13:30:43.481Z</time></trkpt><trkpt lat="44.2599043" lon="8.1202082"><ele>631.0</ele><time>2026-04-26T13:30:44.478Z</time></trkpt><trkpt lat="44.2600463" lon="8.1200908"><ele>631.0</ele><time>2026-04-26T13:30:45.479Z</time></trkpt><trkpt lat="44.2601923" lon="8.1199733"><ele>631.0</ele><time>2026-04-26T13:30:46.479Z</time></trkpt><trkpt lat="44.2603388" lon="8.1198585"><ele>632.6666666666667</ele><time>2026-04-26T13:30:47.48Z</time></trkpt><trkpt lat="44.2604872" lon="8.1197482"><ele>634.3333333333334</ele><time>2026-04-26T13:30:48.48Z</time></trkpt><trkpt lat="44.2606373" lon="8.1196467"><ele>636.0</ele><time>2026-04-26T13:30:49.477Z</time></trkpt><trkpt lat="44.2607927" lon="8.1195573"><ele>636.0</ele><time>2026-04-26T13:30:50.475Z</time></trkpt><trkpt lat="44.2609518" lon="8.119484"><ele>636.0</ele><time>2026-04-26T13:30:51.475Z</time></trkpt><trkpt lat="44.261109" lon="8.11943"><ele>636.0</ele><time>2026-04-26T13:30:52.475Z</time></trkpt><trkpt lat="44.2612648" lon="8.1193972"><ele>636.0</ele><time>2026-04-26T13:30:53.477Z</time></trkpt><trkpt lat="44.2614195" lon="8.1193823"><ele>636.0</ele><time>2026-04-26T13:30:54.478Z</time></trkpt><trkpt lat="44.2615653" lon="8.1193792"><ele>636.0</ele><time>2026-04-26T13:30:55.477Z</time></trkpt><trkpt lat="44.261707" lon="8.1193737"><ele>636.0</ele><time>2026-04-26T13:30:56.477Z</time></trkpt><trkpt lat="44.2618433" lon="8.1193518"><ele>636.25</ele><time>2026-04-26T13:30:57.478Z</time></trkpt><trkpt lat="44.2619738" lon="8.1193062"><ele>636.5</ele><time>2026-04-26T13:30:58.477Z</time></trkpt><trkpt lat="44.2621003" lon="8.1192407"><ele>636.75</ele><time>2026-04-26T13:30:59.48Z</time></trkpt><trkpt lat="44.2622218" lon="8.1191742"><ele>637.0</ele><time>2026-04-26T13:31:00.476Z</time></trkpt><trkpt lat="44.2623357" lon="8.1191132"><ele>637.8</ele><time>2026-04-26T13:31:01.475Z</time></trkpt><trkpt lat="44.2624447" lon="8.1190635"><ele>638.6</ele><time>2026-04-26T13:31:02.475Z</time></trkpt><trkpt lat="44.2625442" lon="8.1190228"><ele>639.4</ele><time>2026-04-26T13:31:03.477Z</time></trkpt><trkpt lat="44.2626425" lon="8.1189935"><ele>640.1999999999999</ele><time>2026-04-26T13:31:04.475Z</time></trkpt><trkpt lat="44.2627353" lon="8.1189747"><ele>641.0</ele><time>2026-04-26T13:31:05.478Z</time></trkpt><trkpt lat="44.2628158" lon="8.1189608"><ele>641.0</ele><time>2026-04-26T13:31:06.478Z</time></trkpt><trkpt lat="44.2628862" lon="8.1189475"><ele>641.0</ele><time>2026-04-26T13:31:07.475Z</time></trkpt><trkpt lat="44.2629503" lon="8.1189295"><ele>641.0</ele><time>2026-04-26T13:31:08.476Z</time></trkpt><trkpt lat="44.2630687" lon="8.1188845"><ele>641.0</ele><time>2026-04-26T13:31:10.477Z</time></trkpt><trkpt lat="44.2631367" lon="8.1188538"><ele>641.0</ele><time>2026-04-26T13:31:11.473Z</time></trkpt><trkpt lat="44.2632175" lon="8.118811"><ele>641.0</ele><time>2026-04-26T13:31:12.476Z</time></trkpt><trkpt lat="44.263311" lon="8.1187705"><ele>639.1999999999999</ele><time>2026-04-26T13:31:13.475Z</time></trkpt><trkpt lat="44.2633997" lon="8.1187178"><ele>637.4</ele><time>2026-04-26T13:31:14.472Z</time></trkpt><trkpt lat="44.263505" lon="8.1186697"><ele>635.6</ele><time>2026-04-26T13:31:15.474Z</time></trkpt><trkpt lat="44.2636162" lon="8.1186215"><ele>633.8</ele><time>2026-04-26T13:31:16.471Z</time></trkpt><trkpt lat="44.2637265" lon="8.1185648"><ele>632.0</ele><time>2026-04-26T13:31:17.471Z</time></trkpt><trkpt lat="44.2638415" lon="8.1185048"><ele>630.0</ele><time>2026-04-26T13:31:18.473Z</time></trkpt><trkpt lat="44.2639578" lon="8.1184425"><ele>628.0</ele><time>2026-04-26T13:31:19.474Z</time></trkpt><trkpt lat="44.2640732" lon="8.1183847"><ele>626.0</ele><time>2026-04-26T13:31:20.472Z</time></trkpt><trkpt lat="44.2641843" lon="8.1183337"><ele>624.0</ele><time>2026-04-26T13:31:21.475Z</time></trkpt><trkpt lat="44.2643035" lon="8.1182765"><ele>626.75</ele><time>2026-04-26T13:31:22.476Z</time></trkpt><trkpt lat="44.2644283" lon="8.1182275"><ele>629.5</ele><time>2026-04-26T13:31:23.476Z</time></trkpt><trkpt lat="44.2645595" lon="8.1181765"><ele>632.25</ele><time>2026-04-26T13:31:24.477Z</time></trkpt><trkpt lat="44.264696" lon="8.1181202"><ele>635.0</ele><time>2026-04-26T13:31:25.477Z</time></trkpt><trkpt lat="44.2648365" lon="8.1180648"><ele>635.0</ele><time>2026-04-26T13:31:26.476Z</time></trkpt><trkpt lat="44.2649818" lon="8.1180152"><ele>635.0</ele><time>2026-04-26T13:31:27.476Z</time></trkpt><trkpt lat="44.2651293" lon="8.1179727"><ele>635.0</ele><time>2026-04-26T13:31:28.473Z</time></trkpt><trkpt lat="44.2652827" lon="8.1179458"><ele>635.0</ele><time>2026-04-26T13:31:29.475Z</time></trkpt><trkpt lat="44.2654438" lon="8.1179328"><ele>635.0</ele><time>2026-04-26T13:31:30.476Z</time></trkpt><trkpt lat="44.265608" lon="8.117925"><ele>635.0</ele><time>2026-04-26T13:31:31.474Z</time></trkpt><trkpt lat="44.2657645" lon="8.117917"><ele>634.0</ele><time>2026-04-26T13:31:32.474Z</time></trkpt><trkpt lat="44.26591" lon="8.1179018"><ele>633.0</ele><time>2026-04-26T13:31:33.475Z</time></trkpt><trkpt lat="44.2660457" lon="8.1178698"><ele>632.0</ele><time>2026-04-26T13:31:34.476Z</time></trkpt><trkpt lat="44.2661717" lon="8.1178017"><ele>631.0</ele><time>2026-04-26T13:31:35.476Z</time></trkpt><trkpt lat="44.266278" lon="8.1176858"><ele>631.0</ele><time>2026-04-26T13:31:36.476Z</time></trkpt><trkpt lat="44.2663595" lon="8.117526"><ele>631.0</ele><time>2026-04-26T13:31:37.475Z</time></trkpt><trkpt lat="44.2664318" lon="8.1173348"><ele>631.0</ele><time>2026-04-26T13:31:38.475Z</time></trkpt><trkpt lat="44.266503" lon="8.1171413"><ele>629.25</ele><time>2026-04-26T13:31:39.474Z</time></trkpt><trkpt lat="44.2665725" lon="8.1169615"><ele>627.5</ele><time>2026-04-26T13:31:40.475Z</time></trkpt><trkpt lat="44.2666413" lon="8.1167853"><ele>625.75</ele><time>2026-04-26T13:31:41.474Z</time></trkpt><trkpt lat="44.2667133" lon="8.1166033"><ele>624.0</ele><time>2026-04-26T13:31:42.477Z</time></trkpt><trkpt lat="44.2667855" lon="8.1164095"><ele>624.0</ele><time>2026-04-26T13:31:43.476Z</time></trkpt><trkpt lat="44.2668585" lon="8.1162072"><ele>624.0</ele><time>2026-04-26T13:31:44.477Z</time></trkpt><trkpt lat="44.2669363" lon="8.1159972"><ele>624.0</ele><time>2026-04-26T13:31:45.477Z</time></trkpt><trkpt lat="44.2670155" lon="8.1157827"><ele>623.3333333333334</ele><time>2026-04-26T13:31:46.479Z</time></trkpt><trkpt lat="44.2670923" lon="8.1155667"><ele>622.6666666666667</ele><time>2026-04-26T13:31:47.476Z</time></trkpt><trkpt lat="44.2671682" lon="8.1153523"><ele>622.0</ele><time>2026-04-26T13:31:48.48Z</time></trkpt><trkpt lat="44.2672438" lon="8.1151338"><ele>623.6666666666667</ele><time>2026-04-26T13:31:49.477Z</time></trkpt><trkpt lat="44.2673158" lon="8.1149065"><ele>625.3333333333334</ele><time>2026-04-26T13:31:50.475Z</time></trkpt><trkpt lat="44.2673822" lon="8.1146665"><ele>627.0</ele><time>2026-04-26T13:31:51.475Z</time></trkpt><trkpt lat="44.267445" lon="8.1144262"><ele>627.0</ele><time>2026-04-26T13:31:52.475Z</time></trkpt><trkpt lat="44.267507" lon="8.1141795"><ele>627.0</ele><time>2026-04-26T13:31:53.474Z</time></trkpt><trkpt lat="44.2675698" lon="8.1139298"><ele>627.0</ele><time>2026-04-26T13:31:54.475Z</time></trkpt><trkpt lat="44.2676307" lon="8.1136978"><ele>627.3333333333334</ele><time>2026-04-26T13:31:55.475Z</time></trkpt><trkpt lat="44.2676852" lon="8.1134848"><ele>627.6666666666667</ele><time>2026-04-26T13:31:56.474Z</time></trkpt><trkpt lat="44.267732" lon="8.1132787"><ele>628.0</ele><time>2026-04-26T13:31:57.475Z</time></trkpt><trkpt lat="44.2677717" lon="8.1130623"><ele>629.0</ele><time>2026-04-26T13:31:58.476Z</time></trkpt><trkpt lat="44.2678058" lon="8.1128387"><ele>630.0</ele><time>2026-04-26T13:31:59.476Z</time></trkpt><trkpt lat="44.2678392" lon="8.1126322"><ele>631.0</ele><time>2026-04-26T13:32:00.479Z</time></trkpt><trkpt lat="44.2678682" lon="8.1124518"><ele>632.0</ele><time>2026-04-26T13:32:01.479Z</time></trkpt><trkpt lat="44.267881" lon="8.1122888"><ele>633.5</ele><time>2026-04-26T13:32:02.476Z</time></trkpt><trkpt lat="44.2678685" lon="8.112123"><ele>635.0</ele><time>2026-04-26T13:32:03.473Z</time></trkpt><trkpt lat="44.2678302" lon="8.1119445"><ele>636.5</ele><time>2026-04-26T13:32:04.473Z</time></trkpt><trkpt lat="44.2677765" lon="8.1117488"><ele>638.0</ele><time>2026-04-26T13:32:05.474Z</time></trkpt><trkpt lat="44.267718" lon="8.1115477"><ele>639.3333333333333</ele><time>2026-04-26T13:32:06.475Z</time></trkpt><trkpt lat="44.2676552" lon="8.1113338"><ele>640.6666666666666</ele><time>2026-04-26T13:32:07.481Z</time></trkpt><trkpt lat="44.267594" lon="8.1111235"><ele>642.0</ele><time>2026-04-26T13:32:08.479Z</time></trkpt><trkpt lat="44.2675383" lon="8.1109355"><ele>642.0</ele><time>2026-04-26T13:32:09.479Z</time></trkpt><trkpt lat="44.2674902" lon="8.1107705"><ele>642.0</ele><time>2026-04-26T13:32:10.479Z</time></trkpt><trkpt lat="44.2674515" lon="8.1106345"><ele>642.0</ele><time>2026-04-26T13:32:11.477Z</time></trkpt><trkpt lat="44.267432" lon="8.1105313"><ele>642.0</ele><time>2026-04-26T13:32:12.477Z</time></trkpt><trkpt lat="44.2674768" lon="8.1104072"><ele>642.0</ele><time>2026-04-26T13:32:14.477Z</time></trkpt><trkpt lat="44.2675733" lon="8.1104557"><ele>642.0</ele><time>2026-04-26T13:32:16.479Z</time></trkpt><trkpt lat="44.2676202" lon="8.1105485"><ele>642.0</ele><time>2026-04-26T13:32:17.478Z</time></trkpt><trkpt lat="44.2676753" lon="8.1106678"><ele>642.0</ele><time>2026-04-26T13:32:18.479Z</time></trkpt><trkpt lat="44.2677413" lon="8.1107968"><ele>642.0</ele><time>2026-04-26T13:32:19.478Z</time></trkpt><trkpt lat="44.2678153" lon="8.1109437"><ele>642.0</ele><time>2026-04-26T13:32:20.479Z</time></trkpt><trkpt lat="44.2678912" lon="8.1111013"><ele>642.0</ele><time>2026-04-26T13:32:21.479Z</time></trkpt><trkpt lat="44.2679667" lon="8.11126"><ele>642.0</ele><time>2026-04-26T13:32:22.478Z</time></trkpt><trkpt lat="44.2680393" lon="8.1114125"><ele>642.0</ele><time>2026-04-26T13:32:23.478Z</time></trkpt><trkpt lat="44.2681133" lon="8.1115472"><ele>642.0</ele><time>2026-04-26T13:32:24.477Z</time></trkpt><trkpt lat="44.2681885" lon="8.1116555"><ele>647.2</ele><time>2026-04-26T13:32:25.478Z</time></trkpt><trkpt lat="44.2682587" lon="8.1117428"><ele>652.4000000000001</ele><time>2026-04-26T13:32:26.477Z</time></trkpt><trkpt lat="44.26831" lon="8.1118388"><ele>657.5999999999999</ele><time>2026-04-26T13:32:27.477Z</time></trkpt><trkpt lat="44.2683307" lon="8.1119632"><ele>662.8</ele><time>2026-04-26T13:32:28.476Z</time></trkpt><trkpt lat="44.2683342" lon="8.1121123"><ele>668.0</ele><time>2026-04-26T13:32:29.477Z</time></trkpt><trkpt lat="44.2683462" lon="8.1122803"><ele>666.25</ele><time>2026-04-26T13:32:30.477Z</time></trkpt><trkpt lat="44.2683763" lon="8.1124563"><ele>664.5</ele><time>2026-04-26T13:32:31.477Z</time></trkpt><trkpt lat="44.2684188" lon="8.1126363"><ele>662.75</ele><time>2026-04-26T13:32:32.477Z</time></trkpt><trkpt lat="44.2684767" lon="8.112815"><ele>661.0</ele><time>2026-04-26T13:32:33.479Z</time></trkpt><trkpt lat="44.2685563" lon="8.1129998"><ele>661.0</ele><time>2026-04-26T13:32:34.477Z</time></trkpt><trkpt lat="44.2686472" lon="8.1131935"><ele>661.0</ele><time>2026-04-26T13:32:35.476Z</time></trkpt><trkpt lat="44.2687432" lon="8.1133977"><ele>661.0</ele><time>2026-04-26T13:32:36.478Z</time></trkpt><trkpt lat="44.2688437" lon="8.1136047"><ele>664.0</ele><time>2026-04-26T13:32:37.477Z</time></trkpt><trkpt lat="44.2689472" lon="8.1138122"><ele>667.0</ele><time>2026-04-26T13:32:38.477Z</time></trkpt><trkpt lat="44.2690525" lon="8.1140213"><ele>670.0</ele><time>2026-04-26T13:32:39.477Z</time></trkpt><trkpt lat="44.2691445" lon="8.1142133"><ele>670.0</ele><time>2026-04-26T13:32:40.479Z</time></trkpt><trkpt lat="44.2692258" lon="8.1143852"><ele>670.0</ele><time>2026-04-26T13:32:41.478Z</time></trkpt><trkpt lat="44.2693137" lon="8.1145382"><ele>670.0</ele><time>2026-04-26T13:32:42.479Z</time></trkpt><trkpt lat="44.2694232" lon="8.1146705"><ele>670.0</ele><time>2026-04-26T13:32:43.476Z</time></trkpt><trkpt lat="44.2695542" lon="8.1147952"><ele>668.4</ele><time>2026-04-26T13:32:44.476Z</time></trkpt><trkpt lat="44.269674" lon="8.1149113"><ele>666.8</ele><time>2026-04-26T13:32:45.48Z</time></trkpt><trkpt lat="44.26977" lon="8.115022"><ele>665.2</ele><time>2026-04-26T13:32:46.478Z</time></trkpt><trkpt lat="44.2698432" lon="8.1151127"><ele>663.6</ele><time>2026-04-26T13:32:47.477Z</time></trkpt><trkpt lat="44.2699033" lon="8.115162"><ele>662.0</ele><time>2026-04-26T13:32:48.475Z</time></trkpt><trkpt lat="44.2699842" lon="8.1151015"><ele>664.0</ele><time>2026-04-26T13:32:50.477Z</time></trkpt><trkpt lat="44.269941" lon="8.1149252"><ele>666.0</ele><time>2026-04-26T13:32:52.476Z</time></trkpt><trkpt lat="44.2698837" lon="8.1148002"><ele>668.0</ele><time>2026-04-26T13:32:53.475Z</time></trkpt><trkpt lat="44.2698207" lon="8.1146618"><ele>670.0</ele><time>2026-04-26T13:32:54.477Z</time></trkpt><trkpt lat="44.26977" lon="8.1145197"><ele>670.0</ele><time>2026-04-26T13:32:55.475Z</time></trkpt><trkpt lat="44.2697473" lon="8.1143715"><ele>670.0</ele><time>2026-04-26T13:32:56.477Z</time></trkpt><trkpt lat="44.2697518" lon="8.1142"><ele>670.0</ele><time>2026-04-26T13:32:57.477Z</time></trkpt><trkpt lat="44.2697728" lon="8.114007"><ele>670.0</ele><time>2026-04-26T13:32:58.477Z</time></trkpt><trkpt lat="44.269797" lon="8.1138005"><ele>676.5</ele><time>2026-04-26T13:32:59.475Z</time></trkpt><trkpt lat="44.2698203" lon="8.1136053"><ele>683.0</ele><time>2026-04-26T13:33:00.477Z</time></trkpt><trkpt lat="44.2698287" lon="8.1134355"><ele>689.5</ele><time>2026-04-26T13:33:01.476Z</time></trkpt><trkpt lat="44.2698132" lon="8.1132898"><ele>696.0</ele><time>2026-04-26T13:33:02.477Z</time></trkpt><trkpt lat="44.2697612" lon="8.1131663"><ele>696.0</ele><time>2026-04-26T13:33:03.477Z</time></trkpt><trkpt lat="44.2696747" lon="8.1130695"><ele>696.0</ele><time>2026-04-26T13:33:04.478Z</time></trkpt><trkpt lat="44.269558" lon="8.11299"><ele>696.0</ele><time>2026-04-26T13:33:05.476Z</time></trkpt><trkpt lat="44.2694353" lon="8.112911"><ele>696.0</ele><time>2026-04-26T13:33:06.477Z</time></trkpt><trkpt lat="44.2693088" lon="8.1128097"><ele>696.0</ele><time>2026-04-26T13:33:07.477Z</time></trkpt><trkpt lat="44.2691913" lon="8.1127008"><ele>696.0</ele><time>2026-04-26T13:33:08.478Z</time></trkpt><trkpt lat="44.269097" lon="8.1126035"><ele>696.0</ele><time>2026-04-26T13:33:09.478Z</time></trkpt><trkpt lat="44.2690265" lon="8.1125105"><ele>696.0</ele><time>2026-04-26T13:33:10.476Z</time></trkpt><trkpt lat="44.2689858" lon="8.11241"><ele>696.0</ele><time>2026-04-26T13:33:11.477Z</time></trkpt><trkpt lat="44.2689763" lon="8.1122865"><ele>698.8</ele><time>2026-04-26T13:33:12.477Z</time></trkpt><trkpt lat="44.2689913" lon="8.1121448"><ele>701.5999999999999</ele><time>2026-04-26T13:33:13.477Z</time></trkpt><trkpt lat="44.2690185" lon="8.1119897"><ele>704.4</ele><time>2026-04-26T13:33:14.476Z</time></trkpt><trkpt lat="44.2690435" lon="8.1118303"><ele>707.2</ele><time>2026-04-26T13:33:15.475Z</time></trkpt><trkpt lat="44.269039" lon="8.1116738"><ele>710.0</ele><time>2026-04-26T13:33:16.476Z</time></trkpt><trkpt lat="44.2689993" lon="8.1115183"><ele>703.8</ele><time>2026-04-26T13:33:17.474Z</time></trkpt><trkpt lat="44.2689395" lon="8.1113772"><ele>697.6</ele><time>2026-04-26T13:33:18.477Z</time></trkpt><trkpt lat="44.2688943" lon="8.111243"><ele>691.4000000000001</ele><time>2026-04-26T13:33:19.475Z</time></trkpt><trkpt lat="44.2688805" lon="8.1110975"><ele>685.2</ele><time>2026-04-26T13:33:20.477Z</time></trkpt><trkpt lat="44.2688892" lon="8.110937"><ele>679.0</ele><time>2026-04-26T13:33:21.478Z</time></trkpt><trkpt lat="44.268899" lon="8.110797"><ele>680.1666666666667</ele><time>2026-04-26T13:33:22.478Z</time></trkpt><trkpt lat="44.2689068" lon="8.1106955"><ele>681.3333333333334</ele><time>2026-04-26T13:33:23.476Z</time></trkpt><trkpt lat="44.2689622" lon="8.1106027"><ele>682.5</ele><time>2026-04-26T13:33:25.478Z</time></trkpt><trkpt lat="44.2690045" lon="8.1106928"><ele>683.6666666666666</ele><time>2026-04-26T13:33:27.478Z</time></trkpt><trkpt lat="44.2689945" lon="8.1107882"><ele>684.8333333333333</ele><time>2026-04-26T13:33:28.476Z</time></trkpt><trkpt lat="44.2689815" lon="8.1109105"><ele>686.0</ele><time>2026-04-26T13:33:29.477Z</time></trkpt><trkpt lat="44.268976" lon="8.1110438"><ele>690.8</ele><time>2026-04-26T13:33:30.476Z</time></trkpt><trkpt lat="44.2689927" lon="8.1111837"><ele>695.5999999999999</ele><time>2026-04-26T13:33:31.475Z</time></trkpt><trkpt lat="44.2690447" lon="8.1113098"><ele>700.4</ele><time>2026-04-26T13:33:32.475Z</time></trkpt><trkpt lat="44.2691108" lon="8.1114218"><ele>705.2</ele><time>2026-04-26T13:33:33.478Z</time></trkpt><trkpt lat="44.2691613" lon="8.1115383"><ele>710.0</ele><time>2026-04-26T13:33:34.476Z</time></trkpt><trkpt lat="44.269188" lon="8.1116843"><ele>710.0</ele><time>2026-04-26T13:33:35.476Z</time></trkpt><trkpt lat="44.269195" lon="8.1118498"><ele>710.0</ele><time>2026-04-26T13:33:36.478Z</time></trkpt><trkpt lat="44.2692028" lon="8.1120088"><ele>710.0</ele><time>2026-04-26T13:33:37.476Z</time></trkpt><trkpt lat="44.269221" lon="8.112143"><ele>710.0</ele><time>2026-04-26T13:33:38.476Z</time></trkpt><trkpt lat="44.269263" lon="8.1122482"><ele>710.0</ele><time>2026-04-26T13:33:39.476Z</time></trkpt><trkpt lat="44.2693312" lon="8.1123217"><ele>710.0</ele><time>2026-04-26T13:33:40.475Z</time></trkpt><trkpt lat="44.269435" lon="8.1123797"><ele>710.0</ele><time>2026-04-26T13:33:41.474Z</time></trkpt><trkpt lat="44.2695537" lon="8.1124392"><ele>710.0</ele><time>2026-04-26T13:33:42.475Z</time></trkpt><trkpt lat="44.2696577" lon="8.1124937"><ele>710.0</ele><time>2026-04-26T13:33:43.474Z</time></trkpt><trkpt lat="44.269745" lon="8.1125268"><ele>710.0</ele><time>2026-04-26T13:33:44.474Z</time></trkpt><trkpt lat="44.2698293" lon="8.1125357"><ele>712.2</ele><time>2026-04-26T13:33:45.475Z</time></trkpt><trkpt lat="44.2699217" lon="8.1125183"><ele>714.4</ele><time>2026-04-26T13:33:46.475Z</time></trkpt><trkpt lat="44.2700098" lon="8.1124675"><ele>716.5999999999999</ele><time>2026-04-26T13:33:47.475Z</time></trkpt><trkpt lat="44.2700972" lon="8.1123965"><ele>718.8</ele><time>2026-04-26T13:33:48.476Z</time></trkpt><trkpt lat="44.2701798" lon="8.112341"><ele>721.0</ele><time>2026-04-26T13:33:49.477Z</time></trkpt><trkpt lat="44.2702533" lon="8.1123172"><ele>721.0</ele><time>2026-04-26T13:33:50.477Z</time></trkpt><trkpt lat="44.2703195" lon="8.1123378"><ele>721.0</ele><time>2026-04-26T13:33:51.477Z</time></trkpt><trkpt lat="44.2703752" lon="8.1124038"><ele>721.0</ele><time>2026-04-26T13:33:52.477Z</time></trkpt><trkpt lat="44.270413" lon="8.1125158"><ele>721.0</ele><time>2026-04-26T13:33:53.477Z</time></trkpt><trkpt lat="44.2704338" lon="8.112659"><ele>721.0</ele><time>2026-04-26T13:33:54.479Z</time></trkpt><trkpt lat="44.2704498" lon="8.112816"><ele>721.0</ele><time>2026-04-26T13:33:55.477Z</time></trkpt><trkpt lat="44.2704705" lon="8.1129857"><ele>721.0</ele><time>2026-04-26T13:33:56.476Z</time></trkpt><trkpt lat="44.2704938" lon="8.113159"><ele>721.0</ele><time>2026-04-26T13:33:57.476Z</time></trkpt><trkpt lat="44.2705167" lon="8.1133207"><ele>721.0</ele><time>2026-04-26T13:33:58.475Z</time></trkpt><trkpt lat="44.27053" lon="8.1134628"><ele>721.0</ele><time>2026-04-26T13:33:59.476Z</time></trkpt><trkpt lat="44.270545" lon="8.1135755"><ele>721.0</ele><time>2026-04-26T13:34:00.477Z</time></trkpt><trkpt lat="44.2706118" lon="8.1136848"><ele>721.0</ele><time>2026-04-26T13:34:02.475Z</time></trkpt><trkpt lat="44.2706755" lon="8.1135953"><ele>721.0</ele><time>2026-04-26T13:34:04.477Z</time></trkpt><trkpt lat="44.2706678" lon="8.113506"><ele>721.0</ele><time>2026-04-26T13:34:05.475Z</time></trkpt><trkpt lat="44.2706432" lon="8.113396"><ele>721.0</ele><time>2026-04-26T13:34:06.477Z</time></trkpt><trkpt lat="44.270626" lon="8.1132657"><ele>721.0</ele><time>2026-04-26T13:34:07.475Z</time></trkpt><trkpt lat="44.2706233" lon="8.1131285"><ele>721.0</ele><time>2026-04-26T13:34:08.475Z</time></trkpt><trkpt lat="44.2706262" lon="8.1129887"><ele>725.8</ele><time>2026-04-26T13:34:09.476Z</time></trkpt><trkpt lat="44.2706327" lon="8.112847"><ele>730.5999999999999</ele><time>2026-04-26T13:34:10.477Z</time></trkpt><trkpt lat="44.2706362" lon="8.112704"><ele>735.4</ele><time>2026-04-26T13:34:11.479Z</time></trkpt><trkpt lat="44.2706432" lon="8.1125658"><ele>740.2</ele><time>2026-04-26T13:34:12.478Z</time></trkpt><trkpt lat="44.2706492" lon="8.1124323"><ele>745.0</ele><time>2026-04-26T13:34:13.477Z</time></trkpt><trkpt lat="44.2706465" lon="8.1123023"><ele>745.6666666666667</ele><time>2026-04-26T13:34:14.475Z</time></trkpt><trkpt lat="44.2706298" lon="8.1121723"><ele>746.3333333333334</ele><time>2026-04-26T13:34:15.476Z</time></trkpt><trkpt lat="44.2705953" lon="8.1120495"><ele>747.0</ele><time>2026-04-26T13:34:16.475Z</time></trkpt><trkpt lat="44.2705423" lon="8.111956"><ele>747.6666666666666</ele><time>2026-04-26T13:34:17.475Z</time></trkpt><trkpt lat="44.2704727" lon="8.1119072"><ele>748.3333333333333</ele><time>2026-04-26T13:34:18.474Z</time></trkpt><trkpt lat="44.2703918" lon="8.1119047"><ele>749.0</ele><time>2026-04-26T13:34:19.475Z</time></trkpt><trkpt lat="44.2703058" lon="8.111938"><ele>749.0</ele><time>2026-04-26T13:34:20.477Z</time></trkpt><trkpt lat="44.2702142" lon="8.11198"><ele>749.0</ele><time>2026-04-26T13:34:21.478Z</time></trkpt><trkpt lat="44.2701257" lon="8.112013"><ele>749.0</ele><time>2026-04-26T13:34:22.476Z</time></trkpt><trkpt lat="44.2700457" lon="8.112038"><ele>749.0</ele><time>2026-04-26T13:34:23.477Z</time></trkpt><trkpt lat="44.2699748" lon="8.1120485"><ele>749.0</ele><time>2026-04-26T13:34:24.477Z</time></trkpt><trkpt lat="44.2699088" lon="8.1120372"><ele>749.0</ele><time>2026-04-26T13:34:25.475Z</time></trkpt><trkpt lat="44.2698315" lon="8.111921"><ele>743.6666666666666</ele><time>2026-04-26T13:34:27.476Z</time></trkpt><trkpt lat="44.2697722" lon="8.1117688"><ele>738.3333333333333</ele><time>2026-04-26T13:34:29.475Z</time></trkpt><trkpt lat="44.2697395" lon="8.1116893"><ele>733.0</ele><time>2026-04-26T13:34:30.474Z</time></trkpt><trkpt lat="44.2697047" lon="8.1116017"><ele>727.6666666666666</ele><time>2026-04-26T13:34:31.474Z</time></trkpt><trkpt lat="44.2696718" lon="8.1115107"><ele>722.3333333333334</ele><time>2026-04-26T13:34:32.475Z</time></trkpt><trkpt lat="44.269641" lon="8.1114152"><ele>717.0</ele><time>2026-04-26T13:34:33.474Z</time></trkpt><trkpt lat="44.269622" lon="8.1113053"><ele>717.0</ele><time>2026-04-26T13:34:34.476Z</time></trkpt><trkpt lat="44.2696173" lon="8.1111835"><ele>717.0</ele><time>2026-04-26T13:34:35.476Z</time></trkpt><trkpt lat="44.2696213" lon="8.1110612"><ele>717.0</ele><time>2026-04-26T13:34:36.474Z</time></trkpt><trkpt lat="44.2696188" lon="8.1109467"><ele>717.0</ele><time>2026-04-26T13:34:37.473Z</time></trkpt><trkpt lat="44.2696163" lon="8.1108348"><ele>717.0</ele><time>2026-04-26T13:34:38.473Z</time></trkpt><trkpt lat="44.2696232" lon="8.1107223"><ele>717.0</ele><time>2026-04-26T13:34:39.476Z</time></trkpt><trkpt lat="44.2696418" lon="8.1106107"><ele>718.6666666666666</ele><time>2026-04-26T13:34:40.475Z</time></trkpt><trkpt lat="44.2696682" lon="8.1105007"><ele>720.3333333333334</ele><time>2026-04-26T13:34:41.475Z</time></trkpt><trkpt lat="44.2696928" lon="8.1103902"><ele>722.0</ele><time>2026-04-26T13:34:42.476Z</time></trkpt><trkpt lat="44.2697102" lon="8.1102768"><ele>723.6666666666667</ele><time>2026-04-26T13:34:43.476Z</time></trkpt><trkpt lat="44.2697017" lon="8.1101655"><ele>725.3333333333334</ele><time>2026-04-26T13:34:44.475Z</time></trkpt><trkpt lat="44.2696577" lon="8.110057"><ele>727.0</ele><time>2026-04-26T13:34:45.476Z</time></trkpt><trkpt lat="44.2696022" lon="8.1099682"><ele>725.8571428571428</ele><time>2026-04-26T13:34:46.474Z</time></trkpt><trkpt lat="44.269556" lon="8.1098952"><ele>724.7142857142858</ele><time>2026-04-26T13:34:47.475Z</time></trkpt><trkpt lat="44.2695207" lon="8.1098195"><ele>723.5714285714286</ele><time>2026-04-26T13:34:48.475Z</time></trkpt><trkpt lat="44.269501" lon="8.1097332"><ele>722.4285714285713</ele><time>2026-04-26T13:34:49.476Z</time></trkpt><trkpt lat="44.2695483" lon="8.1095807"><ele>721.2857142857142</ele><time>2026-04-26T13:34:51.477Z</time></trkpt><trkpt lat="44.2696037" lon="8.1095283"><ele>720.1428571428571</ele><time>2026-04-26T13:34:52.475Z</time></trkpt><trkpt lat="44.269661" lon="8.1094883"><ele>719.0</ele><time>2026-04-26T13:34:53.476Z</time></trkpt><trkpt lat="44.2697222" lon="8.109447"><ele>723.6666666666666</ele><time>2026-04-26T13:34:54.475Z</time></trkpt><trkpt lat="44.2697908" lon="8.1094033"><ele>728.3333333333333</ele><time>2026-04-26T13:34:55.473Z</time></trkpt><trkpt lat="44.269863" lon="8.1093587"><ele>733.0</ele><time>2026-04-26T13:34:56.474Z</time></trkpt><trkpt lat="44.2699383" lon="8.1093108"><ele>737.6666666666666</ele><time>2026-04-26T13:34:57.475Z</time></trkpt><trkpt lat="44.2700175" lon="8.1092618"><ele>742.3333333333334</ele><time>2026-04-26T13:34:58.476Z</time></trkpt><trkpt lat="44.2700983" lon="8.1092115"><ele>747.0</ele><time>2026-04-26T13:34:59.477Z</time></trkpt><trkpt lat="44.2701807" lon="8.1091617"><ele>747.0</ele><time>2026-04-26T13:35:00.476Z</time></trkpt><trkpt lat="44.2702622" lon="8.1091107"><ele>747.0</ele><time>2026-04-26T13:35:01.477Z</time></trkpt><trkpt lat="44.270337" lon="8.1090603"><ele>747.0</ele><time>2026-04-26T13:35:02.478Z</time></trkpt><trkpt lat="44.2704112" lon="8.1090123"><ele>747.0</ele><time>2026-04-26T13:35:03.476Z</time></trkpt><trkpt lat="44.2704843" lon="8.1089628"><ele>747.0</ele><time>2026-04-26T13:35:04.475Z</time></trkpt><trkpt lat="44.2705602" lon="8.1089168"><ele>747.0</ele><time>2026-04-26T13:35:05.475Z</time></trkpt><trkpt lat="44.2706337" lon="8.1088665"><ele>750.1666666666666</ele><time>2026-04-26T13:35:06.476Z</time></trkpt><trkpt lat="44.2707047" lon="8.1088137"><ele>753.3333333333334</ele><time>2026-04-26T13:35:07.475Z</time></trkpt><trkpt lat="44.2707657" lon="8.1087437"><ele>756.5</ele><time>2026-04-26T13:35:08.476Z</time></trkpt><trkpt lat="44.270813" lon="8.1086557"><ele>759.6666666666667</ele><time>2026-04-26T13:35:09.475Z</time></trkpt><trkpt lat="44.2708477" lon="8.1085508"><ele>762.8333333333334</ele><time>2026-04-26T13:35:10.474Z</time></trkpt><trkpt lat="44.2708718" lon="8.1084335"><ele>766.0</ele><time>2026-04-26T13:35:11.475Z</time></trkpt><trkpt lat="44.2708922" lon="8.1083135"><ele>767.5999999999999</ele><time>2026-04-26T13:35:12.477Z</time></trkpt><trkpt lat="44.2709082" lon="8.1081922"><ele>769.2</ele><time>2026-04-26T13:35:13.477Z</time></trkpt><trkpt lat="44.2709142" lon="8.1080682"><ele>770.8</ele><time>2026-04-26T13:35:14.476Z</time></trkpt><trkpt lat="44.2708935" lon="8.1079398"><ele>772.4000000000001</ele><time>2026-04-26T13:35:15.474Z</time></trkpt><trkpt lat="44.2708418" lon="8.1078128"><ele>774.0</ele><time>2026-04-26T13:35:16.475Z</time></trkpt><trkpt lat="44.2707638" lon="8.1077018"><ele>774.0</ele><time>2026-04-26T13:35:17.477Z</time></trkpt><trkpt lat="44.2706735" lon="8.1076115"><ele>774.0</ele><time>2026-04-26T13:35:18.476Z</time></trkpt><trkpt lat="44.27059" lon="8.1075383"><ele>774.0</ele><time>2026-04-26T13:35:19.473Z</time></trkpt><trkpt lat="44.2705177" lon="8.1074747"><ele>774.0</ele><time>2026-04-26T13:35:20.473Z</time></trkpt><trkpt lat="44.2704608" lon="8.1074148"><ele>774.0</ele><time>2026-04-26T13:35:21.475Z</time></trkpt><trkpt lat="44.2704317" lon="8.1072748"><ele>774.0</ele><time>2026-04-26T13:35:23.477Z</time></trkpt><trkpt lat="44.2705185" lon="8.1071897"><ele>774.0</ele><time>2026-04-26T13:35:25.478Z</time></trkpt><trkpt lat="44.2706448" lon="8.1072645"><ele>774.0</ele><time>2026-04-26T13:35:27.476Z</time></trkpt><trkpt lat="44.2707157" lon="8.1073283"><ele>774.0</ele><time>2026-04-26T13:35:28.475Z</time></trkpt><trkpt lat="44.2707898" lon="8.1073918"><ele>774.0</ele><time>2026-04-26T13:35:29.475Z</time></trkpt><trkpt lat="44.2708572" lon="8.1074523"><ele>774.0</ele><time>2026-04-26T13:35:30.476Z</time></trkpt><trkpt lat="44.2709202" lon="8.1075135"><ele>774.0</ele><time>2026-04-26T13:35:31.476Z</time></trkpt><trkpt lat="44.2709765" lon="8.1075895"><ele>774.0</ele><time>2026-04-26T13:35:32.476Z</time></trkpt><trkpt lat="44.2710223" lon="8.1076833"><ele>774.0</ele><time>2026-04-26T13:35:33.476Z</time></trkpt><trkpt lat="44.2710563" lon="8.1077937"><ele>774.0</ele><time>2026-04-26T13:35:34.476Z</time></trkpt><trkpt lat="44.2710732" lon="8.10791"><ele>774.0</ele><time>2026-04-26T13:35:35.477Z</time></trkpt><trkpt lat="44.271078" lon="8.108034"><ele>774.0</ele><time>2026-04-26T13:35:36.477Z</time></trkpt><trkpt lat="44.2710803" lon="8.1081512"><ele>774.0</ele><time>2026-04-26T13:35:37.476Z</time></trkpt><trkpt lat="44.2710827" lon="8.108258"><ele>774.0</ele><time>2026-04-26T13:35:38.476Z</time></trkpt><trkpt lat="44.2710845" lon="8.1083623"><ele>774.0</ele><time>2026-04-26T13:35:39.477Z</time></trkpt><trkpt lat="44.2710862" lon="8.1084602"><ele>774.0</ele><time>2026-04-26T13:35:40.476Z</time></trkpt><trkpt lat="44.2710923" lon="8.1086392"><ele>774.0</ele><time>2026-04-26T13:35:42.477Z</time></trkpt><trkpt lat="44.2711" lon="8.1087348"><ele>774.4285714285714</ele><time>2026-04-26T13:35:43.475Z</time></trkpt><trkpt lat="44.2711037" lon="8.1088267"><ele>774.8571428571429</ele><time>2026-04-26T13:35:44.473Z</time></trkpt><trkpt lat="44.2710925" lon="8.108915"><ele>775.2857142857142</ele><time>2026-04-26T13:35:45.473Z</time></trkpt><trkpt lat="44.2710608" lon="8.1089995"><ele>775.7142857142858</ele><time>2026-04-26T13:35:46.473Z</time></trkpt><trkpt lat="44.2710045" lon="8.1090693"><ele>776.1428571428571</ele><time>2026-04-26T13:35:47.475Z</time></trkpt><trkpt lat="44.2709348" lon="8.1091257"><ele>776.5714285714286</ele><time>2026-04-26T13:35:48.476Z</time></trkpt><trkpt lat="44.2708622" lon="8.1091805"><ele>777.0</ele><time>2026-04-26T13:35:49.476Z</time></trkpt><trkpt lat="44.2707978" lon="8.1092472"><ele>777.0</ele><time>2026-04-26T13:35:50.475Z</time></trkpt><trkpt lat="44.2707432" lon="8.1093185"><ele>777.0</ele><time>2026-04-26T13:35:51.478Z</time></trkpt><trkpt lat="44.2706682" lon="8.1094333"><ele>777.0</ele><time>2026-04-26T13:35:53.476Z</time></trkpt><trkpt lat="44.2706013" lon="8.1095635"><ele>777.0</ele><time>2026-04-26T13:35:55.475Z</time></trkpt><trkpt lat="44.27056" lon="8.1097378"><ele>777.0</ele><time>2026-04-26T13:35:57.476Z</time></trkpt><trkpt lat="44.2705595" lon="8.1098463"><ele>774.6666666666666</ele><time>2026-04-26T13:35:58.475Z</time></trkpt><trkpt lat="44.2705538" lon="8.1099575"><ele>772.3333333333334</ele><time>2026-04-26T13:35:59.474Z</time></trkpt><trkpt lat="44.2705543" lon="8.1100815"><ele>770.0</ele><time>2026-04-26T13:36:00.476Z</time></trkpt><trkpt lat="44.2705575" lon="8.1101982"><ele>767.6666666666667</ele><time>2026-04-26T13:36:01.476Z</time></trkpt><trkpt lat="44.2705567" lon="8.1103005"><ele>765.3333333333334</ele><time>2026-04-26T13:36:02.475Z</time></trkpt><trkpt lat="44.2705575" lon="8.1104685"><ele>763.0</ele><time>2026-04-26T13:36:04.477Z</time></trkpt><trkpt lat="44.2705762" lon="8.1106002"><ele>768.1666666666667</ele><time>2026-04-26T13:36:06.476Z</time></trkpt><trkpt lat="44.2706478" lon="8.1106372"><ele>773.3333333333334</ele><time>2026-04-26T13:36:08.473Z</time></trkpt><trkpt lat="44.2707135" lon="8.1105212"><ele>778.5</ele><time>2026-04-26T13:36:10.474Z</time></trkpt><trkpt lat="44.2707238" lon="8.1104133"><ele>783.6666666666667</ele><time>2026-04-26T13:36:11.476Z</time></trkpt><trkpt lat="44.2707375" lon="8.1102927"><ele>788.8333333333334</ele><time>2026-04-26T13:36:12.476Z</time></trkpt><trkpt lat="44.2707585" lon="8.110176"><ele>794.0</ele><time>2026-04-26T13:36:13.475Z</time></trkpt><trkpt lat="44.2707845" lon="8.1100592"><ele>794.0</ele><time>2026-04-26T13:36:14.475Z</time></trkpt><trkpt lat="44.2708158" lon="8.1099432"><ele>794.0</ele><time>2026-04-26T13:36:15.477Z</time></trkpt><trkpt lat="44.2708565" lon="8.1098388"><ele>794.0</ele><time>2026-04-26T13:36:16.477Z</time></trkpt><trkpt lat="44.270911" lon="8.1097415"><ele>794.0</ele><time>2026-04-26T13:36:17.476Z</time></trkpt><trkpt lat="44.2709847" lon="8.1096495"><ele>794.0</ele><time>2026-04-26T13:36:18.477Z</time></trkpt><trkpt lat="44.2710782" lon="8.1095813"><ele>796.8000000000001</ele><time>2026-04-26T13:36:19.476Z</time></trkpt><trkpt lat="44.2711787" lon="8.1095267"><ele>799.6</ele><time>2026-04-26T13:36:20.475Z</time></trkpt><trkpt lat="44.2712787" lon="8.109485"><ele>802.4</ele><time>2026-04-26T13:36:21.477Z</time></trkpt><trkpt lat="44.271362" lon="8.1094575"><ele>805.2</ele><time>2026-04-26T13:36:22.475Z</time></trkpt><trkpt lat="44.2714355" lon="8.109422"><ele>808.0</ele><time>2026-04-26T13:36:23.476Z</time></trkpt><trkpt lat="44.2715015" lon="8.109374"><ele>808.0</ele><time>2026-04-26T13:36:24.476Z</time></trkpt><trkpt lat="44.2715555" lon="8.1093063"><ele>808.0</ele><time>2026-04-26T13:36:25.476Z</time></trkpt><trkpt lat="44.2716023" lon="8.1092307"><ele>808.0</ele><time>2026-04-26T13:36:26.475Z</time></trkpt><trkpt lat="44.2716323" lon="8.1091465"><ele>808.0</ele><time>2026-04-26T13:36:27.475Z</time></trkpt><trkpt lat="44.2716392" lon="8.1090353"><ele>808.0</ele><time>2026-04-26T13:36:28.476Z</time></trkpt><trkpt lat="44.2716373" lon="8.1089313"><ele>808.0</ele><time>2026-04-26T13:36:29.476Z</time></trkpt><trkpt lat="44.2716512" lon="8.1088302"><ele>808.0</ele><time>2026-04-26T13:36:30.475Z</time></trkpt><trkpt lat="44.2716825" lon="8.108732"><ele>807.3333333333333</ele><time>2026-04-26T13:36:31.475Z</time></trkpt><trkpt lat="44.271729" lon="8.1086388"><ele>806.6666666666666</ele><time>2026-04-26T13:36:32.474Z</time></trkpt><trkpt lat="44.2717885" lon="8.108556"><ele>806.0</ele><time>2026-04-26T13:36:33.474Z</time></trkpt><trkpt lat="44.2718558" lon="8.1084875"><ele>805.3333333333333</ele><time>2026-04-26T13:36:34.473Z</time></trkpt><trkpt lat="44.2719182" lon="8.108401"><ele>804.6666666666666</ele><time>2026-04-26T13:36:35.473Z</time></trkpt><trkpt lat="44.2719803" lon="8.1083075"><ele>804.0</ele><time>2026-04-26T13:36:36.475Z</time></trkpt><trkpt lat="44.2720403" lon="8.1082223"><ele>803.6</ele><time>2026-04-26T13:36:37.475Z</time></trkpt><trkpt lat="44.272098" lon="8.1081262"><ele>803.2</ele><time>2026-04-26T13:36:38.474Z</time></trkpt><trkpt lat="44.2721518" lon="8.1080235"><ele>802.8000000000001</ele><time>2026-04-26T13:36:39.474Z</time></trkpt><trkpt lat="44.2721958" lon="8.1079047"><ele>802.4000000000001</ele><time>2026-04-26T13:36:40.476Z</time></trkpt><trkpt lat="44.2722237" lon="8.1077788"><ele>802.0</ele><time>2026-04-26T13:36:41.475Z</time></trkpt><trkpt lat="44.2722452" lon="8.1076418"><ele>802.0</ele><time>2026-04-26T13:36:42.475Z</time></trkpt><trkpt lat="44.2722533" lon="8.107489"><ele>802.0</ele><time>2026-04-26T13:36:43.476Z</time></trkpt><trkpt lat="44.272264" lon="8.107328"><ele>802.0</ele><time>2026-04-26T13:36:44.476Z</time></trkpt><trkpt lat="44.2722883" lon="8.1071688"><ele>802.0</ele><time>2026-04-26T13:36:45.475Z</time></trkpt><trkpt lat="44.2723295" lon="8.1070305"><ele>802.0</ele><time>2026-04-26T13:36:46.475Z</time></trkpt><trkpt lat="44.2723677" lon="8.1068992"><ele>805.75</ele><time>2026-04-26T13:36:47.475Z</time></trkpt><trkpt lat="44.2724015" lon="8.1067663"><ele>809.5</ele><time>2026-04-26T13:36:48.476Z</time></trkpt><trkpt lat="44.272421" lon="8.106622"><ele>813.25</ele><time>2026-04-26T13:36:49.475Z</time></trkpt><trkpt lat="44.2724198" lon="8.1064508"><ele>817.0</ele><time>2026-04-26T13:36:50.474Z</time></trkpt><trkpt lat="44.2723982" lon="8.106246"><ele>820.6666666666666</ele><time>2026-04-26T13:36:51.475Z</time></trkpt><trkpt lat="44.2723732" lon="8.1060288"><ele>824.3333333333333</ele><time>2026-04-26T13:36:52.476Z</time></trkpt><trkpt lat="44.2723518" lon="8.1058093"><ele>828.0</ele><time>2026-04-26T13:36:53.475Z</time></trkpt><trkpt lat="44.27234" lon="8.1056143"><ele>830.25</ele><time>2026-04-26T13:36:54.476Z</time></trkpt><trkpt lat="44.272321" lon="8.1054345"><ele>832.5</ele><time>2026-04-26T13:36:55.475Z</time></trkpt><trkpt lat="44.2723062" lon="8.1052688"><ele>834.75</ele><time>2026-04-26T13:36:56.475Z</time></trkpt><trkpt lat="44.2722913" lon="8.1051133"><ele>837.0</ele><time>2026-04-26T13:36:57.475Z</time></trkpt><trkpt lat="44.272277" lon="8.1049637"><ele>835.0</ele><time>2026-04-26T13:36:58.475Z</time></trkpt><trkpt lat="44.2722525" lon="8.1048138"><ele>833.0</ele><time>2026-04-26T13:36:59.477Z</time></trkpt><trkpt lat="44.2722192" lon="8.1046708"><ele>831.0</ele><time>2026-04-26T13:37:00.475Z</time></trkpt><trkpt lat="44.2721698" lon="8.1045362"><ele>829.0</ele><time>2026-04-26T13:37:01.477Z</time></trkpt><trkpt lat="44.2720952" lon="8.104407"><ele>827.0</ele><time>2026-04-26T13:37:02.478Z</time></trkpt><trkpt lat="44.271994" lon="8.1042577"><ele>827.0</ele><time>2026-04-26T13:37:03.477Z</time></trkpt><trkpt lat="44.2718875" lon="8.1040942"><ele>827.0</ele><time>2026-04-26T13:37:04.476Z</time></trkpt><trkpt lat="44.2717957" lon="8.1039458"><ele>827.0</ele><time>2026-04-26T13:37:05.478Z</time></trkpt><trkpt lat="44.2717152" lon="8.1038193"><ele>827.0</ele><time>2026-04-26T13:37:06.477Z</time></trkpt><trkpt lat="44.2716432" lon="8.1037147"><ele>828.2</ele><time>2026-04-26T13:37:07.478Z</time></trkpt><trkpt lat="44.2715782" lon="8.1036205"><ele>829.4000000000001</ele><time>2026-04-26T13:37:08.477Z</time></trkpt><trkpt lat="44.2715212" lon="8.1035395"><ele>830.5999999999999</ele><time>2026-04-26T13:37:09.478Z</time></trkpt><trkpt lat="44.2714742" lon="8.1034648"><ele>831.8</ele><time>2026-04-26T13:37:10.477Z</time></trkpt><trkpt lat="44.2714257" lon="8.1033125"><ele>833.0</ele><time>2026-04-26T13:37:12.478Z</time></trkpt><trkpt lat="44.2714828" lon="8.1031617"><ele>833.0000000000001</ele><time>2026-04-26T13:37:14.478Z</time></trkpt><trkpt lat="44.2716043" lon="8.1031503"><ele>833.0</ele><time>2026-04-26T13:37:16.479Z</time></trkpt><trkpt lat="44.2716593" lon="8.1032127"><ele>833.0</ele><time>2026-04-26T13:37:17.477Z</time></trkpt><trkpt lat="44.2717025" lon="8.1033108"><ele>833.0</ele><time>2026-04-26T13:37:18.478Z</time></trkpt><trkpt lat="44.2717407" lon="8.1034113"><ele>833.0000000000001</ele><time>2026-04-26T13:37:19.478Z</time></trkpt><trkpt lat="44.2717812" lon="8.1035072"><ele>833.0</ele><time>2026-04-26T13:37:20.476Z</time></trkpt><trkpt lat="44.2718328" lon="8.1036045"><ele>833.0</ele><time>2026-04-26T13:37:21.475Z</time></trkpt><trkpt lat="44.271901" lon="8.1037095"><ele>833.0</ele><time>2026-04-26T13:37:22.475Z</time></trkpt><trkpt lat="44.271999" lon="8.1038348"><ele>833.0</ele><time>2026-04-26T13:37:23.475Z</time></trkpt><trkpt lat="44.2721143" lon="8.1039782"><ele>833.0</ele><time>2026-04-26T13:37:24.475Z</time></trkpt><trkpt lat="44.2722362" lon="8.1041262"><ele>836.0</ele><time>2026-04-26T13:37:25.477Z</time></trkpt><trkpt lat="44.2723578" lon="8.1042663"><ele>839.0</ele><time>2026-04-26T13:37:26.477Z</time></trkpt><trkpt lat="44.2724662" lon="8.1043922"><ele>842.0</ele><time>2026-04-26T13:37:27.477Z</time></trkpt><trkpt lat="44.272556" lon="8.1045257"><ele>845.0</ele><time>2026-04-26T13:37:28.478Z</time></trkpt><trkpt lat="44.2726238" lon="8.1047003"><ele>845.0</ele><time>2026-04-26T13:37:29.478Z</time></trkpt><trkpt lat="44.2726788" lon="8.1049078"><ele>845.0</ele><time>2026-04-26T13:37:30.476Z</time></trkpt><trkpt lat="44.2727257" lon="8.105112"><ele>845.0</ele><time>2026-04-26T13:37:31.477Z</time></trkpt><trkpt lat="44.2727657" lon="8.105286"><ele>845.0</ele><time>2026-04-26T13:37:32.479Z</time></trkpt><trkpt lat="44.2728082" lon="8.1054207"><ele>843.4</ele><time>2026-04-26T13:37:33.477Z</time></trkpt><trkpt lat="44.2728525" lon="8.105508"><ele>841.8</ele><time>2026-04-26T13:37:34.477Z</time></trkpt><trkpt lat="44.2729578" lon="8.1055263"><ele>840.2</ele><time>2026-04-26T13:37:36.477Z</time></trkpt><trkpt lat="44.2729762" lon="8.1053627"><ele>838.6</ele><time>2026-04-26T13:37:38.477Z</time></trkpt><trkpt lat="44.2729408" lon="8.1052438"><ele>837.0</ele><time>2026-04-26T13:37:39.479Z</time></trkpt><trkpt lat="44.2729062" lon="8.1050958"><ele>837.0</ele><time>2026-04-26T13:37:40.477Z</time></trkpt><trkpt lat="44.2728897" lon="8.1049238"><ele>837.0</ele><time>2026-04-26T13:37:41.479Z</time></trkpt><trkpt lat="44.272885" lon="8.1047235"><ele>837.0</ele><time>2026-04-26T13:37:42.478Z</time></trkpt><trkpt lat="44.272875" lon="8.1045192"><ele>837.0</ele><time>2026-04-26T13:37:43.478Z</time></trkpt><trkpt lat="44.2728505" lon="8.1043305"><ele>839.0</ele><time>2026-04-26T13:37:44.477Z</time></trkpt><trkpt lat="44.2728027" lon="8.1041672"><ele>841.0</ele><time>2026-04-26T13:37:45.477Z</time></trkpt><trkpt lat="44.2727288" lon="8.1040058"><ele>843.0</ele><time>2026-04-26T13:37:46.476Z</time></trkpt><trkpt lat="44.272634" lon="8.1038443"><ele>845.0</ele><time>2026-04-26T13:37:47.476Z</time></trkpt><trkpt lat="44.2725385" lon="8.1036918"><ele>846.25</ele><time>2026-04-26T13:37:48.477Z</time></trkpt><trkpt lat="44.2724598" lon="8.1035523"><ele>847.5</ele><time>2026-04-26T13:37:49.477Z</time></trkpt><trkpt lat="44.2724125" lon="8.1034132"><ele>848.75</ele><time>2026-04-26T13:37:50.479Z</time></trkpt><trkpt lat="44.272412" lon="8.1032663"><ele>850.0</ele><time>2026-04-26T13:37:51.478Z</time></trkpt><trkpt lat="44.2724517" lon="8.103116"><ele>850.0</ele><time>2026-04-26T13:37:52.478Z</time></trkpt><trkpt lat="44.2725223" lon="8.1029553"><ele>850.0</ele><time>2026-04-26T13:37:53.478Z</time></trkpt><trkpt lat="44.2726015" lon="8.1027852"><ele>850.0</ele><time>2026-04-26T13:37:54.478Z</time></trkpt><trkpt lat="44.272686" lon="8.1026138"><ele>850.0</ele><time>2026-04-26T13:37:55.477Z</time></trkpt><trkpt lat="44.2727592" lon="8.1024617"><ele>847.4</ele><time>2026-04-26T13:37:56.477Z</time></trkpt><trkpt lat="44.2728315" lon="8.1023372"><ele>844.8</ele><time>2026-04-26T13:37:57.476Z</time></trkpt><trkpt lat="44.2729188" lon="8.1022513"><ele>842.2</ele><time>2026-04-26T13:37:58.476Z</time></trkpt><trkpt lat="44.2730197" lon="8.102202"><ele>839.6</ele><time>2026-04-26T13:37:59.477Z</time></trkpt><trkpt lat="44.2730993" lon="8.1021348"><ele>837.0</ele><time>2026-04-26T13:38:00.478Z</time></trkpt><trkpt lat="44.273152" lon="8.1020365"><ele>844.0</ele><time>2026-04-26T13:38:01.477Z</time></trkpt><trkpt lat="44.2731895" lon="8.1018912"><ele>851.0</ele><time>2026-04-26T13:38:02.478Z</time></trkpt><trkpt lat="44.2732308" lon="8.1017107"><ele>858.0</ele><time>2026-04-26T13:38:03.477Z</time></trkpt><trkpt lat="44.2732838" lon="8.1015143"><ele>865.0</ele><time>2026-04-26T13:38:04.477Z</time></trkpt><trkpt lat="44.2733395" lon="8.1013117"><ele>865.0</ele><time>2026-04-26T13:38:05.476Z</time></trkpt><trkpt lat="44.273401" lon="8.1011008"><ele>865.0</ele><time>2026-04-26T13:38:06.477Z</time></trkpt><trkpt lat="44.2734655" lon="8.1008952"><ele>865.0</ele><time>2026-04-26T13:38:07.477Z</time></trkpt><trkpt lat="44.2735152" lon="8.1006962"><ele>862.25</ele><time>2026-04-26T13:38:08.476Z</time></trkpt><trkpt lat="44.27354" lon="8.1005082"><ele>859.5</ele><time>2026-04-26T13:38:09.477Z</time></trkpt><trkpt lat="44.2735603" lon="8.1003413"><ele>856.75</ele><time>2026-04-26T13:38:10.477Z</time></trkpt><trkpt lat="44.2736053" lon="8.1001983"><ele>854.0</ele><time>2026-04-26T13:38:11.476Z</time></trkpt><trkpt lat="44.2736822" lon="8.1000757"><ele>854.0</ele><time>2026-04-26T13:38:12.474Z</time></trkpt><trkpt lat="44.2737875" lon="8.0999573"><ele>854.0</ele><time>2026-04-26T13:38:13.473Z</time></trkpt><trkpt lat="44.2739002" lon="8.0998308"><ele>854.0</ele><time>2026-04-26T13:38:14.474Z</time></trkpt><trkpt lat="44.2740133" lon="8.0996953"><ele>854.0</ele><time>2026-04-26T13:38:15.476Z</time></trkpt><trkpt lat="44.2741255" lon="8.0995653"><ele>857.75</ele><time>2026-04-26T13:38:16.475Z</time></trkpt><trkpt lat="44.274232" lon="8.0994553"><ele>861.5</ele><time>2026-04-26T13:38:17.476Z</time></trkpt><trkpt lat="44.2743423" lon="8.0993652"><ele>865.25</ele><time>2026-04-26T13:38:18.474Z</time></trkpt><trkpt lat="44.2744762" lon="8.0993183"><ele>869.0</ele><time>2026-04-26T13:38:19.474Z</time></trkpt><trkpt lat="44.2746292" lon="8.0992883"><ele>876.3333333333334</ele><time>2026-04-26T13:38:20.475Z</time></trkpt><trkpt lat="44.2747913" lon="8.0992442"><ele>883.6666666666667</ele><time>2026-04-26T13:38:21.475Z</time></trkpt><trkpt lat="44.2749538" lon="8.0991728"><ele>891.0</ele><time>2026-04-26T13:38:22.475Z</time></trkpt><trkpt lat="44.2751178" lon="8.0990842"><ele>886.0</ele><time>2026-04-26T13:38:23.477Z</time></trkpt><trkpt lat="44.2752828" lon="8.0989997"><ele>881.0</ele><time>2026-04-26T13:38:24.476Z</time></trkpt><trkpt lat="44.2754592" lon="8.0989305"><ele>876.0</ele><time>2026-04-26T13:38:25.475Z</time></trkpt><trkpt lat="44.2756395" lon="8.0988748"><ele>876.0</ele><time>2026-04-26T13:38:26.474Z</time></trkpt><trkpt lat="44.275812" lon="8.0988318"><ele>876.0</ele><time>2026-04-26T13:38:27.476Z</time></trkpt><trkpt lat="44.2759782" lon="8.0987897"><ele>876.0</ele><time>2026-04-26T13:38:28.475Z</time></trkpt><trkpt lat="44.2761443" lon="8.0987532"><ele>876.0</ele><time>2026-04-26T13:38:29.474Z</time></trkpt><trkpt lat="44.276297" lon="8.0987308"><ele>876.0</ele><time>2026-04-26T13:38:30.475Z</time></trkpt><trkpt lat="44.2764317" lon="8.0987225"><ele>876.0</ele><time>2026-04-26T13:38:31.475Z</time></trkpt><trkpt lat="44.276558" lon="8.0987085"><ele>876.0</ele><time>2026-04-26T13:38:32.476Z</time></trkpt><trkpt lat="44.2766663" lon="8.0986512"><ele>880.5</ele><time>2026-04-26T13:38:33.477Z</time></trkpt><trkpt lat="44.276761" lon="8.0985477"><ele>885.0</ele><time>2026-04-26T13:38:34.476Z</time></trkpt><trkpt lat="44.2768523" lon="8.0984343"><ele>889.5</ele><time>2026-04-26T13:38:35.474Z</time></trkpt><trkpt lat="44.2769543" lon="8.0983547"><ele>894.0</ele><time>2026-04-26T13:38:36.474Z</time></trkpt><trkpt lat="44.277075" lon="8.098315"><ele>894.0</ele><time>2026-04-26T13:38:37.473Z</time></trkpt><trkpt lat="44.2771977" lon="8.0982933"><ele>894.0000000000001</ele><time>2026-04-26T13:38:38.472Z</time></trkpt><trkpt lat="44.2773013" lon="8.0982618"><ele>894.0000000000001</ele><time>2026-04-26T13:38:39.475Z</time></trkpt><trkpt lat="44.277374" lon="8.0981995"><ele>894.0</ele><time>2026-04-26T13:38:40.476Z</time></trkpt><trkpt lat="44.2774172" lon="8.0981032"><ele>894.0</ele><time>2026-04-26T13:38:41.475Z</time></trkpt><trkpt lat="44.2774402" lon="8.0979633"><ele>895.8000000000001</ele><time>2026-04-26T13:38:42.476Z</time></trkpt><trkpt lat="44.2774623" lon="8.0978205"><ele>897.6000000000001</ele><time>2026-04-26T13:38:43.476Z</time></trkpt><trkpt lat="44.2775028" lon="8.0977003"><ele>899.4</ele><time>2026-04-26T13:38:44.476Z</time></trkpt><trkpt lat="44.2775738" lon="8.0975932"><ele>901.2</ele><time>2026-04-26T13:38:45.477Z</time></trkpt><trkpt lat="44.2776705" lon="8.0974888"><ele>903.0</ele><time>2026-04-26T13:38:46.475Z</time></trkpt><trkpt lat="44.2777767" lon="8.0973872"><ele>903.3333333333333</ele><time>2026-04-26T13:38:47.475Z</time></trkpt><trkpt lat="44.277896" lon="8.097288"><ele>903.6666666666666</ele><time>2026-04-26T13:38:48.476Z</time></trkpt><trkpt lat="44.2780348" lon="8.0972087"><ele>904.0</ele><time>2026-04-26T13:38:49.476Z</time></trkpt><trkpt lat="44.2781913" lon="8.0971388"><ele>904.0</ele><time>2026-04-26T13:38:50.474Z</time></trkpt><trkpt lat="44.278353" lon="8.0970848"><ele>904.0</ele><time>2026-04-26T13:38:51.475Z</time></trkpt><trkpt lat="44.2785072" lon="8.0970185"><ele>904.0</ele><time>2026-04-26T13:38:52.472Z</time></trkpt><trkpt lat="44.278654" lon="8.0969187"><ele>904.0</ele><time>2026-04-26T13:38:53.475Z</time></trkpt><trkpt lat="44.2787855" lon="8.0968063"><ele>904.0</ele><time>2026-04-26T13:38:54.474Z</time></trkpt><trkpt lat="44.2789047" lon="8.0966805"><ele>904.0</ele><time>2026-04-26T13:38:55.474Z</time></trkpt><trkpt lat="44.279025" lon="8.096559"><ele>908.5</ele><time>2026-04-26T13:38:56.475Z</time></trkpt><trkpt lat="44.2791582" lon="8.0964525"><ele>913.0</ele><time>2026-04-26T13:38:57.476Z</time></trkpt><trkpt lat="44.2792962" lon="8.09637"><ele>917.5</ele><time>2026-04-26T13:38:58.476Z</time></trkpt><trkpt lat="44.2794338" lon="8.0963025"><ele>922.0</ele><time>2026-04-26T13:38:59.473Z</time></trkpt><trkpt lat="44.279576" lon="8.0962463"><ele>922.0</ele><time>2026-04-26T13:39:00.472Z</time></trkpt><trkpt lat="44.2797183" lon="8.0961663"><ele>922.0</ele><time>2026-04-26T13:39:01.472Z</time></trkpt><trkpt lat="44.2798432" lon="8.0960565"><ele>922.0</ele><time>2026-04-26T13:39:02.473Z</time></trkpt><trkpt lat="44.2799725" lon="8.0959633"><ele>922.0</ele><time>2026-04-26T13:39:03.475Z</time></trkpt><trkpt lat="44.2801027" lon="8.095883"><ele>924.25</ele><time>2026-04-26T13:39:04.473Z</time></trkpt><trkpt lat="44.2802287" lon="8.0958128"><ele>926.5</ele><time>2026-04-26T13:39:05.476Z</time></trkpt><trkpt lat="44.2803545" lon="8.0957653"><ele>928.75</ele><time>2026-04-26T13:39:06.475Z</time></trkpt><trkpt lat="44.2804925" lon="8.0957405"><ele>931.0</ele><time>2026-04-26T13:39:07.476Z</time></trkpt><trkpt lat="44.2806457" lon="8.0957323"><ele>939.3333333333333</ele><time>2026-04-26T13:39:08.474Z</time></trkpt><trkpt lat="44.280805" lon="8.0957237"><ele>947.6666666666667</ele><time>2026-04-26T13:39:09.475Z</time></trkpt><trkpt lat="44.280969" lon="8.0957175"><ele>956.0</ele><time>2026-04-26T13:39:10.475Z</time></trkpt><trkpt lat="44.2811357" lon="8.095706"><ele>956.0</ele><time>2026-04-26T13:39:11.475Z</time></trkpt><trkpt lat="44.2813068" lon="8.0956903"><ele>956.0</ele><time>2026-04-26T13:39:12.475Z</time></trkpt><trkpt lat="44.2814773" lon="8.0956777"><ele>956.0</ele><time>2026-04-26T13:39:13.476Z</time></trkpt><trkpt lat="44.2816455" lon="8.0956668"><ele>954.3333333333334</ele><time>2026-04-26T13:39:14.475Z</time></trkpt><trkpt lat="44.2818165" lon="8.0956563"><ele>952.6666666666667</ele><time>2026-04-26T13:39:15.476Z</time></trkpt><trkpt lat="44.281984" lon="8.0956433"><ele>951.0</ele><time>2026-04-26T13:39:16.475Z</time></trkpt><trkpt lat="44.2821433" lon="8.0956292"><ele>949.75</ele><time>2026-04-26T13:39:17.475Z</time></trkpt><trkpt lat="44.2822942" lon="8.0956198"><ele>948.5</ele><time>2026-04-26T13:39:18.476Z</time></trkpt><trkpt lat="44.2824385" lon="8.0956265"><ele>947.25</ele><time>2026-04-26T13:39:19.475Z</time></trkpt><trkpt lat="44.2825807" lon="8.0956498"><ele>946.0</ele><time>2026-04-26T13:39:20.477Z</time></trkpt><trkpt lat="44.2827245" lon="8.0956882"><ele>946.0</ele><time>2026-04-26T13:39:21.474Z</time></trkpt><trkpt lat="44.282874" lon="8.0957327"><ele>946.0</ele><time>2026-04-26T13:39:22.477Z</time></trkpt><trkpt lat="44.2830265" lon="8.0957725"><ele>946.0</ele><time>2026-04-26T13:39:23.475Z</time></trkpt><trkpt lat="44.2831803" lon="8.095811"><ele>935.0</ele><time>2026-04-26T13:39:24.473Z</time></trkpt><trkpt lat="44.2833322" lon="8.0958442"><ele>924.0</ele><time>2026-04-26T13:39:25.474Z</time></trkpt><trkpt lat="44.283486" lon="8.0958747"><ele>913.0</ele><time>2026-04-26T13:39:26.474Z</time></trkpt><trkpt lat="44.2836398" lon="8.0958987"><ele>913.0</ele><time>2026-04-26T13:39:27.477Z</time></trkpt><trkpt lat="44.2837882" lon="8.0959207"><ele>913.0</ele><time>2026-04-26T13:39:28.475Z</time></trkpt><trkpt lat="44.2839337" lon="8.0959438"><ele>913.0</ele><time>2026-04-26T13:39:29.475Z</time></trkpt><trkpt lat="44.2840767" lon="8.0959598"><ele>913.0</ele><time>2026-04-26T13:39:30.476Z</time></trkpt><trkpt lat="44.2842128" lon="8.0959627"><ele>913.5</ele><time>2026-04-26T13:39:31.48Z</time></trkpt><trkpt lat="44.284339" lon="8.0959543"><ele>914.0</ele><time>2026-04-26T13:39:32.478Z</time></trkpt><trkpt lat="44.2844585" lon="8.0959427"><ele>914.5</ele><time>2026-04-26T13:39:33.473Z</time></trkpt><trkpt lat="44.2845762" lon="8.0959323"><ele>915.0</ele><time>2026-04-26T13:39:34.477Z</time></trkpt><trkpt lat="44.2846925" lon="8.0959248"><ele>914.5</ele><time>2026-04-26T13:39:35.475Z</time></trkpt><trkpt lat="44.2848085" lon="8.0959173"><ele>914.0</ele><time>2026-04-26T13:39:36.474Z</time></trkpt><trkpt lat="44.2849257" lon="8.0959083"><ele>913.5</ele><time>2026-04-26T13:39:37.475Z</time></trkpt><trkpt lat="44.285048" lon="8.0958973"><ele>913.0</ele><time>2026-04-26T13:39:38.475Z</time></trkpt><trkpt lat="44.2851718" lon="8.0958915"><ele>913.0</ele><time>2026-04-26T13:39:39.476Z</time></trkpt><trkpt lat="44.285297" lon="8.0958945"><ele>913.0</ele><time>2026-04-26T13:39:40.476Z</time></trkpt><trkpt lat="44.2854198" lon="8.095901"><ele>913.0</ele><time>2026-04-26T13:39:41.477Z</time></trkpt><trkpt lat="44.2855382" lon="8.0959088"><ele>913.0</ele><time>2026-04-26T13:39:42.478Z</time></trkpt><trkpt lat="44.2856535" lon="8.0959205"><ele>911.3333333333333</ele><time>2026-04-26T13:39:43.476Z</time></trkpt><trkpt lat="44.2857615" lon="8.0959355"><ele>909.6666666666666</ele><time>2026-04-26T13:39:44.474Z</time></trkpt><trkpt lat="44.2858548" lon="8.0959535"><ele>908.0</ele><time>2026-04-26T13:39:45.476Z</time></trkpt><trkpt lat="44.2859307" lon="8.0959785"><ele>906.3333333333333</ele><time>2026-04-26T13:39:46.476Z</time></trkpt><trkpt lat="44.2859977" lon="8.0960267"><ele>904.6666666666666</ele><time>2026-04-26T13:39:47.477Z</time></trkpt><trkpt lat="44.2860588" lon="8.0960787"><ele>903.0</ele><time>2026-04-26T13:39:48.476Z</time></trkpt><trkpt lat="44.2861667" lon="8.0961463"><ele>903.0</ele><time>2026-04-26T13:39:50.475Z</time></trkpt><trkpt lat="44.2862497" lon="8.0961778"><ele>903.0</ele><time>2026-04-26T13:39:52.478Z</time></trkpt><trkpt lat="44.2863397" lon="8.0961878"><ele>903.0</ele><time>2026-04-26T13:41:48.48Z</time></trkpt><trkpt lat="44.2864182" lon="8.096226"><ele>903.0</ele><time>2026-04-26T13:41:50.479Z</time></trkpt><trkpt lat="44.2865208" lon="8.0962802"><ele>903.0</ele><time>2026-04-26T13:41:52.479Z</time></trkpt><trkpt lat="44.2865792" lon="8.0963135"><ele>903.0</ele><time>2026-04-26T13:41:53.479Z</time></trkpt><trkpt lat="44.286639" lon="8.0963492"><ele>900.5999999999999</ele><time>2026-04-26T13:41:54.479Z</time></trkpt><trkpt lat="44.2866967" lon="8.0963887"><ele>898.1999999999999</ele><time>2026-04-26T13:41:55.479Z</time></trkpt><trkpt lat="44.2867997" lon="8.096477"><ele>895.8</ele><time>2026-04-26T13:41:57.48Z</time></trkpt><trkpt lat="44.286896" lon="8.0965703"><ele>893.4</ele><time>2026-04-26T13:41:59.48Z</time></trkpt><trkpt lat="44.2870085" lon="8.0966573"><ele>891.0</ele><time>2026-04-26T13:42:01.481Z</time></trkpt><trkpt lat="44.2870738" lon="8.0966985"><ele>891.0000000000001</ele><time>2026-04-26T13:42:02.478Z</time></trkpt><trkpt lat="44.287141" lon="8.096737"><ele>891.0</ele><time>2026-04-26T13:42:03.479Z</time></trkpt><trkpt lat="44.2872132" lon="8.0967743"><ele>891.0</ele><time>2026-04-26T13:42:04.478Z</time></trkpt><trkpt lat="44.2872837" lon="8.096802"><ele>891.0</ele><time>2026-04-26T13:42:05.477Z</time></trkpt><trkpt lat="44.2873517" lon="8.0968363"><ele>891.0</ele><time>2026-04-26T13:42:06.478Z</time></trkpt><trkpt lat="44.2874152" lon="8.0968838"><ele>891.0000000000001</ele><time>2026-04-26T13:42:07.478Z</time></trkpt><trkpt lat="44.2874847" lon="8.0969452"><ele>891.0</ele><time>2026-04-26T13:42:08.477Z</time></trkpt><trkpt lat="44.2875543" lon="8.0970168"><ele>889.5999999999999</ele><time>2026-04-26T13:42:09.478Z</time></trkpt><trkpt lat="44.2876263" lon="8.0970905"><ele>888.1999999999999</ele><time>2026-04-26T13:42:10.477Z</time></trkpt><trkpt lat="44.287703" lon="8.097161"><ele>886.8000000000001</ele><time>2026-04-26T13:42:11.479Z</time></trkpt><trkpt lat="44.2877818" lon="8.0972243"><ele>885.4000000000001</ele><time>2026-04-26T13:42:12.481Z</time></trkpt><trkpt lat="44.2878625" lon="8.0972802"><ele>884.0</ele><time>2026-04-26T13:42:13.478Z</time></trkpt><trkpt lat="44.2879445" lon="8.097325"><ele>884.0000000000001</ele><time>2026-04-26T13:42:14.477Z</time></trkpt><trkpt lat="44.2880328" lon="8.0973577"><ele>884.0</ele><time>2026-04-26T13:42:15.477Z</time></trkpt><trkpt lat="44.2881217" lon="8.0973802"><ele>884.0</ele><time>2026-04-26T13:42:16.477Z</time></trkpt><trkpt lat="44.288204" lon="8.0974052"><ele>884.0</ele><time>2026-04-26T13:42:17.477Z</time></trkpt><trkpt lat="44.2882778" lon="8.0974417"><ele>884.0000000000001</ele><time>2026-04-26T13:42:18.476Z</time></trkpt><trkpt lat="44.2883445" lon="8.097489"><ele>884.0</ele><time>2026-04-26T13:42:19.477Z</time></trkpt><trkpt lat="44.2883992" lon="8.0975378"><ele>885.6</ele><time>2026-04-26T13:42:20.477Z</time></trkpt><trkpt lat="44.2885027" lon="8.0976443"><ele>887.2</ele><time>2026-04-26T13:42:22.479Z</time></trkpt><trkpt lat="44.2885563" lon="8.0976958"><ele>888.8000000000001</ele><time>2026-04-26T13:42:23.481Z</time></trkpt><trkpt lat="44.2886653" lon="8.0977797"><ele>890.4000000000001</ele><time>2026-04-26T13:42:25.48Z</time></trkpt><trkpt lat="44.2887272" lon="8.0978207"><ele>892.0</ele><time>2026-04-26T13:42:26.481Z</time></trkpt><trkpt lat="44.2887913" lon="8.0978613"><ele>891.9999999999999</ele><time>2026-04-26T13:42:27.482Z</time></trkpt><trkpt lat="44.2888622" lon="8.097899"><ele>892.0</ele><time>2026-04-26T13:42:28.48Z</time></trkpt><trkpt lat="44.2889388" lon="8.0979318"><ele>892.0</ele><time>2026-04-26T13:42:29.48Z</time></trkpt><trkpt lat="44.2890172" lon="8.0979715"><ele>892.0</ele><time>2026-04-26T13:42:30.48Z</time></trkpt><trkpt lat="44.2890923" lon="8.0980172"><ele>891.9999999999999</ele><time>2026-04-26T13:42:31.48Z</time></trkpt><trkpt lat="44.2891688" lon="8.098067"><ele>892.0</ele><time>2026-04-26T13:42:32.478Z</time></trkpt><trkpt lat="44.2892405" lon="8.0981157"><ele>892.1666666666666</ele><time>2026-04-26T13:42:33.479Z</time></trkpt><trkpt lat="44.2893122" lon="8.0981657"><ele>892.3333333333333</ele><time>2026-04-26T13:42:34.479Z</time></trkpt><trkpt lat="44.2893887" lon="8.0982135"><ele>892.5</ele><time>2026-04-26T13:42:35.478Z</time></trkpt><trkpt lat="44.2894672" lon="8.0982645"><ele>892.6666666666667</ele><time>2026-04-26T13:42:36.479Z</time></trkpt><trkpt lat="44.2895407" lon="8.0983182"><ele>892.8333333333334</ele><time>2026-04-26T13:42:37.478Z</time></trkpt><trkpt lat="44.2896055" lon="8.09837"><ele>893.0</ele><time>2026-04-26T13:42:38.478Z</time></trkpt><trkpt lat="44.2896658" lon="8.0984202"><ele>893.0000000000001</ele><time>2026-04-26T13:42:39.479Z</time></trkpt><trkpt lat="44.2897197" lon="8.0984657"><ele>893.0</ele><time>2026-04-26T13:42:40.477Z</time></trkpt><trkpt lat="44.2898228" lon="8.0985382"><ele>893.0</ele><time>2026-04-26T13:42:42.478Z</time></trkpt><trkpt lat="44.2898985" lon="8.0986048"><ele>893.0</ele><time>2026-04-26T13:42:44.481Z</time></trkpt><trkpt lat="44.2899735" lon="8.0986778"><ele>893.0000000000001</ele><time>2026-04-26T13:42:46.478Z</time></trkpt><trkpt lat="44.2900313" lon="8.098731"><ele>893.0</ele><time>2026-04-26T13:42:47.477Z</time></trkpt><trkpt lat="44.2900987" lon="8.098783"><ele>892.0</ele><time>2026-04-26T13:42:48.479Z</time></trkpt><trkpt lat="44.2901752" lon="8.0988207"><ele>891.0</ele><time>2026-04-26T13:42:49.479Z</time></trkpt><trkpt lat="44.290247" lon="8.0988443"><ele>890.0</ele><time>2026-04-26T13:42:50.477Z</time></trkpt><trkpt lat="44.2903203" lon="8.0988672"><ele>889.0</ele><time>2026-04-26T13:42:51.477Z</time></trkpt><trkpt lat="44.2903885" lon="8.0989005"><ele>888.0</ele><time>2026-04-26T13:42:52.478Z</time></trkpt><trkpt lat="44.2904475" lon="8.0989392"><ele>887.0</ele><time>2026-04-26T13:42:53.478Z</time></trkpt><trkpt lat="44.2905145" lon="8.0989877"><ele>886.0</ele><time>2026-04-26T13:42:54.481Z</time></trkpt><trkpt lat="44.2905748" lon="8.099056"><ele>886.6666666666666</ele><time>2026-04-26T13:42:55.477Z</time></trkpt><trkpt lat="44.2906343" lon="8.0991352"><ele>887.3333333333333</ele><time>2026-04-26T13:42:56.476Z</time></trkpt><trkpt lat="44.2906953" lon="8.0992228"><ele>888.0</ele><time>2026-04-26T13:42:57.478Z</time></trkpt><trkpt lat="44.2907643" lon="8.0992942"><ele>888.6666666666667</ele><time>2026-04-26T13:42:58.477Z</time></trkpt><trkpt lat="44.2908405" lon="8.0993602"><ele>889.3333333333334</ele><time>2026-04-26T13:42:59.476Z</time></trkpt><trkpt lat="44.2909042" lon="8.0994103"><ele>890.0</ele><time>2026-04-26T13:43:00.48Z</time></trkpt><trkpt lat="44.290961" lon="8.099466"><ele>890.0000000000001</ele><time>2026-04-26T13:43:01.476Z</time></trkpt><trkpt lat="44.2910243" lon="8.0995278"><ele>890.0</ele><time>2026-04-26T13:43:02.476Z</time></trkpt><trkpt lat="44.291088" lon="8.0996038"><ele>890.0</ele><time>2026-04-26T13:43:03.477Z</time></trkpt><trkpt lat="44.2911457" lon="8.0997038"><ele>890.0</ele><time>2026-04-26T13:43:04.477Z</time></trkpt><trkpt lat="44.2912088" lon="8.0998063"><ele>890.0000000000001</ele><time>2026-04-26T13:43:05.474Z</time></trkpt><trkpt lat="44.2912817" lon="8.0998998"><ele>890.0</ele><time>2026-04-26T13:43:06.475Z</time></trkpt><trkpt lat="44.291353" lon="8.0999748"><ele>889.0</ele><time>2026-04-26T13:43:07.476Z</time></trkpt><trkpt lat="44.2914295" lon="8.1000448"><ele>888.0</ele><time>2026-04-26T13:43:08.476Z</time></trkpt><trkpt lat="44.2915067" lon="8.100118"><ele>887.0</ele><time>2026-04-26T13:43:09.479Z</time></trkpt><trkpt lat="44.2915843" lon="8.1001767"><ele>886.0</ele><time>2026-04-26T13:43:10.477Z</time></trkpt><trkpt lat="44.2916702" lon="8.1002178"><ele>885.0</ele><time>2026-04-26T13:43:11.477Z</time></trkpt><trkpt lat="44.291763" lon="8.1002558"><ele>885.0</ele><time>2026-04-26T13:43:12.477Z</time></trkpt><trkpt lat="44.291861" lon="8.1003055"><ele>885.0</ele><time>2026-04-26T13:43:13.479Z</time></trkpt><trkpt lat="44.2919577" lon="8.1003535"><ele>885.0</ele><time>2026-04-26T13:43:14.477Z</time></trkpt><trkpt lat="44.2920398" lon="8.1004018"><ele>885.0</ele><time>2026-04-26T13:43:15.477Z</time></trkpt><trkpt lat="44.2921375" lon="8.1004632"><ele>885.0</ele><time>2026-04-26T13:43:16.476Z</time></trkpt><trkpt lat="44.2922412" lon="8.1005103"><ele>886.6</ele><time>2026-04-26T13:43:17.475Z</time></trkpt><trkpt lat="44.2923533" lon="8.1005472"><ele>888.2</ele><time>2026-04-26T13:43:18.476Z</time></trkpt><trkpt lat="44.2924593" lon="8.1005727"><ele>889.8</ele><time>2026-04-26T13:43:19.477Z</time></trkpt><trkpt lat="44.292546" lon="8.1005993"><ele>891.4</ele><time>2026-04-26T13:43:20.475Z</time></trkpt><trkpt lat="44.2926152" lon="8.100636"><ele>893.0</ele><time>2026-04-26T13:43:21.475Z</time></trkpt><trkpt lat="44.2926903" lon="8.10069"><ele>891.8333333333334</ele><time>2026-04-26T13:43:22.476Z</time></trkpt><trkpt lat="44.2927602" lon="8.1007577"><ele>890.6666666666667</ele><time>2026-04-26T13:43:23.473Z</time></trkpt><trkpt lat="44.2928313" lon="8.1008237"><ele>889.5</ele><time>2026-04-26T13:43:24.474Z</time></trkpt><trkpt lat="44.2928997" lon="8.100894"><ele>888.3333333333333</ele><time>2026-04-26T13:43:25.473Z</time></trkpt><trkpt lat="44.2929682" lon="8.1009462"><ele>887.1666666666666</ele><time>2026-04-26T13:43:26.473Z</time></trkpt><trkpt lat="44.2930265" lon="8.1009837"><ele>886.0</ele><time>2026-04-26T13:43:27.475Z</time></trkpt><trkpt lat="44.2930955" lon="8.1010068"><ele>885.9999999999999</ele><time>2026-04-26T13:43:28.474Z</time></trkpt><trkpt lat="44.2931752" lon="8.1010348"><ele>886.0</ele><time>2026-04-26T13:43:29.472Z</time></trkpt><trkpt lat="44.2932715" lon="8.1010563"><ele>886.0</ele><time>2026-04-26T13:43:30.472Z</time></trkpt><trkpt lat="44.2933648" lon="8.1010748"><ele>886.0</ele><time>2026-04-26T13:43:31.472Z</time></trkpt><trkpt lat="44.2934535" lon="8.1010997"><ele>885.9999999999999</ele><time>2026-04-26T13:43:32.471Z</time></trkpt><trkpt lat="44.2935328" lon="8.1011377"><ele>886.0</ele><time>2026-04-26T13:43:33.473Z</time></trkpt><trkpt lat="44.293623" lon="8.1011992"><ele>885.9999999999999</ele><time>2026-04-26T13:43:34.472Z</time></trkpt><trkpt lat="44.2937067" lon="8.1012598"><ele>886.0</ele><time>2026-04-26T13:43:35.472Z</time></trkpt><trkpt lat="44.293795" lon="8.1013093"><ele>886.0</ele><time>2026-04-26T13:43:36.474Z</time></trkpt><trkpt lat="44.2938788" lon="8.1013458"><ele>886.0</ele><time>2026-04-26T13:43:37.473Z</time></trkpt><trkpt lat="44.2939563" lon="8.1013607"><ele>885.9999999999999</ele><time>2026-04-26T13:43:38.475Z</time></trkpt><trkpt lat="44.2940408" lon="8.1013773"><ele>886.0</ele><time>2026-04-26T13:43:39.475Z</time></trkpt><trkpt lat="44.2941177" lon="8.1013947"><ele>886.9999999999999</ele><time>2026-04-26T13:43:40.474Z</time></trkpt><trkpt lat="44.2942007" lon="8.1014313"><ele>888.0</ele><time>2026-04-26T13:43:41.474Z</time></trkpt><trkpt lat="44.2942835" lon="8.1014878"><ele>889.0</ele><time>2026-04-26T13:43:42.475Z</time></trkpt><trkpt lat="44.2943502" lon="8.1015538"><ele>890.0</ele><time>2026-04-26T13:43:43.474Z</time></trkpt><trkpt lat="44.2944317" lon="8.1016243"><ele>890.9999999999999</ele><time>2026-04-26T13:43:44.473Z</time></trkpt><trkpt lat="44.2945048" lon="8.1017018"><ele>892.0</ele><time>2026-04-26T13:43:45.475Z</time></trkpt><trkpt lat="44.2945643" lon="8.1017867"><ele>891.2</ele><time>2026-04-26T13:43:46.475Z</time></trkpt><trkpt lat="44.2946385" lon="8.1018585"><ele>890.4000000000001</ele><time>2026-04-26T13:43:47.474Z</time></trkpt><trkpt lat="44.294711" lon="8.1019377"><ele>889.5999999999999</ele><time>2026-04-26T13:43:48.475Z</time></trkpt><trkpt lat="44.2947978" lon="8.1020407"><ele>888.8</ele><time>2026-04-26T13:43:49.476Z</time></trkpt><trkpt lat="44.2948878" lon="8.1021617"><ele>888.0</ele><time>2026-04-26T13:43:50.475Z</time></trkpt><trkpt lat="44.2949652" lon="8.1022872"><ele>888.0</ele><time>2026-04-26T13:43:51.476Z</time></trkpt><trkpt lat="44.2950367" lon="8.1024065"><ele>888.0</ele><time>2026-04-26T13:43:52.475Z</time></trkpt><trkpt lat="44.2951133" lon="8.1025088"><ele>888.0</ele><time>2026-04-26T13:43:53.471Z</time></trkpt><trkpt lat="44.2951925" lon="8.1025962"><ele>888.0</ele><time>2026-04-26T13:43:54.472Z</time></trkpt><trkpt lat="44.2952818" lon="8.1026775"><ele>888.0</ele><time>2026-04-26T13:43:55.473Z</time></trkpt><trkpt lat="44.2953838" lon="8.1027625"><ele>889.4</ele><time>2026-04-26T13:43:56.476Z</time></trkpt><trkpt lat="44.295478" lon="8.1028572"><ele>890.8</ele><time>2026-04-26T13:43:57.477Z</time></trkpt><trkpt lat="44.2955637" lon="8.102969"><ele>892.2</ele><time>2026-04-26T13:43:58.477Z</time></trkpt><trkpt lat="44.2956473" lon="8.103076"><ele>893.6</ele><time>2026-04-26T13:43:59.476Z</time></trkpt><trkpt lat="44.2957192" lon="8.1031732"><ele>895.0</ele><time>2026-04-26T13:44:00.476Z</time></trkpt><trkpt lat="44.2957882" lon="8.1032648"><ele>892.0</ele><time>2026-04-26T13:44:01.476Z</time></trkpt><trkpt lat="44.2958383" lon="8.1033632"><ele>889.0</ele><time>2026-04-26T13:44:02.476Z</time></trkpt><trkpt lat="44.2958855" lon="8.1034875"><ele>886.0</ele><time>2026-04-26T13:44:03.475Z</time></trkpt><trkpt lat="44.2959477" lon="8.1036085"><ele>883.0</ele><time>2026-04-26T13:44:04.478Z</time></trkpt><trkpt lat="44.2960248" lon="8.1037183"><ele>880.0</ele><time>2026-04-26T13:44:05.476Z</time></trkpt><trkpt lat="44.2961017" lon="8.1038107"><ele>880.0</ele><time>2026-04-26T13:44:06.478Z</time></trkpt><trkpt lat="44.2961793" lon="8.1038907"><ele>880.0</ele><time>2026-04-26T13:44:07.477Z</time></trkpt><trkpt lat="44.2962622" lon="8.1039523"><ele>880.0</ele><time>2026-04-26T13:44:08.478Z</time></trkpt><trkpt lat="44.2963522" lon="8.1039872"><ele>880.0</ele><time>2026-04-26T13:44:09.478Z</time></trkpt><trkpt lat="44.296449" lon="8.1040052"><ele>880.0</ele><time>2026-04-26T13:44:10.478Z</time></trkpt><trkpt lat="44.2965535" lon="8.1040207"><ele>880.8333333333333</ele><time>2026-04-26T13:44:11.477Z</time></trkpt><trkpt lat="44.2966517" lon="8.1040313"><ele>881.6666666666666</ele><time>2026-04-26T13:44:12.478Z</time></trkpt><trkpt lat="44.2967322" lon="8.1040325"><ele>882.5</ele><time>2026-04-26T13:44:13.478Z</time></trkpt><trkpt lat="44.2967997" lon="8.1040347"><ele>883.3333333333333</ele><time>2026-04-26T13:44:14.477Z</time></trkpt><trkpt lat="44.2968753" lon="8.1040728"><ele>884.1666666666666</ele><time>2026-04-26T13:44:16.476Z</time></trkpt><trkpt lat="44.2968843" lon="8.1042"><ele>885.0</ele><time>2026-04-26T13:44:18.476Z</time></trkpt><trkpt lat="44.296857" lon="8.1042815"><ele>885.0</ele><time>2026-04-26T13:44:19.476Z</time></trkpt><trkpt lat="44.2968185" lon="8.1043728"><ele>885.0</ele><time>2026-04-26T13:44:20.475Z</time></trkpt><trkpt lat="44.2967842" lon="8.104481"><ele>885.0</ele><time>2026-04-26T13:44:21.476Z</time></trkpt><trkpt lat="44.2967663" lon="8.104604"><ele>885.0</ele><time>2026-04-26T13:44:22.477Z</time></trkpt><trkpt lat="44.2967608" lon="8.1047313"><ele>885.0</ele><time>2026-04-26T13:44:23.481Z</time></trkpt><trkpt lat="44.2967605" lon="8.104854"><ele>885.0</ele><time>2026-04-26T13:44:24.48Z</time></trkpt><trkpt lat="44.2967737" lon="8.104969"><ele>883.1666666666666</ele><time>2026-04-26T13:44:25.478Z</time></trkpt><trkpt lat="44.2968137" lon="8.1050755"><ele>881.3333333333333</ele><time>2026-04-26T13:44:26.476Z</time></trkpt><trkpt lat="44.2968695" lon="8.1051802"><ele>879.5</ele><time>2026-04-26T13:44:27.478Z</time></trkpt><trkpt lat="44.2969288" lon="8.105255"><ele>877.6666666666666</ele><time>2026-04-26T13:44:28.477Z</time></trkpt><trkpt lat="44.2969888" lon="8.1053402"><ele>875.8333333333333</ele><time>2026-04-26T13:44:29.477Z</time></trkpt><trkpt lat="44.2970433" lon="8.1054172"><ele>874.0</ele><time>2026-04-26T13:44:30.478Z</time></trkpt><trkpt lat="44.297133" lon="8.1055393"><ele>873.9999999999999</ele><time>2026-04-26T13:44:32.477Z</time></trkpt><trkpt lat="44.297191" lon="8.1056002"><ele>874.0</ele><time>2026-04-26T13:44:33.477Z</time></trkpt><trkpt lat="44.2972517" lon="8.1056455"><ele>874.0</ele><time>2026-04-26T13:44:34.478Z</time></trkpt><trkpt lat="44.2973228" lon="8.1056957"><ele>874.0</ele><time>2026-04-26T13:44:35.475Z</time></trkpt><trkpt lat="44.2973983" lon="8.1057498"><ele>873.9999999999999</ele><time>2026-04-26T13:44:36.477Z</time></trkpt><trkpt lat="44.2974702" lon="8.1058103"><ele>874.0</ele><time>2026-04-26T13:44:37.475Z</time></trkpt><trkpt lat="44.2975348" lon="8.1058793"><ele>874.6</ele><time>2026-04-26T13:44:38.476Z</time></trkpt><trkpt lat="44.2975993" lon="8.105934"><ele>875.2</ele><time>2026-04-26T13:44:39.479Z</time></trkpt><trkpt lat="44.2976783" lon="8.1059748"><ele>875.8000000000001</ele><time>2026-04-26T13:44:40.479Z</time></trkpt><trkpt lat="44.2977728" lon="8.1059973"><ele>876.4000000000001</ele><time>2026-04-26T13:44:41.475Z</time></trkpt><trkpt lat="44.2978757" lon="8.1060093"><ele>877.0</ele><time>2026-04-26T13:44:42.473Z</time></trkpt><trkpt lat="44.297966" lon="8.1060263"><ele>876.9999999999999</ele><time>2026-04-26T13:44:43.473Z</time></trkpt><trkpt lat="44.2980387" lon="8.1060273"><ele>877.0</ele><time>2026-04-26T13:44:44.473Z</time></trkpt><trkpt lat="44.2981188" lon="8.1060193"><ele>877.0</ele><time>2026-04-26T13:44:46.473Z</time></trkpt><trkpt lat="44.2981965" lon="8.1060145"><ele>877.0</ele><time>2026-04-26T13:44:50.478Z</time></trkpt><trkpt lat="44.2982827" lon="8.106025"><ele>876.9999999999999</ele><time>2026-04-26T13:44:52.475Z</time></trkpt><trkpt lat="44.298371" lon="8.106072"><ele>877.0</ele><time>2026-04-26T13:44:54.476Z</time></trkpt><trkpt lat="44.2984285" lon="8.1061115"><ele>878.2</ele><time>2026-04-26T13:44:56.477Z</time></trkpt><trkpt lat="44.2985472" lon="8.1061805"><ele>879.4000000000001</ele><time>2026-04-26T13:44:58.474Z</time></trkpt><trkpt lat="44.2986257" lon="8.1062245"><ele>880.5999999999999</ele><time>2026-04-26T13:44:59.476Z</time></trkpt><trkpt lat="44.2986992" lon="8.1062725"><ele>881.8</ele><time>2026-04-26T13:45:00.475Z</time></trkpt><trkpt lat="44.2987685" lon="8.1063342"><ele>883.0</ele><time>2026-04-26T13:45:01.476Z</time></trkpt><trkpt lat="44.2988397" lon="8.1064117"><ele>882.9999999999999</ele><time>2026-04-26T13:45:02.476Z</time></trkpt><trkpt lat="44.2989155" lon="8.1064972"><ele>883.0</ele><time>2026-04-26T13:45:03.475Z</time></trkpt><trkpt lat="44.298984" lon="8.1065703"><ele>883.0</ele><time>2026-04-26T13:45:04.473Z</time></trkpt><trkpt lat="44.2990565" lon="8.1066262"><ele>883.0</ele><time>2026-04-26T13:45:05.473Z</time></trkpt><trkpt lat="44.2991293" lon="8.106664"><ele>882.9999999999999</ele><time>2026-04-26T13:45:06.474Z</time></trkpt><trkpt lat="44.2991915" lon="8.1066793"><ele>883.0</ele><time>2026-04-26T13:45:07.471Z</time></trkpt><trkpt lat="44.2993187" lon="8.1066932"><ele>880.1666666666666</ele><time>2026-04-26T13:45:09.473Z</time></trkpt><trkpt lat="44.2993923" lon="8.1066992"><ele>877.3333333333333</ele><time>2026-04-26T13:45:10.473Z</time></trkpt><trkpt lat="44.2994568" lon="8.106698"><ele>874.5</ele><time>2026-04-26T13:45:11.476Z</time></trkpt><trkpt lat="44.29957" lon="8.1067337"><ele>871.6666666666667</ele><time>2026-04-26T13:45:13.475Z</time></trkpt><trkpt lat="44.2996262" lon="8.1067892"><ele>868.8333333333334</ele><time>2026-04-26T13:45:14.475Z</time></trkpt><trkpt lat="44.2996798" lon="8.106863"><ele>866.0</ele><time>2026-04-26T13:45:15.475Z</time></trkpt><trkpt lat="44.2997328" lon="8.106933"><ele>868.1666666666667</ele><time>2026-04-26T13:45:16.474Z</time></trkpt><trkpt lat="44.299791" lon="8.1069763"><ele>870.3333333333334</ele><time>2026-04-26T13:45:17.476Z</time></trkpt><trkpt lat="44.299873" lon="8.1070115"><ele>872.5</ele><time>2026-04-26T13:45:18.475Z</time></trkpt><trkpt lat="44.2999492" lon="8.107052"><ele>874.6666666666667</ele><time>2026-04-26T13:45:19.474Z</time></trkpt><trkpt lat="44.3000273" lon="8.107078"><ele>876.8333333333334</ele><time>2026-04-26T13:45:20.473Z</time></trkpt><trkpt lat="44.3001067" lon="8.1071198"><ele>879.0</ele><time>2026-04-26T13:45:21.473Z</time></trkpt><trkpt lat="44.30019" lon="8.1071577"><ele>879.0</ele><time>2026-04-26T13:45:22.475Z</time></trkpt><trkpt lat="44.3002763" lon="8.1071758"><ele>879.0</ele><time>2026-04-26T13:45:23.474Z</time></trkpt><trkpt lat="44.3003652" lon="8.1072017"><ele>879.0</ele><time>2026-04-26T13:45:24.475Z</time></trkpt><trkpt lat="44.3004508" lon="8.1072175"><ele>879.0</ele><time>2026-04-26T13:45:25.473Z</time></trkpt><trkpt lat="44.3005345" lon="8.1072473"><ele>879.0</ele><time>2026-04-26T13:45:26.474Z</time></trkpt><trkpt lat="44.3006147" lon="8.1073013"><ele>879.0</ele><time>2026-04-26T13:45:27.473Z</time></trkpt><trkpt lat="44.3006872" lon="8.1073715"><ele>877.0</ele><time>2026-04-26T13:45:28.474Z</time></trkpt><trkpt lat="44.3007463" lon="8.10741"><ele>875.0</ele><time>2026-04-26T13:45:29.474Z</time></trkpt><trkpt lat="44.3008057" lon="8.1074503"><ele>873.0</ele><time>2026-04-26T13:45:30.474Z</time></trkpt><trkpt lat="44.3008923" lon="8.1074817"><ele>871.0</ele><time>2026-04-26T13:45:31.472Z</time></trkpt><trkpt lat="44.3009797" lon="8.1075083"><ele>869.0</ele><time>2026-04-26T13:45:32.474Z</time></trkpt><trkpt lat="44.3010572" lon="8.1075317"><ele>867.0</ele><time>2026-04-26T13:45:33.472Z</time></trkpt><trkpt lat="44.3011402" lon="8.1075108"><ele>867.0</ele><time>2026-04-26T13:45:34.473Z</time></trkpt><trkpt lat="44.3012433" lon="8.1074692"><ele>867.0</ele><time>2026-04-26T13:45:35.473Z</time></trkpt><trkpt lat="44.3013478" lon="8.1074252"><ele>867.0</ele><time>2026-04-26T13:45:36.474Z</time></trkpt><trkpt lat="44.3014442" lon="8.1073893"><ele>867.0</ele><time>2026-04-26T13:45:37.473Z</time></trkpt><trkpt lat="44.3015352" lon="8.1073662"><ele>867.0</ele><time>2026-04-26T13:45:38.475Z</time></trkpt><trkpt lat="44.3016285" lon="8.1073533"><ele>867.0</ele><time>2026-04-26T13:45:39.475Z</time></trkpt><trkpt lat="44.3017137" lon="8.107367"><ele>867.0</ele><time>2026-04-26T13:45:40.476Z</time></trkpt><trkpt lat="44.3017945" lon="8.1074032"><ele>867.0</ele><time>2026-04-26T13:45:41.474Z</time></trkpt><trkpt lat="44.3018778" lon="8.1074503"><ele>867.0</ele><time>2026-04-26T13:45:42.475Z</time></trkpt><trkpt lat="44.3019492" lon="8.107512"><ele>867.0</ele><time>2026-04-26T13:45:43.475Z</time></trkpt><trkpt lat="44.302023" lon="8.1076185"><ele>867.0</ele><time>2026-04-26T13:45:44.474Z</time></trkpt><trkpt lat="44.3020743" lon="8.1077373"><ele>867.0</ele><time>2026-04-26T13:45:45.477Z</time></trkpt><trkpt lat="44.3021425" lon="8.1078713"><ele>867.0</ele><time>2026-04-26T13:45:46.476Z</time></trkpt><trkpt lat="44.3022068" lon="8.108009"><ele>867.0</ele><time>2026-04-26T13:45:47.476Z</time></trkpt><trkpt lat="44.3022815" lon="8.1081455"><ele>864.0</ele><time>2026-04-26T13:45:48.476Z</time></trkpt><trkpt lat="44.3023615" lon="8.1082672"><ele>861.0</ele><time>2026-04-26T13:45:49.477Z</time></trkpt><trkpt lat="44.3024355" lon="8.1083675"><ele>858.0</ele><time>2026-04-26T13:45:50.476Z</time></trkpt><trkpt lat="44.3025052" lon="8.1084565"><ele>855.0</ele><time>2026-04-26T13:45:51.477Z</time></trkpt><trkpt lat="44.3025792" lon="8.1085345"><ele>852.0</ele><time>2026-04-26T13:45:52.477Z</time></trkpt><trkpt lat="44.3026593" lon="8.1085997"><ele>852.0</ele><time>2026-04-26T13:45:53.475Z</time></trkpt><trkpt lat="44.3027463" lon="8.1086482"><ele>852.0</ele><time>2026-04-26T13:45:54.476Z</time></trkpt><trkpt lat="44.302839" lon="8.1086743"><ele>852.0</ele><time>2026-04-26T13:45:55.476Z</time></trkpt><trkpt lat="44.3029437" lon="8.1086653"><ele>852.0</ele><time>2026-04-26T13:45:56.473Z</time></trkpt><trkpt lat="44.3030492" lon="8.108635"><ele>852.0</ele><time>2026-04-26T13:45:57.476Z</time></trkpt><trkpt lat="44.3031612" lon="8.1086092"><ele>853.1666666666666</ele><time>2026-04-26T13:45:58.477Z</time></trkpt><trkpt lat="44.3032663" lon="8.1085917"><ele>854.3333333333333</ele><time>2026-04-26T13:45:59.474Z</time></trkpt><trkpt lat="44.3033625" lon="8.1085762"><ele>855.5</ele><time>2026-04-26T13:46:00.479Z</time></trkpt><trkpt lat="44.3034493" lon="8.1085585"><ele>856.6666666666666</ele><time>2026-04-26T13:46:01.475Z</time></trkpt><trkpt lat="44.3035308" lon="8.1085387"><ele>857.8333333333333</ele><time>2026-04-26T13:46:02.479Z</time></trkpt><trkpt lat="44.3035952" lon="8.1085205"><ele>859.0</ele><time>2026-04-26T13:46:03.479Z</time></trkpt><trkpt lat="44.3036633" lon="8.1084885"><ele>858.9999999999999</ele><time>2026-04-26T13:46:04.476Z</time></trkpt><trkpt lat="44.303734" lon="8.1084422"><ele>859.0</ele><time>2026-04-26T13:46:05.478Z</time></trkpt><trkpt lat="44.3037987" lon="8.1083943"><ele>859.0</ele><time>2026-04-26T13:46:06.479Z</time></trkpt><trkpt lat="44.3038672" lon="8.1083453"><ele>859.0</ele><time>2026-04-26T13:46:07.477Z</time></trkpt><trkpt lat="44.3039478" lon="8.1083102"><ele>858.9999999999999</ele><time>2026-04-26T13:46:08.478Z</time></trkpt><trkpt lat="44.3040307" lon="8.108297"><ele>859.0</ele><time>2026-04-26T13:46:09.478Z</time></trkpt><trkpt lat="44.3041028" lon="8.1083042"><ele>858.2857142857142</ele><time>2026-04-26T13:46:10.477Z</time></trkpt><trkpt lat="44.3041683" lon="8.1083078"><ele>857.5714285714286</ele><time>2026-04-26T13:46:11.476Z</time></trkpt><trkpt lat="44.3042455" lon="8.1083062"><ele>856.8571428571429</ele><time>2026-04-26T13:46:12.477Z</time></trkpt><trkpt lat="44.3043253" lon="8.1082962"><ele>856.1428571428571</ele><time>2026-04-26T13:46:13.477Z</time></trkpt><trkpt lat="44.3043973" lon="8.108268"><ele>855.4285714285714</ele><time>2026-04-26T13:46:14.476Z</time></trkpt><trkpt lat="44.304461" lon="8.1082308"><ele>854.7142857142857</ele><time>2026-04-26T13:46:15.476Z</time></trkpt><trkpt lat="44.3045213" lon="8.1081935"><ele>854.0</ele><time>2026-04-26T13:46:16.477Z</time></trkpt><trkpt lat="44.3045932" lon="8.1081372"><ele>856.0000000000001</ele><time>2026-04-26T13:46:17.476Z</time></trkpt><trkpt lat="44.3046543" lon="8.108087"><ele>858.0</ele><time>2026-04-26T13:46:18.476Z</time></trkpt><trkpt lat="44.3047115" lon="8.1080365"><ele>860.0</ele><time>2026-04-26T13:46:19.475Z</time></trkpt><trkpt lat="44.3047872" lon="8.1079937"><ele>862.0</ele><time>2026-04-26T13:46:20.474Z</time></trkpt><trkpt lat="44.3048562" lon="8.1079523"><ele>864.0000000000001</ele><time>2026-04-26T13:46:21.474Z</time></trkpt><trkpt lat="44.3049213" lon="8.1079157"><ele>866.0</ele><time>2026-04-26T13:46:22.473Z</time></trkpt><trkpt lat="44.3050018" lon="8.1078688"><ele>866.0000000000001</ele><time>2026-04-26T13:46:23.472Z</time></trkpt><trkpt lat="44.3050618" lon="8.1078352"><ele>866.0</ele><time>2026-04-26T13:46:24.475Z</time></trkpt><trkpt lat="44.3051245" lon="8.1078205"><ele>866.0</ele><time>2026-04-26T13:46:25.475Z</time></trkpt><trkpt lat="44.3052498" lon="8.1078472"><ele>866.0</ele><time>2026-04-26T13:46:27.474Z</time></trkpt><trkpt lat="44.3053253" lon="8.1078653"><ele>866.0000000000001</ele><time>2026-04-26T13:46:28.474Z</time></trkpt><trkpt lat="44.3054055" lon="8.1078818"><ele>866.0</ele><time>2026-04-26T13:46:29.475Z</time></trkpt><trkpt lat="44.3055037" lon="8.1079043"><ele>865.0</ele><time>2026-04-26T13:46:30.474Z</time></trkpt><trkpt lat="44.3056002" lon="8.1079012"><ele>863.9999999999999</ele><time>2026-04-26T13:46:31.475Z</time></trkpt><trkpt lat="44.3056853" lon="8.1078927"><ele>862.9999999999999</ele><time>2026-04-26T13:46:32.475Z</time></trkpt><trkpt lat="44.3057595" lon="8.107888"><ele>862.0</ele><time>2026-04-26T13:46:33.474Z</time></trkpt><trkpt lat="44.3058752" lon="8.1078437"><ele>861.0</ele><time>2026-04-26T13:46:35.473Z</time></trkpt><trkpt lat="44.3059493" lon="8.1078498"><ele>861.0</ele><time>2026-04-26T13:46:36.476Z</time></trkpt><trkpt lat="44.306016" lon="8.1078835"><ele>861.0</ele><time>2026-04-26T13:46:37.475Z</time></trkpt><trkpt lat="44.3060895" lon="8.10791"><ele>861.0</ele><time>2026-04-26T13:46:38.475Z</time></trkpt><trkpt lat="44.306159" lon="8.1079278"><ele>861.0</ele><time>2026-04-26T13:46:39.475Z</time></trkpt><trkpt lat="44.3062288" lon="8.1079355"><ele>861.0</ele><time>2026-04-26T13:46:40.473Z</time></trkpt><trkpt lat="44.3063235" lon="8.1079312"><ele>861.0</ele><time>2026-04-26T13:46:41.473Z</time></trkpt><trkpt lat="44.306413" lon="8.1079095"><ele>861.8333333333334</ele><time>2026-04-26T13:46:42.474Z</time></trkpt><trkpt lat="44.3064817" lon="8.10789"><ele>862.6666666666667</ele><time>2026-04-26T13:46:43.475Z</time></trkpt><trkpt lat="44.3065542" lon="8.1078648"><ele>863.5</ele><time>2026-04-26T13:46:44.473Z</time></trkpt><trkpt lat="44.3066147" lon="8.107823"><ele>864.3333333333334</ele><time>2026-04-26T13:46:45.472Z</time></trkpt><trkpt lat="44.306686" lon="8.1077853"><ele>865.1666666666667</ele><time>2026-04-26T13:46:46.472Z</time></trkpt><trkpt lat="44.3067617" lon="8.1077868"><ele>866.0</ele><time>2026-04-26T13:46:47.473Z</time></trkpt><trkpt lat="44.306856" lon="8.1078038"><ele>866.0</ele><time>2026-04-26T13:46:48.474Z</time></trkpt><trkpt lat="44.3069517" lon="8.107852"><ele>865.9999999999999</ele><time>2026-04-26T13:46:49.474Z</time></trkpt><trkpt lat="44.307034" lon="8.1079017"><ele>865.9999999999999</ele><time>2026-04-26T13:46:50.474Z</time></trkpt><trkpt lat="44.3071052" lon="8.1079448"><ele>866.0</ele><time>2026-04-26T13:46:51.475Z</time></trkpt><trkpt lat="44.3072297" lon="8.107966"><ele>866.0</ele><time>2026-04-26T13:46:53.473Z</time></trkpt><trkpt lat="44.3073208" lon="8.1079873"><ele>867.4</ele><time>2026-04-26T13:46:54.475Z</time></trkpt><trkpt lat="44.3074" lon="8.1079803"><ele>868.8</ele><time>2026-04-26T13:46:55.476Z</time></trkpt><trkpt lat="44.3074818" lon="8.1079632"><ele>870.1999999999999</ele><time>2026-04-26T13:46:56.473Z</time></trkpt><trkpt lat="44.3075853" lon="8.1079253"><ele>871.5999999999999</ele><time>2026-04-26T13:46:57.476Z</time></trkpt><trkpt lat="44.3076882" lon="8.107891"><ele>873.0</ele><time>2026-04-26T13:46:58.473Z</time></trkpt><trkpt lat="44.3077863" lon="8.1078568"><ele>873.0</ele><time>2026-04-26T13:46:59.473Z</time></trkpt><trkpt lat="44.3078937" lon="8.1078238"><ele>873.0</ele><time>2026-04-26T13:47:00.474Z</time></trkpt><trkpt lat="44.3079842" lon="8.107794"><ele>873.0</ele><time>2026-04-26T13:47:01.474Z</time></trkpt><trkpt lat="44.308092" lon="8.1077668"><ele>873.0</ele><time>2026-04-26T13:47:02.475Z</time></trkpt><trkpt lat="44.3081965" lon="8.107736"><ele>873.0</ele><time>2026-04-26T13:47:03.474Z</time></trkpt><trkpt lat="44.3083078" lon="8.1077203"><ele>873.8</ele><time>2026-04-26T13:47:04.472Z</time></trkpt><trkpt lat="44.3083947" lon="8.1077095"><ele>874.5999999999999</ele><time>2026-04-26T13:47:05.473Z</time></trkpt><trkpt lat="44.3084817" lon="8.107712"><ele>875.4000000000001</ele><time>2026-04-26T13:47:06.473Z</time></trkpt><trkpt lat="44.308575" lon="8.1077315"><ele>876.2</ele><time>2026-04-26T13:47:07.473Z</time></trkpt><trkpt lat="44.3086852" lon="8.1077518"><ele>877.0</ele><time>2026-04-26T13:47:08.473Z</time></trkpt><trkpt lat="44.3087952" lon="8.1077643"><ele>876.9999999999999</ele><time>2026-04-26T13:47:09.472Z</time></trkpt><trkpt lat="44.3088937" lon="8.1077718"><ele>877.0</ele><time>2026-04-26T13:47:10.472Z</time></trkpt><trkpt lat="44.3089898" lon="8.1077927"><ele>877.0</ele><time>2026-04-26T13:47:11.472Z</time></trkpt><trkpt lat="44.3090753" lon="8.1078073"><ele>877.0</ele><time>2026-04-26T13:47:12.472Z</time></trkpt><trkpt lat="44.309144" lon="8.1078102"><ele>876.9999999999999</ele><time>2026-04-26T13:47:13.472Z</time></trkpt><trkpt lat="44.3092395" lon="8.1078062"><ele>877.0</ele><time>2026-04-26T13:47:14.475Z</time></trkpt><trkpt lat="44.309337" lon="8.1077997"><ele>878.0</ele><time>2026-04-26T13:47:15.477Z</time></trkpt><trkpt lat="44.3094437" lon="8.1077917"><ele>879.0</ele><time>2026-04-26T13:47:16.473Z</time></trkpt><trkpt lat="44.3095553" lon="8.1077685"><ele>880.0</ele><time>2026-04-26T13:47:17.475Z</time></trkpt><trkpt lat="44.3096662" lon="8.1077463"><ele>881.0</ele><time>2026-04-26T13:47:18.474Z</time></trkpt><trkpt lat="44.309768" lon="8.107733"><ele>882.0</ele><time>2026-04-26T13:47:19.475Z</time></trkpt><trkpt lat="44.3098485" lon="8.1077365"><ele>882.8</ele><time>2026-04-26T13:47:20.475Z</time></trkpt><trkpt lat="44.3099213" lon="8.1077507"><ele>883.6</ele><time>2026-04-26T13:47:21.476Z</time></trkpt><trkpt lat="44.3100077" lon="8.1077558"><ele>884.3999999999999</ele><time>2026-04-26T13:47:22.473Z</time></trkpt><trkpt lat="44.3101063" lon="8.1077547"><ele>885.1999999999999</ele><time>2026-04-26T13:47:23.473Z</time></trkpt><trkpt lat="44.3102067" lon="8.1077643"><ele>886.0</ele><time>2026-04-26T13:47:24.476Z</time></trkpt><trkpt lat="44.3103088" lon="8.1077802"><ele>886.0</ele><time>2026-04-26T13:47:25.475Z</time></trkpt><trkpt lat="44.3104263" lon="8.1077995"><ele>885.9999999999999</ele><time>2026-04-26T13:47:26.474Z</time></trkpt><trkpt lat="44.3105477" lon="8.107822"><ele>885.9999999999999</ele><time>2026-04-26T13:47:27.478Z</time></trkpt><trkpt lat="44.3106593" lon="8.107845"><ele>886.0</ele><time>2026-04-26T13:47:28.476Z</time></trkpt><trkpt lat="44.310748" lon="8.1078708"><ele>886.0</ele><time>2026-04-26T13:47:29.475Z</time></trkpt><trkpt lat="44.3108545" lon="8.1079097"><ele>887.5999999999999</ele><time>2026-04-26T13:47:31.475Z</time></trkpt><trkpt lat="44.3109803" lon="8.107925"><ele>889.1999999999999</ele><time>2026-04-26T13:47:33.476Z</time></trkpt><trkpt lat="44.3110463" lon="8.107914"><ele>890.8000000000001</ele><time>2026-04-26T13:47:34.474Z</time></trkpt><trkpt lat="44.3111668" lon="8.1078952"><ele>892.4000000000001</ele><time>2026-04-26T13:47:36.476Z</time></trkpt><trkpt lat="44.3112607" lon="8.1078953"><ele>894.0</ele><time>2026-04-26T13:47:38.476Z</time></trkpt><trkpt lat="44.3113295" lon="8.1078978"><ele>893.0</ele><time>2026-04-26T13:47:41.481Z</time></trkpt><trkpt lat="44.3114072" lon="8.10791"><ele>892.0</ele><time>2026-04-26T13:48:09.479Z</time></trkpt><trkpt lat="44.311524" lon="8.1078988"><ele>891.0</ele><time>2026-04-26T13:48:12.477Z</time></trkpt><trkpt lat="44.3115875" lon="8.1078918"><ele>890.0</ele><time>2026-04-26T13:48:13.477Z</time></trkpt><trkpt lat="44.3116607" lon="8.107891"><ele>889.0</ele><time>2026-04-26T13:48:14.476Z</time></trkpt><trkpt lat="44.3117438" lon="8.1078945"><ele>888.0</ele><time>2026-04-26T13:48:15.476Z</time></trkpt><trkpt lat="44.3118325" lon="8.1078933"><ele>888.0</ele><time>2026-04-26T13:48:16.474Z</time></trkpt><trkpt lat="44.3118998" lon="8.107891"><ele>888.0</ele><time>2026-04-26T13:48:17.475Z</time></trkpt><trkpt lat="44.3120095" lon="8.1078782"><ele>888.0</ele><time>2026-04-26T13:48:19.475Z</time></trkpt><trkpt lat="44.3121212" lon="8.1078482"><ele>888.0</ele><time>2026-04-26T13:48:21.476Z</time></trkpt><trkpt lat="44.3121878" lon="8.1078318"><ele>888.0</ele><time>2026-04-26T13:48:22.478Z</time></trkpt><trkpt lat="44.3123202" lon="8.1078148"><ele>885.4</ele><time>2026-04-26T13:48:24.476Z</time></trkpt><trkpt lat="44.3123862" lon="8.1078032"><ele>882.8</ele><time>2026-04-26T13:48:25.474Z</time></trkpt><trkpt lat="44.3125042" lon="8.1078247"><ele>880.2</ele><time>2026-04-26T13:48:27.478Z</time></trkpt><trkpt lat="44.3126147" lon="8.1078927"><ele>877.6</ele><time>2026-04-26T13:48:29.476Z</time></trkpt><trkpt lat="44.3126817" lon="8.1079158"><ele>875.0</ele><time>2026-04-26T13:48:30.479Z</time></trkpt><trkpt lat="44.312802" lon="8.10794"><ele>875.0</ele><time>2026-04-26T13:48:32.478Z</time></trkpt><trkpt lat="44.3129005" lon="8.108008"><ele>875.0</ele><time>2026-04-26T13:48:34.478Z</time></trkpt><trkpt lat="44.3129632" lon="8.108085"><ele>875.0</ele><time>2026-04-26T13:48:36.478Z</time></trkpt><trkpt lat="44.3130227" lon="8.1081423"><ele>875.0</ele><time>2026-04-26T13:48:38.475Z</time></trkpt><trkpt lat="44.3131242" lon="8.1081732"><ele>875.0</ele><time>2026-04-26T13:48:40.475Z</time></trkpt><trkpt lat="44.313218" lon="8.1081532"><ele>873.0</ele><time>2026-04-26T13:48:42.476Z</time></trkpt><trkpt lat="44.3133248" lon="8.1080977"><ele>871.0</ele><time>2026-04-26T13:48:44.475Z</time></trkpt><trkpt lat="44.3134515" lon="8.1080723"><ele>869.0</ele><time>2026-04-26T13:48:46.475Z</time></trkpt><trkpt lat="44.3135932" lon="8.1080675"><ele>867.0</ele><time>2026-04-26T13:48:48.474Z</time></trkpt><trkpt lat="44.3136585" lon="8.1080632"><ele>865.0</ele><time>2026-04-26T13:48:49.473Z</time></trkpt><trkpt lat="44.3137308" lon="8.108054"><ele>865.0</ele><time>2026-04-26T13:48:50.473Z</time></trkpt><trkpt lat="44.3138617" lon="8.1079987"><ele>865.0</ele><time>2026-04-26T13:48:52.475Z</time></trkpt><trkpt lat="44.3139242" lon="8.107941"><ele>865.0</ele><time>2026-04-26T13:48:53.476Z</time></trkpt><trkpt lat="44.3139932" lon="8.1078665"><ele>865.0</ele><time>2026-04-26T13:48:54.477Z</time></trkpt><trkpt lat="44.314066" lon="8.1077915"><ele>865.0</ele><time>2026-04-26T13:48:55.475Z</time></trkpt><trkpt lat="44.3141335" lon="8.1077162"><ele>864.3333333333333</ele><time>2026-04-26T13:48:56.475Z</time></trkpt><trkpt lat="44.3141883" lon="8.1076375"><ele>863.6666666666666</ele><time>2026-04-26T13:48:57.475Z</time></trkpt><trkpt lat="44.3142395" lon="8.1075527"><ele>863.0</ele><time>2026-04-26T13:48:58.477Z</time></trkpt><trkpt lat="44.3142867" lon="8.1074513"><ele>862.3333333333333</ele><time>2026-04-26T13:48:59.473Z</time></trkpt><trkpt lat="44.3143098" lon="8.1073685"><ele>861.6666666666666</ele><time>2026-04-26T13:49:00.476Z</time></trkpt><trkpt lat="44.3143538" lon="8.1072193"><ele>861.0</ele><time>2026-04-26T13:49:02.476Z</time></trkpt><trkpt lat="44.3143852" lon="8.1071263"><ele>858.8333333333334</ele><time>2026-04-26T13:49:03.475Z</time></trkpt><trkpt lat="44.3144217" lon="8.1070502"><ele>856.6666666666667</ele><time>2026-04-26T13:49:04.475Z</time></trkpt><trkpt lat="44.3144577" lon="8.1069672"><ele>854.5</ele><time>2026-04-26T13:49:05.476Z</time></trkpt><trkpt lat="44.3145167" lon="8.1068797"><ele>852.3333333333334</ele><time>2026-04-26T13:49:06.477Z</time></trkpt><trkpt lat="44.3145775" lon="8.1068"><ele>850.1666666666667</ele><time>2026-04-26T13:49:07.477Z</time></trkpt><trkpt lat="44.3146463" lon="8.1067227"><ele>848.0</ele><time>2026-04-26T13:49:08.477Z</time></trkpt><trkpt lat="44.3147253" lon="8.106653"><ele>847.0</ele><time>2026-04-26T13:49:09.478Z</time></trkpt><trkpt lat="44.3148097" lon="8.1065833"><ele>846.0</ele><time>2026-04-26T13:49:10.477Z</time></trkpt><trkpt lat="44.3148915" lon="8.106525"><ele>845.0</ele><time>2026-04-26T13:49:11.475Z</time></trkpt><trkpt lat="44.3149663" lon="8.1064695"><ele>844.0</ele><time>2026-04-26T13:49:12.474Z</time></trkpt><trkpt lat="44.3150382" lon="8.1063915"><ele>843.0</ele><time>2026-04-26T13:49:13.476Z</time></trkpt><trkpt lat="44.315105" lon="8.1062998"><ele>843.0</ele><time>2026-04-26T13:49:14.474Z</time></trkpt><trkpt lat="44.3151693" lon="8.106211"><ele>843.0</ele><time>2026-04-26T13:49:15.476Z</time></trkpt><trkpt lat="44.315226" lon="8.1061403"><ele>843.0</ele><time>2026-04-26T13:49:16.476Z</time></trkpt><trkpt lat="44.3152787" lon="8.1060852"><ele>843.0</ele><time>2026-04-26T13:49:17.478Z</time></trkpt><trkpt lat="44.3153378" lon="8.1060523"><ele>843.0</ele><time>2026-04-26T13:49:18.478Z</time></trkpt><trkpt lat="44.3154095" lon="8.1060287"><ele>843.0</ele><time>2026-04-26T13:49:19.476Z</time></trkpt><trkpt lat="44.315488" lon="8.1060135"><ele>843.0</ele><time>2026-04-26T13:49:20.478Z</time></trkpt><trkpt lat="44.315568" lon="8.1060022"><ele>842.1666666666666</ele><time>2026-04-26T13:49:21.476Z</time></trkpt><trkpt lat="44.315644" lon="8.105999"><ele>841.3333333333333</ele><time>2026-04-26T13:49:22.476Z</time></trkpt><trkpt lat="44.3157107" lon="8.105998"><ele>840.5</ele><time>2026-04-26T13:49:23.476Z</time></trkpt><trkpt lat="44.3158113" lon="8.1059867"><ele>839.6666666666666</ele><time>2026-04-26T13:49:25.476Z</time></trkpt><trkpt lat="44.3158768" lon="8.1058885"><ele>838.8333333333333</ele><time>2026-04-26T13:49:28.477Z</time></trkpt><trkpt lat="44.3158525" lon="8.105745"><ele>838.0</ele><time>2026-04-26T13:49:30.476Z</time></trkpt><trkpt lat="44.315842" lon="8.1055758"><ele>837.9999999999999</ele><time>2026-04-26T13:49:32.475Z</time></trkpt><trkpt lat="44.3158388" lon="8.1054113"><ele>838.0</ele><time>2026-04-26T13:49:34.477Z</time></trkpt><trkpt lat="44.31582" lon="8.1053195"><ele>838.0</ele><time>2026-04-26T13:49:35.477Z</time></trkpt><trkpt lat="44.315802" lon="8.1052317"><ele>838.0</ele><time>2026-04-26T13:49:36.474Z</time></trkpt><trkpt lat="44.315795" lon="8.1051135"><ele>837.9999999999999</ele><time>2026-04-26T13:49:38.474Z</time></trkpt><trkpt lat="44.315813" lon="8.1049835"><ele>838.0</ele><time>2026-04-26T13:49:40.474Z</time></trkpt><trkpt lat="44.3158783" lon="8.1048292"><ele>834.8333333333333</ele><time>2026-04-26T13:49:42.476Z</time></trkpt><trkpt lat="44.315916" lon="8.1047587"><ele>831.6666666666666</ele><time>2026-04-26T13:49:43.475Z</time></trkpt><trkpt lat="44.316002" lon="8.1046427"><ele>828.5</ele><time>2026-04-26T13:49:45.475Z</time></trkpt><trkpt lat="44.3160792" lon="8.104524"><ele>825.3333333333333</ele><time>2026-04-26T13:49:47.476Z</time></trkpt><trkpt lat="44.3161122" lon="8.104446"><ele>822.1666666666666</ele><time>2026-04-26T13:49:48.477Z</time></trkpt><trkpt lat="44.3161405" lon="8.1043607"><ele>819.0</ele><time>2026-04-26T13:49:49.475Z</time></trkpt><trkpt lat="44.3162103" lon="8.1042272"><ele>819.0</ele><time>2026-04-26T13:49:51.475Z</time></trkpt><trkpt lat="44.316311" lon="8.1041023"><ele>819.0</ele><time>2026-04-26T13:49:53.475Z</time></trkpt><trkpt lat="44.3163643" lon="8.104038"><ele>819.0</ele><time>2026-04-26T13:49:54.476Z</time></trkpt><trkpt lat="44.3164085" lon="8.1039648"><ele>819.0</ele><time>2026-04-26T13:49:55.476Z</time></trkpt><trkpt lat="44.3164417" lon="8.1038805"><ele>819.0</ele><time>2026-04-26T13:49:56.475Z</time></trkpt><trkpt lat="44.3164763" lon="8.1038028"><ele>819.0</ele><time>2026-04-26T13:49:57.477Z</time></trkpt><trkpt lat="44.3165155" lon="8.1037312"><ele>820.0</ele><time>2026-04-26T13:49:58.476Z</time></trkpt><trkpt lat="44.316608" lon="8.1036058"><ele>821.0</ele><time>2026-04-26T13:50:00.475Z</time></trkpt><trkpt lat="44.3166597" lon="8.103537"><ele>822.0</ele><time>2026-04-26T13:50:01.474Z</time></trkpt><trkpt lat="44.3167148" lon="8.1034745"><ele>823.0</ele><time>2026-04-26T13:50:02.474Z</time></trkpt><trkpt lat="44.3167723" lon="8.1034143"><ele>824.0</ele><time>2026-04-26T13:50:03.477Z</time></trkpt><trkpt lat="44.3168342" lon="8.1033607"><ele>825.0</ele><time>2026-04-26T13:50:04.474Z</time></trkpt><trkpt lat="44.316898" lon="8.1033147"><ele>825.0</ele><time>2026-04-26T13:50:05.475Z</time></trkpt><trkpt lat="44.3169672" lon="8.1032643"><ele>825.0</ele><time>2026-04-26T13:50:06.477Z</time></trkpt><trkpt lat="44.3170385" lon="8.1032138"><ele>825.0</ele><time>2026-04-26T13:50:07.475Z</time></trkpt><trkpt lat="44.3171035" lon="8.103172"><ele>825.0</ele><time>2026-04-26T13:50:08.475Z</time></trkpt><trkpt lat="44.3171597" lon="8.1031248"><ele>825.0</ele><time>2026-04-26T13:50:09.475Z</time></trkpt><trkpt lat="44.317233" lon="8.1029922"><ele>825.0</ele><time>2026-04-26T13:50:11.476Z</time></trkpt><trkpt lat="44.3172545" lon="8.1029022"><ele>824.0</ele><time>2026-04-26T13:50:12.477Z</time></trkpt><trkpt lat="44.3172922" lon="8.1027458"><ele>823.0</ele><time>2026-04-26T13:50:14.476Z</time></trkpt><trkpt lat="44.3173213" lon="8.1025943"><ele>822.0</ele><time>2026-04-26T13:50:16.477Z</time></trkpt><trkpt lat="44.3173583" lon="8.1024488"><ele>821.0</ele><time>2026-04-26T13:50:18.476Z</time></trkpt><trkpt lat="44.3174328" lon="8.1023522"><ele>820.0</ele><time>2026-04-26T13:50:20.475Z</time></trkpt><trkpt lat="44.3175353" lon="8.1023152"><ele>815.6</ele><time>2026-04-26T13:50:22.476Z</time></trkpt><trkpt lat="44.3176533" lon="8.1022987"><ele>811.2</ele><time>2026-04-26T13:50:24.476Z</time></trkpt><trkpt lat="44.317734" lon="8.1021883"><ele>806.8</ele><time>2026-04-26T13:50:26.475Z</time></trkpt><trkpt lat="44.3177735" lon="8.1021158"><ele>802.4</ele><time>2026-04-26T13:50:27.473Z</time></trkpt><trkpt lat="44.3178293" lon="8.102038"><ele>798.0</ele><time>2026-04-26T13:50:28.473Z</time></trkpt><trkpt lat="44.3179022" lon="8.1019637"><ele>798.0</ele><time>2026-04-26T13:50:29.475Z</time></trkpt><trkpt lat="44.3179763" lon="8.1019158"><ele>798.0</ele><time>2026-04-26T13:50:30.479Z</time></trkpt><trkpt lat="44.3180425" lon="8.1018822"><ele>798.0</ele><time>2026-04-26T13:50:31.477Z</time></trkpt><trkpt lat="44.3181048" lon="8.1018362"><ele>798.0</ele><time>2026-04-26T13:50:32.475Z</time></trkpt><trkpt lat="44.3181768" lon="8.1016955"><ele>798.0</ele><time>2026-04-26T13:50:34.477Z</time></trkpt><trkpt lat="44.3181953" lon="8.1015775"><ele>798.0</ele><time>2026-04-26T13:50:35.475Z</time></trkpt><trkpt lat="44.318201" lon="8.1014488"><ele>799.1666666666666</ele><time>2026-04-26T13:50:36.477Z</time></trkpt><trkpt lat="44.3182067" lon="8.1013428"><ele>800.3333333333333</ele><time>2026-04-26T13:50:37.476Z</time></trkpt><trkpt lat="44.3182275" lon="8.1012422"><ele>801.5</ele><time>2026-04-26T13:50:38.474Z</time></trkpt><trkpt lat="44.3182602" lon="8.1011403"><ele>802.6666666666666</ele><time>2026-04-26T13:50:39.476Z</time></trkpt><trkpt lat="44.3182872" lon="8.101034"><ele>803.8333333333333</ele><time>2026-04-26T13:50:40.475Z</time></trkpt><trkpt lat="44.3182968" lon="8.1009165"><ele>805.0</ele><time>2026-04-26T13:50:41.475Z</time></trkpt><trkpt lat="44.3183062" lon="8.1008038"><ele>803.4285714285714</ele><time>2026-04-26T13:50:42.475Z</time></trkpt><trkpt lat="44.3183117" lon="8.1006902"><ele>801.8571428571429</ele><time>2026-04-26T13:50:43.474Z</time></trkpt><trkpt lat="44.3183163" lon="8.1006005"><ele>800.2857142857142</ele><time>2026-04-26T13:50:44.476Z</time></trkpt><trkpt lat="44.3183447" lon="8.1004593"><ele>798.7142857142858</ele><time>2026-04-26T13:50:46.475Z</time></trkpt><trkpt lat="44.318371" lon="8.1003775"><ele>797.1428571428571</ele><time>2026-04-26T13:50:47.478Z</time></trkpt><trkpt lat="44.3184015" lon="8.1002952"><ele>795.5714285714286</ele><time>2026-04-26T13:50:48.479Z</time></trkpt><trkpt lat="44.3184363" lon="8.100218"><ele>794.0</ele><time>2026-04-26T13:50:49.477Z</time></trkpt><trkpt lat="44.3184828" lon="8.1001343"><ele>794.0000000000001</ele><time>2026-04-26T13:50:50.477Z</time></trkpt><trkpt lat="44.3185235" lon="8.1000475"><ele>794.0</ele><time>2026-04-26T13:50:51.475Z</time></trkpt><trkpt lat="44.3185512" lon="8.0999538"><ele>794.0</ele><time>2026-04-26T13:50:52.474Z</time></trkpt><trkpt lat="44.3185663" lon="8.0998572"><ele>794.0</ele><time>2026-04-26T13:50:53.473Z</time></trkpt><trkpt lat="44.3185737" lon="8.0997545"><ele>794.0000000000001</ele><time>2026-04-26T13:50:54.475Z</time></trkpt><trkpt lat="44.3185652" lon="8.0996448"><ele>794.0</ele><time>2026-04-26T13:50:55.475Z</time></trkpt><trkpt lat="44.3185668" lon="8.0995295"><ele>792.8000000000001</ele><time>2026-04-26T13:50:56.475Z</time></trkpt><trkpt lat="44.3185877" lon="8.099402"><ele>791.6</ele><time>2026-04-26T13:50:57.476Z</time></trkpt><trkpt lat="44.3186122" lon="8.099254"><ele>790.4</ele><time>2026-04-26T13:50:58.475Z</time></trkpt><trkpt lat="44.3186295" lon="8.0991193"><ele>789.2</ele><time>2026-04-26T13:50:59.474Z</time></trkpt><trkpt lat="44.3186418" lon="8.0989992"><ele>788.0</ele><time>2026-04-26T13:51:00.475Z</time></trkpt><trkpt lat="44.3186525" lon="8.0988683"><ele>787.1666666666667</ele><time>2026-04-26T13:51:01.475Z</time></trkpt><trkpt lat="44.3186603" lon="8.0987275"><ele>786.3333333333334</ele><time>2026-04-26T13:51:02.474Z</time></trkpt><trkpt lat="44.3186655" lon="8.0986057"><ele>785.5</ele><time>2026-04-26T13:51:03.476Z</time></trkpt><trkpt lat="44.3186705" lon="8.0984945"><ele>784.6666666666667</ele><time>2026-04-26T13:51:04.477Z</time></trkpt><trkpt lat="44.3186653" lon="8.0983718"><ele>783.8333333333334</ele><time>2026-04-26T13:51:05.474Z</time></trkpt><trkpt lat="44.3186603" lon="8.0982418"><ele>783.0</ele><time>2026-04-26T13:51:06.475Z</time></trkpt><trkpt lat="44.3186533" lon="8.0981175"><ele>782.3333333333334</ele><time>2026-04-26T13:51:07.475Z</time></trkpt><trkpt lat="44.3186497" lon="8.0980023"><ele>781.6666666666667</ele><time>2026-04-26T13:51:08.475Z</time></trkpt><trkpt lat="44.3186498" lon="8.0978838"><ele>781.0</ele><time>2026-04-26T13:51:09.474Z</time></trkpt><trkpt lat="44.318663" lon="8.0977597"><ele>780.3333333333334</ele><time>2026-04-26T13:51:10.473Z</time></trkpt><trkpt lat="44.31868" lon="8.097643"><ele>779.6666666666667</ele><time>2026-04-26T13:51:11.474Z</time></trkpt><trkpt lat="44.31869" lon="8.0975337"><ele>779.0</ele><time>2026-04-26T13:51:12.475Z</time></trkpt><trkpt lat="44.3186932" lon="8.0974368"><ele>778.4285714285714</ele><time>2026-04-26T13:51:13.476Z</time></trkpt><trkpt lat="44.318698" lon="8.0973388"><ele>777.8571428571429</ele><time>2026-04-26T13:51:14.473Z</time></trkpt><trkpt lat="44.3186898" lon="8.097241"><ele>777.2857142857142</ele><time>2026-04-26T13:51:15.473Z</time></trkpt><trkpt lat="44.3186752" lon="8.0971475"><ele>776.7142857142858</ele><time>2026-04-26T13:51:16.474Z</time></trkpt><trkpt lat="44.318674" lon="8.0970567"><ele>776.1428571428571</ele><time>2026-04-26T13:51:17.473Z</time></trkpt><trkpt lat="44.3186798" lon="8.0969645"><ele>775.5714285714286</ele><time>2026-04-26T13:51:18.475Z</time></trkpt><trkpt lat="44.3186948" lon="8.0968632"><ele>775.0</ele><time>2026-04-26T13:51:19.475Z</time></trkpt><trkpt lat="44.3187182" lon="8.0967557"><ele>774.9999999999999</ele><time>2026-04-26T13:51:20.475Z</time></trkpt><trkpt lat="44.3187532" lon="8.0966527"><ele>775.0</ele><time>2026-04-26T13:51:21.477Z</time></trkpt><trkpt lat="44.3187743" lon="8.096543"><ele>775.0</ele><time>2026-04-26T13:51:22.479Z</time></trkpt><trkpt lat="44.3187913" lon="8.0964407"><ele>775.0</ele><time>2026-04-26T13:51:23.475Z</time></trkpt><trkpt lat="44.3188038" lon="8.0963473"><ele>774.9999999999999</ele><time>2026-04-26T13:51:24.475Z</time></trkpt><trkpt lat="44.3188107" lon="8.0961592"><ele>775.0</ele><time>2026-04-26T13:51:26.474Z</time></trkpt><trkpt lat="44.3188203" lon="8.095983"><ele>775.6666666666666</ele><time>2026-04-26T13:51:28.474Z</time></trkpt><trkpt lat="44.3188272" lon="8.095885"><ele>776.3333333333333</ele><time>2026-04-26T13:51:29.474Z</time></trkpt><trkpt lat="44.3188367" lon="8.095782"><ele>777.0</ele><time>2026-04-26T13:51:30.476Z</time></trkpt><trkpt lat="44.3188747" lon="8.0956307"><ele>777.6666666666667</ele><time>2026-04-26T13:51:32.475Z</time></trkpt><trkpt lat="44.3188945" lon="8.0955435"><ele>778.3333333333334</ele><time>2026-04-26T13:51:33.476Z</time></trkpt><trkpt lat="44.318912" lon="8.0954487"><ele>779.0</ele><time>2026-04-26T13:51:34.475Z</time></trkpt><trkpt lat="44.3189245" lon="8.0953525"><ele>779.0000000000001</ele><time>2026-04-26T13:51:35.475Z</time></trkpt><trkpt lat="44.3189423" lon="8.0952597"><ele>779.0</ele><time>2026-04-26T13:51:36.475Z</time></trkpt><trkpt lat="44.3189875" lon="8.0951055"><ele>779.0</ele><time>2026-04-26T13:51:38.474Z</time></trkpt><trkpt lat="44.3190218" lon="8.0950097"><ele>779.0</ele><time>2026-04-26T13:51:40.474Z</time></trkpt><trkpt lat="44.3190633" lon="8.0949073"><ele>779.0000000000001</ele><time>2026-04-26T13:51:43.477Z</time></trkpt><trkpt lat="44.3191143" lon="8.0948415"><ele>779.0</ele><time>2026-04-26T13:51:45.476Z</time></trkpt><trkpt lat="44.3191682" lon="8.0947715"><ele>776.0000000000001</ele><time>2026-04-26T13:51:47.476Z</time></trkpt><trkpt lat="44.3192273" lon="8.0947013"><ele>773.0</ele><time>2026-04-26T13:51:49.477Z</time></trkpt><trkpt lat="44.3192855" lon="8.0946337"><ele>770.0</ele><time>2026-04-26T13:51:51.476Z</time></trkpt><trkpt lat="44.3193775" lon="8.0945833"><ele>767.0</ele><time>2026-04-26T13:51:54.476Z</time></trkpt><trkpt lat="44.3194997" lon="8.094573"><ele>764.0</ele><time>2026-04-26T13:51:56.476Z</time></trkpt><trkpt lat="44.3195632" lon="8.0945817"><ele>761.0</ele><time>2026-04-26T13:51:57.477Z</time></trkpt><trkpt lat="44.3196648" lon="8.0946053"><ele>758.1999999999999</ele><time>2026-04-26T13:51:59.476Z</time></trkpt><trkpt lat="44.3197482" lon="8.0946245"><ele>755.4</ele><time>2026-04-26T13:52:01.475Z</time></trkpt><trkpt lat="44.3198368" lon="8.0946727"><ele>752.6</ele><time>2026-04-26T13:52:03.473Z</time></trkpt><trkpt lat="44.3199402" lon="8.0947177"><ele>749.8</ele><time>2026-04-26T13:52:05.473Z</time></trkpt><trkpt lat="44.3200515" lon="8.0946952"><ele>747.0</ele><time>2026-04-26T13:52:07.475Z</time></trkpt><trkpt lat="44.3201512" lon="8.0945925"><ele>747.0</ele><time>2026-04-26T13:52:09.473Z</time></trkpt><trkpt lat="44.3201858" lon="8.0945077"><ele>747.0</ele><time>2026-04-26T13:52:10.475Z</time></trkpt><trkpt lat="44.3202418" lon="8.0943807"><ele>747.0</ele><time>2026-04-26T13:52:12.479Z</time></trkpt><trkpt lat="44.3202692" lon="8.0942962"><ele>747.0</ele><time>2026-04-26T13:52:15.478Z</time></trkpt><trkpt lat="44.3203475" lon="8.0942017"><ele>747.0</ele><time>2026-04-26T13:53:11.479Z</time></trkpt><trkpt lat="44.3204083" lon="8.0941322"><ele>747.0</ele><time>2026-04-26T13:53:13.479Z</time></trkpt><trkpt lat="44.320521" lon="8.0940332"><ele>744.5</ele><time>2026-04-26T13:53:15.481Z</time></trkpt><trkpt lat="44.3205773" lon="8.0939722"><ele>742.0</ele><time>2026-04-26T13:53:16.477Z</time></trkpt><trkpt lat="44.320627" lon="8.0939105"><ele>739.5</ele><time>2026-04-26T13:53:17.476Z</time></trkpt><trkpt lat="44.3207098" lon="8.0938267"><ele>737.0</ele><time>2026-04-26T13:53:19.477Z</time></trkpt><trkpt lat="44.3207608" lon="8.0937742"><ele>734.5</ele><time>2026-04-26T13:53:20.478Z</time></trkpt><trkpt lat="44.3208493" lon="8.0936583"><ele>732.0</ele><time>2026-04-26T13:53:22.481Z</time></trkpt><trkpt lat="44.3209167" lon="8.0935553"><ele>732.0</ele><time>2026-04-26T13:53:24.48Z</time></trkpt><trkpt lat="44.3209872" lon="8.0934102"><ele>732.0</ele><time>2026-04-26T13:53:26.478Z</time></trkpt><trkpt lat="44.3210197" lon="8.093328"><ele>732.0</ele><time>2026-04-26T13:53:27.479Z</time></trkpt><trkpt lat="44.321055" lon="8.0932473"><ele>732.0</ele><time>2026-04-26T13:53:28.478Z</time></trkpt><trkpt lat="44.3210987" lon="8.0931187"><ele>732.0</ele><time>2026-04-26T13:53:30.477Z</time></trkpt><trkpt lat="44.3211277" lon="8.093011"><ele>732.0</ele><time>2026-04-26T13:53:32.477Z</time></trkpt><trkpt lat="44.3211377" lon="8.0929217"><ele>729.3333333333334</ele><time>2026-04-26T13:53:34.476Z</time></trkpt><trkpt lat="44.3211557" lon="8.0928333"><ele>726.6666666666666</ele><time>2026-04-26T13:53:36.476Z</time></trkpt><trkpt lat="44.3211827" lon="8.0927455"><ele>724.0</ele><time>2026-04-26T13:53:38.476Z</time></trkpt><trkpt lat="44.3212268" lon="8.0926592"><ele>721.3333333333333</ele><time>2026-04-26T13:53:40.475Z</time></trkpt><trkpt lat="44.3212915" lon="8.0925495"><ele>718.6666666666666</ele><time>2026-04-26T13:53:42.475Z</time></trkpt><trkpt lat="44.321328" lon="8.0924693"><ele>716.0</ele><time>2026-04-26T13:53:45.476Z</time></trkpt><trkpt lat="44.3213857" lon="8.0923757"><ele>715.3333333333333</ele><time>2026-04-26T13:53:50.477Z</time></trkpt><trkpt lat="44.321463" lon="8.0923373"><ele>714.6666666666666</ele><time>2026-04-26T13:53:52.476Z</time></trkpt><trkpt lat="44.3215563" lon="8.0923302"><ele>714.0</ele><time>2026-04-26T13:53:54.477Z</time></trkpt><trkpt lat="44.3216423" lon="8.0923462"><ele>713.3333333333334</ele><time>2026-04-26T13:53:56.476Z</time></trkpt><trkpt lat="44.3217303" lon="8.0923727"><ele>712.6666666666667</ele><time>2026-04-26T13:53:58.477Z</time></trkpt><trkpt lat="44.321802" lon="8.0923937"><ele>712.0</ele><time>2026-04-26T13:54:00.478Z</time></trkpt><trkpt lat="44.321862" lon="8.0924265"><ele>712.0</ele><time>2026-04-26T13:54:03.477Z</time></trkpt><trkpt lat="44.3219175" lon="8.092502"><ele>712.0</ele><time>2026-04-26T13:54:05.476Z</time></trkpt><trkpt lat="44.321961" lon="8.0925865"><ele>712.0</ele><time>2026-04-26T13:54:07.475Z</time></trkpt><trkpt lat="44.3220633" lon="8.0926012"><ele>712.0</ele><time>2026-04-26T13:54:10.479Z</time></trkpt><trkpt lat="44.3221205" lon="8.0925232"><ele>712.0</ele><time>2026-04-26T13:54:12.479Z</time></trkpt><trkpt lat="44.3221465" lon="8.092411"><ele>712.0</ele><time>2026-04-26T13:54:14.479Z</time></trkpt><trkpt lat="44.3221345" lon="8.092258"><ele>708.8</ele><time>2026-04-26T13:54:16.478Z</time></trkpt><trkpt lat="44.3221107" lon="8.0920918"><ele>705.6</ele><time>2026-04-26T13:54:18.478Z</time></trkpt><trkpt lat="44.3220942" lon="8.091976"><ele>702.4</ele><time>2026-04-26T13:54:20.478Z</time></trkpt><trkpt lat="44.3220652" lon="8.091848"><ele>699.1999999999999</ele><time>2026-04-26T13:54:23.479Z</time></trkpt><trkpt lat="44.322031" lon="8.0917375"><ele>696.0</ele><time>2026-04-26T13:54:25.48Z</time></trkpt><trkpt lat="44.321989" lon="8.091647"><ele>691.6666666666666</ele><time>2026-04-26T13:54:27.479Z</time></trkpt><trkpt lat="44.3219228" lon="8.0915688"><ele>687.3333333333334</ele><time>2026-04-26T13:54:30.476Z</time></trkpt><trkpt lat="44.321883" lon="8.091474"><ele>683.0</ele><time>2026-04-26T13:54:33.476Z</time></trkpt><trkpt lat="44.3218748" lon="8.0913595"><ele>678.6666666666667</ele><time>2026-04-26T13:54:36.477Z</time></trkpt><trkpt lat="44.3218587" lon="8.091266"><ele>674.3333333333334</ele><time>2026-04-26T13:54:38.478Z</time></trkpt><trkpt lat="44.3218427" lon="8.0911632"><ele>670.0</ele><time>2026-04-26T13:54:40.477Z</time></trkpt><trkpt lat="44.3218438" lon="8.091059"><ele>670.0</ele><time>2026-04-26T13:54:42.478Z</time></trkpt><trkpt lat="44.3218478" lon="8.090918"><ele>670.0</ele><time>2026-04-26T13:54:44.476Z</time></trkpt><trkpt lat="44.3218465" lon="8.090785"><ele>670.0</ele><time>2026-04-26T13:54:46.476Z</time></trkpt><trkpt lat="44.3218265" lon="8.0906458"><ele>670.0</ele><time>2026-04-26T13:54:48.476Z</time></trkpt><trkpt lat="44.321809" lon="8.0904742"><ele>670.0</ele><time>2026-04-26T13:54:50.476Z</time></trkpt><trkpt lat="44.321828" lon="8.0903772"><ele>667.0</ele><time>2026-04-26T13:54:51.476Z</time></trkpt><trkpt lat="44.3218662" lon="8.0902712"><ele>664.0</ele><time>2026-04-26T13:54:52.477Z</time></trkpt><trkpt lat="44.321898" lon="8.0901607"><ele>661.0</ele><time>2026-04-26T13:54:53.477Z</time></trkpt><trkpt lat="44.3219007" lon="8.0900257"><ele>658.0</ele><time>2026-04-26T13:54:54.476Z</time></trkpt><trkpt lat="44.3218892" lon="8.0898605"><ele>655.0</ele><time>2026-04-26T13:54:55.474Z</time></trkpt><trkpt lat="44.3218785" lon="8.0896835"><ele>654.75</ele><time>2026-04-26T13:54:56.475Z</time></trkpt><trkpt lat="44.321873" lon="8.0895108"><ele>654.5</ele><time>2026-04-26T13:54:57.475Z</time></trkpt><trkpt lat="44.321867" lon="8.0893233"><ele>654.25</ele><time>2026-04-26T13:54:58.478Z</time></trkpt><trkpt lat="44.3218583" lon="8.0891528"><ele>654.0</ele><time>2026-04-26T13:54:59.478Z</time></trkpt><trkpt lat="44.3218487" lon="8.08901"><ele>654.0</ele><time>2026-04-26T13:55:00.477Z</time></trkpt><trkpt lat="44.3218488" lon="8.0888902"><ele>654.0</ele><time>2026-04-26T13:55:01.475Z</time></trkpt><trkpt lat="44.3218637" lon="8.0888003"><ele>654.0</ele><time>2026-04-26T13:55:02.477Z</time></trkpt><trkpt lat="44.3219193" lon="8.0886468"><ele>654.0</ele><time>2026-04-26T13:55:04.476Z</time></trkpt><trkpt lat="44.3219508" lon="8.0885607"><ele>654.0</ele><time>2026-04-26T13:55:05.479Z</time></trkpt><trkpt lat="44.322022" lon="8.0884212"><ele>654.0</ele><time>2026-04-26T13:55:07.478Z</time></trkpt><trkpt lat="44.3220847" lon="8.0882805"><ele>654.0</ele><time>2026-04-26T13:55:09.48Z</time></trkpt><trkpt lat="44.3221038" lon="8.0881947"><ele>654.0</ele><time>2026-04-26T13:55:10.478Z</time></trkpt><trkpt lat="44.3221115" lon="8.0880722"><ele>654.0</ele><time>2026-04-26T13:55:12.48Z</time></trkpt><trkpt lat="44.3221182" lon="8.0879828"><ele>654.0</ele><time>2026-04-26T13:55:19.477Z</time></trkpt><trkpt lat="44.3221228" lon="8.087893"><ele>654.0</ele><time>2026-04-26T13:57:02.478Z</time></trkpt><trkpt lat="44.3221315" lon="8.0877953"><ele>655.2</ele><time>2026-04-26T13:57:04.479Z</time></trkpt><trkpt lat="44.3221492" lon="8.0877022"><ele>656.4000000000001</ele><time>2026-04-26T13:57:05.479Z</time></trkpt><trkpt lat="44.3221738" lon="8.0875898"><ele>657.6</ele><time>2026-04-26T13:57:06.479Z</time></trkpt><trkpt lat="44.3222082" lon="8.087457"><ele>658.8</ele><time>2026-04-26T13:57:07.479Z</time></trkpt><trkpt lat="44.3222427" lon="8.087327"><ele>660.0</ele><time>2026-04-26T13:57:08.478Z</time></trkpt><trkpt lat="44.322277" lon="8.0871875"><ele>656.8333333333334</ele><time>2026-04-26T13:57:09.478Z</time></trkpt><trkpt lat="44.322301" lon="8.087055"><ele>653.6666666666666</ele><time>2026-04-26T13:57:10.478Z</time></trkpt><trkpt lat="44.3223188" lon="8.0869447"><ele>650.5</ele><time>2026-04-26T13:57:11.476Z</time></trkpt><trkpt lat="44.3223398" lon="8.0868417"><ele>647.3333333333333</ele><time>2026-04-26T13:57:12.48Z</time></trkpt><trkpt lat="44.3223767" lon="8.086755"><ele>644.1666666666666</ele><time>2026-04-26T13:57:13.478Z</time></trkpt><trkpt lat="44.3224345" lon="8.0866872"><ele>641.0</ele><time>2026-04-26T13:57:14.479Z</time></trkpt><trkpt lat="44.3225087" lon="8.0866378"><ele>641.0</ele><time>2026-04-26T13:57:15.481Z</time></trkpt><trkpt lat="44.322591" lon="8.0865992"><ele>641.0</ele><time>2026-04-26T13:57:16.484Z</time></trkpt><trkpt lat="44.3226663" lon="8.086568"><ele>641.0</ele><time>2026-04-26T13:57:17.479Z</time></trkpt><trkpt lat="44.3227332" lon="8.086531"><ele>641.0</ele><time>2026-04-26T13:57:18.48Z</time></trkpt><trkpt lat="44.3227918" lon="8.0864717"><ele>641.0</ele><time>2026-04-26T13:57:19.479Z</time></trkpt><trkpt lat="44.3228418" lon="8.0863863"><ele>641.0</ele><time>2026-04-26T13:57:20.48Z</time></trkpt><trkpt lat="44.3228967" lon="8.086277"><ele>640.8</ele><time>2026-04-26T13:57:21.479Z</time></trkpt><trkpt lat="44.3229615" lon="8.0861592"><ele>640.5999999999999</ele><time>2026-04-26T13:57:22.478Z</time></trkpt><trkpt lat="44.3230387" lon="8.0860447"><ele>640.4</ele><time>2026-04-26T13:57:23.478Z</time></trkpt><trkpt lat="44.3231253" lon="8.0859407"><ele>640.2</ele><time>2026-04-26T13:57:24.477Z</time></trkpt><trkpt lat="44.3232012" lon="8.0858448"><ele>640.0</ele><time>2026-04-26T13:57:25.479Z</time></trkpt><trkpt lat="44.3232633" lon="8.085756"><ele>638.6</ele><time>2026-04-26T13:57:26.481Z</time></trkpt><trkpt lat="44.3233155" lon="8.0856807"><ele>637.2</ele><time>2026-04-26T13:57:27.48Z</time></trkpt><trkpt lat="44.3233992" lon="8.0855778"><ele>635.8</ele><time>2026-04-26T13:57:29.481Z</time></trkpt><trkpt lat="44.3234467" lon="8.0854987"><ele>634.4</ele><time>2026-04-26T13:57:43.478Z</time></trkpt><trkpt lat="44.3234937" lon="8.0853985"><ele>633.0</ele><time>2026-04-26T13:57:45.479Z</time></trkpt><trkpt lat="44.323567" lon="8.0852457"><ele>633.0</ele><time>2026-04-26T13:57:47.475Z</time></trkpt><trkpt lat="44.323615" lon="8.0851492"><ele>633.0</ele><time>2026-04-26T13:57:48.476Z</time></trkpt><trkpt lat="44.3236773" lon="8.0850448"><ele>633.0</ele><time>2026-04-26T13:57:49.478Z</time></trkpt><trkpt lat="44.3237472" lon="8.0849397"><ele>633.0</ele><time>2026-04-26T13:57:50.48Z</time></trkpt><trkpt lat="44.3238178" lon="8.0848408"><ele>633.0</ele><time>2026-04-26T13:57:51.478Z</time></trkpt><trkpt lat="44.3238913" lon="8.0847522"><ele>633.0</ele><time>2026-04-26T13:57:52.481Z</time></trkpt><trkpt lat="44.3239717" lon="8.0846785"><ele>633.0</ele><time>2026-04-26T13:57:53.481Z</time></trkpt><trkpt lat="44.3240605" lon="8.0846223"><ele>633.0</ele><time>2026-04-26T13:57:54.481Z</time></trkpt><trkpt lat="44.3241535" lon="8.0845762"><ele>633.0</ele><time>2026-04-26T13:57:55.478Z</time></trkpt><trkpt lat="44.324242" lon="8.084526"><ele>633.0</ele><time>2026-04-26T13:57:56.478Z</time></trkpt><trkpt lat="44.3243228" lon="8.0844657"><ele>633.0</ele><time>2026-04-26T13:57:57.479Z</time></trkpt><trkpt lat="44.3244037" lon="8.0843975"><ele>633.0</ele><time>2026-04-26T13:57:58.479Z</time></trkpt><trkpt lat="44.3244783" lon="8.084309"><ele>633.0</ele><time>2026-04-26T13:57:59.478Z</time></trkpt><trkpt lat="44.3245558" lon="8.0842252"><ele>633.0</ele><time>2026-04-26T13:58:00.482Z</time></trkpt><trkpt lat="44.3246333" lon="8.0841418"><ele>633.0</ele><time>2026-04-26T13:58:01.48Z</time></trkpt><trkpt lat="44.3247103" lon="8.084059"><ele>631.6</ele><time>2026-04-26T13:58:02.48Z</time></trkpt><trkpt lat="44.324791" lon="8.083973"><ele>630.1999999999999</ele><time>2026-04-26T13:58:03.481Z</time></trkpt><trkpt lat="44.3248773" lon="8.0838855"><ele>628.8</ele><time>2026-04-26T13:58:04.48Z</time></trkpt><trkpt lat="44.3249722" lon="8.0837973"><ele>627.4</ele><time>2026-04-26T13:58:05.48Z</time></trkpt><trkpt lat="44.3250762" lon="8.0837152"><ele>626.0</ele><time>2026-04-26T13:58:06.484Z</time></trkpt><trkpt lat="44.3251893" lon="8.0836423"><ele>626.0</ele><time>2026-04-26T13:58:07.481Z</time></trkpt><trkpt lat="44.3253082" lon="8.0835727"><ele>626.0</ele><time>2026-04-26T13:58:08.482Z</time></trkpt><trkpt lat="44.3254302" lon="8.0834977"><ele>626.0</ele><time>2026-04-26T13:58:09.483Z</time></trkpt><trkpt lat="44.3255503" lon="8.0834167"><ele>626.0</ele><time>2026-04-26T13:58:10.48Z</time></trkpt><trkpt lat="44.325672" lon="8.0833405"><ele>626.0</ele><time>2026-04-26T13:58:11.479Z</time></trkpt><trkpt lat="44.325809" lon="8.08328"><ele>626.0</ele><time>2026-04-26T13:58:12.479Z</time></trkpt><trkpt lat="44.3259533" lon="8.0832362"><ele>626.0</ele><time>2026-04-26T13:58:13.479Z</time></trkpt><trkpt lat="44.3260832" lon="8.0831935"><ele>626.0</ele><time>2026-04-26T13:58:14.479Z</time></trkpt><trkpt lat="44.3261998" lon="8.0831293"><ele>626.0</ele><time>2026-04-26T13:58:15.48Z</time></trkpt><trkpt lat="44.3263175" lon="8.0830283"><ele>626.0</ele><time>2026-04-26T13:58:16.482Z</time></trkpt><trkpt lat="44.3264263" lon="8.0829188"><ele>626.0</ele><time>2026-04-26T13:58:17.483Z</time></trkpt><trkpt lat="44.3265227" lon="8.0828298"><ele>626.0</ele><time>2026-04-26T13:58:18.484Z</time></trkpt><trkpt lat="44.3266205" lon="8.0827725"><ele>626.2</ele><time>2026-04-26T13:58:19.482Z</time></trkpt><trkpt lat="44.3267112" lon="8.0827355"><ele>626.4000000000001</ele><time>2026-04-26T13:58:20.482Z</time></trkpt><trkpt lat="44.3267927" lon="8.082696"><ele>626.6</ele><time>2026-04-26T13:58:21.482Z</time></trkpt><trkpt lat="44.3268782" lon="8.0826252"><ele>626.8000000000001</ele><time>2026-04-26T13:58:22.483Z</time></trkpt><trkpt lat="44.3269718" lon="8.0825167"><ele>627.0</ele><time>2026-04-26T13:58:23.481Z</time></trkpt><trkpt lat="44.3270598" lon="8.0823825"><ele>627.25</ele><time>2026-04-26T13:58:24.483Z</time></trkpt><trkpt lat="44.3271502" lon="8.0822215"><ele>627.5</ele><time>2026-04-26T13:58:25.481Z</time></trkpt><trkpt lat="44.3272465" lon="8.0820608"><ele>627.75</ele><time>2026-04-26T13:58:26.484Z</time></trkpt><trkpt lat="44.3273445" lon="8.0819232"><ele>628.0</ele><time>2026-04-26T13:58:27.483Z</time></trkpt><trkpt lat="44.3274332" lon="8.0818045"><ele>628.0</ele><time>2026-04-26T13:58:28.482Z</time></trkpt><trkpt lat="44.32751" lon="8.0816987"><ele>628.0</ele><time>2026-04-26T13:58:29.483Z</time></trkpt><trkpt lat="44.3275767" lon="8.0816018"><ele>628.0</ele><time>2026-04-26T13:58:30.482Z</time></trkpt><trkpt lat="44.327632" lon="8.0815182"><ele>628.0</ele><time>2026-04-26T13:58:31.48Z</time></trkpt><trkpt lat="44.327682" lon="8.0814455"><ele>628.0</ele><time>2026-04-26T13:58:32.48Z</time></trkpt><trkpt lat="44.327728" lon="8.0813815"><ele>628.0</ele><time>2026-04-26T13:58:33.482Z</time></trkpt><trkpt lat="44.3278325" lon="8.081285"><ele>627.8333333333334</ele><time>2026-04-26T13:58:35.48Z</time></trkpt><trkpt lat="44.3278885" lon="8.0812382"><ele>627.6666666666667</ele><time>2026-04-26T13:58:36.479Z</time></trkpt><trkpt lat="44.3279447" lon="8.081195"><ele>627.5</ele><time>2026-04-26T13:58:37.48Z</time></trkpt><trkpt lat="44.3280605" lon="8.081138"><ele>627.3333333333334</ele><time>2026-04-26T13:58:39.483Z</time></trkpt><trkpt lat="44.3281232" lon="8.0811092"><ele>627.1666666666666</ele><time>2026-04-26T13:58:40.481Z</time></trkpt><trkpt lat="44.3281878" lon="8.0810817"><ele>627.0</ele><time>2026-04-26T13:58:41.483Z</time></trkpt><trkpt lat="44.3282538" lon="8.0810545"><ele>627.0</ele><time>2026-04-26T13:58:42.486Z</time></trkpt><trkpt lat="44.3283157" lon="8.081023"><ele>627.0</ele><time>2026-04-26T13:58:43.482Z</time></trkpt><trkpt lat="44.3283832" lon="8.0809843"><ele>627.0</ele><time>2026-04-26T13:58:44.482Z</time></trkpt><trkpt lat="44.3284587" lon="8.080948"><ele>627.0</ele><time>2026-04-26T13:58:45.48Z</time></trkpt><trkpt lat="44.3285352" lon="8.0809098"><ele>627.0</ele><time>2026-04-26T13:58:46.479Z</time></trkpt><trkpt lat="44.3286053" lon="8.0808678"><ele>627.0</ele><time>2026-04-26T13:58:47.483Z</time></trkpt><trkpt lat="44.3286665" lon="8.0808135"><ele>627.0</ele><time>2026-04-26T13:58:48.484Z</time></trkpt><trkpt lat="44.3287578" lon="8.0807132"><ele>625.4</ele><time>2026-04-26T13:58:50.483Z</time></trkpt><trkpt lat="44.328879" lon="8.0806397"><ele>623.8000000000001</ele><time>2026-04-26T13:58:52.482Z</time></trkpt><trkpt lat="44.3289628" lon="8.080608"><ele>622.2</ele><time>2026-04-26T13:58:53.483Z</time></trkpt><trkpt lat="44.3290542" lon="8.0805775"><ele>620.6</ele><time>2026-04-26T13:58:54.483Z</time></trkpt><trkpt lat="44.32914" lon="8.0805485"><ele>619.0</ele><time>2026-04-26T13:58:55.485Z</time></trkpt><trkpt lat="44.329207" lon="8.0805228"><ele>619.0</ele><time>2026-04-26T13:58:56.482Z</time></trkpt><trkpt lat="44.3292908" lon="8.0804853"><ele>619.0</ele><time>2026-04-26T13:58:58.484Z</time></trkpt><trkpt lat="44.3293862" lon="8.080448"><ele>619.0</ele><time>2026-04-26T13:59:06.483Z</time></trkpt><trkpt lat="44.3294422" lon="8.0803977"><ele>619.0</ele><time>2026-04-26T13:59:07.483Z</time></trkpt><trkpt lat="44.3295023" lon="8.0803232"><ele>619.0</ele><time>2026-04-26T13:59:08.483Z</time></trkpt><trkpt lat="44.3295727" lon="8.0802352"><ele>619.0</ele><time>2026-04-26T13:59:09.484Z</time></trkpt><trkpt lat="44.3296492" lon="8.0801367"><ele>618.0</ele><time>2026-04-26T13:59:10.481Z</time></trkpt><trkpt lat="44.3297305" lon="8.080039"><ele>617.0</ele><time>2026-04-26T13:59:11.482Z</time></trkpt><trkpt lat="44.329823" lon="8.0799478"><ele>616.0</ele><time>2026-04-26T13:59:12.482Z</time></trkpt><trkpt lat="44.3299242" lon="8.0798613"><ele>615.0</ele><time>2026-04-26T13:59:13.482Z</time></trkpt><trkpt lat="44.3300305" lon="8.0797757"><ele>615.0</ele><time>2026-04-26T13:59:14.481Z</time></trkpt><trkpt lat="44.3301442" lon="8.079683"><ele>615.0</ele><time>2026-04-26T13:59:15.484Z</time></trkpt><trkpt lat="44.3302647" lon="8.0795842"><ele>615.0</ele><time>2026-04-26T13:59:16.483Z</time></trkpt><trkpt lat="44.3303875" lon="8.0794803"><ele>615.0</ele><time>2026-04-26T13:59:17.481Z</time></trkpt><trkpt lat="44.3305057" lon="8.0793788"><ele>614.5</ele><time>2026-04-26T13:59:18.482Z</time></trkpt><trkpt lat="44.3306155" lon="8.0792742"><ele>614.0</ele><time>2026-04-26T13:59:19.482Z</time></trkpt><trkpt lat="44.3307233" lon="8.0791612"><ele>613.5</ele><time>2026-04-26T13:59:20.483Z</time></trkpt><trkpt lat="44.3308367" lon="8.0790443"><ele>613.0</ele><time>2026-04-26T13:59:21.485Z</time></trkpt><trkpt lat="44.3309568" lon="8.0789177"><ele>611.6666666666667</ele><time>2026-04-26T13:59:22.485Z</time></trkpt><trkpt lat="44.3310775" lon="8.0787698"><ele>610.3333333333334</ele><time>2026-04-26T13:59:23.482Z</time></trkpt><trkpt lat="44.3311912" lon="8.0786065"><ele>609.0</ele><time>2026-04-26T13:59:24.482Z</time></trkpt><trkpt lat="44.3313023" lon="8.078433"><ele>611.6666666666666</ele><time>2026-04-26T13:59:25.481Z</time></trkpt><trkpt lat="44.3314153" lon="8.0782585"><ele>614.3333333333333</ele><time>2026-04-26T13:59:26.479Z</time></trkpt><trkpt lat="44.331532" lon="8.0780817"><ele>617.0</ele><time>2026-04-26T13:59:27.479Z</time></trkpt><trkpt lat="44.3316488" lon="8.0779013"><ele>617.0</ele><time>2026-04-26T13:59:28.48Z</time></trkpt><trkpt lat="44.3317652" lon="8.0777223"><ele>617.0</ele><time>2026-04-26T13:59:29.483Z</time></trkpt><trkpt lat="44.3318792" lon="8.0775518"><ele>617.0</ele><time>2026-04-26T13:59:30.485Z</time></trkpt><trkpt lat="44.3319888" lon="8.0773905"><ele>621.0</ele><time>2026-04-26T13:59:31.484Z</time></trkpt><trkpt lat="44.3321018" lon="8.0772323"><ele>625.0</ele><time>2026-04-26T13:59:32.484Z</time></trkpt><trkpt lat="44.332223" lon="8.077079"><ele>629.0</ele><time>2026-04-26T13:59:33.488Z</time></trkpt><trkpt lat="44.3323533" lon="8.0769312"><ele>629.0</ele><time>2026-04-26T13:59:34.483Z</time></trkpt><trkpt lat="44.3324895" lon="8.0767912"><ele>629.0</ele><time>2026-04-26T13:59:35.48Z</time></trkpt><trkpt lat="44.3326275" lon="8.0766548"><ele>629.0</ele><time>2026-04-26T13:59:36.481Z</time></trkpt><trkpt lat="44.3327605" lon="8.0765208"><ele>630.6666666666666</ele><time>2026-04-26T13:59:37.48Z</time></trkpt><trkpt lat="44.3328885" lon="8.0763898"><ele>632.3333333333334</ele><time>2026-04-26T13:59:38.484Z</time></trkpt><trkpt lat="44.3330148" lon="8.0762648"><ele>634.0</ele><time>2026-04-26T13:59:39.483Z</time></trkpt><trkpt lat="44.3331455" lon="8.0761502"><ele>634.0</ele><time>2026-04-26T13:59:40.483Z</time></trkpt><trkpt lat="44.3332878" lon="8.0760462"><ele>634.0</ele><time>2026-04-26T13:59:41.481Z</time></trkpt><trkpt lat="44.3334385" lon="8.0759517"><ele>634.0</ele><time>2026-04-26T13:59:42.483Z</time></trkpt><trkpt lat="44.3335902" lon="8.0758598"><ele>637.3333333333334</ele><time>2026-04-26T13:59:43.482Z</time></trkpt><trkpt lat="44.3337437" lon="8.0757693"><ele>640.6666666666666</ele><time>2026-04-26T13:59:44.48Z</time></trkpt><trkpt lat="44.3338872" lon="8.0756733"><ele>644.0</ele><time>2026-04-26T13:59:45.483Z</time></trkpt><trkpt lat="44.3340248" lon="8.0755708"><ele>644.0</ele><time>2026-04-26T13:59:46.48Z</time></trkpt><trkpt lat="44.3341768" lon="8.0754833"><ele>644.0</ele><time>2026-04-26T13:59:47.48Z</time></trkpt><trkpt lat="44.3343467" lon="8.0754283"><ele>644.0</ele><time>2026-04-26T13:59:48.481Z</time></trkpt><trkpt lat="44.3345217" lon="8.0754082"><ele>644.0</ele><time>2026-04-26T13:59:49.479Z</time></trkpt><trkpt lat="44.3346887" lon="8.0754183"><ele>644.0</ele><time>2026-04-26T13:59:50.478Z</time></trkpt><trkpt lat="44.3348365" lon="8.075446"><ele>644.0</ele><time>2026-04-26T13:59:51.476Z</time></trkpt><trkpt lat="44.334965" lon="8.0754727"><ele>644.0</ele><time>2026-04-26T13:59:52.477Z</time></trkpt><trkpt lat="44.3350828" lon="8.0754727"><ele>644.0</ele><time>2026-04-26T13:59:53.48Z</time></trkpt><trkpt lat="44.3352075" lon="8.0754318"><ele>644.0</ele><time>2026-04-26T13:59:54.477Z</time></trkpt><trkpt lat="44.3353412" lon="8.0753632"><ele>644.0</ele><time>2026-04-26T13:59:55.48Z</time></trkpt><trkpt lat="44.3354845" lon="8.0752787"><ele>644.0</ele><time>2026-04-26T13:59:56.479Z</time></trkpt><trkpt lat="44.3356348" lon="8.0751907"><ele>644.5</ele><time>2026-04-26T13:59:57.48Z</time></trkpt><trkpt lat="44.3357843" lon="8.075104"><ele>645.0</ele><time>2026-04-26T13:59:58.48Z</time></trkpt><trkpt lat="44.3359212" lon="8.0750343"><ele>645.5</ele><time>2026-04-26T13:59:59.484Z</time></trkpt><trkpt lat="44.336054" lon="8.074984"><ele>646.0</ele><time>2026-04-26T14:00:00.479Z</time></trkpt><trkpt lat="44.3361843" lon="8.074952"><ele>646.1999999999999</ele><time>2026-04-26T14:00:01.479Z</time></trkpt><trkpt lat="44.3363028" lon="8.0749212"><ele>646.4</ele><time>2026-04-26T14:00:02.48Z</time></trkpt><trkpt lat="44.3363992" lon="8.0748735"><ele>646.6</ele><time>2026-04-26T14:00:03.48Z</time></trkpt><trkpt lat="44.3364745" lon="8.0748102"><ele>646.8</ele><time>2026-04-26T14:00:04.48Z</time></trkpt><trkpt lat="44.3365438" lon="8.0747435"><ele>647.0</ele><time>2026-04-26T14:00:05.481Z</time></trkpt><trkpt lat="44.336624" lon="8.0746992"><ele>647.0</ele><time>2026-04-26T14:00:06.482Z</time></trkpt><trkpt lat="44.3367215" lon="8.074677"><ele>647.0</ele><time>2026-04-26T14:00:07.482Z</time></trkpt><trkpt lat="44.336836" lon="8.0746802"><ele>647.0</ele><time>2026-04-26T14:00:08.482Z</time></trkpt><trkpt lat="44.336956" lon="8.074721"><ele>647.0</ele><time>2026-04-26T14:00:09.482Z</time></trkpt><trkpt lat="44.3370733" lon="8.07479"><ele>647.0</ele><time>2026-04-26T14:00:10.48Z</time></trkpt><trkpt lat="44.3371973" lon="8.074858"><ele>647.0</ele><time>2026-04-26T14:00:11.48Z</time></trkpt><trkpt lat="44.3373437" lon="8.0749095"><ele>647.0</ele><time>2026-04-26T14:00:12.481Z</time></trkpt><trkpt lat="44.3375068" lon="8.0749313"><ele>647.0</ele><time>2026-04-26T14:00:13.479Z</time></trkpt><trkpt lat="44.3376687" lon="8.0749265"><ele>645.3333333333333</ele><time>2026-04-26T14:00:14.478Z</time></trkpt><trkpt lat="44.3378208" lon="8.0749267"><ele>643.6666666666666</ele><time>2026-04-26T14:00:15.479Z</time></trkpt><trkpt lat="44.3379708" lon="8.0749618"><ele>642.0</ele><time>2026-04-26T14:00:16.479Z</time></trkpt><trkpt lat="44.3381177" lon="8.075027"><ele>649.25</ele><time>2026-04-26T14:00:17.481Z</time></trkpt><trkpt lat="44.3382487" lon="8.0750898"><ele>656.5</ele><time>2026-04-26T14:00:18.479Z</time></trkpt><trkpt lat="44.3383777" lon="8.0751215"><ele>663.75</ele><time>2026-04-26T14:00:19.479Z</time></trkpt><trkpt lat="44.3385187" lon="8.0751085"><ele>671.0</ele><time>2026-04-26T14:00:20.479Z</time></trkpt><trkpt lat="44.3386712" lon="8.0750593"><ele>671.0</ele><time>2026-04-26T14:00:21.479Z</time></trkpt><trkpt lat="44.338828" lon="8.0749872"><ele>671.0</ele><time>2026-04-26T14:00:22.48Z</time></trkpt><trkpt lat="44.3389922" lon="8.074898"><ele>671.0</ele><time>2026-04-26T14:00:23.48Z</time></trkpt><trkpt lat="44.3391455" lon="8.0748055"><ele>669.0</ele><time>2026-04-26T14:00:24.479Z</time></trkpt><trkpt lat="44.3392817" lon="8.0747275"><ele>667.0</ele><time>2026-04-26T14:00:25.479Z</time></trkpt><trkpt lat="44.33941" lon="8.074682"><ele>665.0</ele><time>2026-04-26T14:00:26.48Z</time></trkpt><trkpt lat="44.3395375" lon="8.0746875"><ele>663.0</ele><time>2026-04-26T14:00:27.481Z</time></trkpt><trkpt lat="44.3396752" lon="8.0747317"><ele>664.3333333333334</ele><time>2026-04-26T14:00:28.481Z</time></trkpt><trkpt lat="44.3398282" lon="8.074787"><ele>665.6666666666667</ele><time>2026-04-26T14:00:29.48Z</time></trkpt><trkpt lat="44.3399957" lon="8.0748247"><ele>667.0</ele><time>2026-04-26T14:00:30.481Z</time></trkpt><trkpt lat="44.3401687" lon="8.0748357"><ele>667.0</ele><time>2026-04-26T14:00:31.48Z</time></trkpt><trkpt lat="44.3403453" lon="8.0748293"><ele>667.0</ele><time>2026-04-26T14:00:32.481Z</time></trkpt><trkpt lat="44.340509" lon="8.0748002"><ele>667.0</ele><time>2026-04-26T14:00:33.48Z</time></trkpt><trkpt lat="44.3406487" lon="8.0747495"><ele>669.5</ele><time>2026-04-26T14:00:34.478Z</time></trkpt><trkpt lat="44.3407762" lon="8.0746772"><ele>672.0</ele><time>2026-04-26T14:00:35.48Z</time></trkpt><trkpt lat="44.3409065" lon="8.0746297"><ele>674.5</ele><time>2026-04-26T14:00:36.479Z</time></trkpt><trkpt lat="44.3410427" lon="8.0745892"><ele>677.0</ele><time>2026-04-26T14:00:37.477Z</time></trkpt><trkpt lat="44.3411678" lon="8.0745235"><ele>677.0</ele><time>2026-04-26T14:00:38.477Z</time></trkpt><trkpt lat="44.3412783" lon="8.0744193"><ele>677.0</ele><time>2026-04-26T14:00:39.478Z</time></trkpt><trkpt lat="44.3413743" lon="8.0743273"><ele>677.0</ele><time>2026-04-26T14:00:40.476Z</time></trkpt><trkpt lat="44.3414738" lon="8.074259"><ele>677.0</ele><time>2026-04-26T14:00:41.476Z</time></trkpt><trkpt lat="44.3415685" lon="8.0741827"><ele>678.0</ele><time>2026-04-26T14:00:42.48Z</time></trkpt><trkpt lat="44.3416482" lon="8.0740603"><ele>679.0</ele><time>2026-04-26T14:00:43.479Z</time></trkpt><trkpt lat="44.3417015" lon="8.073925"><ele>680.0</ele><time>2026-04-26T14:00:44.479Z</time></trkpt><trkpt lat="44.3417642" lon="8.0738188"><ele>681.0</ele><time>2026-04-26T14:00:45.48Z</time></trkpt><trkpt lat="44.3418528" lon="8.0737558"><ele>682.0</ele><time>2026-04-26T14:00:46.481Z</time></trkpt><trkpt lat="44.3419588" lon="8.073724"><ele>682.0</ele><time>2026-04-26T14:00:47.478Z</time></trkpt><trkpt lat="44.3420602" lon="8.0736685"><ele>682.0</ele><time>2026-04-26T14:00:48.48Z</time></trkpt><trkpt lat="44.3421545" lon="8.073566"><ele>682.0</ele><time>2026-04-26T14:00:49.481Z</time></trkpt><trkpt lat="44.3422598" lon="8.0734517"><ele>682.0</ele><time>2026-04-26T14:00:50.481Z</time></trkpt><trkpt lat="44.3423855" lon="8.0733685"><ele>682.25</ele><time>2026-04-26T14:00:51.481Z</time></trkpt><trkpt lat="44.3425183" lon="8.0733245"><ele>682.5</ele><time>2026-04-26T14:00:52.481Z</time></trkpt><trkpt lat="44.3426353" lon="8.0732985"><ele>682.75</ele><time>2026-04-26T14:00:53.478Z</time></trkpt><trkpt lat="44.3427422" lon="8.073262"><ele>683.0</ele><time>2026-04-26T14:00:54.479Z</time></trkpt><trkpt lat="44.3428248" lon="8.0731807"><ele>683.0</ele><time>2026-04-26T14:00:55.48Z</time></trkpt><trkpt lat="44.342891" lon="8.0730493"><ele>683.0</ele><time>2026-04-26T14:00:56.48Z</time></trkpt><trkpt lat="44.342944" lon="8.0729012"><ele>683.0</ele><time>2026-04-26T14:00:57.482Z</time></trkpt><trkpt lat="44.3430072" lon="8.0727815"><ele>683.0</ele><time>2026-04-26T14:00:58.481Z</time></trkpt><trkpt lat="44.3430958" lon="8.0727027"><ele>683.0</ele><time>2026-04-26T14:00:59.479Z</time></trkpt><trkpt lat="44.343216" lon="8.072661"><ele>690.0</ele><time>2026-04-26T14:01:00.48Z</time></trkpt><trkpt lat="44.343361" lon="8.0726363"><ele>697.0</ele><time>2026-04-26T14:01:01.48Z</time></trkpt><trkpt lat="44.3435268" lon="8.0726102"><ele>704.0</ele><time>2026-04-26T14:01:02.479Z</time></trkpt><trkpt lat="44.3436978" lon="8.0725875"><ele>707.6666666666666</ele><time>2026-04-26T14:01:03.478Z</time></trkpt><trkpt lat="44.3438843" lon="8.072562"><ele>711.3333333333334</ele><time>2026-04-26T14:01:04.479Z</time></trkpt><trkpt lat="44.344059" lon="8.072543"><ele>715.0</ele><time>2026-04-26T14:01:05.475Z</time></trkpt><trkpt lat="44.3442135" lon="8.0725183"><ele>715.0</ele><time>2026-04-26T14:01:06.478Z</time></trkpt><trkpt lat="44.3443502" lon="8.0724807"><ele>715.0</ele><time>2026-04-26T14:01:07.479Z</time></trkpt><trkpt lat="44.3444783" lon="8.0724518"><ele>715.0</ele><time>2026-04-26T14:01:08.479Z</time></trkpt><trkpt lat="44.3446002" lon="8.0724502"><ele>715.0</ele><time>2026-04-26T14:01:09.48Z</time></trkpt><trkpt lat="44.3447302" lon="8.0724817"><ele>716.5</ele><time>2026-04-26T14:01:10.479Z</time></trkpt><trkpt lat="44.3448628" lon="8.0725557"><ele>718.0</ele><time>2026-04-26T14:01:11.481Z</time></trkpt><trkpt lat="44.344987" lon="8.072666"><ele>719.5</ele><time>2026-04-26T14:01:12.479Z</time></trkpt><trkpt lat="44.3451108" lon="8.0728015"><ele>721.0</ele><time>2026-04-26T14:01:13.478Z</time></trkpt><trkpt lat="44.3452383" lon="8.0729538"><ele>721.0</ele><time>2026-04-26T14:01:14.48Z</time></trkpt><trkpt lat="44.3453695" lon="8.0731253"><ele>721.0</ele><time>2026-04-26T14:01:15.479Z</time></trkpt><trkpt lat="44.3455005" lon="8.0733043"><ele>721.0</ele><time>2026-04-26T14:01:16.478Z</time></trkpt><trkpt lat="44.3456198" lon="8.0734625"><ele>722.0</ele><time>2026-04-26T14:01:17.479Z</time></trkpt><trkpt lat="44.3457332" lon="8.073589"><ele>723.0</ele><time>2026-04-26T14:01:18.48Z</time></trkpt><trkpt lat="44.3458415" lon="8.0736827"><ele>724.0</ele><time>2026-04-26T14:01:19.479Z</time></trkpt><trkpt lat="44.3459467" lon="8.0737363"><ele>725.0</ele><time>2026-04-26T14:01:20.478Z</time></trkpt><trkpt lat="44.3460517" lon="8.0737367"><ele>725.0</ele><time>2026-04-26T14:01:21.478Z</time></trkpt><trkpt lat="44.3461752" lon="8.0737015"><ele>725.0</ele><time>2026-04-26T14:01:22.479Z</time></trkpt><trkpt lat="44.3463152" lon="8.0736493"><ele>725.0</ele><time>2026-04-26T14:01:23.478Z</time></trkpt><trkpt lat="44.346447" lon="8.0735927"><ele>725.0</ele><time>2026-04-26T14:01:24.484Z</time></trkpt><trkpt lat="44.3465708" lon="8.0735387"><ele>724.0</ele><time>2026-04-26T14:01:25.48Z</time></trkpt><trkpt lat="44.3466905" lon="8.0734973"><ele>723.0</ele><time>2026-04-26T14:01:26.478Z</time></trkpt><trkpt lat="44.3468108" lon="8.0734952"><ele>722.0</ele><time>2026-04-26T14:01:27.477Z</time></trkpt><trkpt lat="44.3469458" lon="8.0735178"><ele>721.0</ele><time>2026-04-26T14:01:28.476Z</time></trkpt><trkpt lat="44.3470787" lon="8.0735247"><ele>721.0</ele><time>2026-04-26T14:01:29.478Z</time></trkpt><trkpt lat="44.3472013" lon="8.0735062"><ele>721.0</ele><time>2026-04-26T14:01:30.477Z</time></trkpt><trkpt lat="44.3473147" lon="8.0734478"><ele>721.0</ele><time>2026-04-26T14:01:31.479Z</time></trkpt><trkpt lat="44.347424" lon="8.0733502"><ele>721.0</ele><time>2026-04-26T14:01:32.48Z</time></trkpt><trkpt lat="44.3475348" lon="8.0732278"><ele>720.5</ele><time>2026-04-26T14:01:33.48Z</time></trkpt><trkpt lat="44.3476475" lon="8.0731182"><ele>720.0</ele><time>2026-04-26T14:01:34.482Z</time></trkpt><trkpt lat="44.3477665" lon="8.0730303"><ele>719.5</ele><time>2026-04-26T14:01:35.48Z</time></trkpt><trkpt lat="44.3478915" lon="8.0729648"><ele>719.0</ele><time>2026-04-26T14:01:36.479Z</time></trkpt><trkpt lat="44.3480188" lon="8.0729117"><ele>715.75</ele><time>2026-04-26T14:01:37.482Z</time></trkpt><trkpt lat="44.3481465" lon="8.0728605"><ele>712.5</ele><time>2026-04-26T14:01:38.481Z</time></trkpt><trkpt lat="44.3482742" lon="8.0728107"><ele>709.25</ele><time>2026-04-26T14:01:39.48Z</time></trkpt><trkpt lat="44.3484018" lon="8.0727637"><ele>706.0</ele><time>2026-04-26T14:01:40.479Z</time></trkpt><trkpt lat="44.3485293" lon="8.0727207"><ele>706.0</ele><time>2026-04-26T14:01:41.479Z</time></trkpt><trkpt lat="44.348656" lon="8.0726788"><ele>706.0</ele><time>2026-04-26T14:01:42.479Z</time></trkpt><trkpt lat="44.3487752" lon="8.072633"><ele>706.0</ele><time>2026-04-26T14:01:43.479Z</time></trkpt><trkpt lat="44.3488898" lon="8.0725842"><ele>706.0</ele><time>2026-04-26T14:01:44.478Z</time></trkpt><trkpt lat="44.3489987" lon="8.0725332"><ele>705.5999999999999</ele><time>2026-04-26T14:01:45.478Z</time></trkpt><trkpt lat="44.3491053" lon="8.0724857"><ele>705.2</ele><time>2026-04-26T14:01:46.478Z</time></trkpt><trkpt lat="44.3492095" lon="8.0724395"><ele>704.8</ele><time>2026-04-26T14:01:47.479Z</time></trkpt><trkpt lat="44.3493125" lon="8.0723925"><ele>704.4000000000001</ele><time>2026-04-26T14:01:48.483Z</time></trkpt><trkpt lat="44.3494115" lon="8.0723443"><ele>704.0</ele><time>2026-04-26T14:01:49.479Z</time></trkpt><trkpt lat="44.3495143" lon="8.0723018"><ele>703.0</ele><time>2026-04-26T14:01:50.479Z</time></trkpt><trkpt lat="44.3496242" lon="8.0722662"><ele>702.0</ele><time>2026-04-26T14:01:51.479Z</time></trkpt><trkpt lat="44.3497387" lon="8.0722337"><ele>701.0</ele><time>2026-04-26T14:01:52.477Z</time></trkpt><trkpt lat="44.3498598" lon="8.0722118"><ele>700.0</ele><time>2026-04-26T14:01:53.475Z</time></trkpt><trkpt lat="44.3499857" lon="8.07221"><ele>700.0</ele><time>2026-04-26T14:01:54.475Z</time></trkpt><trkpt lat="44.3501182" lon="8.072231"><ele>700.0</ele><time>2026-04-26T14:01:55.478Z</time></trkpt><trkpt lat="44.3502588" lon="8.07226"><ele>700.0</ele><time>2026-04-26T14:01:56.478Z</time></trkpt><trkpt lat="44.350406" lon="8.072294"><ele>700.0</ele><time>2026-04-26T14:01:57.478Z</time></trkpt><trkpt lat="44.3505533" lon="8.0723262"><ele>700.0</ele><time>2026-04-26T14:01:58.48Z</time></trkpt><trkpt lat="44.3506962" lon="8.0723632"><ele>700.0</ele><time>2026-04-26T14:01:59.478Z</time></trkpt><trkpt lat="44.3508328" lon="8.0724057"><ele>700.0</ele><time>2026-04-26T14:02:00.479Z</time></trkpt><trkpt lat="44.3509648" lon="8.0724502"><ele>700.0</ele><time>2026-04-26T14:02:01.48Z</time></trkpt><trkpt lat="44.3510982" lon="8.0724977"><ele>700.0</ele><time>2026-04-26T14:02:02.478Z</time></trkpt><trkpt lat="44.3512328" lon="8.0725485"><ele>700.0</ele><time>2026-04-26T14:02:03.48Z</time></trkpt><trkpt lat="44.3513678" lon="8.0726077"><ele>700.0</ele><time>2026-04-26T14:02:04.479Z</time></trkpt><trkpt lat="44.3515027" lon="8.0726832"><ele>700.0</ele><time>2026-04-26T14:02:05.48Z</time></trkpt><trkpt lat="44.3516395" lon="8.0727782"><ele>702.3333333333334</ele><time>2026-04-26T14:02:06.48Z</time></trkpt><trkpt lat="44.3517792" lon="8.0728838"><ele>704.6666666666666</ele><time>2026-04-26T14:02:07.48Z</time></trkpt><trkpt lat="44.3519255" lon="8.072996"><ele>707.0</ele><time>2026-04-26T14:02:08.482Z</time></trkpt><trkpt lat="44.3520777" lon="8.0731112"><ele>711.0</ele><time>2026-04-26T14:02:09.48Z</time></trkpt><trkpt lat="44.3522273" lon="8.0732253"><ele>715.0</ele><time>2026-04-26T14:02:10.479Z</time></trkpt><trkpt lat="44.3523677" lon="8.0733375"><ele>719.0</ele><time>2026-04-26T14:02:11.478Z</time></trkpt><trkpt lat="44.3524985" lon="8.073451"><ele>710.6666666666666</ele><time>2026-04-26T14:02:12.48Z</time></trkpt><trkpt lat="44.3526317" lon="8.073546"><ele>702.3333333333334</ele><time>2026-04-26T14:02:13.482Z</time></trkpt><trkpt lat="44.352789" lon="8.073609"><ele>694.0</ele><time>2026-04-26T14:02:14.48Z</time></trkpt><trkpt lat="44.3529665" lon="8.0736535"><ele>695.6666666666667</ele><time>2026-04-26T14:02:15.48Z</time></trkpt><trkpt lat="44.353147" lon="8.0736947"><ele>697.3333333333334</ele><time>2026-04-26T14:02:16.477Z</time></trkpt><trkpt lat="44.3533123" lon="8.0737348"><ele>699.0</ele><time>2026-04-26T14:02:17.477Z</time></trkpt><trkpt lat="44.3534558" lon="8.0737792"><ele>699.0</ele><time>2026-04-26T14:02:18.477Z</time></trkpt><trkpt lat="44.3535715" lon="8.0738438"><ele>699.0</ele><time>2026-04-26T14:02:19.477Z</time></trkpt><trkpt lat="44.3536645" lon="8.0739445"><ele>699.0</ele><time>2026-04-26T14:02:20.479Z</time></trkpt><trkpt lat="44.3537475" lon="8.0740563"><ele>699.0</ele><time>2026-04-26T14:02:21.475Z</time></trkpt><trkpt lat="44.3538402" lon="8.0741288"><ele>701.0</ele><time>2026-04-26T14:02:22.478Z</time></trkpt><trkpt lat="44.3539593" lon="8.0741613"><ele>703.0</ele><time>2026-04-26T14:02:23.478Z</time></trkpt><trkpt lat="44.3541035" lon="8.0741585"><ele>705.0</ele><time>2026-04-26T14:02:24.478Z</time></trkpt><trkpt lat="44.3542542" lon="8.0741227"><ele>707.0</ele><time>2026-04-26T14:02:25.476Z</time></trkpt><trkpt lat="44.3544112" lon="8.0740503"><ele>707.0</ele><time>2026-04-26T14:02:26.476Z</time></trkpt><trkpt lat="44.3545467" lon="8.073956"><ele>707.0</ele><time>2026-04-26T14:02:27.477Z</time></trkpt><trkpt lat="44.354659" lon="8.0738518"><ele>707.0</ele><time>2026-04-26T14:02:28.475Z</time></trkpt><trkpt lat="44.3547538" lon="8.0737442"><ele>707.0</ele><time>2026-04-26T14:02:29.477Z</time></trkpt><trkpt lat="44.3548515" lon="8.0736692"><ele>705.25</ele><time>2026-04-26T14:02:30.476Z</time></trkpt><trkpt lat="44.3549557" lon="8.0736485"><ele>703.5</ele><time>2026-04-26T14:02:31.476Z</time></trkpt><trkpt lat="44.355065" lon="8.0736795"><ele>701.75</ele><time>2026-04-26T14:02:32.477Z</time></trkpt><trkpt lat="44.3551772" lon="8.073739"><ele>700.0</ele><time>2026-04-26T14:02:33.476Z</time></trkpt><trkpt lat="44.355293" lon="8.0737717"><ele>700.0</ele><time>2026-04-26T14:02:34.477Z</time></trkpt><trkpt lat="44.3554082" lon="8.0737618"><ele>700.0</ele><time>2026-04-26T14:02:35.478Z</time></trkpt><trkpt lat="44.3555138" lon="8.0737163"><ele>700.0</ele><time>2026-04-26T14:02:36.476Z</time></trkpt><trkpt lat="44.355596" lon="8.0736322"><ele>700.0</ele><time>2026-04-26T14:02:37.477Z</time></trkpt><trkpt lat="44.3556597" lon="8.0735005"><ele>700.0</ele><time>2026-04-26T14:02:38.477Z</time></trkpt><trkpt lat="44.3557137" lon="8.0733528"><ele>701.5</ele><time>2026-04-26T14:02:39.477Z</time></trkpt><trkpt lat="44.3557755" lon="8.073224"><ele>703.0</ele><time>2026-04-26T14:02:40.475Z</time></trkpt><trkpt lat="44.3558618" lon="8.0731393"><ele>704.5</ele><time>2026-04-26T14:02:41.476Z</time></trkpt><trkpt lat="44.3559728" lon="8.0730837"><ele>706.0</ele><time>2026-04-26T14:02:42.477Z</time></trkpt><trkpt lat="44.3561027" lon="8.073041"><ele>706.0</ele><time>2026-04-26T14:02:43.476Z</time></trkpt><trkpt lat="44.3562425" lon="8.0729885"><ele>706.0</ele><time>2026-04-26T14:02:44.476Z</time></trkpt><trkpt lat="44.3563918" lon="8.0729302"><ele>706.0</ele><time>2026-04-26T14:02:45.478Z</time></trkpt><trkpt lat="44.356542" lon="8.0728935"><ele>702.3333333333334</ele><time>2026-04-26T14:02:46.478Z</time></trkpt><trkpt lat="44.356693" lon="8.0728642"><ele>698.6666666666666</ele><time>2026-04-26T14:02:47.473Z</time></trkpt><trkpt lat="44.3568535" lon="8.072826"><ele>695.0</ele><time>2026-04-26T14:02:48.475Z</time></trkpt><trkpt lat="44.357018" lon="8.072766"><ele>695.0</ele><time>2026-04-26T14:02:49.474Z</time></trkpt><trkpt lat="44.3571688" lon="8.0727015"><ele>695.0</ele><time>2026-04-26T14:02:50.475Z</time></trkpt><trkpt lat="44.3573068" lon="8.0726325"><ele>695.0</ele><time>2026-04-26T14:02:51.475Z</time></trkpt><trkpt lat="44.3574267" lon="8.0725423"><ele>695.0</ele><time>2026-04-26T14:02:52.476Z</time></trkpt><trkpt lat="44.3575312" lon="8.0724063"><ele>694.3333333333333</ele><time>2026-04-26T14:02:53.477Z</time></trkpt><trkpt lat="44.3576372" lon="8.0722703"><ele>693.6666666666666</ele><time>2026-04-26T14:02:54.477Z</time></trkpt><trkpt lat="44.3577675" lon="8.0721573"><ele>693.0</ele><time>2026-04-26T14:02:55.478Z</time></trkpt><trkpt lat="44.3579227" lon="8.0720647"><ele>688.3333333333334</ele><time>2026-04-26T14:02:56.478Z</time></trkpt><trkpt lat="44.3580833" lon="8.0719772"><ele>683.6666666666667</ele><time>2026-04-26T14:02:57.479Z</time></trkpt><trkpt lat="44.358225" lon="8.0719015"><ele>679.0</ele><time>2026-04-26T14:02:58.478Z</time></trkpt><trkpt lat="44.358344" lon="8.0718342"><ele>679.0</ele><time>2026-04-26T14:02:59.479Z</time></trkpt><trkpt lat="44.3584442" lon="8.0717598"><ele>679.0</ele><time>2026-04-26T14:03:00.481Z</time></trkpt><trkpt lat="44.358527" lon="8.0716402"><ele>679.0</ele><time>2026-04-26T14:03:01.48Z</time></trkpt><trkpt lat="44.3586007" lon="8.0714717"><ele>679.0</ele><time>2026-04-26T14:03:02.481Z</time></trkpt><trkpt lat="44.3586718" lon="8.0712762"><ele>679.75</ele><time>2026-04-26T14:03:03.48Z</time></trkpt><trkpt lat="44.3587382" lon="8.0710748"><ele>680.5</ele><time>2026-04-26T14:03:04.48Z</time></trkpt><trkpt lat="44.3587892" lon="8.0708807"><ele>681.25</ele><time>2026-04-26T14:03:05.477Z</time></trkpt><trkpt lat="44.358818" lon="8.0706933"><ele>682.0</ele><time>2026-04-26T14:03:06.477Z</time></trkpt><trkpt lat="44.3588185" lon="8.070513"><ele>680.25</ele><time>2026-04-26T14:03:07.478Z</time></trkpt><trkpt lat="44.3587853" lon="8.0703328"><ele>678.5</ele><time>2026-04-26T14:03:08.477Z</time></trkpt><trkpt lat="44.3587127" lon="8.070152"><ele>676.75</ele><time>2026-04-26T14:03:09.482Z</time></trkpt><trkpt lat="44.3586248" lon="8.0699658"><ele>675.0</ele><time>2026-04-26T14:03:10.479Z</time></trkpt><trkpt lat="44.3585427" lon="8.0697728"><ele>670.75</ele><time>2026-04-26T14:03:11.48Z</time></trkpt><trkpt lat="44.358472" lon="8.0695835"><ele>666.5</ele><time>2026-04-26T14:03:12.477Z</time></trkpt><trkpt lat="44.3584033" lon="8.0694123"><ele>662.25</ele><time>2026-04-26T14:03:13.478Z</time></trkpt><trkpt lat="44.3583218" lon="8.0692703"><ele>658.0</ele><time>2026-04-26T14:03:14.477Z</time></trkpt><trkpt lat="44.3582223" lon="8.0691643"><ele>658.3333333333334</ele><time>2026-04-26T14:03:15.478Z</time></trkpt><trkpt lat="44.3580947" lon="8.0690918"><ele>658.6666666666666</ele><time>2026-04-26T14:03:16.478Z</time></trkpt><trkpt lat="44.3579435" lon="8.069042"><ele>659.0</ele><time>2026-04-26T14:03:17.479Z</time></trkpt><trkpt lat="44.3577898" lon="8.0689943"><ele>659.0</ele><time>2026-04-26T14:03:18.48Z</time></trkpt><trkpt lat="44.3576457" lon="8.0689448"><ele>659.0</ele><time>2026-04-26T14:03:19.48Z</time></trkpt><trkpt lat="44.357509" lon="8.068907"><ele>659.0</ele><time>2026-04-26T14:03:20.478Z</time></trkpt><trkpt lat="44.3573822" lon="8.0688778"><ele>659.0</ele><time>2026-04-26T14:03:21.479Z</time></trkpt><trkpt lat="44.3572757" lon="8.0688512"><ele>659.0</ele><time>2026-04-26T14:03:22.479Z</time></trkpt><trkpt lat="44.3571968" lon="8.0688103"><ele>659.0</ele><time>2026-04-26T14:03:23.479Z</time></trkpt><trkpt lat="44.3571512" lon="8.068741"><ele>659.0</ele><time>2026-04-26T14:03:24.478Z</time></trkpt><trkpt lat="44.3571478" lon="8.0686463"><ele>659.0</ele><time>2026-04-26T14:03:25.479Z</time></trkpt><trkpt lat="44.3571807" lon="8.0685425"><ele>659.0</ele><time>2026-04-26T14:03:26.478Z</time></trkpt><trkpt lat="44.3572503" lon="8.0684275"><ele>659.0</ele><time>2026-04-26T14:03:27.481Z</time></trkpt><trkpt lat="44.3573402" lon="8.068297"><ele>659.0</ele><time>2026-04-26T14:03:28.478Z</time></trkpt><trkpt lat="44.3574477" lon="8.0681527"><ele>659.0</ele><time>2026-04-26T14:03:29.479Z</time></trkpt><trkpt lat="44.3575577" lon="8.067994"><ele>659.0</ele><time>2026-04-26T14:03:30.477Z</time></trkpt><trkpt lat="44.357662" lon="8.0678437"><ele>659.0</ele><time>2026-04-26T14:03:31.476Z</time></trkpt><trkpt lat="44.3577703" lon="8.0677203"><ele>659.0</ele><time>2026-04-26T14:03:32.475Z</time></trkpt><trkpt lat="44.3578667" lon="8.0675962"><ele>659.0</ele><time>2026-04-26T14:03:33.479Z</time></trkpt><trkpt lat="44.3579323" lon="8.0674507"><ele>659.0</ele><time>2026-04-26T14:03:34.478Z</time></trkpt><trkpt lat="44.3579795" lon="8.0673055"><ele>657.6</ele><time>2026-04-26T14:03:35.478Z</time></trkpt><trkpt lat="44.3580418" lon="8.0671913"><ele>656.2</ele><time>2026-04-26T14:03:36.479Z</time></trkpt><trkpt lat="44.358124" lon="8.0671273"><ele>654.8000000000001</ele><time>2026-04-26T14:03:37.476Z</time></trkpt><trkpt lat="44.3582302" lon="8.0671098"><ele>653.4000000000001</ele><time>2026-04-26T14:03:38.475Z</time></trkpt><trkpt lat="44.3583547" lon="8.0671273"><ele>652.0</ele><time>2026-04-26T14:03:39.475Z</time></trkpt><trkpt lat="44.3584967" lon="8.0671593"><ele>652.0</ele><time>2026-04-26T14:03:40.477Z</time></trkpt><trkpt lat="44.358636" lon="8.0672038"><ele>652.0</ele><time>2026-04-26T14:03:41.477Z</time></trkpt><trkpt lat="44.3587582" lon="8.0672538"><ele>652.0</ele><time>2026-04-26T14:03:42.478Z</time></trkpt><trkpt lat="44.3588693" lon="8.0672887"><ele>652.0</ele><time>2026-04-26T14:03:43.478Z</time></trkpt><trkpt lat="44.3589808" lon="8.0672877"><ele>649.75</ele><time>2026-04-26T14:03:44.478Z</time></trkpt><trkpt lat="44.3590893" lon="8.0672307"><ele>647.5</ele><time>2026-04-26T14:03:45.48Z</time></trkpt><trkpt lat="44.3591947" lon="8.0671188"><ele>645.25</ele><time>2026-04-26T14:03:46.478Z</time></trkpt><trkpt lat="44.3592775" lon="8.06696"><ele>643.0</ele><time>2026-04-26T14:03:47.478Z</time></trkpt><trkpt lat="44.3593348" lon="8.0668022"><ele>643.0</ele><time>2026-04-26T14:03:48.479Z</time></trkpt><trkpt lat="44.3594048" lon="8.0666683"><ele>643.0</ele><time>2026-04-26T14:03:49.477Z</time></trkpt><trkpt lat="44.359504" lon="8.0665682"><ele>643.0</ele><time>2026-04-26T14:03:50.479Z</time></trkpt><trkpt lat="44.3596285" lon="8.0664875"><ele>643.0</ele><time>2026-04-26T14:03:51.48Z</time></trkpt><trkpt lat="44.3597692" lon="8.066411"><ele>641.5</ele><time>2026-04-26T14:03:52.478Z</time></trkpt><trkpt lat="44.3598963" lon="8.066339"><ele>640.0</ele><time>2026-04-26T14:03:53.477Z</time></trkpt><trkpt lat="44.3600073" lon="8.066271"><ele>638.5</ele><time>2026-04-26T14:03:54.476Z</time></trkpt><trkpt lat="44.3601038" lon="8.0662043"><ele>637.0</ele><time>2026-04-26T14:03:55.475Z</time></trkpt><trkpt lat="44.360185" lon="8.0661348"><ele>637.0</ele><time>2026-04-26T14:03:56.475Z</time></trkpt><trkpt lat="44.36025" lon="8.0660483"><ele>637.0</ele><time>2026-04-26T14:03:57.477Z</time></trkpt><trkpt lat="44.3602973" lon="8.0659548"><ele>637.0</ele><time>2026-04-26T14:03:58.478Z</time></trkpt><trkpt lat="44.3603293" lon="8.065863"><ele>637.0</ele><time>2026-04-26T14:03:59.48Z</time></trkpt><trkpt lat="44.3603627" lon="8.0657712"><ele>637.0</ele><time>2026-04-26T14:04:00.479Z</time></trkpt><trkpt lat="44.3603953" lon="8.0656677"><ele>637.0</ele><time>2026-04-26T14:04:01.478Z</time></trkpt><trkpt lat="44.3604292" lon="8.0655588"><ele>637.3333333333334</ele><time>2026-04-26T14:04:02.479Z</time></trkpt><trkpt lat="44.3604672" lon="8.065446"><ele>637.6666666666667</ele><time>2026-04-26T14:04:03.48Z</time></trkpt><trkpt lat="44.3605072" lon="8.0653372"><ele>638.0</ele><time>2026-04-26T14:04:04.48Z</time></trkpt><trkpt lat="44.3605492" lon="8.0652353"><ele>638.3333333333334</ele><time>2026-04-26T14:04:05.48Z</time></trkpt><trkpt lat="44.3605975" lon="8.0651317"><ele>638.6666666666666</ele><time>2026-04-26T14:04:06.482Z</time></trkpt><trkpt lat="44.360653" lon="8.0650273"><ele>639.0</ele><time>2026-04-26T14:04:07.48Z</time></trkpt><trkpt lat="44.3607148" lon="8.0649273"><ele>636.6</ele><time>2026-04-26T14:04:08.479Z</time></trkpt><trkpt lat="44.360782" lon="8.0648358"><ele>634.2</ele><time>2026-04-26T14:04:09.481Z</time></trkpt><trkpt lat="44.3608543" lon="8.0647522"><ele>631.8000000000001</ele><time>2026-04-26T14:04:10.481Z</time></trkpt><trkpt lat="44.3609305" lon="8.0646725"><ele>629.4</ele><time>2026-04-26T14:04:11.478Z</time></trkpt><trkpt lat="44.3610073" lon="8.0645957"><ele>627.0</ele><time>2026-04-26T14:04:12.479Z</time></trkpt><trkpt lat="44.3610843" lon="8.0645258"><ele>627.0</ele><time>2026-04-26T14:04:13.479Z</time></trkpt><trkpt lat="44.3611607" lon="8.0644545"><ele>627.0</ele><time>2026-04-26T14:04:14.48Z</time></trkpt><trkpt lat="44.3612468" lon="8.064362"><ele>627.0</ele><time>2026-04-26T14:04:15.481Z</time></trkpt><trkpt lat="44.3613472" lon="8.0642503"><ele>627.0</ele><time>2026-04-26T14:04:16.479Z</time></trkpt><trkpt lat="44.3614588" lon="8.0641192"><ele>622.3333333333334</ele><time>2026-04-26T14:04:17.478Z</time></trkpt><trkpt lat="44.3615692" lon="8.0639667"><ele>617.6666666666667</ele><time>2026-04-26T14:04:18.478Z</time></trkpt><trkpt lat="44.3616813" lon="8.06381"><ele>613.0</ele><time>2026-04-26T14:04:19.478Z</time></trkpt><trkpt lat="44.3618112" lon="8.0636598"><ele>613.0</ele><time>2026-04-26T14:04:20.478Z</time></trkpt><trkpt lat="44.361955" lon="8.0635188"><ele>613.0</ele><time>2026-04-26T14:04:21.476Z</time></trkpt><trkpt lat="44.3620933" lon="8.0633842"><ele>613.0</ele><time>2026-04-26T14:04:22.479Z</time></trkpt><trkpt lat="44.3622212" lon="8.0632478"><ele>608.75</ele><time>2026-04-26T14:04:23.48Z</time></trkpt><trkpt lat="44.3623347" lon="8.0631012"><ele>604.5</ele><time>2026-04-26T14:04:24.479Z</time></trkpt><trkpt lat="44.362435" lon="8.0629533"><ele>600.25</ele><time>2026-04-26T14:04:25.48Z</time></trkpt><trkpt lat="44.3625282" lon="8.062815"><ele>596.0</ele><time>2026-04-26T14:04:26.478Z</time></trkpt><trkpt lat="44.3626145" lon="8.0626932"><ele>596.0</ele><time>2026-04-26T14:04:27.478Z</time></trkpt><trkpt lat="44.3626957" lon="8.0625935"><ele>596.0</ele><time>2026-04-26T14:04:28.479Z</time></trkpt><trkpt lat="44.3627768" lon="8.0625293"><ele>596.0</ele><time>2026-04-26T14:04:29.478Z</time></trkpt><trkpt lat="44.3628533" lon="8.0625207"><ele>596.0</ele><time>2026-04-26T14:04:30.479Z</time></trkpt><trkpt lat="44.3629132" lon="8.0625722"><ele>596.0</ele><time>2026-04-26T14:04:31.481Z</time></trkpt><trkpt lat="44.3629477" lon="8.0626702"><ele>596.0</ele><time>2026-04-26T14:04:32.478Z</time></trkpt><trkpt lat="44.3629593" lon="8.0627963"><ele>596.0</ele><time>2026-04-26T14:04:33.478Z</time></trkpt><trkpt lat="44.3629422" lon="8.0629162"><ele>596.0</ele><time>2026-04-26T14:04:34.478Z</time></trkpt><trkpt lat="44.362896" lon="8.0630262"><ele>596.0</ele><time>2026-04-26T14:04:35.476Z</time></trkpt><trkpt lat="44.3628292" lon="8.063141"><ele>596.0</ele><time>2026-04-26T14:04:36.478Z</time></trkpt><trkpt lat="44.3627513" lon="8.0632757"><ele>596.0</ele><time>2026-04-26T14:04:37.477Z</time></trkpt><trkpt lat="44.3626758" lon="8.0634403"><ele>595.5</ele><time>2026-04-26T14:04:38.476Z</time></trkpt><trkpt lat="44.362605" lon="8.0636357"><ele>595.0</ele><time>2026-04-26T14:04:39.478Z</time></trkpt><trkpt lat="44.3625413" lon="8.0638257"><ele>594.5</ele><time>2026-04-26T14:04:40.478Z</time></trkpt><trkpt lat="44.3624913" lon="8.063999"><ele>594.0</ele><time>2026-04-26T14:04:41.476Z</time></trkpt><trkpt lat="44.3624547" lon="8.0641545"><ele>594.0</ele><time>2026-04-26T14:04:42.477Z</time></trkpt><trkpt lat="44.3624403" lon="8.0642917"><ele>594.0</ele><time>2026-04-26T14:04:43.475Z</time></trkpt><trkpt lat="44.3624453" lon="8.0644017"><ele>594.0</ele><time>2026-04-26T14:04:44.475Z</time></trkpt><trkpt lat="44.3624703" lon="8.064484"><ele>594.0</ele><time>2026-04-26T14:04:45.475Z</time></trkpt><trkpt lat="44.3625808" lon="8.064527"><ele>594.0</ele><time>2026-04-26T14:04:47.479Z</time></trkpt><trkpt lat="44.362646" lon="8.0644797"><ele>594.0</ele><time>2026-04-26T14:04:48.48Z</time></trkpt><trkpt lat="44.3627177" lon="8.0643937"><ele>594.0</ele><time>2026-04-26T14:04:49.479Z</time></trkpt><trkpt lat="44.3627905" lon="8.0642872"><ele>594.0</ele><time>2026-04-26T14:04:50.478Z</time></trkpt><trkpt lat="44.3628697" lon="8.064165"><ele>594.0</ele><time>2026-04-26T14:04:51.482Z</time></trkpt><trkpt lat="44.3629575" lon="8.0640358"><ele>594.0</ele><time>2026-04-26T14:04:52.481Z</time></trkpt><trkpt lat="44.3630427" lon="8.0639163"><ele>591.3333333333334</ele><time>2026-04-26T14:04:53.48Z</time></trkpt><trkpt lat="44.3631243" lon="8.0638217"><ele>588.6666666666666</ele><time>2026-04-26T14:04:54.479Z</time></trkpt><trkpt lat="44.3632085" lon="8.0637718"><ele>586.0</ele><time>2026-04-26T14:04:55.48Z</time></trkpt><trkpt lat="44.3632912" lon="8.0637745"><ele>583.3333333333333</ele><time>2026-04-26T14:04:56.478Z</time></trkpt><trkpt lat="44.3633533" lon="8.063815"><ele>580.6666666666666</ele><time>2026-04-26T14:04:57.48Z</time></trkpt><trkpt lat="44.3634373" lon="8.0638772"><ele>578.0</ele><time>2026-04-26T14:04:59.478Z</time></trkpt><trkpt lat="44.3635043" lon="8.0638233"><ele>578.0</ele><time>2026-04-26T14:05:01.478Z</time></trkpt><trkpt lat="44.363557" lon="8.0637105"><ele>578.0</ele><time>2026-04-26T14:05:03.481Z</time></trkpt><trkpt lat="44.3636055" lon="8.0636108"><ele>578.0</ele><time>2026-04-26T14:05:04.48Z</time></trkpt><trkpt lat="44.3636602" lon="8.0635183"><ele>578.0</ele><time>2026-04-26T14:05:05.479Z</time></trkpt><trkpt lat="44.3636983" lon="8.063433"><ele>578.0</ele><time>2026-04-26T14:05:06.478Z</time></trkpt><trkpt lat="44.3636777" lon="8.0633047"><ele>578.0</ele><time>2026-04-26T14:05:08.475Z</time></trkpt><trkpt lat="44.3635847" lon="8.0633363"><ele>578.0</ele><time>2026-04-26T14:05:10.475Z</time></trkpt><trkpt lat="44.3635438" lon="8.0634063"><ele>578.0</ele><time>2026-04-26T14:05:11.476Z</time></trkpt><trkpt lat="44.3634953" lon="8.0634808"><ele>578.0</ele><time>2026-04-26T14:05:12.477Z</time></trkpt><trkpt lat="44.3634318" lon="8.063519"><ele>578.0</ele><time>2026-04-26T14:05:13.478Z</time></trkpt><trkpt lat="44.3633632" lon="8.0635127"><ele>578.0</ele><time>2026-04-26T14:05:14.478Z</time></trkpt><trkpt lat="44.3633062" lon="8.0634625"><ele>578.0</ele><time>2026-04-26T14:05:15.479Z</time></trkpt><trkpt lat="44.3632823" lon="8.0633792"><ele>578.0</ele><time>2026-04-26T14:05:16.478Z</time></trkpt><trkpt lat="44.3633025" lon="8.0632838"><ele>578.0</ele><time>2026-04-26T14:05:17.478Z</time></trkpt><trkpt lat="44.3633503" lon="8.0631762"><ele>578.0</ele><time>2026-04-26T14:05:18.479Z</time></trkpt><trkpt lat="44.3633977" lon="8.0630477"><ele>578.0</ele><time>2026-04-26T14:05:19.477Z</time></trkpt><trkpt lat="44.3634445" lon="8.062917"><ele>578.0</ele><time>2026-04-26T14:05:20.478Z</time></trkpt><trkpt lat="44.3635133" lon="8.0628008"><ele>578.0</ele><time>2026-04-26T14:05:21.479Z</time></trkpt><trkpt lat="44.363575" lon="8.0626968"><ele>578.0</ele><time>2026-04-26T14:05:22.477Z</time></trkpt><trkpt lat="44.3636152" lon="8.0625827"><ele>578.0</ele><time>2026-04-26T14:05:23.475Z</time></trkpt><trkpt lat="44.3636447" lon="8.0624438"><ele>578.0</ele><time>2026-04-26T14:05:24.475Z</time></trkpt><trkpt lat="44.3636433" lon="8.062269"><ele>578.0</ele><time>2026-04-26T14:05:25.476Z</time></trkpt><trkpt lat="44.3636387" lon="8.0621143"><ele>578.0</ele><time>2026-04-26T14:05:26.475Z</time></trkpt><trkpt lat="44.3636057" lon="8.0619658"><ele>574.25</ele><time>2026-04-26T14:05:27.475Z</time></trkpt><trkpt lat="44.3635285" lon="8.0617878"><ele>570.5</ele><time>2026-04-26T14:05:28.477Z</time></trkpt><trkpt lat="44.363451" lon="8.061612"><ele>566.75</ele><time>2026-04-26T14:05:29.476Z</time></trkpt><trkpt lat="44.3633837" lon="8.0614508"><ele>563.0</ele><time>2026-04-26T14:05:30.477Z</time></trkpt><trkpt lat="44.3633215" lon="8.0613175"><ele>561.0</ele><time>2026-04-26T14:05:31.478Z</time></trkpt><trkpt lat="44.3632583" lon="8.0612158"><ele>559.0</ele><time>2026-04-26T14:05:32.473Z</time></trkpt><trkpt lat="44.363215" lon="8.0611228"><ele>557.0</ele><time>2026-04-26T14:05:33.475Z</time></trkpt><trkpt lat="44.3632165" lon="8.0610212"><ele>555.0</ele><time>2026-04-26T14:05:34.475Z</time></trkpt><trkpt lat="44.3632598" lon="8.0609273"><ele>553.0</ele><time>2026-04-26T14:05:35.474Z</time></trkpt><trkpt lat="44.3633387" lon="8.0608588"><ele>551.0</ele><time>2026-04-26T14:05:36.479Z</time></trkpt><trkpt lat="44.3634187" lon="8.0607902"><ele>547.0</ele><time>2026-04-26T14:05:37.477Z</time></trkpt><trkpt lat="44.3634787" lon="8.060688"><ele>543.0</ele><time>2026-04-26T14:05:38.477Z</time></trkpt><trkpt lat="44.3635237" lon="8.0605407"><ele>539.0</ele><time>2026-04-26T14:05:39.48Z</time></trkpt><trkpt lat="44.3635717" lon="8.0603867"><ele>535.0</ele><time>2026-04-26T14:05:40.478Z</time></trkpt><trkpt lat="44.363642" lon="8.060235"><ele>535.0</ele><time>2026-04-26T14:05:41.476Z</time></trkpt><trkpt lat="44.3637415" lon="8.060076"><ele>535.0</ele><time>2026-04-26T14:05:42.477Z</time></trkpt><trkpt lat="44.3638517" lon="8.0599178"><ele>535.0</ele><time>2026-04-26T14:05:43.478Z</time></trkpt><trkpt lat="44.363962" lon="8.0597807"><ele>525.3333333333334</ele><time>2026-04-26T14:05:44.479Z</time></trkpt><trkpt lat="44.3640828" lon="8.0596727"><ele>515.6666666666666</ele><time>2026-04-26T14:05:45.48Z</time></trkpt><trkpt lat="44.3642217" lon="8.0595933"><ele>506.0</ele><time>2026-04-26T14:05:46.48Z</time></trkpt><trkpt lat="44.3643763" lon="8.0595252"><ele>506.0</ele><time>2026-04-26T14:05:47.479Z</time></trkpt><trkpt lat="44.3645405" lon="8.0594292"><ele>506.0</ele><time>2026-04-26T14:05:48.479Z</time></trkpt><trkpt lat="44.3647092" lon="8.059301"><ele>506.0</ele><time>2026-04-26T14:05:49.48Z</time></trkpt><trkpt lat="44.3648863" lon="8.0591552"><ele>500.66666666666663</ele><time>2026-04-26T14:05:50.48Z</time></trkpt><trkpt lat="44.365078" lon="8.0589972"><ele>495.33333333333337</ele><time>2026-04-26T14:05:51.48Z</time></trkpt><trkpt lat="44.365256" lon="8.0588535"><ele>490.0</ele><time>2026-04-26T14:05:52.481Z</time></trkpt><trkpt lat="44.3654207" lon="8.0587253"><ele>496.6666666666667</ele><time>2026-04-26T14:05:53.478Z</time></trkpt><trkpt lat="44.365572" lon="8.0586048"><ele>503.33333333333337</ele><time>2026-04-26T14:05:54.478Z</time></trkpt><trkpt lat="44.3657147" lon="8.0584728"><ele>510.0</ele><time>2026-04-26T14:05:55.477Z</time></trkpt><trkpt lat="44.3658583" lon="8.0583218"><ele>503.0</ele><time>2026-04-26T14:05:56.476Z</time></trkpt><trkpt lat="44.3660042" lon="8.0581585"><ele>496.0</ele><time>2026-04-26T14:05:57.477Z</time></trkpt><trkpt lat="44.3661513" lon="8.0579862"><ele>489.0</ele><time>2026-04-26T14:05:58.477Z</time></trkpt><trkpt lat="44.3662962" lon="8.057818"><ele>495.66666666666663</ele><time>2026-04-26T14:05:59.476Z</time></trkpt><trkpt lat="44.366431" lon="8.0576628"><ele>502.3333333333333</ele><time>2026-04-26T14:06:00.478Z</time></trkpt><trkpt lat="44.3665555" lon="8.0575183"><ele>509.0</ele><time>2026-04-26T14:06:01.479Z</time></trkpt><trkpt lat="44.3666698" lon="8.057363"><ele>509.0</ele><time>2026-04-26T14:06:02.477Z</time></trkpt><trkpt lat="44.3667627" lon="8.0571805"><ele>509.0</ele><time>2026-04-26T14:06:03.477Z</time></trkpt><trkpt lat="44.3668287" lon="8.0569797"><ele>509.0</ele><time>2026-04-26T14:06:04.478Z</time></trkpt><trkpt lat="44.3668763" lon="8.0567745"><ele>503.66666666666663</ele><time>2026-04-26T14:06:05.479Z</time></trkpt><trkpt lat="44.366925" lon="8.0565633"><ele>498.33333333333337</ele><time>2026-04-26T14:06:06.48Z</time></trkpt><trkpt lat="44.3669872" lon="8.0563547"><ele>493.0</ele><time>2026-04-26T14:06:07.479Z</time></trkpt><trkpt lat="44.3670622" lon="8.0561533"><ele>493.0</ele><time>2026-04-26T14:06:08.48Z</time></trkpt><trkpt lat="44.3671332" lon="8.0559585"><ele>493.0</ele><time>2026-04-26T14:06:09.478Z</time></trkpt><trkpt lat="44.3671938" lon="8.0557545"><ele>493.0</ele><time>2026-04-26T14:06:10.479Z</time></trkpt><trkpt lat="44.3672348" lon="8.055536"><ele>501.33333333333337</ele><time>2026-04-26T14:06:11.478Z</time></trkpt><trkpt lat="44.3672637" lon="8.0553078"><ele>509.66666666666663</ele><time>2026-04-26T14:06:12.481Z</time></trkpt><trkpt lat="44.367303" lon="8.0550857"><ele>518.0</ele><time>2026-04-26T14:06:13.479Z</time></trkpt><trkpt lat="44.3673593" lon="8.0548657"><ele>518.0</ele><time>2026-04-26T14:06:14.479Z</time></trkpt><trkpt lat="44.3674197" lon="8.0546385"><ele>518.0</ele><time>2026-04-26T14:06:15.479Z</time></trkpt><trkpt lat="44.3674655" lon="8.0543973"><ele>518.0</ele><time>2026-04-26T14:06:16.479Z</time></trkpt><trkpt lat="44.3674935" lon="8.0541447"><ele>516.6666666666666</ele><time>2026-04-26T14:06:17.478Z</time></trkpt><trkpt lat="44.3675142" lon="8.0538857"><ele>515.3333333333334</ele><time>2026-04-26T14:06:18.479Z</time></trkpt><trkpt lat="44.3675333" lon="8.053634"><ele>514.0</ele><time>2026-04-26T14:06:19.477Z</time></trkpt><trkpt lat="44.3675495" lon="8.0534033"><ele>512.75</ele><time>2026-04-26T14:06:20.476Z</time></trkpt><trkpt lat="44.3675643" lon="8.0531927"><ele>511.5</ele><time>2026-04-26T14:06:21.476Z</time></trkpt><trkpt lat="44.3675843" lon="8.0530018"><ele>510.25</ele><time>2026-04-26T14:06:22.476Z</time></trkpt><trkpt lat="44.3676203" lon="8.0528245"><ele>509.0</ele><time>2026-04-26T14:06:23.476Z</time></trkpt><trkpt lat="44.3676848" lon="8.052646"><ele>509.0</ele><time>2026-04-26T14:06:24.475Z</time></trkpt><trkpt lat="44.3677622" lon="8.0524563"><ele>509.0</ele><time>2026-04-26T14:06:25.476Z</time></trkpt><trkpt lat="44.3678263" lon="8.0522727"><ele>509.0</ele><time>2026-04-26T14:06:26.479Z</time></trkpt><trkpt lat="44.3678738" lon="8.0520968"><ele>509.0</ele><time>2026-04-26T14:06:27.48Z</time></trkpt><trkpt lat="44.3678963" lon="8.0519255"><ele>507.75</ele><time>2026-04-26T14:06:28.478Z</time></trkpt><trkpt lat="44.3678883" lon="8.0517413"><ele>506.5</ele><time>2026-04-26T14:06:29.477Z</time></trkpt><trkpt lat="44.367877" lon="8.0515575"><ele>505.25</ele><time>2026-04-26T14:06:30.478Z</time></trkpt><trkpt lat="44.3678862" lon="8.0513833"><ele>504.0</ele><time>2026-04-26T14:06:31.478Z</time></trkpt><trkpt lat="44.3679242" lon="8.051225"><ele>504.0</ele><time>2026-04-26T14:06:32.479Z</time></trkpt><trkpt lat="44.3679868" lon="8.0510945"><ele>504.0</ele><time>2026-04-26T14:06:33.478Z</time></trkpt><trkpt lat="44.368072" lon="8.0509853"><ele>504.0</ele><time>2026-04-26T14:06:34.477Z</time></trkpt><trkpt lat="44.3681765" lon="8.0509008"><ele>504.0</ele><time>2026-04-26T14:06:35.478Z</time></trkpt><trkpt lat="44.3682973" lon="8.0508538"><ele>508.0</ele><time>2026-04-26T14:06:36.479Z</time></trkpt><trkpt lat="44.3684187" lon="8.0508505"><ele>512.0</ele><time>2026-04-26T14:06:37.48Z</time></trkpt><trkpt lat="44.3685345" lon="8.0508972"><ele>516.0</ele><time>2026-04-26T14:06:38.478Z</time></trkpt><trkpt lat="44.3686493" lon="8.050991"><ele>520.0</ele><time>2026-04-26T14:06:39.48Z</time></trkpt><trkpt lat="44.368761" lon="8.0511285"><ele>520.5</ele><time>2026-04-26T14:06:40.477Z</time></trkpt><trkpt lat="44.3688662" lon="8.0512817"><ele>521.0</ele><time>2026-04-26T14:06:41.476Z</time></trkpt><trkpt lat="44.3689615" lon="8.051423"><ele>521.5</ele><time>2026-04-26T14:06:42.478Z</time></trkpt><trkpt lat="44.3690473" lon="8.0515482"><ele>522.0</ele><time>2026-04-26T14:06:43.477Z</time></trkpt><trkpt lat="44.3691212" lon="8.0516555"><ele>522.0</ele><time>2026-04-26T14:06:44.477Z</time></trkpt><trkpt lat="44.3691868" lon="8.0517228"><ele>522.0</ele><time>2026-04-26T14:06:45.476Z</time></trkpt><trkpt lat="44.3692598" lon="8.051748"><ele>522.0</ele><time>2026-04-26T14:06:46.462Z</time></trkpt><trkpt lat="44.3693267" lon="8.0517162"><ele>522.0</ele><time>2026-04-26T14:06:47.477Z</time></trkpt><trkpt lat="44.3693627" lon="8.0516373"><ele>522.0</ele><time>2026-04-26T14:06:48.478Z</time></trkpt><trkpt lat="44.3693552" lon="8.051537"><ele>522.0</ele><time>2026-04-26T14:06:49.479Z</time></trkpt><trkpt lat="44.3693038" lon="8.0514287"><ele>520.2</ele><time>2026-04-26T14:06:50.478Z</time></trkpt><trkpt lat="44.3692277" lon="8.0513165"><ele>518.4000000000001</ele><time>2026-04-26T14:06:51.483Z</time></trkpt><trkpt lat="44.3691663" lon="8.051199"><ele>516.5999999999999</ele><time>2026-04-26T14:06:52.48Z</time></trkpt><trkpt lat="44.3691312" lon="8.0510628"><ele>514.8</ele><time>2026-04-26T14:06:53.479Z</time></trkpt><trkpt lat="44.3691202" lon="8.0508968"><ele>513.0</ele><time>2026-04-26T14:06:54.478Z</time></trkpt><trkpt lat="44.3691295" lon="8.0507163"><ele>511.5</ele><time>2026-04-26T14:06:55.478Z</time></trkpt><trkpt lat="44.36915" lon="8.050535"><ele>510.0</ele><time>2026-04-26T14:06:56.479Z</time></trkpt><trkpt lat="44.3691732" lon="8.0503382"><ele>508.5</ele><time>2026-04-26T14:06:57.479Z</time></trkpt><trkpt lat="44.3691983" lon="8.0501243"><ele>507.0</ele><time>2026-04-26T14:06:58.478Z</time></trkpt><trkpt lat="44.3692235" lon="8.049896"><ele>505.33333333333337</ele><time>2026-04-26T14:06:59.48Z</time></trkpt><trkpt lat="44.3692475" lon="8.0496592"><ele>503.6666666666667</ele><time>2026-04-26T14:07:00.481Z</time></trkpt><trkpt lat="44.3692728" lon="8.0494162"><ele>502.0</ele><time>2026-04-26T14:07:01.48Z</time></trkpt><trkpt lat="44.3693007" lon="8.049166"><ele>502.6666666666667</ele><time>2026-04-26T14:07:02.48Z</time></trkpt><trkpt lat="44.369328" lon="8.0489332"><ele>503.33333333333337</ele><time>2026-04-26T14:07:03.479Z</time></trkpt><trkpt lat="44.3693532" lon="8.0487173"><ele>504.0</ele><time>2026-04-26T14:07:04.48Z</time></trkpt><trkpt lat="44.3693802" lon="8.0485103"><ele>504.0</ele><time>2026-04-26T14:07:05.479Z</time></trkpt><trkpt lat="44.369418" lon="8.0483142"><ele>504.0</ele><time>2026-04-26T14:07:06.479Z</time></trkpt><trkpt lat="44.3694697" lon="8.048117"><ele>504.0</ele><time>2026-04-26T14:07:07.48Z</time></trkpt><trkpt lat="44.3695355" lon="8.0479083"><ele>503.66666666666663</ele><time>2026-04-26T14:07:08.478Z</time></trkpt><trkpt lat="44.3696083" lon="8.047691"><ele>503.3333333333333</ele><time>2026-04-26T14:07:09.479Z</time></trkpt><trkpt lat="44.3696782" lon="8.047477"><ele>503.0</ele><time>2026-04-26T14:07:10.476Z</time></trkpt><trkpt lat="44.3697437" lon="8.0472777"><ele>499.5</ele><time>2026-04-26T14:07:11.476Z</time></trkpt><trkpt lat="44.3698038" lon="8.0470988"><ele>496.0</ele><time>2026-04-26T14:07:12.477Z</time></trkpt><trkpt lat="44.3698627" lon="8.046946"><ele>492.5</ele><time>2026-04-26T14:07:13.477Z</time></trkpt><trkpt lat="44.3699183" lon="8.0468282"><ele>489.0</ele><time>2026-04-26T14:07:14.479Z</time></trkpt><trkpt lat="44.3699895" lon="8.0467488"><ele>489.0</ele><time>2026-04-26T14:07:15.478Z</time></trkpt><trkpt lat="44.3700712" lon="8.0467128"><ele>489.0</ele><time>2026-04-26T14:07:16.479Z</time></trkpt><trkpt lat="44.3701557" lon="8.046729"><ele>489.0</ele><time>2026-04-26T14:07:17.477Z</time></trkpt><trkpt lat="44.3702283" lon="8.0467963"><ele>489.0</ele><time>2026-04-26T14:07:18.478Z</time></trkpt><trkpt lat="44.3702773" lon="8.0469118"><ele>489.0</ele><time>2026-04-26T14:07:19.479Z</time></trkpt><trkpt lat="44.3702958" lon="8.0470677"><ele>489.0</ele><time>2026-04-26T14:07:20.48Z</time></trkpt><trkpt lat="44.3702847" lon="8.0472465"><ele>489.0</ele><time>2026-04-26T14:07:21.478Z</time></trkpt><trkpt lat="44.3702777" lon="8.0474355"><ele>489.0</ele><time>2026-04-26T14:07:22.478Z</time></trkpt><trkpt lat="44.3702992" lon="8.047626"><ele>489.0</ele><time>2026-04-26T14:07:23.478Z</time></trkpt><trkpt lat="44.3703583" lon="8.047834"><ele>488.0</ele><time>2026-04-26T14:07:24.48Z</time></trkpt><trkpt lat="44.3704418" lon="8.0480555"><ele>487.0</ele><time>2026-04-26T14:07:25.479Z</time></trkpt><trkpt lat="44.3705478" lon="8.0482945"><ele>486.0</ele><time>2026-04-26T14:07:26.479Z</time></trkpt><trkpt lat="44.370652" lon="8.0485205"><ele>480.66666666666663</ele><time>2026-04-26T14:07:27.479Z</time></trkpt><trkpt lat="44.3707422" lon="8.0487278"><ele>475.3333333333333</ele><time>2026-04-26T14:07:28.479Z</time></trkpt><trkpt lat="44.3708218" lon="8.0489148"><ele>470.0</ele><time>2026-04-26T14:07:29.478Z</time></trkpt><trkpt lat="44.3708918" lon="8.0490738"><ele>470.4</ele><time>2026-04-26T14:07:30.48Z</time></trkpt><trkpt lat="44.3709572" lon="8.0492018"><ele>470.8</ele><time>2026-04-26T14:07:31.479Z</time></trkpt><trkpt lat="44.3710325" lon="8.0492887"><ele>471.20000000000005</ele><time>2026-04-26T14:07:32.478Z</time></trkpt><trkpt lat="44.371115" lon="8.0493228"><ele>471.6</ele><time>2026-04-26T14:07:33.478Z</time></trkpt><trkpt lat="44.3711947" lon="8.0493093"><ele>472.0</ele><time>2026-04-26T14:07:34.477Z</time></trkpt><trkpt lat="44.3712668" lon="8.0492612"><ele>472.0</ele><time>2026-04-26T14:07:35.478Z</time></trkpt><trkpt lat="44.3713263" lon="8.049179"><ele>472.00000000000006</ele><time>2026-04-26T14:07:36.477Z</time></trkpt><trkpt lat="44.3713615" lon="8.0490585"><ele>472.00000000000006</ele><time>2026-04-26T14:07:37.476Z</time></trkpt><trkpt lat="44.37137" lon="8.0489027"><ele>472.0</ele><time>2026-04-26T14:07:38.477Z</time></trkpt><trkpt lat="44.3713558" lon="8.0487215"><ele>472.0</ele><time>2026-04-26T14:07:39.479Z</time></trkpt><trkpt lat="44.3713345" lon="8.0485408"><ele>471.8</ele><time>2026-04-26T14:07:40.476Z</time></trkpt><trkpt lat="44.3713135" lon="8.0483753"><ele>471.6</ele><time>2026-04-26T14:07:41.478Z</time></trkpt><trkpt lat="44.3713035" lon="8.0482223"><ele>471.40000000000003</ele><time>2026-04-26T14:07:42.48Z</time></trkpt><trkpt lat="44.3713257" lon="8.048081"><ele>471.20000000000005</ele><time>2026-04-26T14:07:43.477Z</time></trkpt><trkpt lat="44.3713838" lon="8.047957"><ele>471.0</ele><time>2026-04-26T14:07:44.478Z</time></trkpt><trkpt lat="44.3714725" lon="8.0478585"><ele>466.75</ele><time>2026-04-26T14:07:45.481Z</time></trkpt><trkpt lat="44.371586" lon="8.047771"><ele>462.5</ele><time>2026-04-26T14:07:46.478Z</time></trkpt><trkpt lat="44.3717092" lon="8.0476902"><ele>458.25</ele><time>2026-04-26T14:07:47.478Z</time></trkpt><trkpt lat="44.3718432" lon="8.0476063"><ele>454.0</ele><time>2026-04-26T14:07:48.477Z</time></trkpt><trkpt lat="44.3719878" lon="8.0475173"><ele>453.6666666666667</ele><time>2026-04-26T14:07:49.478Z</time></trkpt><trkpt lat="44.3721378" lon="8.0474228"><ele>453.33333333333337</ele><time>2026-04-26T14:07:50.483Z</time></trkpt><trkpt lat="44.3722842" lon="8.047327"><ele>453.0</ele><time>2026-04-26T14:07:51.479Z</time></trkpt><trkpt lat="44.3724268" lon="8.0472262"><ele>450.66666666666663</ele><time>2026-04-26T14:07:52.479Z</time></trkpt><trkpt lat="44.3725665" lon="8.047119"><ele>448.3333333333333</ele><time>2026-04-26T14:07:53.48Z</time></trkpt><trkpt lat="44.372702" lon="8.04701"><ele>446.0</ele><time>2026-04-26T14:07:54.481Z</time></trkpt><trkpt lat="44.3728338" lon="8.0468963"><ele>446.0</ele><time>2026-04-26T14:07:55.483Z</time></trkpt><trkpt lat="44.3729613" lon="8.0467763"><ele>446.0</ele><time>2026-04-26T14:07:56.48Z</time></trkpt><trkpt lat="44.3730818" lon="8.0466542"><ele>446.0</ele><time>2026-04-26T14:07:57.483Z</time></trkpt><trkpt lat="44.373198" lon="8.0465255"><ele>445.5</ele><time>2026-04-26T14:07:58.482Z</time></trkpt><trkpt lat="44.3733102" lon="8.0463902"><ele>445.0</ele><time>2026-04-26T14:07:59.479Z</time></trkpt><trkpt lat="44.37342" lon="8.046253"><ele>444.5</ele><time>2026-04-26T14:08:00.48Z</time></trkpt><trkpt lat="44.3735298" lon="8.046119"><ele>444.0</ele><time>2026-04-26T14:08:01.478Z</time></trkpt><trkpt lat="44.3736422" lon="8.0459843"><ele>444.0</ele><time>2026-04-26T14:08:02.477Z</time></trkpt><trkpt lat="44.3737542" lon="8.0458493"><ele>444.0</ele><time>2026-04-26T14:08:03.48Z</time></trkpt><trkpt lat="44.3738648" lon="8.0457152"><ele>444.0</ele><time>2026-04-26T14:08:04.48Z</time></trkpt><trkpt lat="44.3739757" lon="8.0455818"><ele>444.0</ele><time>2026-04-26T14:08:05.481Z</time></trkpt><trkpt lat="44.3740842" lon="8.0454525"><ele>443.75</ele><time>2026-04-26T14:08:06.482Z</time></trkpt><trkpt lat="44.3741877" lon="8.0453277"><ele>443.5</ele><time>2026-04-26T14:08:07.481Z</time></trkpt><trkpt lat="44.3742918" lon="8.0452027"><ele>443.25</ele><time>2026-04-26T14:08:08.48Z</time></trkpt><trkpt lat="44.3744012" lon="8.0450723"><ele>443.0</ele><time>2026-04-26T14:08:09.48Z</time></trkpt><trkpt lat="44.3745115" lon="8.0449385"><ele>442.75</ele><time>2026-04-26T14:08:10.481Z</time></trkpt><trkpt lat="44.3746227" lon="8.0447993"><ele>442.5</ele><time>2026-04-26T14:08:11.481Z</time></trkpt><trkpt lat="44.3747375" lon="8.044659"><ele>442.25</ele><time>2026-04-26T14:08:12.481Z</time></trkpt><trkpt lat="44.3748498" lon="8.0445245"><ele>442.0</ele><time>2026-04-26T14:08:13.482Z</time></trkpt><trkpt lat="44.3749603" lon="8.0443917"><ele>442.0</ele><time>2026-04-26T14:08:14.48Z</time></trkpt><trkpt lat="44.3750757" lon="8.0442557"><ele>442.0</ele><time>2026-04-26T14:08:15.482Z</time></trkpt><trkpt lat="44.3751957" lon="8.0441203"><ele>442.0</ele><time>2026-04-26T14:08:16.48Z</time></trkpt><trkpt lat="44.3753143" lon="8.0439928"><ele>442.25</ele><time>2026-04-26T14:08:17.48Z</time></trkpt><trkpt lat="44.375432" lon="8.0438683"><ele>442.5</ele><time>2026-04-26T14:08:18.481Z</time></trkpt><trkpt lat="44.3755395" lon="8.0437507"><ele>442.75</ele><time>2026-04-26T14:08:19.482Z</time></trkpt><trkpt lat="44.375637" lon="8.0436405"><ele>443.0</ele><time>2026-04-26T14:08:20.484Z</time></trkpt><trkpt lat="44.3757353" lon="8.0435302"><ele>443.0</ele><time>2026-04-26T14:08:21.482Z</time></trkpt><trkpt lat="44.375836" lon="8.043417"><ele>443.0</ele><time>2026-04-26T14:08:22.481Z</time></trkpt><trkpt lat="44.3759373" lon="8.0432967"><ele>443.0</ele><time>2026-04-26T14:08:23.478Z</time></trkpt><trkpt lat="44.3760408" lon="8.0431672"><ele>443.0</ele><time>2026-04-26T14:08:24.479Z</time></trkpt><trkpt lat="44.376148" lon="8.0430293"><ele>443.0</ele><time>2026-04-26T14:08:25.478Z</time></trkpt><trkpt lat="44.3762597" lon="8.0428888"><ele>443.0</ele><time>2026-04-26T14:08:26.478Z</time></trkpt><trkpt lat="44.3763727" lon="8.0427465"><ele>443.0</ele><time>2026-04-26T14:08:27.481Z</time></trkpt><trkpt lat="44.3764808" lon="8.0426043"><ele>442.5</ele><time>2026-04-26T14:08:28.48Z</time></trkpt><trkpt lat="44.376581" lon="8.042474"><ele>442.0</ele><time>2026-04-26T14:08:29.481Z</time></trkpt><trkpt lat="44.3766752" lon="8.0423555"><ele>441.5</ele><time>2026-04-26T14:08:30.481Z</time></trkpt><trkpt lat="44.3767642" lon="8.0422448"><ele>441.0</ele><time>2026-04-26T14:08:31.478Z</time></trkpt><trkpt lat="44.3768497" lon="8.0421305"><ele>440.8</ele><time>2026-04-26T14:08:32.479Z</time></trkpt><trkpt lat="44.3769315" lon="8.0420172"><ele>440.6</ele><time>2026-04-26T14:08:33.48Z</time></trkpt><trkpt lat="44.3770087" lon="8.0419158"><ele>440.4</ele><time>2026-04-26T14:08:34.48Z</time></trkpt><trkpt lat="44.3770813" lon="8.041831"><ele>440.2</ele><time>2026-04-26T14:08:35.482Z</time></trkpt><trkpt lat="44.377142" lon="8.0417688"><ele>440.0</ele><time>2026-04-26T14:08:36.48Z</time></trkpt><trkpt lat="44.3772295" lon="8.0416978"><ele>439.8333333333333</ele><time>2026-04-26T14:08:38.481Z</time></trkpt><trkpt lat="44.3772918" lon="8.041678"><ele>439.66666666666663</ele><time>2026-04-26T14:08:41.479Z</time></trkpt><trkpt lat="44.3773548" lon="8.0416218"><ele>439.5</ele><time>2026-04-26T14:08:48.478Z</time></trkpt><trkpt lat="44.3774287" lon="8.0414972"><ele>439.33333333333337</ele><time>2026-04-26T14:08:50.477Z</time></trkpt><trkpt lat="44.377482" lon="8.0414235"><ele>439.1666666666667</ele><time>2026-04-26T14:08:51.48Z</time></trkpt><trkpt lat="44.3775555" lon="8.0413503"><ele>439.0</ele><time>2026-04-26T14:08:52.484Z</time></trkpt><trkpt lat="44.3776393" lon="8.0412988"><ele>438.79999999999995</ele><time>2026-04-26T14:08:53.482Z</time></trkpt><trkpt lat="44.3777352" lon="8.041269"><ele>438.59999999999997</ele><time>2026-04-26T14:08:54.483Z</time></trkpt><trkpt lat="44.3778413" lon="8.0412592"><ele>438.4</ele><time>2026-04-26T14:08:55.484Z</time></trkpt><trkpt lat="44.3779557" lon="8.0412662"><ele>438.2</ele><time>2026-04-26T14:08:56.479Z</time></trkpt><trkpt lat="44.3780787" lon="8.0412833"><ele>438.0</ele><time>2026-04-26T14:08:57.48Z</time></trkpt><trkpt lat="44.3782122" lon="8.0413103"><ele>437.66666666666663</ele><time>2026-04-26T14:08:58.479Z</time></trkpt><trkpt lat="44.3783502" lon="8.0413488"><ele>437.3333333333333</ele><time>2026-04-26T14:08:59.481Z</time></trkpt><trkpt lat="44.3784988" lon="8.0413985"><ele>437.0</ele><time>2026-04-26T14:09:00.482Z</time></trkpt><trkpt lat="44.3786582" lon="8.0414623"><ele>437.0</ele><time>2026-04-26T14:09:01.481Z</time></trkpt><trkpt lat="44.378819" lon="8.0415358"><ele>437.0</ele><time>2026-04-26T14:09:02.481Z</time></trkpt><trkpt lat="44.3789702" lon="8.0416097"><ele>437.0</ele><time>2026-04-26T14:09:03.482Z</time></trkpt><trkpt lat="44.3791132" lon="8.0416798"><ele>436.0</ele><time>2026-04-26T14:09:04.482Z</time></trkpt><trkpt lat="44.3792463" lon="8.041742"><ele>435.0</ele><time>2026-04-26T14:09:05.482Z</time></trkpt><trkpt lat="44.3793738" lon="8.0417807"><ele>434.0</ele><time>2026-04-26T14:09:06.481Z</time></trkpt><trkpt lat="44.3794967" lon="8.0417808"><ele>433.0</ele><time>2026-04-26T14:09:07.479Z</time></trkpt><trkpt lat="44.3796237" lon="8.0417352"><ele>432.5</ele><time>2026-04-26T14:09:08.48Z</time></trkpt><trkpt lat="44.3797562" lon="8.0416593"><ele>432.0</ele><time>2026-04-26T14:09:09.482Z</time></trkpt><trkpt lat="44.3798902" lon="8.0415702"><ele>431.5</ele><time>2026-04-26T14:09:10.48Z</time></trkpt><trkpt lat="44.3800123" lon="8.0414825"><ele>431.0</ele><time>2026-04-26T14:09:11.479Z</time></trkpt><trkpt lat="44.3801167" lon="8.0413772"><ele>431.0</ele><time>2026-04-26T14:09:12.479Z</time></trkpt><trkpt lat="44.3801925" lon="8.0412377"><ele>431.0</ele><time>2026-04-26T14:09:13.48Z</time></trkpt><trkpt lat="44.3802293" lon="8.0410645"><ele>431.0</ele><time>2026-04-26T14:09:14.477Z</time></trkpt><trkpt lat="44.3802413" lon="8.04085"><ele>431.0</ele><time>2026-04-26T14:09:15.475Z</time></trkpt><trkpt lat="44.3802492" lon="8.0406037"><ele>431.66666666666663</ele><time>2026-04-26T14:09:16.477Z</time></trkpt><trkpt lat="44.3802693" lon="8.0403442"><ele>432.33333333333337</ele><time>2026-04-26T14:09:17.477Z</time></trkpt><trkpt lat="44.3802988" lon="8.04008"><ele>433.0</ele><time>2026-04-26T14:09:18.478Z</time></trkpt><trkpt lat="44.3803282" lon="8.0398292"><ele>433.0</ele><time>2026-04-26T14:09:19.478Z</time></trkpt><trkpt lat="44.3803583" lon="8.0395938"><ele>433.0</ele><time>2026-04-26T14:09:20.48Z</time></trkpt><trkpt lat="44.3803968" lon="8.0393737"><ele>433.0</ele><time>2026-04-26T14:09:21.482Z</time></trkpt><trkpt lat="44.38046" lon="8.039169"><ele>431.0</ele><time>2026-04-26T14:09:22.482Z</time></trkpt><trkpt lat="44.3805507" lon="8.0389887"><ele>429.0</ele><time>2026-04-26T14:09:23.479Z</time></trkpt><trkpt lat="44.3806607" lon="8.038843"><ele>427.0</ele><time>2026-04-26T14:09:24.48Z</time></trkpt><trkpt lat="44.3807875" lon="8.038741"><ele>427.0</ele><time>2026-04-26T14:09:25.479Z</time></trkpt><trkpt lat="44.380923" lon="8.0386912"><ele>427.0</ele><time>2026-04-26T14:09:26.48Z</time></trkpt><trkpt lat="44.3810648" lon="8.0386993"><ele>427.0</ele><time>2026-04-26T14:09:27.483Z</time></trkpt><trkpt lat="44.381205" lon="8.0387592"><ele>427.0</ele><time>2026-04-26T14:09:28.479Z</time></trkpt><trkpt lat="44.381342" lon="8.0388585"><ele>424.0</ele><time>2026-04-26T14:09:29.479Z</time></trkpt><trkpt lat="44.381471" lon="8.0389925"><ele>421.0</ele><time>2026-04-26T14:09:30.479Z</time></trkpt><trkpt lat="44.3815798" lon="8.0391612"><ele>418.0</ele><time>2026-04-26T14:09:31.478Z</time></trkpt><trkpt lat="44.3816573" lon="8.0393603"><ele>413.33333333333337</ele><time>2026-04-26T14:09:32.48Z</time></trkpt><trkpt lat="44.3817065" lon="8.0395702"><ele>408.66666666666663</ele><time>2026-04-26T14:09:33.48Z</time></trkpt><trkpt lat="44.3817502" lon="8.0397703"><ele>404.0</ele><time>2026-04-26T14:09:34.478Z</time></trkpt><trkpt lat="44.3818067" lon="8.0399538"><ele>404.0</ele><time>2026-04-26T14:09:35.477Z</time></trkpt><trkpt lat="44.3818803" lon="8.0401273"><ele>404.0</ele><time>2026-04-26T14:09:36.478Z</time></trkpt><trkpt lat="44.3819695" lon="8.040296"><ele>404.0</ele><time>2026-04-26T14:09:37.476Z</time></trkpt><trkpt lat="44.3820718" lon="8.0404583"><ele>404.0</ele><time>2026-04-26T14:09:38.474Z</time></trkpt><trkpt lat="44.3821907" lon="8.0406092"><ele>404.0</ele><time>2026-04-26T14:09:39.474Z</time></trkpt><trkpt lat="44.3823272" lon="8.0407408"><ele>404.0</ele><time>2026-04-26T14:09:40.476Z</time></trkpt><trkpt lat="44.3824767" lon="8.040846"><ele>404.0</ele><time>2026-04-26T14:09:41.479Z</time></trkpt><trkpt lat="44.3826278" lon="8.040917"><ele>399.3333333333333</ele><time>2026-04-26T14:09:42.481Z</time></trkpt><trkpt lat="44.382781" lon="8.0409578"><ele>394.66666666666663</ele><time>2026-04-26T14:09:43.48Z</time></trkpt><trkpt lat="44.3829362" lon="8.0409677"><ele>390.0</ele><time>2026-04-26T14:09:44.475Z</time></trkpt><trkpt lat="44.383082" lon="8.0409422"><ele>389.25</ele><time>2026-04-26T14:09:45.478Z</time></trkpt><trkpt lat="44.3832127" lon="8.0408828"><ele>388.5</ele><time>2026-04-26T14:09:46.479Z</time></trkpt><trkpt lat="44.3833327" lon="8.040785"><ele>387.75</ele><time>2026-04-26T14:09:47.478Z</time></trkpt><trkpt lat="44.3834453" lon="8.0406538"><ele>387.0</ele><time>2026-04-26T14:09:48.48Z</time></trkpt><trkpt lat="44.3835557" lon="8.0405028"><ele>386.0</ele><time>2026-04-26T14:09:49.481Z</time></trkpt><trkpt lat="44.3836658" lon="8.0403477"><ele>385.0</ele><time>2026-04-26T14:09:50.48Z</time></trkpt><trkpt lat="44.3837727" lon="8.0402007"><ele>384.0</ele><time>2026-04-26T14:09:51.482Z</time></trkpt><trkpt lat="44.3838748" lon="8.0400593"><ele>384.0</ele><time>2026-04-26T14:09:52.481Z</time></trkpt><trkpt lat="44.3839733" lon="8.0399202"><ele>384.0</ele><time>2026-04-26T14:09:53.479Z</time></trkpt><trkpt lat="44.384071" lon="8.0397832"><ele>384.0</ele><time>2026-04-26T14:09:54.481Z</time></trkpt><trkpt lat="44.3841725" lon="8.0396458"><ele>384.0</ele><time>2026-04-26T14:09:55.48Z</time></trkpt><trkpt lat="44.3842788" lon="8.0395037"><ele>384.0</ele><time>2026-04-26T14:09:56.481Z</time></trkpt><trkpt lat="44.3843893" lon="8.0393557"><ele>384.0</ele><time>2026-04-26T14:09:57.48Z</time></trkpt><trkpt lat="44.3845013" lon="8.0392017"><ele>384.0</ele><time>2026-04-26T14:09:58.479Z</time></trkpt><trkpt lat="44.3846122" lon="8.039054"><ele>383.5</ele><time>2026-04-26T14:09:59.479Z</time></trkpt><trkpt lat="44.3847152" lon="8.0389172"><ele>383.0</ele><time>2026-04-26T14:10:00.48Z</time></trkpt><trkpt lat="44.3848087" lon="8.0387887"><ele>382.5</ele><time>2026-04-26T14:10:01.476Z</time></trkpt><trkpt lat="44.3848975" lon="8.0386708"><ele>382.0</ele><time>2026-04-26T14:10:02.474Z</time></trkpt><trkpt lat="44.3849773" lon="8.038564"><ele>382.0</ele><time>2026-04-26T14:10:03.475Z</time></trkpt><trkpt lat="44.3850512" lon="8.0384593"><ele>382.0</ele><time>2026-04-26T14:10:04.476Z</time></trkpt><trkpt lat="44.3851242" lon="8.0383567"><ele>382.0</ele><time>2026-04-26T14:10:05.476Z</time></trkpt><trkpt lat="44.3852022" lon="8.0382657"><ele>382.0</ele><time>2026-04-26T14:10:06.478Z</time></trkpt><trkpt lat="44.385287" lon="8.038204"><ele>382.0</ele><time>2026-04-26T14:10:07.479Z</time></trkpt><trkpt lat="44.3853687" lon="8.0381723"><ele>382.0</ele><time>2026-04-26T14:10:08.478Z</time></trkpt><trkpt lat="44.3854453" lon="8.0381568"><ele>382.0</ele><time>2026-04-26T14:10:09.478Z</time></trkpt><trkpt lat="44.3855132" lon="8.0381548"><ele>382.0</ele><time>2026-04-26T14:10:10.476Z</time></trkpt><trkpt lat="44.3855838" lon="8.0381467"><ele>382.0</ele><time>2026-04-26T14:10:11.476Z</time></trkpt><trkpt lat="44.3856455" lon="8.0381102"><ele>382.0</ele><time>2026-04-26T14:10:12.479Z</time></trkpt><trkpt lat="44.3857222" lon="8.0379595"><ele>382.0</ele><time>2026-04-26T14:10:14.478Z</time></trkpt><trkpt lat="44.3857585" lon="8.0378513"><ele>382.0</ele><time>2026-04-26T14:10:15.483Z</time></trkpt><trkpt lat="44.3858142" lon="8.0377508"><ele>382.0</ele><time>2026-04-26T14:10:16.478Z</time></trkpt><trkpt lat="44.3858993" lon="8.03766"><ele>382.0</ele><time>2026-04-26T14:10:17.476Z</time></trkpt><trkpt lat="44.38599" lon="8.0375793"><ele>382.0</ele><time>2026-04-26T14:10:18.476Z</time></trkpt><trkpt lat="44.3860883" lon="8.0374972"><ele>382.0</ele><time>2026-04-26T14:10:19.476Z</time></trkpt><trkpt lat="44.3861885" lon="8.0374147"><ele>381.6</ele><time>2026-04-26T14:10:20.475Z</time></trkpt><trkpt lat="44.386286" lon="8.0373305"><ele>381.20000000000005</ele><time>2026-04-26T14:10:21.478Z</time></trkpt><trkpt lat="44.3863773" lon="8.0372442"><ele>380.8</ele><time>2026-04-26T14:10:22.475Z</time></trkpt><trkpt lat="44.386452" lon="8.03715"><ele>380.4</ele><time>2026-04-26T14:10:23.479Z</time></trkpt><trkpt lat="44.3865108" lon="8.0370453"><ele>380.0</ele><time>2026-04-26T14:10:24.475Z</time></trkpt><trkpt lat="44.3865618" lon="8.0369335"><ele>379.8</ele><time>2026-04-26T14:10:25.475Z</time></trkpt><trkpt lat="44.3866067" lon="8.0368197"><ele>379.6</ele><time>2026-04-26T14:10:26.474Z</time></trkpt><trkpt lat="44.386648" lon="8.0367082"><ele>379.4</ele><time>2026-04-26T14:10:27.478Z</time></trkpt><trkpt lat="44.3866908" lon="8.0365907"><ele>379.2</ele><time>2026-04-26T14:10:28.475Z</time></trkpt><trkpt lat="44.3867352" lon="8.0364682"><ele>379.0</ele><time>2026-04-26T14:10:29.476Z</time></trkpt><trkpt lat="44.3867828" lon="8.0363425"><ele>379.6</ele><time>2026-04-26T14:10:30.478Z</time></trkpt><trkpt lat="44.3868332" lon="8.0362132"><ele>380.2</ele><time>2026-04-26T14:10:31.48Z</time></trkpt><trkpt lat="44.3868855" lon="8.036079"><ele>380.8</ele><time>2026-04-26T14:10:32.478Z</time></trkpt><trkpt lat="44.3869393" lon="8.0359398"><ele>381.40000000000003</ele><time>2026-04-26T14:10:33.48Z</time></trkpt><trkpt lat="44.3869945" lon="8.0357962"><ele>382.0</ele><time>2026-04-26T14:10:34.478Z</time></trkpt><trkpt lat="44.3870493" lon="8.0356488"><ele>381.8333333333333</ele><time>2026-04-26T14:10:35.477Z</time></trkpt><trkpt lat="44.387103" lon="8.0355015"><ele>381.66666666666663</ele><time>2026-04-26T14:10:36.478Z</time></trkpt><trkpt lat="44.3871512" lon="8.035372"><ele>381.5</ele><time>2026-04-26T14:10:37.477Z</time></trkpt><trkpt lat="44.3871943" lon="8.0352692"><ele>381.3333333333333</ele><time>2026-04-26T14:10:38.482Z</time></trkpt><trkpt lat="44.387233" lon="8.0351892"><ele>381.1666666666667</ele><time>2026-04-26T14:10:39.48Z</time></trkpt><trkpt lat="44.3872733" lon="8.0351112"><ele>381.0</ele><time>2026-04-26T14:10:41.479Z</time></trkpt><trkpt lat="44.3873377" lon="8.0349853"><ele>381.0</ele><time>2026-04-26T14:10:57.479Z</time></trkpt><trkpt lat="44.3873822" lon="8.0349138"><ele>381.0</ele><time>2026-04-26T14:10:58.477Z</time></trkpt><trkpt lat="44.3874343" lon="8.0348288"><ele>381.0</ele><time>2026-04-26T14:10:59.477Z</time></trkpt><trkpt lat="44.3874982" lon="8.0347272"><ele>381.0</ele><time>2026-04-26T14:11:00.479Z</time></trkpt><trkpt lat="44.3875635" lon="8.0346173"><ele>381.0</ele><time>2026-04-26T14:11:01.477Z</time></trkpt><trkpt lat="44.3876288" lon="8.0344942"><ele>381.0</ele><time>2026-04-26T14:11:02.476Z</time></trkpt><trkpt lat="44.3876948" lon="8.0343575"><ele>381.0</ele><time>2026-04-26T14:11:03.478Z</time></trkpt><trkpt lat="44.3877532" lon="8.0342137"><ele>381.0</ele><time>2026-04-26T14:11:04.478Z</time></trkpt><trkpt lat="44.3878002" lon="8.0340658"><ele>381.0</ele><time>2026-04-26T14:11:05.475Z</time></trkpt><trkpt lat="44.3878422" lon="8.0339087"><ele>382.25</ele><time>2026-04-26T14:11:06.484Z</time></trkpt><trkpt lat="44.3878802" lon="8.0337447"><ele>383.5</ele><time>2026-04-26T14:11:07.477Z</time></trkpt><trkpt lat="44.3879153" lon="8.0335733"><ele>384.75</ele><time>2026-04-26T14:11:08.479Z</time></trkpt><trkpt lat="44.387953" lon="8.0333995"><ele>386.0</ele><time>2026-04-26T14:11:09.481Z</time></trkpt><trkpt lat="44.3879942" lon="8.0332163"><ele>382.66666666666663</ele><time>2026-04-26T14:11:10.479Z</time></trkpt><trkpt lat="44.3880353" lon="8.0330183"><ele>379.3333333333333</ele><time>2026-04-26T14:11:11.478Z</time></trkpt><trkpt lat="44.3880792" lon="8.0328155"><ele>376.0</ele><time>2026-04-26T14:11:12.476Z</time></trkpt><trkpt lat="44.3881223" lon="8.0326123"><ele>376.75</ele><time>2026-04-26T14:11:13.477Z</time></trkpt><trkpt lat="44.3881643" lon="8.0324087"><ele>377.5</ele><time>2026-04-26T14:11:14.478Z</time></trkpt><trkpt lat="44.388206" lon="8.032205"><ele>378.25</ele><time>2026-04-26T14:11:15.475Z</time></trkpt><trkpt lat="44.3882475" lon="8.0320098"><ele>379.0</ele><time>2026-04-26T14:11:16.475Z</time></trkpt><trkpt lat="44.3882847" lon="8.0318352"><ele>379.0</ele><time>2026-04-26T14:11:17.475Z</time></trkpt><trkpt lat="44.3883178" lon="8.0316802"><ele>379.0</ele><time>2026-04-26T14:11:18.475Z</time></trkpt><trkpt lat="44.3883488" lon="8.0315417"><ele>379.0</ele><time>2026-04-26T14:11:19.478Z</time></trkpt><trkpt lat="44.3883732" lon="8.0314138"><ele>379.0</ele><time>2026-04-26T14:11:20.476Z</time></trkpt><trkpt lat="44.38839" lon="8.0312958"><ele>379.0</ele><time>2026-04-26T14:11:21.477Z</time></trkpt><trkpt lat="44.3884012" lon="8.0311915"><ele>378.79999999999995</ele><time>2026-04-26T14:11:22.478Z</time></trkpt><trkpt lat="44.3884123" lon="8.0311032"><ele>378.59999999999997</ele><time>2026-04-26T14:11:23.479Z</time></trkpt><trkpt lat="44.3884727" lon="8.0309712"><ele>378.4</ele><time>2026-04-26T14:11:25.478Z</time></trkpt><trkpt lat="44.388602" lon="8.0309132"><ele>378.2</ele><time>2026-04-26T14:11:27.477Z</time></trkpt><trkpt lat="44.3886828" lon="8.0308902"><ele>378.0</ele><time>2026-04-26T14:11:28.477Z</time></trkpt><trkpt lat="44.388769" lon="8.0308782"><ele>378.0</ele><time>2026-04-26T14:11:29.476Z</time></trkpt><trkpt lat="44.3888657" lon="8.0308793"><ele>378.0</ele><time>2026-04-26T14:11:30.477Z</time></trkpt><trkpt lat="44.3889623" lon="8.0308812"><ele>378.0</ele><time>2026-04-26T14:11:31.479Z</time></trkpt><trkpt lat="44.3890575" lon="8.0308822"><ele>378.0</ele><time>2026-04-26T14:11:32.477Z</time></trkpt><trkpt lat="44.38915" lon="8.0308818"><ele>378.0</ele><time>2026-04-26T14:11:33.479Z</time></trkpt><trkpt lat="44.3892352" lon="8.0308705"><ele>378.0</ele><time>2026-04-26T14:11:34.477Z</time></trkpt><trkpt lat="44.3893112" lon="8.0308337"><ele>378.0</ele><time>2026-04-26T14:11:35.478Z</time></trkpt><trkpt lat="44.3893877" lon="8.0307618"><ele>378.0</ele><time>2026-04-26T14:11:36.478Z</time></trkpt><trkpt lat="44.389451" lon="8.0306475"><ele>378.0</ele><time>2026-04-26T14:11:37.477Z</time></trkpt><trkpt lat="44.3894908" lon="8.0305028"><ele>378.0</ele><time>2026-04-26T14:11:38.478Z</time></trkpt><trkpt lat="44.3895142" lon="8.0303323"><ele>377.25</ele><time>2026-04-26T14:11:39.477Z</time></trkpt><trkpt lat="44.3895228" lon="8.0301527"><ele>376.5</ele><time>2026-04-26T14:11:40.475Z</time></trkpt><trkpt lat="44.3895148" lon="8.0299618"><ele>375.75</ele><time>2026-04-26T14:11:41.476Z</time></trkpt><trkpt lat="44.3895" lon="8.029765"><ele>375.0</ele><time>2026-04-26T14:11:42.475Z</time></trkpt><trkpt lat="44.3894805" lon="8.0295537"><ele>375.0</ele><time>2026-04-26T14:11:43.476Z</time></trkpt><trkpt lat="44.3894638" lon="8.0293257"><ele>375.0</ele><time>2026-04-26T14:11:44.478Z</time></trkpt><trkpt lat="44.3894512" lon="8.0290855"><ele>375.0</ele><time>2026-04-26T14:11:45.478Z</time></trkpt><trkpt lat="44.3894408" lon="8.02884"><ele>375.3333333333333</ele><time>2026-04-26T14:11:46.477Z</time></trkpt><trkpt lat="44.3894303" lon="8.0286027"><ele>375.66666666666663</ele><time>2026-04-26T14:11:47.477Z</time></trkpt><trkpt lat="44.389419" lon="8.0283882"><ele>376.0</ele><time>2026-04-26T14:11:48.479Z</time></trkpt><trkpt lat="44.3894147" lon="8.0281912"><ele>375.5</ele><time>2026-04-26T14:11:49.48Z</time></trkpt><trkpt lat="44.3894335" lon="8.0280002"><ele>375.0</ele><time>2026-04-26T14:11:50.479Z</time></trkpt><trkpt lat="44.3894843" lon="8.0278127"><ele>374.5</ele><time>2026-04-26T14:11:51.479Z</time></trkpt><trkpt lat="44.3895675" lon="8.02763"><ele>374.0</ele><time>2026-04-26T14:11:52.481Z</time></trkpt><trkpt lat="44.3896607" lon="8.027442"><ele>378.33333333333337</ele><time>2026-04-26T14:11:53.48Z</time></trkpt><trkpt lat="44.3897398" lon="8.0272335"><ele>382.6666666666667</ele><time>2026-04-26T14:11:54.479Z</time></trkpt><trkpt lat="44.389804" lon="8.0270048"><ele>387.0</ele><time>2026-04-26T14:11:55.48Z</time></trkpt><trkpt lat="44.389857" lon="8.0267748"><ele>386.5</ele><time>2026-04-26T14:11:56.478Z</time></trkpt><trkpt lat="44.3899023" lon="8.026564"><ele>386.0</ele><time>2026-04-26T14:11:57.48Z</time></trkpt><trkpt lat="44.389939" lon="8.0263662"><ele>385.5</ele><time>2026-04-26T14:11:58.479Z</time></trkpt><trkpt lat="44.3899577" lon="8.0261678"><ele>385.0</ele><time>2026-04-26T14:11:59.478Z</time></trkpt><trkpt lat="44.3899517" lon="8.0259505"><ele>384.0</ele><time>2026-04-26T14:12:00.48Z</time></trkpt><trkpt lat="44.3899407" lon="8.0257205"><ele>383.0</ele><time>2026-04-26T14:12:01.479Z</time></trkpt><trkpt lat="44.3899417" lon="8.0254958"><ele>382.0</ele><time>2026-04-26T14:12:02.479Z</time></trkpt><trkpt lat="44.38996" lon="8.0252743"><ele>382.0</ele><time>2026-04-26T14:12:03.477Z</time></trkpt><trkpt lat="44.3899848" lon="8.025069"><ele>382.0</ele><time>2026-04-26T14:12:04.476Z</time></trkpt><trkpt lat="44.390012" lon="8.0248753"><ele>382.0</ele><time>2026-04-26T14:12:05.474Z</time></trkpt><trkpt lat="44.3900588" lon="8.0246842"><ele>382.0</ele><time>2026-04-26T14:12:06.476Z</time></trkpt><trkpt lat="44.3901273" lon="8.0244808"><ele>380.3333333333333</ele><time>2026-04-26T14:12:07.478Z</time></trkpt><trkpt lat="44.3902073" lon="8.024283"><ele>378.6666666666667</ele><time>2026-04-26T14:12:08.482Z</time></trkpt><trkpt lat="44.3902947" lon="8.0241093"><ele>377.0</ele><time>2026-04-26T14:12:09.481Z</time></trkpt><trkpt lat="44.3903942" lon="8.0239657"><ele>376.25</ele><time>2026-04-26T14:12:10.481Z</time></trkpt><trkpt lat="44.3905065" lon="8.0238433"><ele>375.5</ele><time>2026-04-26T14:12:11.479Z</time></trkpt><trkpt lat="44.3906363" lon="8.0237395"><ele>374.75</ele><time>2026-04-26T14:12:12.482Z</time></trkpt><trkpt lat="44.3907792" lon="8.0236527"><ele>374.0</ele><time>2026-04-26T14:12:13.481Z</time></trkpt><trkpt lat="44.3909143" lon="8.023578"><ele>374.0</ele><time>2026-04-26T14:12:14.479Z</time></trkpt><trkpt lat="44.3910457" lon="8.0235113"><ele>374.0</ele><time>2026-04-26T14:12:15.479Z</time></trkpt><trkpt lat="44.3911833" lon="8.0234582"><ele>374.0</ele><time>2026-04-26T14:12:16.479Z</time></trkpt><trkpt lat="44.3913297" lon="8.0234218"><ele>374.0</ele><time>2026-04-26T14:12:17.478Z</time></trkpt><trkpt lat="44.3914825" lon="8.0234038"><ele>375.6666666666667</ele><time>2026-04-26T14:12:18.483Z</time></trkpt><trkpt lat="44.391636" lon="8.0234023"><ele>377.3333333333333</ele><time>2026-04-26T14:12:19.478Z</time></trkpt><trkpt lat="44.39179" lon="8.023412"><ele>379.0</ele><time>2026-04-26T14:12:20.478Z</time></trkpt><trkpt lat="44.3919535" lon="8.0234302"><ele>379.0</ele><time>2026-04-26T14:12:21.475Z</time></trkpt><trkpt lat="44.3921198" lon="8.0234663"><ele>379.0</ele><time>2026-04-26T14:12:22.477Z</time></trkpt><trkpt lat="44.3922925" lon="8.0235117"><ele>379.0</ele><time>2026-04-26T14:12:23.477Z</time></trkpt><trkpt lat="44.3924698" lon="8.0235578"><ele>377.66666666666663</ele><time>2026-04-26T14:12:24.477Z</time></trkpt><trkpt lat="44.392645" lon="8.0236047"><ele>376.3333333333333</ele><time>2026-04-26T14:12:25.478Z</time></trkpt><trkpt lat="44.3928177" lon="8.0236582"><ele>375.0</ele><time>2026-04-26T14:12:26.478Z</time></trkpt><trkpt lat="44.3929908" lon="8.0237275"><ele>373.0</ele><time>2026-04-26T14:12:27.478Z</time></trkpt><trkpt lat="44.393163" lon="8.0237918"><ele>371.0</ele><time>2026-04-26T14:12:28.475Z</time></trkpt><trkpt lat="44.393341" lon="8.0238457"><ele>369.0</ele><time>2026-04-26T14:12:29.476Z</time></trkpt><trkpt lat="44.3935258" lon="8.0238915"><ele>369.0</ele><time>2026-04-26T14:12:30.475Z</time></trkpt><trkpt lat="44.3937093" lon="8.0239308"><ele>369.0</ele><time>2026-04-26T14:12:31.475Z</time></trkpt><trkpt lat="44.3938968" lon="8.0239577"><ele>369.0</ele><time>2026-04-26T14:12:32.475Z</time></trkpt><trkpt lat="44.3940908" lon="8.0239722"><ele>368.3333333333333</ele><time>2026-04-26T14:12:33.478Z</time></trkpt><trkpt lat="44.3942893" lon="8.023972"><ele>367.66666666666663</ele><time>2026-04-26T14:12:34.476Z</time></trkpt><trkpt lat="44.3944908" lon="8.0239558"><ele>367.0</ele><time>2026-04-26T14:12:35.477Z</time></trkpt><trkpt lat="44.3946915" lon="8.023926"><ele>366.66666666666663</ele><time>2026-04-26T14:12:36.476Z</time></trkpt><trkpt lat="44.3948918" lon="8.0238825"><ele>366.3333333333333</ele><time>2026-04-26T14:12:37.477Z</time></trkpt><trkpt lat="44.39509" lon="8.0238278"><ele>366.0</ele><time>2026-04-26T14:12:38.478Z</time></trkpt><trkpt lat="44.3952807" lon="8.0237598"><ele>366.0</ele><time>2026-04-26T14:12:39.477Z</time></trkpt><trkpt lat="44.3954572" lon="8.0236768"><ele>366.0</ele><time>2026-04-26T14:12:40.476Z</time></trkpt><trkpt lat="44.3956205" lon="8.0235733"><ele>366.0</ele><time>2026-04-26T14:12:41.476Z</time></trkpt><trkpt lat="44.3957837" lon="8.0234412"><ele>366.6666666666667</ele><time>2026-04-26T14:12:42.477Z</time></trkpt><trkpt lat="44.3959442" lon="8.023279"><ele>367.33333333333337</ele><time>2026-04-26T14:12:43.481Z</time></trkpt><trkpt lat="44.396097" lon="8.0230943"><ele>368.0</ele><time>2026-04-26T14:12:44.481Z</time></trkpt><trkpt lat="44.396253" lon="8.0229093"><ele>367.33333333333337</ele><time>2026-04-26T14:12:45.479Z</time></trkpt><trkpt lat="44.396407" lon="8.0227393"><ele>366.6666666666667</ele><time>2026-04-26T14:12:46.477Z</time></trkpt><trkpt lat="44.3965462" lon="8.022573"><ele>366.0</ele><time>2026-04-26T14:12:47.479Z</time></trkpt><trkpt lat="44.39666" lon="8.0223888"><ele>366.0</ele><time>2026-04-26T14:12:48.479Z</time></trkpt><trkpt lat="44.3967627" lon="8.0221748"><ele>366.0</ele><time>2026-04-26T14:12:49.477Z</time></trkpt><trkpt lat="44.396871" lon="8.02195"><ele>366.0</ele><time>2026-04-26T14:12:50.478Z</time></trkpt><trkpt lat="44.3969845" lon="8.0217325"><ele>365.6666666666667</ele><time>2026-04-26T14:12:51.479Z</time></trkpt><trkpt lat="44.3971" lon="8.0215343"><ele>365.33333333333337</ele><time>2026-04-26T14:12:52.478Z</time></trkpt><trkpt lat="44.3972238" lon="8.0213638"><ele>365.0</ele><time>2026-04-26T14:12:53.476Z</time></trkpt><trkpt lat="44.3973597" lon="8.0212092"><ele>365.6666666666667</ele><time>2026-04-26T14:12:54.476Z</time></trkpt><trkpt lat="44.3974847" lon="8.0210463"><ele>366.3333333333333</ele><time>2026-04-26T14:12:55.476Z</time></trkpt><trkpt lat="44.3975952" lon="8.0208413"><ele>367.0</ele><time>2026-04-26T14:12:56.476Z</time></trkpt><trkpt lat="44.3976983" lon="8.0206008"><ele>367.0</ele><time>2026-04-26T14:12:57.479Z</time></trkpt><trkpt lat="44.3977988" lon="8.0203402"><ele>367.0</ele><time>2026-04-26T14:12:58.479Z</time></trkpt><trkpt lat="44.3978933" lon="8.0200727"><ele>367.0</ele><time>2026-04-26T14:12:59.48Z</time></trkpt><trkpt lat="44.3979823" lon="8.0197907"><ele>374.5</ele><time>2026-04-26T14:13:00.479Z</time></trkpt><trkpt lat="44.3980682" lon="8.0194962"><ele>382.0</ele><time>2026-04-26T14:13:01.479Z</time></trkpt><trkpt lat="44.398148" lon="8.0191937"><ele>378.0</ele><time>2026-04-26T14:13:02.479Z</time></trkpt><trkpt lat="44.3982223" lon="8.0188877"><ele>374.0</ele><time>2026-04-26T14:13:03.479Z</time></trkpt><trkpt lat="44.3982947" lon="8.0185823"><ele>372.0</ele><time>2026-04-26T14:13:04.478Z</time></trkpt><trkpt lat="44.3983643" lon="8.0182883"><ele>370.0</ele><time>2026-04-26T14:13:05.48Z</time></trkpt><trkpt lat="44.3984277" lon="8.0180117"><ele>368.0</ele><time>2026-04-26T14:13:06.479Z</time></trkpt><trkpt lat="44.3984845" lon="8.0177443"><ele>366.0</ele><time>2026-04-26T14:13:07.478Z</time></trkpt><trkpt lat="44.3985352" lon="8.0174662"><ele>364.0</ele><time>2026-04-26T14:13:08.479Z</time></trkpt><trkpt lat="44.3985863" lon="8.0171743"><ele>362.0</ele><time>2026-04-26T14:13:09.48Z</time></trkpt><trkpt lat="44.3986467" lon="8.0168705"><ele>361.0</ele><time>2026-04-26T14:13:10.482Z</time></trkpt><trkpt lat="44.3987155" lon="8.0165585"><ele>360.0</ele><time>2026-04-26T14:13:11.479Z</time></trkpt><trkpt lat="44.3987885" lon="8.0162428"><ele>363.5</ele><time>2026-04-26T14:13:12.48Z</time></trkpt><trkpt lat="44.398864" lon="8.0159263"><ele>367.0</ele><time>2026-04-26T14:13:13.479Z</time></trkpt><trkpt lat="44.3989373" lon="8.0156172"><ele>367.0</ele><time>2026-04-26T14:13:14.477Z</time></trkpt><trkpt lat="44.399007" lon="8.0153187"><ele>367.0</ele><time>2026-04-26T14:13:15.479Z</time></trkpt><trkpt lat="44.3990733" lon="8.015033"><ele>367.0</ele><time>2026-04-26T14:13:16.479Z</time></trkpt><trkpt lat="44.3991345" lon="8.014759"><ele>366.0</ele><time>2026-04-26T14:13:17.478Z</time></trkpt><trkpt lat="44.3991917" lon="8.014501"><ele>365.0</ele><time>2026-04-26T14:13:18.478Z</time></trkpt><trkpt lat="44.399247" lon="8.0142637"><ele>364.0</ele><time>2026-04-26T14:13:19.482Z</time></trkpt><trkpt lat="44.399299" lon="8.0140385"><ele>364.0</ele><time>2026-04-26T14:13:20.478Z</time></trkpt><trkpt lat="44.3993485" lon="8.0138223"><ele>364.0</ele><time>2026-04-26T14:13:21.479Z</time></trkpt><trkpt lat="44.399396" lon="8.013613"><ele>364.0</ele><time>2026-04-26T14:13:22.479Z</time></trkpt><trkpt lat="44.3994445" lon="8.0134062"><ele>363.75</ele><time>2026-04-26T14:13:23.477Z</time></trkpt><trkpt lat="44.3994925" lon="8.013207"><ele>363.5</ele><time>2026-04-26T14:13:24.479Z</time></trkpt><trkpt lat="44.399539" lon="8.0130222"><ele>363.25</ele><time>2026-04-26T14:13:25.48Z</time></trkpt><trkpt lat="44.3995855" lon="8.0128522"><ele>363.0</ele><time>2026-04-26T14:13:26.479Z</time></trkpt><trkpt lat="44.3996448" lon="8.012692"><ele>364.5</ele><time>2026-04-26T14:13:27.479Z</time></trkpt><trkpt lat="44.3997305" lon="8.0125412"><ele>366.0</ele><time>2026-04-26T14:13:28.48Z</time></trkpt><trkpt lat="44.3998302" lon="8.0123933"><ele>367.5</ele><time>2026-04-26T14:13:29.481Z</time></trkpt><trkpt lat="44.3999167" lon="8.0122247"><ele>369.0</ele><time>2026-04-26T14:13:30.48Z</time></trkpt><trkpt lat="44.3999825" lon="8.0120475"><ele>369.0</ele><time>2026-04-26T14:13:31.479Z</time></trkpt><trkpt lat="44.4000412" lon="8.011885"><ele>369.0</ele><time>2026-04-26T14:13:32.48Z</time></trkpt><trkpt lat="44.4001103" lon="8.0117313"><ele>369.0</ele><time>2026-04-26T14:13:33.481Z</time></trkpt><trkpt lat="44.4001855" lon="8.0115827"><ele>369.0</ele><time>2026-04-26T14:13:34.478Z</time></trkpt><trkpt lat="44.4002657" lon="8.0114392"><ele>369.25</ele><time>2026-04-26T14:13:35.478Z</time></trkpt><trkpt lat="44.4003507" lon="8.0112903"><ele>369.5</ele><time>2026-04-26T14:13:36.48Z</time></trkpt><trkpt lat="44.4004442" lon="8.0111407"><ele>369.75</ele><time>2026-04-26T14:13:37.481Z</time></trkpt><trkpt lat="44.4005433" lon="8.0109992"><ele>370.0</ele><time>2026-04-26T14:13:38.483Z</time></trkpt><trkpt lat="44.400647" lon="8.0108613"><ele>369.25</ele><time>2026-04-26T14:13:39.481Z</time></trkpt><trkpt lat="44.4007527" lon="8.0107263"><ele>368.5</ele><time>2026-04-26T14:13:40.482Z</time></trkpt><trkpt lat="44.40086" lon="8.0105955"><ele>367.75</ele><time>2026-04-26T14:13:41.48Z</time></trkpt><trkpt lat="44.4009685" lon="8.0104682"><ele>367.0</ele><time>2026-04-26T14:13:42.478Z</time></trkpt><trkpt lat="44.4010785" lon="8.0103448"><ele>367.0</ele><time>2026-04-26T14:13:43.48Z</time></trkpt><trkpt lat="44.401184" lon="8.0102273"><ele>367.0</ele><time>2026-04-26T14:13:44.478Z</time></trkpt><trkpt lat="44.4012808" lon="8.0101192"><ele>367.0</ele><time>2026-04-26T14:13:45.479Z</time></trkpt><trkpt lat="44.4013717" lon="8.0100192"><ele>367.0</ele><time>2026-04-26T14:13:46.482Z</time></trkpt><trkpt lat="44.4014573" lon="8.0099257"><ele>366.3333333333333</ele><time>2026-04-26T14:13:47.481Z</time></trkpt><trkpt lat="44.4015333" lon="8.0098417"><ele>365.66666666666663</ele><time>2026-04-26T14:13:48.48Z</time></trkpt><trkpt lat="44.4015995" lon="8.009775"><ele>365.0</ele><time>2026-04-26T14:13:49.48Z</time></trkpt><trkpt lat="44.4016582" lon="8.009725"><ele>364.3333333333333</ele><time>2026-04-26T14:13:50.483Z</time></trkpt><trkpt lat="44.4017462" lon="8.0096493"><ele>363.6666666666667</ele><time>2026-04-26T14:13:52.482Z</time></trkpt><trkpt lat="44.4017787" lon="8.0095538"><ele>363.0</ele><time>2026-04-26T14:13:54.481Z</time></trkpt><trkpt lat="44.4017875" lon="8.0094643"><ele>363.0</ele><time>2026-04-26T14:14:18.481Z</time></trkpt><trkpt lat="44.4018422" lon="8.0093868"><ele>363.0</ele><time>2026-04-26T14:14:20.479Z</time></trkpt><trkpt lat="44.4019425" lon="8.0092787"><ele>363.0</ele><time>2026-04-26T14:14:22.483Z</time></trkpt><trkpt lat="44.402012" lon="8.0092092"><ele>363.0</ele><time>2026-04-26T14:14:23.48Z</time></trkpt><trkpt lat="44.402088" lon="8.0091288"><ele>363.0</ele><time>2026-04-26T14:14:24.482Z</time></trkpt><trkpt lat="44.4021642" lon="8.0090417"><ele>362.79999999999995</ele><time>2026-04-26T14:14:25.479Z</time></trkpt><trkpt lat="44.4022442" lon="8.0089555"><ele>362.6</ele><time>2026-04-26T14:14:26.479Z</time></trkpt><trkpt lat="44.4023272" lon="8.0088652"><ele>362.4</ele><time>2026-04-26T14:14:27.479Z</time></trkpt><trkpt lat="44.4024118" lon="8.0087687"><ele>362.20000000000005</ele><time>2026-04-26T14:14:28.481Z</time></trkpt><trkpt lat="44.4024955" lon="8.0086712"><ele>362.0</ele><time>2026-04-26T14:14:29.482Z</time></trkpt><trkpt lat="44.4025772" lon="8.0085757"><ele>362.0</ele><time>2026-04-26T14:14:30.479Z</time></trkpt><trkpt lat="44.402657" lon="8.0084878"><ele>362.0</ele><time>2026-04-26T14:14:31.477Z</time></trkpt><trkpt lat="44.402735" lon="8.0084052"><ele>362.0</ele><time>2026-04-26T14:14:32.477Z</time></trkpt><trkpt lat="44.4028002" lon="8.0083263"><ele>362.0</ele><time>2026-04-26T14:14:33.476Z</time></trkpt><trkpt lat="44.4028582" lon="8.008249"><ele>362.0</ele><time>2026-04-26T14:14:34.477Z</time></trkpt><trkpt lat="44.4029187" lon="8.0081738"><ele>362.0</ele><time>2026-04-26T14:14:35.48Z</time></trkpt><trkpt lat="44.4029775" lon="8.0081035"><ele>361.33333333333337</ele><time>2026-04-26T14:14:36.479Z</time></trkpt><trkpt lat="44.403044" lon="8.0080353"><ele>360.6666666666667</ele><time>2026-04-26T14:14:37.481Z</time></trkpt><trkpt lat="44.4031115" lon="8.0079675"><ele>360.0</ele><time>2026-04-26T14:14:38.481Z</time></trkpt><trkpt lat="44.4031735" lon="8.0079012"><ele>359.3333333333333</ele><time>2026-04-26T14:14:39.483Z</time></trkpt><trkpt lat="44.4032372" lon="8.00783"><ele>358.66666666666663</ele><time>2026-04-26T14:14:40.482Z</time></trkpt><trkpt lat="44.4033037" lon="8.0077538"><ele>358.0</ele><time>2026-04-26T14:14:41.481Z</time></trkpt><trkpt lat="44.4033737" lon="8.0076735"><ele>358.0</ele><time>2026-04-26T14:14:42.482Z</time></trkpt><trkpt lat="44.4034493" lon="8.0075868"><ele>358.0</ele><time>2026-04-26T14:14:43.479Z</time></trkpt><trkpt lat="44.4035303" lon="8.0074937"><ele>358.0</ele><time>2026-04-26T14:14:44.48Z</time></trkpt><trkpt lat="44.4036158" lon="8.0073972"><ele>358.0</ele><time>2026-04-26T14:14:45.48Z</time></trkpt><trkpt lat="44.4037032" lon="8.0072907"><ele>358.0</ele><time>2026-04-26T14:14:46.479Z</time></trkpt><trkpt lat="44.403788" lon="8.0071803"><ele>360.0</ele><time>2026-04-26T14:14:47.481Z</time></trkpt><trkpt lat="44.4038703" lon="8.0070642"><ele>362.0</ele><time>2026-04-26T14:14:48.481Z</time></trkpt><trkpt lat="44.4039485" lon="8.0069383"><ele>364.0</ele><time>2026-04-26T14:14:49.48Z</time></trkpt><trkpt lat="44.404028" lon="8.0068148"><ele>366.0</ele><time>2026-04-26T14:14:50.478Z</time></trkpt><trkpt lat="44.4041002" lon="8.0066967"><ele>367.4</ele><time>2026-04-26T14:14:51.479Z</time></trkpt><trkpt lat="44.4041677" lon="8.0065773"><ele>368.8</ele><time>2026-04-26T14:14:52.478Z</time></trkpt><trkpt lat="44.404228" lon="8.0064597"><ele>370.2</ele><time>2026-04-26T14:14:53.479Z</time></trkpt><trkpt lat="44.404288" lon="8.0063252"><ele>371.59999999999997</ele><time>2026-04-26T14:14:54.478Z</time></trkpt><trkpt lat="44.404358" lon="8.0061825"><ele>373.0</ele><time>2026-04-26T14:14:55.477Z</time></trkpt><trkpt lat="44.4044298" lon="8.0060362"><ele>373.0</ele><time>2026-04-26T14:14:56.475Z</time></trkpt><trkpt lat="44.4044908" lon="8.0058983"><ele>373.0</ele><time>2026-04-26T14:14:57.477Z</time></trkpt><trkpt lat="44.4045405" lon="8.0057887"><ele>373.0</ele><time>2026-04-26T14:14:58.475Z</time></trkpt><trkpt lat="44.4045745" lon="8.0056895"><ele>373.0</ele><time>2026-04-26T14:14:59.478Z</time></trkpt><trkpt lat="44.4046157" lon="8.0055968"><ele>373.0</ele><time>2026-04-26T14:15:00.479Z</time></trkpt><trkpt lat="44.404667" lon="8.0055035"><ele>373.0</ele><time>2026-04-26T14:15:01.478Z</time></trkpt><trkpt lat="44.4047243" lon="8.0053878"><ele>372.25</ele><time>2026-04-26T14:15:02.479Z</time></trkpt><trkpt lat="44.4047833" lon="8.0052567"><ele>371.5</ele><time>2026-04-26T14:15:03.479Z</time></trkpt><trkpt lat="44.4048465" lon="8.0051223"><ele>370.75</ele><time>2026-04-26T14:15:04.478Z</time></trkpt><trkpt lat="44.4049155" lon="8.0049915"><ele>370.0</ele><time>2026-04-26T14:15:05.478Z</time></trkpt><trkpt lat="44.4049895" lon="8.0048602"><ele>370.0</ele><time>2026-04-26T14:15:06.479Z</time></trkpt><trkpt lat="44.4050512" lon="8.0047142"><ele>370.0</ele><time>2026-04-26T14:15:07.48Z</time></trkpt><trkpt lat="44.4051125" lon="8.0045723"><ele>370.0</ele><time>2026-04-26T14:15:08.479Z</time></trkpt><trkpt lat="44.4051772" lon="8.004434"><ele>370.0</ele><time>2026-04-26T14:15:09.48Z</time></trkpt><trkpt lat="44.4052438" lon="8.0042985"><ele>369.5</ele><time>2026-04-26T14:15:10.478Z</time></trkpt><trkpt lat="44.4053063" lon="8.0041622"><ele>369.0</ele><time>2026-04-26T14:15:11.479Z</time></trkpt><trkpt lat="44.4053742" lon="8.0040178"><ele>368.5</ele><time>2026-04-26T14:15:12.481Z</time></trkpt><trkpt lat="44.4054453" lon="8.0038678"><ele>368.0</ele><time>2026-04-26T14:15:13.478Z</time></trkpt><trkpt lat="44.4055167" lon="8.0037092"><ele>365.75</ele><time>2026-04-26T14:15:14.477Z</time></trkpt><trkpt lat="44.4055878" lon="8.0035523"><ele>363.5</ele><time>2026-04-26T14:15:15.479Z</time></trkpt><trkpt lat="44.4056552" lon="8.003409"><ele>361.25</ele><time>2026-04-26T14:15:16.478Z</time></trkpt><trkpt lat="44.4057225" lon="8.0032592"><ele>359.0</ele><time>2026-04-26T14:15:17.478Z</time></trkpt><trkpt lat="44.4057883" lon="8.0030935"><ele>358.75</ele><time>2026-04-26T14:15:18.479Z</time></trkpt><trkpt lat="44.4058643" lon="8.0029255"><ele>358.5</ele><time>2026-04-26T14:15:19.476Z</time></trkpt><trkpt lat="44.4059403" lon="8.0027605"><ele>358.25</ele><time>2026-04-26T14:15:20.475Z</time></trkpt><trkpt lat="44.4060083" lon="8.0026062"><ele>358.0</ele><time>2026-04-26T14:15:21.476Z</time></trkpt><trkpt lat="44.4060693" lon="8.0024687"><ele>357.2</ele><time>2026-04-26T14:15:22.475Z</time></trkpt><trkpt lat="44.4061272" lon="8.0023473"><ele>356.4</ele><time>2026-04-26T14:15:23.477Z</time></trkpt><trkpt lat="44.4061792" lon="8.0022358"><ele>355.59999999999997</ele><time>2026-04-26T14:15:24.479Z</time></trkpt><trkpt lat="44.4062227" lon="8.0021365"><ele>354.79999999999995</ele><time>2026-04-26T14:15:25.479Z</time></trkpt><trkpt lat="44.4062583" lon="8.0020508"><ele>354.0</ele><time>2026-04-26T14:15:26.48Z</time></trkpt><trkpt lat="44.4063172" lon="8.0019237"><ele>354.0</ele><time>2026-04-26T14:15:28.479Z</time></trkpt><trkpt lat="44.406348" lon="8.0018265"><ele>354.0</ele><time>2026-04-26T14:15:39.482Z</time></trkpt><trkpt lat="44.406401" lon="8.0017175"><ele>354.0</ele><time>2026-04-26T14:22:52.482Z</time></trkpt><trkpt lat="44.4064552" lon="8.0016058"><ele>354.0</ele><time>2026-04-26T14:22:54.48Z</time></trkpt><trkpt lat="44.4065255" lon="8.0014665"><ele>354.0</ele><time>2026-04-26T14:22:56.481Z</time></trkpt><trkpt lat="44.4065693" lon="8.001381"><ele>354.0</ele><time>2026-04-26T14:22:57.483Z</time></trkpt><trkpt lat="44.4066168" lon="8.0012778"><ele>354.0</ele><time>2026-04-26T14:22:58.481Z</time></trkpt><trkpt lat="44.4066682" lon="8.0011582"><ele>354.0</ele><time>2026-04-26T14:22:59.482Z</time></trkpt><trkpt lat="44.406724" lon="8.0010295"><ele>354.0</ele><time>2026-04-26T14:23:00.483Z</time></trkpt><trkpt lat="44.4067853" lon="8.000897"><ele>354.0</ele><time>2026-04-26T14:23:01.479Z</time></trkpt><trkpt lat="44.406852" lon="8.000754"><ele>354.25</ele><time>2026-04-26T14:23:02.48Z</time></trkpt><trkpt lat="44.4069223" lon="8.0006088"><ele>354.5</ele><time>2026-04-26T14:23:03.479Z</time></trkpt><trkpt lat="44.4069945" lon="8.0004545"><ele>354.75</ele><time>2026-04-26T14:23:04.479Z</time></trkpt><trkpt lat="44.407067" lon="8.0002893"><ele>355.0</ele><time>2026-04-26T14:23:05.478Z</time></trkpt><trkpt lat="44.4071433" lon="8.0001272"><ele>356.0</ele><time>2026-04-26T14:23:06.477Z</time></trkpt><trkpt lat="44.4072242" lon="7.9999643"><ele>357.0</ele><time>2026-04-26T14:23:07.478Z</time></trkpt><trkpt lat="44.4072997" lon="7.9997925"><ele>358.0</ele><time>2026-04-26T14:23:08.476Z</time></trkpt><trkpt lat="44.407379" lon="7.999614"><ele>359.0</ele><time>2026-04-26T14:23:09.481Z</time></trkpt><trkpt lat="44.4074653" lon="7.9994275"><ele>359.0</ele><time>2026-04-26T14:23:10.48Z</time></trkpt><trkpt lat="44.4075538" lon="7.9992363"><ele>359.0</ele><time>2026-04-26T14:23:11.481Z</time></trkpt><trkpt lat="44.4076387" lon="7.9990425"><ele>359.0</ele><time>2026-04-26T14:23:12.48Z</time></trkpt><trkpt lat="44.4077263" lon="7.9988503"><ele>358.33333333333337</ele><time>2026-04-26T14:23:13.479Z</time></trkpt><trkpt lat="44.4078155" lon="7.9986603"><ele>357.6666666666667</ele><time>2026-04-26T14:23:14.478Z</time></trkpt><trkpt lat="44.4079032" lon="7.9984715"><ele>357.0</ele><time>2026-04-26T14:23:15.48Z</time></trkpt><trkpt lat="44.4079908" lon="7.9982842"><ele>358.0</ele><time>2026-04-26T14:23:16.481Z</time></trkpt><trkpt lat="44.4080795" lon="7.9980952"><ele>359.0</ele><time>2026-04-26T14:23:17.478Z</time></trkpt><trkpt lat="44.4081702" lon="7.9979068"><ele>360.0</ele><time>2026-04-26T14:23:18.48Z</time></trkpt><trkpt lat="44.4082575" lon="7.997719"><ele>360.0</ele><time>2026-04-26T14:23:19.479Z</time></trkpt><trkpt lat="44.4083377" lon="7.9975473"><ele>360.0</ele><time>2026-04-26T14:23:20.481Z</time></trkpt><trkpt lat="44.4084128" lon="7.9973842"><ele>360.0</ele><time>2026-04-26T14:23:21.479Z</time></trkpt><trkpt lat="44.4084833" lon="7.997237"><ele>360.0</ele><time>2026-04-26T14:23:22.481Z</time></trkpt><trkpt lat="44.4085447" lon="7.997107"><ele>359.8</ele><time>2026-04-26T14:23:23.48Z</time></trkpt><trkpt lat="44.4085945" lon="7.9969828"><ele>359.6</ele><time>2026-04-26T14:23:24.48Z</time></trkpt><trkpt lat="44.4086485" lon="7.9968703"><ele>359.4</ele><time>2026-04-26T14:23:25.482Z</time></trkpt><trkpt lat="44.4087048" lon="7.9967598"><ele>359.2</ele><time>2026-04-26T14:23:26.481Z</time></trkpt><trkpt lat="44.4087525" lon="7.996657"><ele>359.0</ele><time>2026-04-26T14:23:27.48Z</time></trkpt><trkpt lat="44.4088028" lon="7.9965498"><ele>360.25</ele><time>2026-04-26T14:23:28.479Z</time></trkpt><trkpt lat="44.408852" lon="7.9964263"><ele>361.5</ele><time>2026-04-26T14:23:29.479Z</time></trkpt><trkpt lat="44.4089117" lon="7.996288"><ele>362.75</ele><time>2026-04-26T14:23:30.477Z</time></trkpt><trkpt lat="44.4089777" lon="7.9961472"><ele>364.0</ele><time>2026-04-26T14:23:31.476Z</time></trkpt><trkpt lat="44.4090465" lon="7.9959943"><ele>364.0</ele><time>2026-04-26T14:23:32.481Z</time></trkpt><trkpt lat="44.4091135" lon="7.9958525"><ele>364.0</ele><time>2026-04-26T14:23:33.477Z</time></trkpt><trkpt lat="44.4091693" lon="7.9957355"><ele>364.0</ele><time>2026-04-26T14:23:34.48Z</time></trkpt><trkpt lat="44.4092142" lon="7.9956367"><ele>364.0</ele><time>2026-04-26T14:23:35.482Z</time></trkpt><trkpt lat="44.4092702" lon="7.9955177"><ele>364.0</ele><time>2026-04-26T14:23:37.479Z</time></trkpt><trkpt lat="44.4092642" lon="7.9953938"><ele>363.3333333333333</ele><time>2026-04-26T14:23:40.476Z</time></trkpt><trkpt lat="44.4092367" lon="7.9952393"><ele>362.66666666666663</ele><time>2026-04-26T14:23:42.48Z</time></trkpt><trkpt lat="44.4092438" lon="7.9951332"><ele>362.0</ele><time>2026-04-26T14:23:43.478Z</time></trkpt><trkpt lat="44.4092632" lon="7.9950222"><ele>361.3333333333333</ele><time>2026-04-26T14:23:44.479Z</time></trkpt><trkpt lat="44.4092872" lon="7.9949082"><ele>360.6666666666667</ele><time>2026-04-26T14:23:45.481Z</time></trkpt><trkpt lat="44.4093108" lon="7.9947937"><ele>360.0</ele><time>2026-04-26T14:23:46.481Z</time></trkpt><trkpt lat="44.4093297" lon="7.9946832"><ele>359.6666666666667</ele><time>2026-04-26T14:23:47.478Z</time></trkpt><trkpt lat="44.4093457" lon="7.9945772"><ele>359.3333333333333</ele><time>2026-04-26T14:23:48.481Z</time></trkpt><trkpt lat="44.4093622" lon="7.9944753"><ele>359.0</ele><time>2026-04-26T14:23:49.479Z</time></trkpt><trkpt lat="44.4093743" lon="7.9943842"><ele>358.66666666666663</ele><time>2026-04-26T14:23:50.478Z</time></trkpt><trkpt lat="44.4094292" lon="7.9942732"><ele>358.3333333333333</ele><time>2026-04-26T14:23:52.484Z</time></trkpt><trkpt lat="44.4095018" lon="7.994316"><ele>358.0</ele><time>2026-04-26T14:23:54.466Z</time></trkpt><trkpt lat="44.409546" lon="7.9943853"><ele>358.0</ele><time>2026-04-26T14:23:55.48Z</time></trkpt><trkpt lat="44.4096023" lon="7.994471"><ele>358.0</ele><time>2026-04-26T14:23:56.48Z</time></trkpt><trkpt lat="44.4096588" lon="7.9945567"><ele>358.0</ele><time>2026-04-26T14:23:57.479Z</time></trkpt><trkpt lat="44.4097045" lon="7.9946218"><ele>358.0</ele><time>2026-04-26T14:23:58.478Z</time></trkpt><trkpt lat="44.4097815" lon="7.9946723"><ele>358.0</ele><time>2026-04-26T14:24:00.48Z</time></trkpt><trkpt lat="44.4098458" lon="7.9946068"><ele>358.0</ele><time>2026-04-26T14:24:02.483Z</time></trkpt><trkpt lat="44.4098733" lon="7.9945245"><ele>358.5</ele><time>2026-04-26T14:24:03.48Z</time></trkpt><trkpt lat="44.4098982" lon="7.9944222"><ele>359.0</ele><time>2026-04-26T14:24:04.48Z</time></trkpt><trkpt lat="44.4099253" lon="7.9943252"><ele>359.5</ele><time>2026-04-26T14:24:05.482Z</time></trkpt><trkpt lat="44.409956" lon="7.9942392"><ele>360.0</ele><time>2026-04-26T14:24:06.481Z</time></trkpt><trkpt lat="44.409986" lon="7.9941558"><ele>360.5</ele><time>2026-04-26T14:24:07.482Z</time></trkpt><trkpt lat="44.4100208" lon="7.9940148"><ele>361.0</ele><time>2026-04-26T14:24:09.478Z</time></trkpt><trkpt lat="44.4100433" lon="7.9938542"><ele>361.0</ele><time>2026-04-26T14:24:11.48Z</time></trkpt><trkpt lat="44.4100765" lon="7.9937603"><ele>361.0</ele><time>2026-04-26T14:24:12.481Z</time></trkpt><trkpt lat="44.4101212" lon="7.9936693"><ele>361.0</ele><time>2026-04-26T14:24:13.48Z</time></trkpt><trkpt lat="44.4101662" lon="7.9935778"><ele>361.0</ele><time>2026-04-26T14:24:14.479Z</time></trkpt><trkpt lat="44.4102053" lon="7.9934992"><ele>361.0</ele><time>2026-04-26T14:24:15.482Z</time></trkpt><trkpt lat="44.410257" lon="7.9933928"><ele>361.0</ele><time>2026-04-26T14:24:17.482Z</time></trkpt><trkpt lat="44.4103188" lon="7.9932692"><ele>360.66666666666663</ele><time>2026-04-26T14:24:36.482Z</time></trkpt><trkpt lat="44.4103553" lon="7.993191"><ele>360.3333333333333</ele><time>2026-04-26T14:24:37.481Z</time></trkpt><trkpt lat="44.4103963" lon="7.9931037"><ele>360.0</ele><time>2026-04-26T14:24:38.482Z</time></trkpt><trkpt lat="44.4104468" lon="7.9929987"><ele>359.6666666666667</ele><time>2026-04-26T14:24:39.482Z</time></trkpt><trkpt lat="44.4105003" lon="7.992885"><ele>359.33333333333337</ele><time>2026-04-26T14:24:40.481Z</time></trkpt><trkpt lat="44.4105525" lon="7.9927722"><ele>359.0</ele><time>2026-04-26T14:24:41.48Z</time></trkpt><trkpt lat="44.4106015" lon="7.9926653"><ele>360.5</ele><time>2026-04-26T14:24:42.48Z</time></trkpt><trkpt lat="44.4106503" lon="7.9925607"><ele>362.0</ele><time>2026-04-26T14:24:43.48Z</time></trkpt><trkpt lat="44.4106992" lon="7.9924585"><ele>363.5</ele><time>2026-04-26T14:24:44.475Z</time></trkpt><trkpt lat="44.4107465" lon="7.9923567"><ele>365.0</ele><time>2026-04-26T14:24:45.477Z</time></trkpt><trkpt lat="44.4107953" lon="7.9922565"><ele>366.5</ele><time>2026-04-26T14:24:46.478Z</time></trkpt><trkpt lat="44.410845" lon="7.9921542"><ele>368.0</ele><time>2026-04-26T14:24:47.479Z</time></trkpt><trkpt lat="44.4108958" lon="7.9920525"><ele>368.0</ele><time>2026-04-26T14:24:48.481Z</time></trkpt><trkpt lat="44.4109457" lon="7.9919515"><ele>368.0</ele><time>2026-04-26T14:24:49.48Z</time></trkpt><trkpt lat="44.410995" lon="7.9918523"><ele>368.0</ele><time>2026-04-26T14:24:50.479Z</time></trkpt><trkpt lat="44.4110433" lon="7.9917565"><ele>368.0</ele><time>2026-04-26T14:24:51.479Z</time></trkpt><trkpt lat="44.4110865" lon="7.9916702"><ele>368.0</ele><time>2026-04-26T14:24:52.479Z</time></trkpt><trkpt lat="44.4111268" lon="7.991594"><ele>368.0</ele><time>2026-04-26T14:24:53.48Z</time></trkpt><trkpt lat="44.4111952" lon="7.991461"><ele>366.79999999999995</ele><time>2026-04-26T14:24:55.48Z</time></trkpt><trkpt lat="44.4112567" lon="7.9913203"><ele>365.6</ele><time>2026-04-26T14:24:57.479Z</time></trkpt><trkpt lat="44.4113222" lon="7.9911835"><ele>364.4</ele><time>2026-04-26T14:24:59.478Z</time></trkpt><trkpt lat="44.4113947" lon="7.9910723"><ele>363.20000000000005</ele><time>2026-04-26T14:25:01.474Z</time></trkpt><trkpt lat="44.4114653" lon="7.9909655"><ele>362.0</ele><time>2026-04-26T14:25:03.471Z</time></trkpt><trkpt lat="44.4128115" lon="7.9871815"><ele>360.20000000000005</ele><time>2026-04-26T14:25:30.069Z</time></trkpt><trkpt lat="44.412936" lon="7.9872242"><ele>358.4</ele><time>2026-04-26T14:25:31.472Z</time></trkpt><trkpt lat="44.4129697" lon="7.9871148"><ele>356.6</ele><time>2026-04-26T14:25:32.475Z</time></trkpt><trkpt lat="44.4129767" lon="7.9870108"><ele>354.79999999999995</ele><time>2026-04-26T14:25:33.475Z</time></trkpt><trkpt lat="44.4129932" lon="7.9868948"><ele>353.0</ele><time>2026-04-26T14:25:34.476Z</time></trkpt><trkpt lat="44.4130258" lon="7.986767"><ele>356.0</ele><time>2026-04-26T14:25:35.476Z</time></trkpt><trkpt lat="44.4130712" lon="7.9866317"><ele>359.0</ele><time>2026-04-26T14:25:36.484Z</time></trkpt><trkpt lat="44.4131212" lon="7.9864923"><ele>362.0</ele><time>2026-04-26T14:25:37.479Z</time></trkpt><trkpt lat="44.4131773" lon="7.9863538"><ele>365.0</ele><time>2026-04-26T14:25:38.481Z</time></trkpt><trkpt lat="44.4132325" lon="7.9862113"><ele>368.0</ele><time>2026-04-26T14:25:39.48Z</time></trkpt><trkpt lat="44.4132862" lon="7.9860652"><ele>368.0</ele><time>2026-04-26T14:25:40.479Z</time></trkpt><trkpt lat="44.4133395" lon="7.9859155"><ele>368.0</ele><time>2026-04-26T14:25:41.478Z</time></trkpt><trkpt lat="44.413394" lon="7.9857627"><ele>368.0</ele><time>2026-04-26T14:25:42.479Z</time></trkpt><trkpt lat="44.4134507" lon="7.9856037"><ele>368.0</ele><time>2026-04-26T14:25:43.48Z</time></trkpt><trkpt lat="44.4135087" lon="7.9854378"><ele>365.5</ele><time>2026-04-26T14:25:44.48Z</time></trkpt><trkpt lat="44.4135648" lon="7.9852715"><ele>363.0</ele><time>2026-04-26T14:25:45.48Z</time></trkpt><trkpt lat="44.4136208" lon="7.9851025"><ele>360.5</ele><time>2026-04-26T14:25:46.48Z</time></trkpt><trkpt lat="44.4136758" lon="7.9849277"><ele>358.0</ele><time>2026-04-26T14:25:47.479Z</time></trkpt><trkpt lat="44.413728" lon="7.984747"><ele>357.0</ele><time>2026-04-26T14:25:48.481Z</time></trkpt><trkpt lat="44.4137798" lon="7.9845627"><ele>356.0</ele><time>2026-04-26T14:25:49.48Z</time></trkpt><trkpt lat="44.4138318" lon="7.9843748"><ele>355.0</ele><time>2026-04-26T14:25:50.479Z</time></trkpt><trkpt lat="44.4138807" lon="7.9841893"><ele>354.0</ele><time>2026-04-26T14:25:51.478Z</time></trkpt><trkpt lat="44.4139233" lon="7.9840067"><ele>357.0</ele><time>2026-04-26T14:25:52.477Z</time></trkpt><trkpt lat="44.413948" lon="7.9838135"><ele>360.0</ele><time>2026-04-26T14:25:53.479Z</time></trkpt><trkpt lat="44.4139523" lon="7.9836072"><ele>363.0</ele><time>2026-04-26T14:25:54.48Z</time></trkpt><trkpt lat="44.4139522" lon="7.983387"><ele>366.0</ele><time>2026-04-26T14:25:55.477Z</time></trkpt><trkpt lat="44.4139633" lon="7.983156"><ele>366.0</ele><time>2026-04-26T14:25:56.479Z</time></trkpt><trkpt lat="44.4139825" lon="7.9829222"><ele>366.0</ele><time>2026-04-26T14:25:57.476Z</time></trkpt><trkpt lat="44.4139962" lon="7.9827027"><ele>366.0</ele><time>2026-04-26T14:25:58.476Z</time></trkpt><trkpt lat="44.4139975" lon="7.9824928"><ele>366.0</ele><time>2026-04-26T14:25:59.476Z</time></trkpt><trkpt lat="44.413988" lon="7.9822778"><ele>366.0</ele><time>2026-04-26T14:26:00.477Z</time></trkpt><trkpt lat="44.413967" lon="7.9820565"><ele>366.0</ele><time>2026-04-26T14:26:01.478Z</time></trkpt><trkpt lat="44.413937" lon="7.9818282"><ele>366.3333333333333</ele><time>2026-04-26T14:26:02.477Z</time></trkpt><trkpt lat="44.413904" lon="7.9816052"><ele>366.66666666666663</ele><time>2026-04-26T14:26:03.478Z</time></trkpt><trkpt lat="44.4138717" lon="7.9814003"><ele>367.0</ele><time>2026-04-26T14:26:04.478Z</time></trkpt><trkpt lat="44.4138373" lon="7.9812082"><ele>363.0</ele><time>2026-04-26T14:26:05.48Z</time></trkpt><trkpt lat="44.4138018" lon="7.9810257"><ele>359.0</ele><time>2026-04-26T14:26:06.477Z</time></trkpt><trkpt lat="44.4137598" lon="7.9808505"><ele>355.0</ele><time>2026-04-26T14:26:07.478Z</time></trkpt><trkpt lat="44.413705" lon="7.9806835"><ele>351.0</ele><time>2026-04-26T14:26:08.478Z</time></trkpt><trkpt lat="44.413636" lon="7.9805187"><ele>351.0</ele><time>2026-04-26T14:26:09.479Z</time></trkpt><trkpt lat="44.4135565" lon="7.980356"><ele>351.0</ele><time>2026-04-26T14:26:10.479Z</time></trkpt><trkpt lat="44.4134722" lon="7.9802045"><ele>351.0</ele><time>2026-04-26T14:26:11.479Z</time></trkpt><trkpt lat="44.4133917" lon="7.9800702"><ele>351.0</ele><time>2026-04-26T14:26:12.48Z</time></trkpt><trkpt lat="44.4133175" lon="7.9799457"><ele>351.6</ele><time>2026-04-26T14:26:13.478Z</time></trkpt><trkpt lat="44.4132473" lon="7.9798297"><ele>352.20000000000005</ele><time>2026-04-26T14:26:14.48Z</time></trkpt><trkpt lat="44.4131838" lon="7.9797167"><ele>352.79999999999995</ele><time>2026-04-26T14:26:15.48Z</time></trkpt><trkpt lat="44.4131337" lon="7.9795913"><ele>353.4</ele><time>2026-04-26T14:26:16.484Z</time></trkpt><trkpt lat="44.4131097" lon="7.979454"><ele>354.0</ele><time>2026-04-26T14:26:17.479Z</time></trkpt><trkpt lat="44.4131157" lon="7.979297"><ele>354.25</ele><time>2026-04-26T14:26:18.481Z</time></trkpt><trkpt lat="44.4131445" lon="7.9791295"><ele>354.5</ele><time>2026-04-26T14:26:19.481Z</time></trkpt><trkpt lat="44.4131765" lon="7.978959"><ele>354.75</ele><time>2026-04-26T14:26:20.479Z</time></trkpt><trkpt lat="44.413207" lon="7.9787798"><ele>355.0</ele><time>2026-04-26T14:26:21.481Z</time></trkpt><trkpt lat="44.413247" lon="7.9786115"><ele>355.0</ele><time>2026-04-26T14:26:22.479Z</time></trkpt><trkpt lat="44.4133103" lon="7.9784675"><ele>355.0</ele><time>2026-04-26T14:26:23.478Z</time></trkpt><trkpt lat="44.4134058" lon="7.9783473"><ele>355.0</ele><time>2026-04-26T14:26:24.477Z</time></trkpt><trkpt lat="44.4135258" lon="7.9782357"><ele>355.0</ele><time>2026-04-26T14:26:25.48Z</time></trkpt><trkpt lat="44.4136535" lon="7.9781178"><ele>355.0</ele><time>2026-04-26T14:26:26.481Z</time></trkpt><trkpt lat="44.4137783" lon="7.9779977"><ele>355.0</ele><time>2026-04-26T14:26:27.482Z</time></trkpt><trkpt lat="44.4138937" lon="7.9778865"><ele>355.0</ele><time>2026-04-26T14:26:28.479Z</time></trkpt><trkpt lat="44.4140005" lon="7.9777865"><ele>355.0</ele><time>2026-04-26T14:26:29.48Z</time></trkpt><trkpt lat="44.4141067" lon="7.977696"><ele>355.0</ele><time>2026-04-26T14:26:30.481Z</time></trkpt><trkpt lat="44.4142087" lon="7.977616"><ele>355.0</ele><time>2026-04-26T14:26:31.483Z</time></trkpt><trkpt lat="44.4143097" lon="7.9775303"><ele>355.0</ele><time>2026-04-26T14:26:32.482Z</time></trkpt><trkpt lat="44.4144128" lon="7.9774278"><ele>355.0</ele><time>2026-04-26T14:26:33.48Z</time></trkpt><trkpt lat="44.4145242" lon="7.977316"><ele>355.5</ele><time>2026-04-26T14:26:34.48Z</time></trkpt><trkpt lat="44.4146435" lon="7.9772057"><ele>356.0</ele><time>2026-04-26T14:26:35.481Z</time></trkpt><trkpt lat="44.4147682" lon="7.9770925"><ele>356.5</ele><time>2026-04-26T14:26:36.485Z</time></trkpt><trkpt lat="44.4148968" lon="7.9769742"><ele>357.0</ele><time>2026-04-26T14:26:37.484Z</time></trkpt><trkpt lat="44.4150283" lon="7.976851"><ele>357.0</ele><time>2026-04-26T14:26:38.482Z</time></trkpt><trkpt lat="44.4151618" lon="7.9767245"><ele>357.0</ele><time>2026-04-26T14:26:39.485Z</time></trkpt><trkpt lat="44.4152967" lon="7.9765992"><ele>357.0</ele><time>2026-04-26T14:26:40.481Z</time></trkpt><trkpt lat="44.415431" lon="7.9764778"><ele>357.0</ele><time>2026-04-26T14:26:41.481Z</time></trkpt><trkpt lat="44.4155707" lon="7.9763498"><ele>357.0</ele><time>2026-04-26T14:26:42.482Z</time></trkpt><trkpt lat="44.4157167" lon="7.9762143"><ele>357.0</ele><time>2026-04-26T14:26:43.481Z</time></trkpt><trkpt lat="44.4158658" lon="7.9760747"><ele>357.0</ele><time>2026-04-26T14:26:44.481Z</time></trkpt><trkpt lat="44.4160145" lon="7.9759363"><ele>357.0</ele><time>2026-04-26T14:26:45.48Z</time></trkpt><trkpt lat="44.416158" lon="7.975805"><ele>357.0</ele><time>2026-04-26T14:26:46.479Z</time></trkpt><trkpt lat="44.4162925" lon="7.9756812"><ele>357.6666666666667</ele><time>2026-04-26T14:26:47.478Z</time></trkpt><trkpt lat="44.416424" lon="7.9755603"><ele>358.33333333333337</ele><time>2026-04-26T14:26:48.478Z</time></trkpt><trkpt lat="44.416555" lon="7.9754397"><ele>359.0</ele><time>2026-04-26T14:26:49.479Z</time></trkpt><trkpt lat="44.4166848" lon="7.9753183"><ele>359.0</ele><time>2026-04-26T14:26:50.483Z</time></trkpt><trkpt lat="44.4168138" lon="7.9751962"><ele>359.0</ele><time>2026-04-26T14:26:51.48Z</time></trkpt><trkpt lat="44.416943" lon="7.9750732"><ele>359.0</ele><time>2026-04-26T14:26:52.479Z</time></trkpt><trkpt lat="44.4170732" lon="7.9749522"><ele>358.75</ele><time>2026-04-26T14:26:53.483Z</time></trkpt><trkpt lat="44.4172017" lon="7.9748332"><ele>358.5</ele><time>2026-04-26T14:26:54.481Z</time></trkpt><trkpt lat="44.4173225" lon="7.9747193"><ele>358.25</ele><time>2026-04-26T14:26:55.481Z</time></trkpt><trkpt lat="44.4174343" lon="7.9746127"><ele>358.0</ele><time>2026-04-26T14:26:56.48Z</time></trkpt><trkpt lat="44.4175382" lon="7.9745152"><ele>358.0</ele><time>2026-04-26T14:26:57.482Z</time></trkpt><trkpt lat="44.417636" lon="7.9744253"><ele>358.0</ele><time>2026-04-26T14:26:58.481Z</time></trkpt><trkpt lat="44.4177258" lon="7.974345"><ele>358.0</ele><time>2026-04-26T14:26:59.48Z</time></trkpt><trkpt lat="44.4178035" lon="7.9742743"><ele>358.0</ele><time>2026-04-26T14:27:00.479Z</time></trkpt><trkpt lat="44.4178665" lon="7.974215"><ele>358.0</ele><time>2026-04-26T14:27:01.48Z</time></trkpt><trkpt lat="44.4179425" lon="7.9741362"><ele>357.4</ele><time>2026-04-26T14:27:03.486Z</time></trkpt><trkpt lat="44.4179573" lon="7.97402"><ele>356.79999999999995</ele><time>2026-04-26T14:27:12.478Z</time></trkpt><trkpt lat="44.4178602" lon="7.9739287"><ele>356.2</ele><time>2026-04-26T14:27:14.478Z</time></trkpt><trkpt lat="44.4177823" lon="7.9738715"><ele>355.6</ele><time>2026-04-26T14:27:15.48Z</time></trkpt><trkpt lat="44.4176943" lon="7.9738002"><ele>355.0</ele><time>2026-04-26T14:27:16.479Z</time></trkpt><trkpt lat="44.4175967" lon="7.9737217"><ele>355.0</ele><time>2026-04-26T14:27:17.479Z</time></trkpt><trkpt lat="44.4175077" lon="7.9736518"><ele>355.0</ele><time>2026-04-26T14:27:18.48Z</time></trkpt><trkpt lat="44.4174342" lon="7.9735825"><ele>355.0</ele><time>2026-04-26T14:27:19.48Z</time></trkpt><trkpt lat="44.4173855" lon="7.9734945"><ele>355.0</ele><time>2026-04-26T14:27:20.479Z</time></trkpt><trkpt lat="44.4173763" lon="7.9733967"><ele>355.0</ele><time>2026-04-26T14:27:21.48Z</time></trkpt><trkpt lat="44.4174088" lon="7.973312"><ele>355.0</ele><time>2026-04-26T14:27:22.48Z</time></trkpt><trkpt lat="44.417478" lon="7.9732438"><ele>353.8</ele><time>2026-04-26T14:27:23.48Z</time></trkpt><trkpt lat="44.417569" lon="7.973176"><ele>352.6</ele><time>2026-04-26T14:27:24.481Z</time></trkpt><trkpt lat="44.417665" lon="7.9730988"><ele>351.4</ele><time>2026-04-26T14:27:25.48Z</time></trkpt><trkpt lat="44.4177445" lon="7.9730277"><ele>350.2</ele><time>2026-04-26T14:27:26.48Z</time></trkpt><trkpt lat="44.4178007" lon="7.9729748"><ele>349.0</ele><time>2026-04-26T14:27:27.48Z</time></trkpt><trkpt lat="44.4178682" lon="7.9729055"><ele>349.0</ele><time>2026-04-26T14:27:29.48Z</time></trkpt><trkpt lat="44.4179007" lon="7.9728258"><ele>349.0</ele><time>2026-04-26T14:27:32.482Z</time></trkpt><trkpt lat="44.4179" lon="7.9727322"><ele>349.0</ele><time>2026-04-26T14:27:35.477Z</time></trkpt><trkpt lat="44.417851" lon="7.9725408"><ele>349.0</ele><time>2026-04-26T14:27:37.477Z</time></trkpt><trkpt lat="44.417813" lon="7.9724112"><ele>349.0</ele><time>2026-04-26T14:27:38.48Z</time></trkpt><trkpt lat="44.417768" lon="7.9722593"><ele>347.25</ele><time>2026-04-26T14:27:39.482Z</time></trkpt><trkpt lat="44.4177173" lon="7.9720905"><ele>345.5</ele><time>2026-04-26T14:27:40.48Z</time></trkpt><trkpt lat="44.4176637" lon="7.9719107"><ele>343.75</ele><time>2026-04-26T14:27:41.48Z</time></trkpt><trkpt lat="44.4176103" lon="7.9717317"><ele>342.0</ele><time>2026-04-26T14:27:42.48Z</time></trkpt><trkpt lat="44.4175577" lon="7.9715482"><ele>342.0</ele><time>2026-04-26T14:27:43.479Z</time></trkpt><trkpt lat="44.4175023" lon="7.9713552"><ele>342.0</ele><time>2026-04-26T14:27:44.481Z</time></trkpt><trkpt lat="44.4174438" lon="7.9711562"><ele>342.0</ele><time>2026-04-26T14:27:45.48Z</time></trkpt><trkpt lat="44.4173822" lon="7.9709508"><ele>342.0</ele><time>2026-04-26T14:27:46.481Z</time></trkpt><trkpt lat="44.41731" lon="7.9707462"><ele>342.0</ele><time>2026-04-26T14:27:47.481Z</time></trkpt><trkpt lat="44.4172182" lon="7.9705417"><ele>342.0</ele><time>2026-04-26T14:27:48.483Z</time></trkpt><trkpt lat="44.4171007" lon="7.9703348"><ele>342.0</ele><time>2026-04-26T14:27:49.481Z</time></trkpt><trkpt lat="44.4169562" lon="7.9701253"><ele>342.0</ele><time>2026-04-26T14:27:50.482Z</time></trkpt><trkpt lat="44.4167982" lon="7.9699152"><ele>342.0</ele><time>2026-04-26T14:27:51.482Z</time></trkpt><trkpt lat="44.4166472" lon="7.9697168"><ele>343.0</ele><time>2026-04-26T14:27:52.481Z</time></trkpt><trkpt lat="44.4165162" lon="7.9695345"><ele>344.0</ele><time>2026-04-26T14:27:53.48Z</time></trkpt><trkpt lat="44.416408" lon="7.9693585"><ele>345.0</ele><time>2026-04-26T14:27:54.482Z</time></trkpt><trkpt lat="44.4163192" lon="7.96917"><ele>353.6666666666667</ele><time>2026-04-26T14:27:55.481Z</time></trkpt><trkpt lat="44.4162545" lon="7.9689605"><ele>362.33333333333337</ele><time>2026-04-26T14:27:56.48Z</time></trkpt><trkpt lat="44.4162037" lon="7.968734"><ele>371.0</ele><time>2026-04-26T14:27:57.48Z</time></trkpt><trkpt lat="44.4161495" lon="7.9685015"><ele>372.0</ele><time>2026-04-26T14:27:58.477Z</time></trkpt><trkpt lat="44.4160857" lon="7.9682692"><ele>373.0</ele><time>2026-04-26T14:27:59.476Z</time></trkpt><trkpt lat="44.4160087" lon="7.9680387"><ele>374.0</ele><time>2026-04-26T14:28:00.476Z</time></trkpt><trkpt lat="44.4159142" lon="7.967806"><ele>374.0</ele><time>2026-04-26T14:28:01.478Z</time></trkpt><trkpt lat="44.4158057" lon="7.9675692"><ele>374.0</ele><time>2026-04-26T14:28:02.476Z</time></trkpt><trkpt lat="44.4156913" lon="7.9673358"><ele>374.0</ele><time>2026-04-26T14:28:03.477Z</time></trkpt><trkpt lat="44.4155727" lon="7.9670998"><ele>374.0</ele><time>2026-04-26T14:28:04.479Z</time></trkpt><trkpt lat="44.4154502" lon="7.9668638"><ele>374.0</ele><time>2026-04-26T14:28:05.478Z</time></trkpt><trkpt lat="44.4153262" lon="7.9666305"><ele>374.0</ele><time>2026-04-26T14:28:06.477Z</time></trkpt><trkpt lat="44.4152105" lon="7.9663943"><ele>374.0</ele><time>2026-04-26T14:28:07.479Z</time></trkpt><trkpt lat="44.4151088" lon="7.9661508"><ele>374.0</ele><time>2026-04-26T14:28:08.481Z</time></trkpt><trkpt lat="44.415022" lon="7.9659157"><ele>374.0</ele><time>2026-04-26T14:28:09.481Z</time></trkpt><trkpt lat="44.4149432" lon="7.9656973"><ele>371.0</ele><time>2026-04-26T14:28:10.478Z</time></trkpt><trkpt lat="44.4148702" lon="7.9654897"><ele>368.0</ele><time>2026-04-26T14:28:11.479Z</time></trkpt><trkpt lat="44.4147965" lon="7.9652815"><ele>365.0</ele><time>2026-04-26T14:28:12.478Z</time></trkpt><trkpt lat="44.4147173" lon="7.9650908"><ele>366.75</ele><time>2026-04-26T14:28:13.479Z</time></trkpt><trkpt lat="44.4146265" lon="7.9649253"><ele>368.5</ele><time>2026-04-26T14:28:14.48Z</time></trkpt><trkpt lat="44.4145257" lon="7.9647867"><ele>370.25</ele><time>2026-04-26T14:28:15.479Z</time></trkpt><trkpt lat="44.4144188" lon="7.9646753"><ele>372.0</ele><time>2026-04-26T14:28:16.481Z</time></trkpt><trkpt lat="44.4143105" lon="7.9645942"><ele>372.0</ele><time>2026-04-26T14:28:17.481Z</time></trkpt><trkpt lat="44.4142035" lon="7.9645293"><ele>372.0</ele><time>2026-04-26T14:28:18.482Z</time></trkpt><trkpt lat="44.414106" lon="7.9644652"><ele>372.0</ele><time>2026-04-26T14:28:19.481Z</time></trkpt><trkpt lat="44.4140278" lon="7.9643837"><ele>372.0</ele><time>2026-04-26T14:28:20.48Z</time></trkpt><trkpt lat="44.4139692" lon="7.9642852"><ele>372.0</ele><time>2026-04-26T14:28:21.48Z</time></trkpt><trkpt lat="44.413933" lon="7.9641772"><ele>370.0</ele><time>2026-04-26T14:28:22.478Z</time></trkpt><trkpt lat="44.4139208" lon="7.9640548"><ele>368.0</ele><time>2026-04-26T14:28:23.477Z</time></trkpt><trkpt lat="44.4139315" lon="7.9639415"><ele>366.0</ele><time>2026-04-26T14:28:24.477Z</time></trkpt><trkpt lat="44.4139555" lon="7.9638538"><ele>364.0</ele><time>2026-04-26T14:28:25.476Z</time></trkpt><trkpt lat="44.4140192" lon="7.9637237"><ele>362.0</ele><time>2026-04-26T14:28:27.477Z</time></trkpt><trkpt lat="44.4140747" lon="7.963651"><ele>360.0</ele><time>2026-04-26T14:28:28.479Z</time></trkpt><trkpt lat="44.414151" lon="7.9635645"><ele>360.0</ele><time>2026-04-26T14:28:29.481Z</time></trkpt><trkpt lat="44.4142422" lon="7.9634683"><ele>360.0</ele><time>2026-04-26T14:28:30.48Z</time></trkpt><trkpt lat="44.4143512" lon="7.9633582"><ele>360.0</ele><time>2026-04-26T14:28:31.478Z</time></trkpt><trkpt lat="44.4144698" lon="7.9632357"><ele>360.0</ele><time>2026-04-26T14:28:32.479Z</time></trkpt><trkpt lat="44.4146013" lon="7.963101"><ele>358.3333333333333</ele><time>2026-04-26T14:28:33.481Z</time></trkpt><trkpt lat="44.4147392" lon="7.9629605"><ele>356.66666666666663</ele><time>2026-04-26T14:28:34.48Z</time></trkpt><trkpt lat="44.4148775" lon="7.9628205"><ele>355.0</ele><time>2026-04-26T14:28:35.481Z</time></trkpt><trkpt lat="44.415021" lon="7.9626737"><ele>357.66666666666663</ele><time>2026-04-26T14:28:36.483Z</time></trkpt><trkpt lat="44.4151682" lon="7.9625227"><ele>360.3333333333333</ele><time>2026-04-26T14:28:37.481Z</time></trkpt><trkpt lat="44.4153162" lon="7.9623703"><ele>363.0</ele><time>2026-04-26T14:28:38.48Z</time></trkpt><trkpt lat="44.4154645" lon="7.9622158"><ele>357.3333333333333</ele><time>2026-04-26T14:28:39.483Z</time></trkpt><trkpt lat="44.4156148" lon="7.9620585"><ele>351.66666666666663</ele><time>2026-04-26T14:28:40.479Z</time></trkpt><trkpt lat="44.4157677" lon="7.9619002"><ele>346.0</ele><time>2026-04-26T14:28:41.479Z</time></trkpt><trkpt lat="44.4159218" lon="7.9617397"><ele>345.66666666666663</ele><time>2026-04-26T14:28:42.481Z</time></trkpt><trkpt lat="44.4160752" lon="7.961581"><ele>345.3333333333333</ele><time>2026-04-26T14:28:43.482Z</time></trkpt><trkpt lat="44.4162313" lon="7.9614233"><ele>345.0</ele><time>2026-04-26T14:28:44.482Z</time></trkpt><trkpt lat="44.4163897" lon="7.9612642"><ele>345.0</ele><time>2026-04-26T14:28:45.484Z</time></trkpt><trkpt lat="44.4165493" lon="7.9611017"><ele>345.0</ele><time>2026-04-26T14:28:46.481Z</time></trkpt><trkpt lat="44.4167072" lon="7.9609362"><ele>345.0</ele><time>2026-04-26T14:28:47.482Z</time></trkpt><trkpt lat="44.4168635" lon="7.9607742"><ele>345.0</ele><time>2026-04-26T14:28:48.479Z</time></trkpt><trkpt lat="44.417019" lon="7.9606185"><ele>345.0</ele><time>2026-04-26T14:28:49.478Z</time></trkpt><trkpt lat="44.4171722" lon="7.9604687"><ele>345.0</ele><time>2026-04-26T14:28:50.481Z</time></trkpt><trkpt lat="44.41732" lon="7.9603303"><ele>344.3333333333333</ele><time>2026-04-26T14:28:51.475Z</time></trkpt><trkpt lat="44.417463" lon="7.960212"><ele>343.66666666666663</ele><time>2026-04-26T14:28:52.478Z</time></trkpt><trkpt lat="44.4176062" lon="7.9601165"><ele>343.0</ele><time>2026-04-26T14:28:53.48Z</time></trkpt><trkpt lat="44.4177527" lon="7.9600407"><ele>344.3333333333333</ele><time>2026-04-26T14:28:54.48Z</time></trkpt><trkpt lat="44.4179033" lon="7.9599815"><ele>345.6666666666667</ele><time>2026-04-26T14:28:55.48Z</time></trkpt><trkpt lat="44.4180578" lon="7.9599373"><ele>347.0</ele><time>2026-04-26T14:28:56.481Z</time></trkpt><trkpt lat="44.4182165" lon="7.959904"><ele>347.0</ele><time>2026-04-26T14:28:57.481Z</time></trkpt><trkpt lat="44.4183792" lon="7.9598853"><ele>347.0</ele><time>2026-04-26T14:28:58.48Z</time></trkpt><trkpt lat="44.4185463" lon="7.9598852"><ele>347.0</ele><time>2026-04-26T14:28:59.48Z</time></trkpt><trkpt lat="44.4187185" lon="7.9598998"><ele>348.0</ele><time>2026-04-26T14:29:00.48Z</time></trkpt><trkpt lat="44.418895" lon="7.9599295"><ele>349.0</ele><time>2026-04-26T14:29:01.48Z</time></trkpt><trkpt lat="44.419078" lon="7.959968"><ele>350.0</ele><time>2026-04-26T14:29:02.479Z</time></trkpt><trkpt lat="44.4192698" lon="7.9600092"><ele>347.0</ele><time>2026-04-26T14:29:03.479Z</time></trkpt><trkpt lat="44.4194668" lon="7.9600517"><ele>344.0</ele><time>2026-04-26T14:29:04.479Z</time></trkpt><trkpt lat="44.419668" lon="7.960095"><ele>341.0</ele><time>2026-04-26T14:29:05.479Z</time></trkpt><trkpt lat="44.419875" lon="7.9601402"><ele>341.0</ele><time>2026-04-26T14:29:06.48Z</time></trkpt><trkpt lat="44.4200862" lon="7.960187"><ele>341.0</ele><time>2026-04-26T14:29:07.479Z</time></trkpt><trkpt lat="44.4203002" lon="7.9602317"><ele>341.0</ele><time>2026-04-26T14:29:08.48Z</time></trkpt><trkpt lat="44.4205162" lon="7.9602747"><ele>342.0</ele><time>2026-04-26T14:29:09.48Z</time></trkpt><trkpt lat="44.4207353" lon="7.96032"><ele>343.0</ele><time>2026-04-26T14:29:10.479Z</time></trkpt><trkpt lat="44.4209567" lon="7.9603687"><ele>344.0</ele><time>2026-04-26T14:29:11.481Z</time></trkpt><trkpt lat="44.4211797" lon="7.9604185"><ele>346.5</ele><time>2026-04-26T14:29:12.48Z</time></trkpt><trkpt lat="44.4214037" lon="7.9604677"><ele>349.0</ele><time>2026-04-26T14:29:13.476Z</time></trkpt><trkpt lat="44.421629" lon="7.9605152"><ele>349.0</ele><time>2026-04-26T14:29:14.475Z</time></trkpt><trkpt lat="44.4218497" lon="7.9605598"><ele>349.0</ele><time>2026-04-26T14:29:15.477Z</time></trkpt><trkpt lat="44.4220625" lon="7.9606035"><ele>349.0</ele><time>2026-04-26T14:29:16.476Z</time></trkpt><trkpt lat="44.4222703" lon="7.9606457"><ele>351.0</ele><time>2026-04-26T14:29:17.476Z</time></trkpt><trkpt lat="44.4224715" lon="7.9606853"><ele>353.0</ele><time>2026-04-26T14:29:18.476Z</time></trkpt><trkpt lat="44.4226685" lon="7.9607268"><ele>355.0</ele><time>2026-04-26T14:29:19.477Z</time></trkpt><trkpt lat="44.4228618" lon="7.9607695"><ele>355.66666666666663</ele><time>2026-04-26T14:29:20.478Z</time></trkpt><trkpt lat="44.4230548" lon="7.960806"><ele>356.3333333333333</ele><time>2026-04-26T14:29:21.478Z</time></trkpt><trkpt lat="44.4232462" lon="7.9608297"><ele>357.0</ele><time>2026-04-26T14:29:22.477Z</time></trkpt><trkpt lat="44.4234362" lon="7.9608357"><ele>357.0</ele><time>2026-04-26T14:29:23.478Z</time></trkpt><trkpt lat="44.423626" lon="7.9608242"><ele>357.0</ele><time>2026-04-26T14:29:24.48Z</time></trkpt><trkpt lat="44.4238138" lon="7.9607937"><ele>357.0</ele><time>2026-04-26T14:29:25.48Z</time></trkpt><trkpt lat="44.424001" lon="7.9607447"><ele>358.3333333333333</ele><time>2026-04-26T14:29:26.481Z</time></trkpt><trkpt lat="44.424188" lon="7.9606747"><ele>359.66666666666663</ele><time>2026-04-26T14:29:27.481Z</time></trkpt><trkpt lat="44.424373" lon="7.960585"><ele>361.0</ele><time>2026-04-26T14:29:28.481Z</time></trkpt><trkpt lat="44.4245572" lon="7.9604753"><ele>360.3333333333333</ele><time>2026-04-26T14:29:29.479Z</time></trkpt><trkpt lat="44.424739" lon="7.960344"><ele>359.6666666666667</ele><time>2026-04-26T14:29:30.481Z</time></trkpt><trkpt lat="44.4249147" lon="7.9601937"><ele>359.0</ele><time>2026-04-26T14:29:31.481Z</time></trkpt><trkpt lat="44.425083" lon="7.9600228"><ele>359.0</ele><time>2026-04-26T14:29:32.484Z</time></trkpt><trkpt lat="44.4252393" lon="7.9598383"><ele>359.0</ele><time>2026-04-26T14:29:33.483Z</time></trkpt><trkpt lat="44.4253828" lon="7.9596465"><ele>359.0</ele><time>2026-04-26T14:29:34.482Z</time></trkpt><trkpt lat="44.4255157" lon="7.959446"><ele>358.33333333333337</ele><time>2026-04-26T14:29:35.479Z</time></trkpt><trkpt lat="44.4256363" lon="7.9592327"><ele>357.6666666666667</ele><time>2026-04-26T14:29:36.482Z</time></trkpt><trkpt lat="44.4257437" lon="7.9590027"><ele>357.0</ele><time>2026-04-26T14:29:37.479Z</time></trkpt><trkpt lat="44.4258367" lon="7.9587545"><ele>355.3333333333333</ele><time>2026-04-26T14:29:38.477Z</time></trkpt><trkpt lat="44.4259187" lon="7.958495"><ele>353.66666666666663</ele><time>2026-04-26T14:29:39.477Z</time></trkpt><trkpt lat="44.425994" lon="7.9582285"><ele>352.0</ele><time>2026-04-26T14:29:40.48Z</time></trkpt><trkpt lat="44.4260677" lon="7.957962"><ele>350.3333333333333</ele><time>2026-04-26T14:29:41.479Z</time></trkpt><trkpt lat="44.4261383" lon="7.9576977"><ele>348.6666666666667</ele><time>2026-04-26T14:29:42.481Z</time></trkpt><trkpt lat="44.4262067" lon="7.9574432"><ele>347.0</ele><time>2026-04-26T14:29:43.478Z</time></trkpt><trkpt lat="44.4262682" lon="7.9572015"><ele>342.6666666666667</ele><time>2026-04-26T14:29:44.48Z</time></trkpt><trkpt lat="44.426324" lon="7.9569703"><ele>338.3333333333333</ele><time>2026-04-26T14:29:45.48Z</time></trkpt><trkpt lat="44.4263753" lon="7.9567352"><ele>334.0</ele><time>2026-04-26T14:29:46.483Z</time></trkpt><trkpt lat="44.4264188" lon="7.9564903"><ele>332.3333333333333</ele><time>2026-04-26T14:29:47.48Z</time></trkpt><trkpt lat="44.4264522" lon="7.9562372"><ele>330.6666666666667</ele><time>2026-04-26T14:29:48.48Z</time></trkpt><trkpt lat="44.4264768" lon="7.9559782"><ele>329.0</ele><time>2026-04-26T14:29:49.479Z</time></trkpt><trkpt lat="44.4264907" lon="7.955717"><ele>329.0</ele><time>2026-04-26T14:29:50.48Z</time></trkpt><trkpt lat="44.4264952" lon="7.9554587"><ele>329.0</ele><time>2026-04-26T14:29:51.482Z</time></trkpt><trkpt lat="44.4264907" lon="7.9552048"><ele>329.0</ele><time>2026-04-26T14:29:52.478Z</time></trkpt><trkpt lat="44.4264768" lon="7.9549553"><ele>331.0</ele><time>2026-04-26T14:29:53.476Z</time></trkpt><trkpt lat="44.4264553" lon="7.9547062"><ele>333.0</ele><time>2026-04-26T14:29:54.477Z</time></trkpt><trkpt lat="44.4264267" lon="7.954455"><ele>335.0</ele><time>2026-04-26T14:29:55.477Z</time></trkpt><trkpt lat="44.4263903" lon="7.954205"><ele>334.0</ele><time>2026-04-26T14:29:56.478Z</time></trkpt><trkpt lat="44.4263447" lon="7.9539577"><ele>333.0</ele><time>2026-04-26T14:29:57.479Z</time></trkpt><trkpt lat="44.426294" lon="7.9537178"><ele>332.0</ele><time>2026-04-26T14:29:58.478Z</time></trkpt><trkpt lat="44.4262433" lon="7.9534902"><ele>333.0</ele><time>2026-04-26T14:29:59.478Z</time></trkpt><trkpt lat="44.4261988" lon="7.9532752"><ele>334.0</ele><time>2026-04-26T14:30:00.481Z</time></trkpt><trkpt lat="44.426158" lon="7.9530722"><ele>335.0</ele><time>2026-04-26T14:30:01.482Z</time></trkpt><trkpt lat="44.4261188" lon="7.9528858"><ele>336.0</ele><time>2026-04-26T14:30:02.477Z</time></trkpt><trkpt lat="44.4260795" lon="7.9527158"><ele>336.0</ele><time>2026-04-26T14:30:03.477Z</time></trkpt><trkpt lat="44.4260445" lon="7.9525668"><ele>336.0</ele><time>2026-04-26T14:30:04.476Z</time></trkpt><trkpt lat="44.4260172" lon="7.9524398"><ele>336.0</ele><time>2026-04-26T14:30:05.478Z</time></trkpt><trkpt lat="44.4260075" lon="7.9523325"><ele>336.0</ele><time>2026-04-26T14:30:06.481Z</time></trkpt><trkpt lat="44.4260275" lon="7.9522472"><ele>336.0</ele><time>2026-04-26T14:30:07.481Z</time></trkpt><trkpt lat="44.426117" lon="7.9521645"><ele>336.5</ele><time>2026-04-26T14:30:09.48Z</time></trkpt><trkpt lat="44.4262315" lon="7.9521322"><ele>337.0</ele><time>2026-04-26T14:30:11.476Z</time></trkpt><trkpt lat="44.4262993" lon="7.9520978"><ele>337.5</ele><time>2026-04-26T14:30:12.48Z</time></trkpt><trkpt lat="44.4263675" lon="7.9520858"><ele>338.0</ele><time>2026-04-26T14:30:13.481Z</time></trkpt><trkpt lat="44.4264293" lon="7.9521145"><ele>338.5</ele><time>2026-04-26T14:30:14.48Z</time></trkpt><trkpt lat="44.4264917" lon="7.952181"><ele>339.0</ele><time>2026-04-26T14:30:15.481Z</time></trkpt><trkpt lat="44.4265563" lon="7.952277"><ele>341.0</ele><time>2026-04-26T14:30:16.48Z</time></trkpt><trkpt lat="44.4266128" lon="7.9523923"><ele>343.0</ele><time>2026-04-26T14:30:17.478Z</time></trkpt><trkpt lat="44.426669" lon="7.9525368"><ele>345.0</ele><time>2026-04-26T14:30:18.48Z</time></trkpt><trkpt lat="44.4267258" lon="7.9526995"><ele>347.0</ele><time>2026-04-26T14:30:19.479Z</time></trkpt><trkpt lat="44.4267885" lon="7.9528658"><ele>347.0</ele><time>2026-04-26T14:30:20.479Z</time></trkpt><trkpt lat="44.426859" lon="7.9530318"><ele>347.0</ele><time>2026-04-26T14:30:21.477Z</time></trkpt><trkpt lat="44.4269452" lon="7.9531973"><ele>347.0</ele><time>2026-04-26T14:30:22.479Z</time></trkpt><trkpt lat="44.4270438" lon="7.953369"><ele>347.0</ele><time>2026-04-26T14:30:23.477Z</time></trkpt><trkpt lat="44.4271518" lon="7.9535472"><ele>354.0</ele><time>2026-04-26T14:30:24.479Z</time></trkpt><trkpt lat="44.427257" lon="7.9537407"><ele>361.0</ele><time>2026-04-26T14:30:25.48Z</time></trkpt><trkpt lat="44.4273487" lon="7.9539523"><ele>368.0</ele><time>2026-04-26T14:30:26.477Z</time></trkpt><trkpt lat="44.4274388" lon="7.9541718"><ele>364.25</ele><time>2026-04-26T14:30:27.476Z</time></trkpt><trkpt lat="44.427522" lon="7.9543743"><ele>360.5</ele><time>2026-04-26T14:30:28.476Z</time></trkpt><trkpt lat="44.4275985" lon="7.954553"><ele>356.75</ele><time>2026-04-26T14:30:29.475Z</time></trkpt><trkpt lat="44.4276578" lon="7.9547127"><ele>353.0</ele><time>2026-04-26T14:30:30.478Z</time></trkpt><trkpt lat="44.427707" lon="7.9548437"><ele>353.0</ele><time>2026-04-26T14:30:31.477Z</time></trkpt><trkpt lat="44.4277528" lon="7.9549328"><ele>353.0</ele><time>2026-04-26T14:30:32.475Z</time></trkpt><trkpt lat="44.4278418" lon="7.9549453"><ele>353.0</ele><time>2026-04-26T14:30:34.476Z</time></trkpt><trkpt lat="44.4278415" lon="7.9547888"><ele>353.0</ele><time>2026-04-26T14:30:36.477Z</time></trkpt><trkpt lat="44.4277905" lon="7.9546675"><ele>353.0</ele><time>2026-04-26T14:30:37.477Z</time></trkpt><trkpt lat="44.427734" lon="7.954523"><ele>353.0</ele><time>2026-04-26T14:30:38.478Z</time></trkpt><trkpt lat="44.4276815" lon="7.9543432"><ele>353.0</ele><time>2026-04-26T14:30:39.477Z</time></trkpt><trkpt lat="44.4276312" lon="7.9541457"><ele>353.0</ele><time>2026-04-26T14:30:40.478Z</time></trkpt><trkpt lat="44.4275842" lon="7.9539385"><ele>353.0</ele><time>2026-04-26T14:30:41.477Z</time></trkpt><trkpt lat="44.4275395" lon="7.9537322"><ele>356.75</ele><time>2026-04-26T14:30:42.477Z</time></trkpt><trkpt lat="44.4274975" lon="7.9535463"><ele>360.5</ele><time>2026-04-26T14:30:43.476Z</time></trkpt><trkpt lat="44.4274658" lon="7.953376"><ele>364.25</ele><time>2026-04-26T14:30:44.48Z</time></trkpt><trkpt lat="44.42745" lon="7.9532073"><ele>368.0</ele><time>2026-04-26T14:30:45.481Z</time></trkpt><trkpt lat="44.427463" lon="7.9530432"><ele>370.5</ele><time>2026-04-26T14:30:46.479Z</time></trkpt><trkpt lat="44.4275032" lon="7.9528752"><ele>373.0</ele><time>2026-04-26T14:30:47.478Z</time></trkpt><trkpt lat="44.427564" lon="7.9526932"><ele>375.5</ele><time>2026-04-26T14:30:48.477Z</time></trkpt><trkpt lat="44.4276275" lon="7.9525"><ele>378.0</ele><time>2026-04-26T14:30:49.48Z</time></trkpt><trkpt lat="44.427684" lon="7.952285"><ele>378.3333333333333</ele><time>2026-04-26T14:30:50.477Z</time></trkpt><trkpt lat="44.427735" lon="7.9520535"><ele>378.66666666666663</ele><time>2026-04-26T14:30:51.476Z</time></trkpt><trkpt lat="44.4277867" lon="7.95182"><ele>379.0</ele><time>2026-04-26T14:30:52.476Z</time></trkpt><trkpt lat="44.4278367" lon="7.9515978"><ele>379.0</ele><time>2026-04-26T14:30:53.476Z</time></trkpt><trkpt lat="44.4278865" lon="7.951398"><ele>379.0</ele><time>2026-04-26T14:30:54.476Z</time></trkpt><trkpt lat="44.4279455" lon="7.9512"><ele>379.0</ele><time>2026-04-26T14:30:55.479Z</time></trkpt><trkpt lat="44.4280222" lon="7.9510018"><ele>385.66666666666663</ele><time>2026-04-26T14:30:56.477Z</time></trkpt><trkpt lat="44.428101" lon="7.9508047"><ele>392.3333333333333</ele><time>2026-04-26T14:30:57.476Z</time></trkpt><trkpt lat="44.4281738" lon="7.9505878"><ele>399.0</ele><time>2026-04-26T14:30:58.477Z</time></trkpt><trkpt lat="44.4282455" lon="7.9503607"><ele>399.0</ele><time>2026-04-26T14:30:59.478Z</time></trkpt><trkpt lat="44.428326" lon="7.9501393"><ele>399.0</ele><time>2026-04-26T14:31:00.475Z</time></trkpt><trkpt lat="44.4284025" lon="7.9499138"><ele>399.0</ele><time>2026-04-26T14:31:01.475Z</time></trkpt><trkpt lat="44.4284677" lon="7.949679"><ele>398.0</ele><time>2026-04-26T14:31:02.476Z</time></trkpt><trkpt lat="44.4285232" lon="7.9494635"><ele>397.0</ele><time>2026-04-26T14:31:03.477Z</time></trkpt><trkpt lat="44.4285743" lon="7.9492693"><ele>396.0</ele><time>2026-04-26T14:31:04.477Z</time></trkpt><trkpt lat="44.4286188" lon="7.9491013"><ele>395.0</ele><time>2026-04-26T14:31:05.476Z</time></trkpt><trkpt lat="44.4286492" lon="7.9489632"><ele>394.99999999999994</ele><time>2026-04-26T14:31:06.477Z</time></trkpt><trkpt lat="44.4286697" lon="7.9488615"><ele>395.0</ele><time>2026-04-26T14:31:07.478Z</time></trkpt><trkpt lat="44.4287468" lon="7.9488022"><ele>395.0</ele><time>2026-04-26T14:31:09.479Z</time></trkpt><trkpt lat="44.4287822" lon="7.948924"><ele>395.0</ele><time>2026-04-26T14:31:11.478Z</time></trkpt><trkpt lat="44.4287565" lon="7.9490168"><ele>394.99999999999994</ele><time>2026-04-26T14:31:12.479Z</time></trkpt><trkpt lat="44.428725" lon="7.9491402"><ele>395.0</ele><time>2026-04-26T14:31:13.476Z</time></trkpt><trkpt lat="44.428699" lon="7.9492987"><ele>395.0</ele><time>2026-04-26T14:31:14.476Z</time></trkpt><trkpt lat="44.4286848" lon="7.9494775"><ele>395.0</ele><time>2026-04-26T14:31:15.476Z</time></trkpt><trkpt lat="44.4286853" lon="7.9496662"><ele>395.0</ele><time>2026-04-26T14:31:16.477Z</time></trkpt><trkpt lat="44.4286908" lon="7.9498413"><ele>395.0</ele><time>2026-04-26T14:31:17.474Z</time></trkpt><trkpt lat="44.4286927" lon="7.950023"><ele>396.0</ele><time>2026-04-26T14:31:18.474Z</time></trkpt><trkpt lat="44.4286755" lon="7.9502165"><ele>397.0</ele><time>2026-04-26T14:31:19.477Z</time></trkpt><trkpt lat="44.4286415" lon="7.9504193"><ele>398.0</ele><time>2026-04-26T14:31:20.479Z</time></trkpt><trkpt lat="44.4285983" lon="7.9506348"><ele>399.0</ele><time>2026-04-26T14:31:21.479Z</time></trkpt><trkpt lat="44.428554" lon="7.9508653"><ele>401.66666666666663</ele><time>2026-04-26T14:31:22.479Z</time></trkpt><trkpt lat="44.4285073" lon="7.9511033"><ele>404.3333333333333</ele><time>2026-04-26T14:31:23.477Z</time></trkpt><trkpt lat="44.4284607" lon="7.9513417"><ele>407.0</ele><time>2026-04-26T14:31:24.477Z</time></trkpt><trkpt lat="44.4284182" lon="7.9515575"><ele>409.66666666666663</ele><time>2026-04-26T14:31:25.481Z</time></trkpt><trkpt lat="44.4283813" lon="7.9517603"><ele>412.33333333333337</ele><time>2026-04-26T14:31:26.479Z</time></trkpt><trkpt lat="44.4283517" lon="7.951969"><ele>415.0</ele><time>2026-04-26T14:31:27.481Z</time></trkpt><trkpt lat="44.4283338" lon="7.9521887"><ele>415.0</ele><time>2026-04-26T14:31:28.481Z</time></trkpt><trkpt lat="44.4283255" lon="7.9524142"><ele>415.0</ele><time>2026-04-26T14:31:29.479Z</time></trkpt><trkpt lat="44.428319" lon="7.9526405"><ele>415.0</ele><time>2026-04-26T14:31:30.477Z</time></trkpt><trkpt lat="44.4283142" lon="7.9528663"><ele>415.25</ele><time>2026-04-26T14:31:31.48Z</time></trkpt><trkpt lat="44.4283088" lon="7.9530798"><ele>415.5</ele><time>2026-04-26T14:31:32.478Z</time></trkpt><trkpt lat="44.4283037" lon="7.9532708"><ele>415.75</ele><time>2026-04-26T14:31:33.477Z</time></trkpt><trkpt lat="44.4282997" lon="7.9534473"><ele>416.0</ele><time>2026-04-26T14:31:34.477Z</time></trkpt><trkpt lat="44.4282982" lon="7.9536063"><ele>414.0</ele><time>2026-04-26T14:31:35.477Z</time></trkpt><trkpt lat="44.4283055" lon="7.9537403"><ele>412.0</ele><time>2026-04-26T14:31:36.476Z</time></trkpt><trkpt lat="44.4283315" lon="7.9538317"><ele>410.0</ele><time>2026-04-26T14:31:37.479Z</time></trkpt><trkpt lat="44.4284203" lon="7.9538463"><ele>408.0</ele><time>2026-04-26T14:31:39.478Z</time></trkpt><trkpt lat="44.4284378" lon="7.9536692"><ele>406.0</ele><time>2026-04-26T14:31:41.476Z</time></trkpt><trkpt lat="44.4284175" lon="7.953533"><ele>406.0</ele><time>2026-04-26T14:31:42.474Z</time></trkpt><trkpt lat="44.4284215" lon="7.9533725"><ele>406.0</ele><time>2026-04-26T14:31:43.476Z</time></trkpt><trkpt lat="44.4284443" lon="7.9531948"><ele>406.0</ele><time>2026-04-26T14:31:44.478Z</time></trkpt><trkpt lat="44.4284782" lon="7.9529945"><ele>406.0</ele><time>2026-04-26T14:31:45.479Z</time></trkpt><trkpt lat="44.4285203" lon="7.952783"><ele>408.25</ele><time>2026-04-26T14:31:46.479Z</time></trkpt><trkpt lat="44.42856" lon="7.9525878"><ele>410.5</ele><time>2026-04-26T14:31:47.479Z</time></trkpt><trkpt lat="44.4285955" lon="7.9524143"><ele>412.75</ele><time>2026-04-26T14:31:48.479Z</time></trkpt><trkpt lat="44.4286308" lon="7.9522598"><ele>415.0</ele><time>2026-04-26T14:31:49.479Z</time></trkpt><trkpt lat="44.4286723" lon="7.9521142"><ele>415.0</ele><time>2026-04-26T14:31:50.478Z</time></trkpt><trkpt lat="44.4287213" lon="7.9519685"><ele>415.0</ele><time>2026-04-26T14:31:51.482Z</time></trkpt><trkpt lat="44.4287792" lon="7.9518178"><ele>415.0</ele><time>2026-04-26T14:31:52.485Z</time></trkpt><trkpt lat="44.4288447" lon="7.9516547"><ele>415.0</ele><time>2026-04-26T14:31:53.482Z</time></trkpt><trkpt lat="44.4289173" lon="7.9514813"><ele>425.6666666666667</ele><time>2026-04-26T14:31:54.485Z</time></trkpt><trkpt lat="44.4289955" lon="7.951306"><ele>436.33333333333337</ele><time>2026-04-26T14:31:55.48Z</time></trkpt><trkpt lat="44.4290787" lon="7.951119"><ele>447.0</ele><time>2026-04-26T14:31:56.48Z</time></trkpt><trkpt lat="44.4291623" lon="7.950927"><ele>444.0</ele><time>2026-04-26T14:31:57.481Z</time></trkpt><trkpt lat="44.4292367" lon="7.9507487"><ele>441.0</ele><time>2026-04-26T14:31:58.479Z</time></trkpt><trkpt lat="44.4293005" lon="7.950582"><ele>438.0</ele><time>2026-04-26T14:31:59.479Z</time></trkpt><trkpt lat="44.429347" lon="7.9503983"><ele>435.0</ele><time>2026-04-26T14:32:00.478Z</time></trkpt><trkpt lat="44.4293718" lon="7.950188"><ele>433.25</ele><time>2026-04-26T14:32:01.477Z</time></trkpt><trkpt lat="44.42938" lon="7.9499787"><ele>431.5</ele><time>2026-04-26T14:32:02.482Z</time></trkpt><trkpt lat="44.4293835" lon="7.9497952"><ele>429.75</ele><time>2026-04-26T14:32:03.479Z</time></trkpt><trkpt lat="44.4293905" lon="7.9496423"><ele>428.0</ele><time>2026-04-26T14:32:04.479Z</time></trkpt><trkpt lat="44.4294062" lon="7.9495193"><ele>427.99999999999994</ele><time>2026-04-26T14:32:05.476Z</time></trkpt><trkpt lat="44.4294323" lon="7.9494225"><ele>428.0</ele><time>2026-04-26T14:32:06.477Z</time></trkpt><trkpt lat="44.4295207" lon="7.9493622"><ele>428.0</ele><time>2026-04-26T14:32:08.481Z</time></trkpt><trkpt lat="44.4295533" lon="7.949478"><ele>428.0</ele><time>2026-04-26T14:32:10.478Z</time></trkpt><trkpt lat="44.429528" lon="7.949566"><ele>427.99999999999994</ele><time>2026-04-26T14:32:11.481Z</time></trkpt><trkpt lat="44.4294933" lon="7.9496692"><ele>428.0</ele><time>2026-04-26T14:32:12.478Z</time></trkpt><trkpt lat="44.4294823" lon="7.949788"><ele>428.0</ele><time>2026-04-26T14:32:13.479Z</time></trkpt><trkpt lat="44.4294962" lon="7.9499203"><ele>427.99999999999994</ele><time>2026-04-26T14:32:14.477Z</time></trkpt><trkpt lat="44.4295205" lon="7.9500527"><ele>427.99999999999994</ele><time>2026-04-26T14:32:15.478Z</time></trkpt><trkpt lat="44.4295447" lon="7.9501875"><ele>428.0</ele><time>2026-04-26T14:32:16.479Z</time></trkpt><trkpt lat="44.429566" lon="7.9503213"><ele>428.0</ele><time>2026-04-26T14:32:17.479Z</time></trkpt><trkpt lat="44.4295757" lon="7.9504618"><ele>429.75</ele><time>2026-04-26T14:32:18.479Z</time></trkpt><trkpt lat="44.4295675" lon="7.9506232"><ele>431.5</ele><time>2026-04-26T14:32:19.478Z</time></trkpt><trkpt lat="44.4295422" lon="7.950803"><ele>433.25</ele><time>2026-04-26T14:32:20.478Z</time></trkpt><trkpt lat="44.4295085" lon="7.9509872"><ele>435.0</ele><time>2026-04-26T14:32:21.476Z</time></trkpt><trkpt lat="44.4294628" lon="7.9511818"><ele>439.0</ele><time>2026-04-26T14:32:22.478Z</time></trkpt><trkpt lat="44.4294118" lon="7.9513903"><ele>443.0</ele><time>2026-04-26T14:32:23.477Z</time></trkpt><trkpt lat="44.429358" lon="7.9516048"><ele>447.0</ele><time>2026-04-26T14:32:24.477Z</time></trkpt><trkpt lat="44.4293037" lon="7.9518158"><ele>448.0</ele><time>2026-04-26T14:32:25.479Z</time></trkpt><trkpt lat="44.4292525" lon="7.9520098"><ele>449.0</ele><time>2026-04-26T14:32:26.479Z</time></trkpt><trkpt lat="44.4292078" lon="7.9521823"><ele>450.0</ele><time>2026-04-26T14:32:27.48Z</time></trkpt><trkpt lat="44.4291698" lon="7.9523248"><ele>451.0</ele><time>2026-04-26T14:32:28.479Z</time></trkpt><trkpt lat="44.429141" lon="7.952446"><ele>451.0</ele><time>2026-04-26T14:32:29.477Z</time></trkpt><trkpt lat="44.4291272" lon="7.9525485"><ele>451.0</ele><time>2026-04-26T14:32:30.477Z</time></trkpt><trkpt lat="44.429173" lon="7.952688"><ele>451.0</ele><time>2026-04-26T14:32:32.477Z</time></trkpt><trkpt lat="44.4292845" lon="7.9526763"><ele>451.0</ele><time>2026-04-26T14:32:34.477Z</time></trkpt><trkpt lat="44.4293388" lon="7.952601"><ele>451.0</ele><time>2026-04-26T14:32:35.476Z</time></trkpt><trkpt lat="44.4293955" lon="7.9524928"><ele>451.0</ele><time>2026-04-26T14:32:36.48Z</time></trkpt><trkpt lat="44.429457" lon="7.9523752"><ele>451.0</ele><time>2026-04-26T14:32:37.478Z</time></trkpt><trkpt lat="44.429528" lon="7.952247"><ele>451.0</ele><time>2026-04-26T14:32:38.48Z</time></trkpt><trkpt lat="44.4296012" lon="7.952105"><ele>451.0</ele><time>2026-04-26T14:32:39.48Z</time></trkpt><trkpt lat="44.4296793" lon="7.951962"><ele>448.25</ele><time>2026-04-26T14:32:40.479Z</time></trkpt><trkpt lat="44.4297542" lon="7.9518293"><ele>445.5</ele><time>2026-04-26T14:32:41.481Z</time></trkpt><trkpt lat="44.429828" lon="7.9517103"><ele>442.75</ele><time>2026-04-26T14:32:42.479Z</time></trkpt><trkpt lat="44.4299088" lon="7.9516057"><ele>440.0</ele><time>2026-04-26T14:32:43.477Z</time></trkpt><trkpt lat="44.4299967" lon="7.9515092"><ele>445.75</ele><time>2026-04-26T14:32:44.476Z</time></trkpt><trkpt lat="44.4300927" lon="7.9514102"><ele>451.5</ele><time>2026-04-26T14:32:45.482Z</time></trkpt><trkpt lat="44.4301948" lon="7.9513133"><ele>457.25</ele><time>2026-04-26T14:32:46.478Z</time></trkpt><trkpt lat="44.4302963" lon="7.9512143"><ele>463.0</ele><time>2026-04-26T14:32:47.477Z</time></trkpt><trkpt lat="44.4303957" lon="7.9511162"><ele>460.5</ele><time>2026-04-26T14:32:48.479Z</time></trkpt><trkpt lat="44.4304843" lon="7.9510065"><ele>458.0</ele><time>2026-04-26T14:32:49.477Z</time></trkpt><trkpt lat="44.4305588" lon="7.9508898"><ele>455.5</ele><time>2026-04-26T14:32:50.476Z</time></trkpt><trkpt lat="44.4306263" lon="7.9507562"><ele>453.0</ele><time>2026-04-26T14:32:51.48Z</time></trkpt><trkpt lat="44.4307028" lon="7.9506197"><ele>458.0</ele><time>2026-04-26T14:32:52.478Z</time></trkpt><trkpt lat="44.4307938" lon="7.9504932"><ele>463.0</ele><time>2026-04-26T14:32:53.478Z</time></trkpt><trkpt lat="44.430902" lon="7.950376"><ele>468.0</ele><time>2026-04-26T14:32:54.48Z</time></trkpt><trkpt lat="44.4310168" lon="7.9502623"><ele>473.0</ele><time>2026-04-26T14:32:55.479Z</time></trkpt><trkpt lat="44.4311255" lon="7.9501583"><ele>473.0</ele><time>2026-04-26T14:32:56.478Z</time></trkpt><trkpt lat="44.4312282" lon="7.9500617"><ele>472.99999999999994</ele><time>2026-04-26T14:32:57.477Z</time></trkpt><trkpt lat="44.4313198" lon="7.9499745"><ele>472.99999999999994</ele><time>2026-04-26T14:32:58.477Z</time></trkpt><trkpt lat="44.4313935" lon="7.949903"><ele>473.0</ele><time>2026-04-26T14:32:59.477Z</time></trkpt><trkpt lat="44.4314468" lon="7.9498365"><ele>473.0</ele><time>2026-04-26T14:33:00.478Z</time></trkpt><trkpt lat="44.4314587" lon="7.9496937"><ele>473.4</ele><time>2026-04-26T14:33:02.464Z</time></trkpt><trkpt lat="44.4313668" lon="7.9496712"><ele>473.79999999999995</ele><time>2026-04-26T14:33:04.477Z</time></trkpt><trkpt lat="44.431313" lon="7.9497187"><ele>474.2</ele><time>2026-04-26T14:33:05.477Z</time></trkpt><trkpt lat="44.4312408" lon="7.9498047"><ele>474.6</ele><time>2026-04-26T14:33:06.476Z</time></trkpt><trkpt lat="44.4311537" lon="7.9498983"><ele>475.0</ele><time>2026-04-26T14:33:07.475Z</time></trkpt><trkpt lat="44.4310535" lon="7.949985"><ele>474.5</ele><time>2026-04-26T14:33:08.479Z</time></trkpt><trkpt lat="44.4309393" lon="7.9500538"><ele>474.0</ele><time>2026-04-26T14:33:09.479Z</time></trkpt><trkpt lat="44.4308138" lon="7.950102"><ele>473.5</ele><time>2026-04-26T14:33:10.479Z</time></trkpt><trkpt lat="44.4306837" lon="7.9501327"><ele>473.0</ele><time>2026-04-26T14:33:11.479Z</time></trkpt><trkpt lat="44.4305703" lon="7.9501558"><ele>473.0</ele><time>2026-04-26T14:33:12.477Z</time></trkpt><trkpt lat="44.4304777" lon="7.9501752"><ele>472.99999999999994</ele><time>2026-04-26T14:33:13.481Z</time></trkpt><trkpt lat="44.4304032" lon="7.9501918"><ele>472.99999999999994</ele><time>2026-04-26T14:33:14.479Z</time></trkpt><trkpt lat="44.4303033" lon="7.9501417"><ele>473.0</ele><time>2026-04-26T14:33:16.481Z</time></trkpt><trkpt lat="44.4303282" lon="7.9500248"><ele>473.0</ele><time>2026-04-26T14:33:18.476Z</time></trkpt><trkpt lat="44.430467" lon="7.949987"><ele>476.4</ele><time>2026-04-26T14:33:20.477Z</time></trkpt><trkpt lat="44.4305625" lon="7.9499682"><ele>479.79999999999995</ele><time>2026-04-26T14:33:21.477Z</time></trkpt><trkpt lat="44.4306625" lon="7.9499315"><ele>483.2</ele><time>2026-04-26T14:33:22.479Z</time></trkpt><trkpt lat="44.430765" lon="7.94987"><ele>486.6</ele><time>2026-04-26T14:33:23.477Z</time></trkpt><trkpt lat="44.4308595" lon="7.9497715"><ele>490.0</ele><time>2026-04-26T14:33:24.479Z</time></trkpt><trkpt lat="44.4309518" lon="7.9496545"><ele>490.0</ele><time>2026-04-26T14:33:25.48Z</time></trkpt><trkpt lat="44.4310397" lon="7.9495167"><ele>490.0</ele><time>2026-04-26T14:33:26.479Z</time></trkpt><trkpt lat="44.4311215" lon="7.949367"><ele>490.0</ele><time>2026-04-26T14:33:27.481Z</time></trkpt><trkpt lat="44.4311927" lon="7.949227"><ele>490.0</ele><time>2026-04-26T14:33:28.48Z</time></trkpt><trkpt lat="44.4312563" lon="7.9491078"><ele>490.6</ele><time>2026-04-26T14:33:29.48Z</time></trkpt><trkpt lat="44.4313197" lon="7.9490182"><ele>491.2</ele><time>2026-04-26T14:33:30.48Z</time></trkpt><trkpt lat="44.4313922" lon="7.9489467"><ele>491.79999999999995</ele><time>2026-04-26T14:33:31.48Z</time></trkpt><trkpt lat="44.431485" lon="7.9488787"><ele>492.4</ele><time>2026-04-26T14:33:32.48Z</time></trkpt><trkpt lat="44.4315953" lon="7.94881"><ele>493.0</ele><time>2026-04-26T14:33:33.482Z</time></trkpt><trkpt lat="44.431714" lon="7.9487412"><ele>493.0</ele><time>2026-04-26T14:33:34.486Z</time></trkpt><trkpt lat="44.4318338" lon="7.9486695"><ele>493.0</ele><time>2026-04-26T14:33:35.485Z</time></trkpt><trkpt lat="44.4319548" lon="7.9485907"><ele>493.0</ele><time>2026-04-26T14:33:36.48Z</time></trkpt><trkpt lat="44.4320737" lon="7.948508"><ele>493.0</ele><time>2026-04-26T14:33:37.479Z</time></trkpt><trkpt lat="44.4321938" lon="7.9484203"><ele>495.25</ele><time>2026-04-26T14:33:38.477Z</time></trkpt><trkpt lat="44.4323178" lon="7.9483258"><ele>497.5</ele><time>2026-04-26T14:33:39.48Z</time></trkpt><trkpt lat="44.432444" lon="7.948231"><ele>499.75</ele><time>2026-04-26T14:33:40.479Z</time></trkpt><trkpt lat="44.4325695" lon="7.9481385"><ele>502.0</ele><time>2026-04-26T14:33:41.478Z</time></trkpt><trkpt lat="44.4326952" lon="7.9480538"><ele>502.0</ele><time>2026-04-26T14:33:42.477Z</time></trkpt><trkpt lat="44.4328257" lon="7.9479832"><ele>502.0</ele><time>2026-04-26T14:33:43.475Z</time></trkpt><trkpt lat="44.4329585" lon="7.9479355"><ele>502.0</ele><time>2026-04-26T14:33:44.478Z</time></trkpt><trkpt lat="44.433078" lon="7.9479012"><ele>502.0</ele><time>2026-04-26T14:33:45.477Z</time></trkpt><trkpt lat="44.433186" lon="7.947842"><ele>502.6</ele><time>2026-04-26T14:33:46.484Z</time></trkpt><trkpt lat="44.4332812" lon="7.9477498"><ele>503.20000000000005</ele><time>2026-04-26T14:33:47.48Z</time></trkpt><trkpt lat="44.4333658" lon="7.9476657"><ele>503.8</ele><time>2026-04-26T14:33:48.484Z</time></trkpt><trkpt lat="44.4334625" lon="7.9476153"><ele>504.4</ele><time>2026-04-26T14:33:49.482Z</time></trkpt><trkpt lat="44.4335788" lon="7.9475957"><ele>505.0</ele><time>2026-04-26T14:33:50.479Z</time></trkpt><trkpt lat="44.4337053" lon="7.94759"><ele>505.75</ele><time>2026-04-26T14:33:51.48Z</time></trkpt><trkpt lat="44.4338325" lon="7.9475852"><ele>506.5</ele><time>2026-04-26T14:33:52.48Z</time></trkpt><trkpt lat="44.4339533" lon="7.9475907"><ele>507.25</ele><time>2026-04-26T14:33:53.481Z</time></trkpt><trkpt lat="44.4340678" lon="7.9476115"><ele>508.0</ele><time>2026-04-26T14:33:54.481Z</time></trkpt><trkpt lat="44.434184" lon="7.9476402"><ele>508.0</ele><time>2026-04-26T14:33:55.48Z</time></trkpt><trkpt lat="44.4342982" lon="7.9476702"><ele>508.0</ele><time>2026-04-26T14:33:56.48Z</time></trkpt><trkpt lat="44.4344115" lon="7.9476957"><ele>508.0</ele><time>2026-04-26T14:33:57.481Z</time></trkpt><trkpt lat="44.4345253" lon="7.9477205"><ele>508.0</ele><time>2026-04-26T14:33:58.48Z</time></trkpt><trkpt lat="44.434644" lon="7.9477467"><ele>509.75</ele><time>2026-04-26T14:33:59.482Z</time></trkpt><trkpt lat="44.434765" lon="7.9477708"><ele>511.5</ele><time>2026-04-26T14:34:00.481Z</time></trkpt><trkpt lat="44.4348868" lon="7.9477938"><ele>513.25</ele><time>2026-04-26T14:34:01.481Z</time></trkpt><trkpt lat="44.435005" lon="7.9478153"><ele>515.0</ele><time>2026-04-26T14:34:02.482Z</time></trkpt><trkpt lat="44.4351105" lon="7.9478368"><ele>515.0</ele><time>2026-04-26T14:34:03.483Z</time></trkpt><trkpt lat="44.4352048" lon="7.9478625"><ele>515.0</ele><time>2026-04-26T14:34:04.481Z</time></trkpt><trkpt lat="44.4352857" lon="7.9478973"><ele>515.0</ele><time>2026-04-26T14:34:05.482Z</time></trkpt><trkpt lat="44.4353552" lon="7.9479417"><ele>515.0</ele><time>2026-04-26T14:34:06.48Z</time></trkpt><trkpt lat="44.4354173" lon="7.9479932"><ele>515.0</ele><time>2026-04-26T14:34:07.48Z</time></trkpt><trkpt lat="44.4354735" lon="7.9480487"><ele>515.0</ele><time>2026-04-26T14:34:08.48Z</time></trkpt><trkpt lat="44.435527" lon="7.9481095"><ele>515.2857142857143</ele><time>2026-04-26T14:34:09.481Z</time></trkpt><trkpt lat="44.4355788" lon="7.9481745"><ele>515.5714285714286</ele><time>2026-04-26T14:34:10.482Z</time></trkpt><trkpt lat="44.4356303" lon="7.9482438"><ele>515.8571428571429</ele><time>2026-04-26T14:34:11.484Z</time></trkpt><trkpt lat="44.4356807" lon="7.948314"><ele>516.1428571428571</ele><time>2026-04-26T14:34:12.483Z</time></trkpt><trkpt lat="44.4357338" lon="7.9483765"><ele>516.4285714285714</ele><time>2026-04-26T14:34:13.48Z</time></trkpt><trkpt lat="44.4357885" lon="7.9484308"><ele>516.7142857142858</ele><time>2026-04-26T14:34:14.48Z</time></trkpt><trkpt lat="44.435843" lon="7.9484822"><ele>517.0</ele><time>2026-04-26T14:34:15.48Z</time></trkpt><trkpt lat="44.435937" lon="7.9485605"><ele>517.0</ele><time>2026-04-26T14:34:17.479Z</time></trkpt><trkpt lat="44.4360107" lon="7.9485947"><ele>517.0</ele><time>2026-04-26T14:34:19.479Z</time></trkpt><trkpt lat="44.4361195" lon="7.9486362"><ele>517.0</ele><time>2026-04-26T14:34:21.48Z</time></trkpt><trkpt lat="44.4362147" lon="7.9486785"><ele>517.0</ele><time>2026-04-26T14:34:23.477Z</time></trkpt><trkpt lat="44.436315" lon="7.9487223"><ele>517.0</ele><time>2026-04-26T14:34:25.48Z</time></trkpt><trkpt lat="44.4363847" lon="7.9487578"><ele>518.6</ele><time>2026-04-26T14:34:26.477Z</time></trkpt><trkpt lat="44.4364608" lon="7.9488057"><ele>520.2</ele><time>2026-04-26T14:34:27.478Z</time></trkpt><trkpt lat="44.4365412" lon="7.9488515"><ele>521.8</ele><time>2026-04-26T14:34:28.476Z</time></trkpt><trkpt lat="44.4366218" lon="7.9489027"><ele>523.4</ele><time>2026-04-26T14:34:29.478Z</time></trkpt><trkpt lat="44.4367035" lon="7.9489668"><ele>525.0</ele><time>2026-04-26T14:34:30.481Z</time></trkpt><trkpt lat="44.4367822" lon="7.9490488"><ele>525.0</ele><time>2026-04-26T14:34:31.476Z</time></trkpt><trkpt lat="44.4368532" lon="7.9491355"><ele>525.0</ele><time>2026-04-26T14:34:32.476Z</time></trkpt><trkpt lat="44.436914" lon="7.9492265"><ele>525.0</ele><time>2026-04-26T14:34:33.477Z</time></trkpt><trkpt lat="44.4369602" lon="7.9493293"><ele>525.0</ele><time>2026-04-26T14:34:34.475Z</time></trkpt><trkpt lat="44.4369857" lon="7.9494543"><ele>525.0</ele><time>2026-04-26T14:34:35.478Z</time></trkpt><trkpt lat="44.4369927" lon="7.949594"><ele>524.4</ele><time>2026-04-26T14:34:36.48Z</time></trkpt><trkpt lat="44.436998" lon="7.9497412"><ele>523.8</ele><time>2026-04-26T14:34:37.48Z</time></trkpt><trkpt lat="44.4370188" lon="7.9498852"><ele>523.2</ele><time>2026-04-26T14:34:38.482Z</time></trkpt><trkpt lat="44.4370693" lon="7.9500247"><ele>522.6</ele><time>2026-04-26T14:34:39.481Z</time></trkpt><trkpt lat="44.437146" lon="7.9501645"><ele>522.0</ele><time>2026-04-26T14:34:40.479Z</time></trkpt><trkpt lat="44.4372373" lon="7.9503037"><ele>526.6666666666666</ele><time>2026-04-26T14:34:41.478Z</time></trkpt><trkpt lat="44.4373358" lon="7.9504458"><ele>531.3333333333333</ele><time>2026-04-26T14:34:42.478Z</time></trkpt><trkpt lat="44.437443" lon="7.9505967"><ele>536.0</ele><time>2026-04-26T14:34:43.478Z</time></trkpt><trkpt lat="44.4375572" lon="7.9507553"><ele>539.0</ele><time>2026-04-26T14:34:44.478Z</time></trkpt><trkpt lat="44.437674" lon="7.950924"><ele>542.0</ele><time>2026-04-26T14:34:45.479Z</time></trkpt><trkpt lat="44.4377928" lon="7.9510953"><ele>545.0</ele><time>2026-04-26T14:34:46.479Z</time></trkpt><trkpt lat="44.4379097" lon="7.9512595"><ele>543.75</ele><time>2026-04-26T14:34:47.481Z</time></trkpt><trkpt lat="44.4380158" lon="7.9514073"><ele>542.5</ele><time>2026-04-26T14:34:48.479Z</time></trkpt><trkpt lat="44.4381143" lon="7.951546"><ele>541.25</ele><time>2026-04-26T14:34:49.481Z</time></trkpt><trkpt lat="44.438208" lon="7.9516797"><ele>540.0</ele><time>2026-04-26T14:34:50.479Z</time></trkpt><trkpt lat="44.4382928" lon="7.9518043"><ele>543.75</ele><time>2026-04-26T14:34:51.477Z</time></trkpt><trkpt lat="44.4383787" lon="7.9519345"><ele>547.5</ele><time>2026-04-26T14:34:52.478Z</time></trkpt><trkpt lat="44.438459" lon="7.9520815"><ele>551.25</ele><time>2026-04-26T14:34:53.479Z</time></trkpt><trkpt lat="44.4385298" lon="7.9522437"><ele>555.0</ele><time>2026-04-26T14:34:54.479Z</time></trkpt><trkpt lat="44.4386127" lon="7.9523968"><ele>555.0</ele><time>2026-04-26T14:34:55.479Z</time></trkpt><trkpt lat="44.4387218" lon="7.9525255"><ele>555.0</ele><time>2026-04-26T14:34:56.477Z</time></trkpt><trkpt lat="44.4388423" lon="7.9526172"><ele>555.0</ele><time>2026-04-26T14:34:57.477Z</time></trkpt><trkpt lat="44.438959" lon="7.952669"><ele>555.0</ele><time>2026-04-26T14:34:58.474Z</time></trkpt><trkpt lat="44.4390855" lon="7.952678"><ele>553.0</ele><time>2026-04-26T14:34:59.473Z</time></trkpt><trkpt lat="44.4392305" lon="7.9526372"><ele>551.0</ele><time>2026-04-26T14:35:00.477Z</time></trkpt><trkpt lat="44.4393883" lon="7.952561"><ele>549.0</ele><time>2026-04-26T14:35:01.477Z</time></trkpt><trkpt lat="44.4395478" lon="7.9524755"><ele>550.5</ele><time>2026-04-26T14:35:02.478Z</time></trkpt><trkpt lat="44.4396972" lon="7.9523895"><ele>552.0</ele><time>2026-04-26T14:35:03.476Z</time></trkpt><trkpt lat="44.4398343" lon="7.9523142"><ele>553.5</ele><time>2026-04-26T14:35:04.477Z</time></trkpt><trkpt lat="44.4399668" lon="7.9522585"><ele>555.0</ele><time>2026-04-26T14:35:05.477Z</time></trkpt><trkpt lat="44.4401063" lon="7.9522293"><ele>555.0</ele><time>2026-04-26T14:35:06.478Z</time></trkpt><trkpt lat="44.4402397" lon="7.9522157"><ele>555.0</ele><time>2026-04-26T14:35:07.478Z</time></trkpt><trkpt lat="44.4403572" lon="7.9522045"><ele>555.0</ele><time>2026-04-26T14:35:08.478Z</time></trkpt><trkpt lat="44.4404595" lon="7.9521905"><ele>555.0</ele><time>2026-04-26T14:35:09.479Z</time></trkpt><trkpt lat="44.4405578" lon="7.9521705"><ele>555.0</ele><time>2026-04-26T14:35:10.48Z</time></trkpt><trkpt lat="44.4406567" lon="7.9521495"><ele>555.0</ele><time>2026-04-26T14:35:11.479Z</time></trkpt><trkpt lat="44.440759" lon="7.9521297"><ele>555.0</ele><time>2026-04-26T14:35:12.48Z</time></trkpt><trkpt lat="44.440867" lon="7.9520948"><ele>555.0</ele><time>2026-04-26T14:35:13.478Z</time></trkpt><trkpt lat="44.4409863" lon="7.9520338"><ele>555.0</ele><time>2026-04-26T14:35:14.478Z</time></trkpt><trkpt lat="44.44111" lon="7.9519603"><ele>555.0</ele><time>2026-04-26T14:35:15.479Z</time></trkpt><trkpt lat="44.4412458" lon="7.9518805"><ele>555.0</ele><time>2026-04-26T14:35:16.48Z</time></trkpt><trkpt lat="44.441397" lon="7.9518058"><ele>555.0</ele><time>2026-04-26T14:35:17.478Z</time></trkpt><trkpt lat="44.4415503" lon="7.9517428"><ele>556.6</ele><time>2026-04-26T14:35:18.479Z</time></trkpt><trkpt lat="44.4416902" lon="7.9516897"><ele>558.2</ele><time>2026-04-26T14:35:19.48Z</time></trkpt><trkpt lat="44.441812" lon="7.9516498"><ele>559.8</ele><time>2026-04-26T14:35:20.476Z</time></trkpt><trkpt lat="44.4419073" lon="7.9516127"><ele>561.4</ele><time>2026-04-26T14:35:21.477Z</time></trkpt><trkpt lat="44.4419665" lon="7.951559"><ele>563.0</ele><time>2026-04-26T14:35:22.475Z</time></trkpt><trkpt lat="44.4419558" lon="7.9514267"><ele>563.0</ele><time>2026-04-26T14:35:24.476Z</time></trkpt><trkpt lat="44.4418222" lon="7.9513997"><ele>563.0</ele><time>2026-04-26T14:35:26.478Z</time></trkpt><trkpt lat="44.4417283" lon="7.9514147"><ele>563.0</ele><time>2026-04-26T14:35:27.476Z</time></trkpt><trkpt lat="44.4416342" lon="7.9514118"><ele>563.0</ele><time>2026-04-26T14:35:28.478Z</time></trkpt><trkpt lat="44.4415508" lon="7.9513693"><ele>563.0</ele><time>2026-04-26T14:35:29.48Z</time></trkpt><trkpt lat="44.4414997" lon="7.9512847"><ele>563.0</ele><time>2026-04-26T14:35:30.478Z</time></trkpt><trkpt lat="44.4414938" lon="7.9511737"><ele>563.0</ele><time>2026-04-26T14:35:31.478Z</time></trkpt><trkpt lat="44.4415295" lon="7.951064"><ele>563.0</ele><time>2026-04-26T14:35:32.477Z</time></trkpt><trkpt lat="44.4416002" lon="7.9509868"><ele>563.0</ele><time>2026-04-26T14:35:33.48Z</time></trkpt><trkpt lat="44.4417047" lon="7.9509423"><ele>563.0</ele><time>2026-04-26T14:35:34.478Z</time></trkpt><trkpt lat="44.4418273" lon="7.9509247"><ele>563.0</ele><time>2026-04-26T14:35:35.478Z</time></trkpt><trkpt lat="44.4419573" lon="7.950922"><ele>563.0</ele><time>2026-04-26T14:35:36.478Z</time></trkpt><trkpt lat="44.4420802" lon="7.9509235"><ele>563.0</ele><time>2026-04-26T14:35:37.478Z</time></trkpt><trkpt lat="44.4421992" lon="7.9509162"><ele>563.0</ele><time>2026-04-26T14:35:38.479Z</time></trkpt><trkpt lat="44.4423225" lon="7.9508935"><ele>566.5</ele><time>2026-04-26T14:35:39.479Z</time></trkpt><trkpt lat="44.4424503" lon="7.9508468"><ele>570.0</ele><time>2026-04-26T14:35:40.48Z</time></trkpt><trkpt lat="44.4425835" lon="7.9507762"><ele>573.5</ele><time>2026-04-26T14:35:41.478Z</time></trkpt><trkpt lat="44.4427177" lon="7.9507008"><ele>577.0</ele><time>2026-04-26T14:35:42.479Z</time></trkpt><trkpt lat="44.4428447" lon="7.9506317"><ele>577.0</ele><time>2026-04-26T14:35:43.478Z</time></trkpt><trkpt lat="44.4429558" lon="7.9505752"><ele>577.0</ele><time>2026-04-26T14:35:44.476Z</time></trkpt><trkpt lat="44.443056" lon="7.950545"><ele>577.0</ele><time>2026-04-26T14:35:45.475Z</time></trkpt><trkpt lat="44.4431603" lon="7.9505492"><ele>577.0</ele><time>2026-04-26T14:35:46.472Z</time></trkpt><trkpt lat="44.4432718" lon="7.950583"><ele>577.0</ele><time>2026-04-26T14:35:47.476Z</time></trkpt><trkpt lat="44.4433875" lon="7.9506255"><ele>579.0</ele><time>2026-04-26T14:35:48.475Z</time></trkpt><trkpt lat="44.4434977" lon="7.9506618"><ele>581.0</ele><time>2026-04-26T14:35:49.478Z</time></trkpt><trkpt lat="44.4435992" lon="7.9506885"><ele>583.0</ele><time>2026-04-26T14:35:50.479Z</time></trkpt><trkpt lat="44.4436913" lon="7.9507077"><ele>585.0</ele><time>2026-04-26T14:35:51.48Z</time></trkpt><trkpt lat="44.4437773" lon="7.9507183"><ele>587.0</ele><time>2026-04-26T14:35:52.479Z</time></trkpt><trkpt lat="44.44386" lon="7.9507203"><ele>588.3333333333333</ele><time>2026-04-26T14:35:53.481Z</time></trkpt><trkpt lat="44.443942" lon="7.950718"><ele>589.6666666666666</ele><time>2026-04-26T14:35:54.48Z</time></trkpt><trkpt lat="44.4440253" lon="7.9507147"><ele>591.0</ele><time>2026-04-26T14:35:55.48Z</time></trkpt><trkpt lat="44.444111" lon="7.9507073"><ele>592.3333333333334</ele><time>2026-04-26T14:35:56.48Z</time></trkpt><trkpt lat="44.4442017" lon="7.9506893"><ele>593.6666666666667</ele><time>2026-04-26T14:35:57.481Z</time></trkpt><trkpt lat="44.4442875" lon="7.9506673"><ele>595.0</ele><time>2026-04-26T14:35:58.48Z</time></trkpt><trkpt lat="44.4443708" lon="7.9506548"><ele>595.0</ele><time>2026-04-26T14:35:59.479Z</time></trkpt><trkpt lat="44.4444628" lon="7.9506625"><ele>595.0</ele><time>2026-04-26T14:36:00.479Z</time></trkpt><trkpt lat="44.4445568" lon="7.9507005"><ele>595.0</ele><time>2026-04-26T14:36:01.479Z</time></trkpt><trkpt lat="44.4446412" lon="7.9507632"><ele>595.0</ele><time>2026-04-26T14:36:02.48Z</time></trkpt><trkpt lat="44.444703" lon="7.9508308"><ele>595.0</ele><time>2026-04-26T14:36:03.48Z</time></trkpt><trkpt lat="44.4447477" lon="7.9508988"><ele>595.0</ele><time>2026-04-26T14:36:04.479Z</time></trkpt><trkpt lat="44.4448305" lon="7.9509988"><ele>592.5</ele><time>2026-04-26T14:36:06.477Z</time></trkpt><trkpt lat="44.4449353" lon="7.9510275"><ele>590.0</ele><time>2026-04-26T14:36:08.476Z</time></trkpt><trkpt lat="44.4450055" lon="7.9510372"><ele>587.5</ele><time>2026-04-26T14:36:09.474Z</time></trkpt><trkpt lat="44.4450837" lon="7.9510233"><ele>585.0</ele><time>2026-04-26T14:36:10.472Z</time></trkpt><trkpt lat="44.445177" lon="7.9510195"><ele>582.5</ele><time>2026-04-26T14:36:11.474Z</time></trkpt><trkpt lat="44.4452725" lon="7.9510138"><ele>580.0</ele><time>2026-04-26T14:36:12.475Z</time></trkpt><trkpt lat="44.4453595" lon="7.9510073"><ele>580.0</ele><time>2026-04-26T14:36:13.476Z</time></trkpt><trkpt lat="44.4454442" lon="7.9509945"><ele>580.0</ele><time>2026-04-26T14:36:14.475Z</time></trkpt><trkpt lat="44.4455357" lon="7.950977"><ele>580.0</ele><time>2026-04-26T14:36:15.477Z</time></trkpt><trkpt lat="44.4456328" lon="7.9509472"><ele>580.0</ele><time>2026-04-26T14:36:16.475Z</time></trkpt><trkpt lat="44.4457363" lon="7.9509097"><ele>580.0</ele><time>2026-04-26T14:36:17.477Z</time></trkpt><trkpt lat="44.4458423" lon="7.9508638"><ele>580.4</ele><time>2026-04-26T14:36:18.476Z</time></trkpt><trkpt lat="44.4459433" lon="7.9508222"><ele>580.8</ele><time>2026-04-26T14:36:19.475Z</time></trkpt><trkpt lat="44.44604" lon="7.9507793"><ele>581.2</ele><time>2026-04-26T14:36:20.474Z</time></trkpt><trkpt lat="44.4461383" lon="7.9507472"><ele>581.6</ele><time>2026-04-26T14:36:21.477Z</time></trkpt><trkpt lat="44.4462445" lon="7.9507138"><ele>582.0</ele><time>2026-04-26T14:36:22.48Z</time></trkpt><trkpt lat="44.4463605" lon="7.9506772"><ele>580.0</ele><time>2026-04-26T14:36:23.48Z</time></trkpt><trkpt lat="44.4464777" lon="7.9506372"><ele>578.0</ele><time>2026-04-26T14:36:24.481Z</time></trkpt><trkpt lat="44.4465862" lon="7.950595"><ele>576.0</ele><time>2026-04-26T14:36:25.479Z</time></trkpt><trkpt lat="44.4466843" lon="7.9505598"><ele>574.0</ele><time>2026-04-26T14:36:26.477Z</time></trkpt><trkpt lat="44.4467777" lon="7.9505172"><ele>572.0</ele><time>2026-04-26T14:36:27.478Z</time></trkpt><trkpt lat="44.4468703" lon="7.950482"><ele>572.0</ele><time>2026-04-26T14:36:28.478Z</time></trkpt><trkpt lat="44.44697" lon="7.9504617"><ele>572.0</ele><time>2026-04-26T14:36:29.477Z</time></trkpt><trkpt lat="44.4470723" lon="7.9504517"><ele>572.0</ele><time>2026-04-26T14:36:30.479Z</time></trkpt><trkpt lat="44.447177" lon="7.9504458"><ele>572.0</ele><time>2026-04-26T14:36:31.481Z</time></trkpt><trkpt lat="44.4472823" lon="7.9504463"><ele>572.0</ele><time>2026-04-26T14:36:32.481Z</time></trkpt><trkpt lat="44.4473865" lon="7.950451"><ele>571.0</ele><time>2026-04-26T14:36:33.479Z</time></trkpt><trkpt lat="44.4474878" lon="7.9504628"><ele>570.0</ele><time>2026-04-26T14:36:34.475Z</time></trkpt><trkpt lat="44.4475847" lon="7.9504808"><ele>569.0</ele><time>2026-04-26T14:36:35.476Z</time></trkpt><trkpt lat="44.4476757" lon="7.9504997"><ele>568.0</ele><time>2026-04-26T14:36:36.476Z</time></trkpt><trkpt lat="44.4477727" lon="7.9505117"><ele>567.0</ele><time>2026-04-26T14:36:37.475Z</time></trkpt><trkpt lat="44.4478793" lon="7.9505132"><ele>567.4</ele><time>2026-04-26T14:36:38.475Z</time></trkpt><trkpt lat="44.4479897" lon="7.950502"><ele>567.8000000000001</ele><time>2026-04-26T14:36:39.476Z</time></trkpt><trkpt lat="44.4481012" lon="7.9505072"><ele>568.2</ele><time>2026-04-26T14:36:40.475Z</time></trkpt><trkpt lat="44.448212" lon="7.9505193"><ele>568.6</ele><time>2026-04-26T14:36:41.476Z</time></trkpt><trkpt lat="44.4483087" lon="7.9505255"><ele>569.0</ele><time>2026-04-26T14:36:42.476Z</time></trkpt><trkpt lat="44.4483967" lon="7.9505312"><ele>569.0</ele><time>2026-04-26T14:36:43.475Z</time></trkpt><trkpt lat="44.448496" lon="7.950517"><ele>569.0</ele><time>2026-04-26T14:36:44.476Z</time></trkpt><trkpt lat="44.4485977" lon="7.950491"><ele>569.0</ele><time>2026-04-26T14:36:45.478Z</time></trkpt><trkpt lat="44.4487058" lon="7.950448"><ele>569.0</ele><time>2026-04-26T14:36:46.478Z</time></trkpt><trkpt lat="44.4488127" lon="7.9504078"><ele>569.0</ele><time>2026-04-26T14:36:47.48Z</time></trkpt><trkpt lat="44.448906" lon="7.9503725"><ele>569.4</ele><time>2026-04-26T14:36:48.481Z</time></trkpt><trkpt lat="44.4489878" lon="7.9503412"><ele>569.8</ele><time>2026-04-26T14:36:49.479Z</time></trkpt><trkpt lat="44.4490515" lon="7.9503167"><ele>570.2</ele><time>2026-04-26T14:36:50.48Z</time></trkpt><trkpt lat="44.4491727" lon="7.9502825"><ele>570.6</ele><time>2026-04-26T14:36:52.477Z</time></trkpt><trkpt lat="44.4492612" lon="7.9502918"><ele>571.0</ele><time>2026-04-26T14:36:53.478Z</time></trkpt><trkpt lat="44.4493618" lon="7.9503172"><ele>571.0</ele><time>2026-04-26T14:36:54.479Z</time></trkpt><trkpt lat="44.449466" lon="7.9503583"><ele>571.0</ele><time>2026-04-26T14:36:55.48Z</time></trkpt><trkpt lat="44.4495747" lon="7.9504255"><ele>571.0</ele><time>2026-04-26T14:36:56.478Z</time></trkpt><trkpt lat="44.449683" lon="7.9505065"><ele>571.0</ele><time>2026-04-26T14:36:57.476Z</time></trkpt><trkpt lat="44.4497922" lon="7.9505733"><ele>573.0</ele><time>2026-04-26T14:36:58.476Z</time></trkpt><trkpt lat="44.4499063" lon="7.9506122"><ele>575.0</ele><time>2026-04-26T14:36:59.476Z</time></trkpt><trkpt lat="44.450032" lon="7.9506147"><ele>577.0</ele><time>2026-04-26T14:37:00.476Z</time></trkpt><trkpt lat="44.4501682" lon="7.9505978"><ele>579.0</ele><time>2026-04-26T14:37:01.474Z</time></trkpt><trkpt lat="44.4503113" lon="7.950591"><ele>578.3333333333334</ele><time>2026-04-26T14:37:02.478Z</time></trkpt><trkpt lat="44.450465" lon="7.9506052"><ele>577.6666666666667</ele><time>2026-04-26T14:37:03.479Z</time></trkpt><trkpt lat="44.4506325" lon="7.9506363"><ele>577.0</ele><time>2026-04-26T14:37:04.477Z</time></trkpt><trkpt lat="44.4508077" lon="7.9506703"><ele>577.0</ele><time>2026-04-26T14:37:05.479Z</time></trkpt><trkpt lat="44.4509832" lon="7.950699"><ele>577.0</ele><time>2026-04-26T14:37:06.479Z</time></trkpt><trkpt lat="44.4511625" lon="7.9507223"><ele>577.0</ele><time>2026-04-26T14:37:07.479Z</time></trkpt><trkpt lat="44.4513325" lon="7.9507403"><ele>576.0</ele><time>2026-04-26T14:37:08.479Z</time></trkpt><trkpt lat="44.4514937" lon="7.9507482"><ele>575.0</ele><time>2026-04-26T14:37:09.479Z</time></trkpt><trkpt lat="44.4516492" lon="7.9507338"><ele>574.0</ele><time>2026-04-26T14:37:10.478Z</time></trkpt><trkpt lat="44.4517988" lon="7.9506887"><ele>574.0</ele><time>2026-04-26T14:37:11.479Z</time></trkpt><trkpt lat="44.451932" lon="7.9506213"><ele>574.0</ele><time>2026-04-26T14:37:12.48Z</time></trkpt><trkpt lat="44.4520477" lon="7.9505313"><ele>574.0</ele><time>2026-04-26T14:37:13.478Z</time></trkpt><trkpt lat="44.4521478" lon="7.9504043"><ele>574.0</ele><time>2026-04-26T14:37:14.479Z</time></trkpt><trkpt lat="44.452229" lon="7.950232"><ele>573.0</ele><time>2026-04-26T14:37:15.478Z</time></trkpt><trkpt lat="44.4522905" lon="7.9500302"><ele>572.0</ele><time>2026-04-26T14:37:16.478Z</time></trkpt><trkpt lat="44.452347" lon="7.9498158"><ele>571.0</ele><time>2026-04-26T14:37:17.479Z</time></trkpt><trkpt lat="44.4524175" lon="7.9496068"><ele>571.0</ele><time>2026-04-26T14:37:18.478Z</time></trkpt><trkpt lat="44.4525063" lon="7.9494025"><ele>571.0</ele><time>2026-04-26T14:37:19.48Z</time></trkpt><trkpt lat="44.4525977" lon="7.9492172"><ele>571.0</ele><time>2026-04-26T14:37:20.481Z</time></trkpt><trkpt lat="44.4526882" lon="7.9490557"><ele>571.75</ele><time>2026-04-26T14:37:21.481Z</time></trkpt><trkpt lat="44.4527763" lon="7.9489183"><ele>572.5</ele><time>2026-04-26T14:37:22.479Z</time></trkpt><trkpt lat="44.452864" lon="7.948812"><ele>573.25</ele><time>2026-04-26T14:37:23.478Z</time></trkpt><trkpt lat="44.452958" lon="7.9487338"><ele>574.0</ele><time>2026-04-26T14:37:24.479Z</time></trkpt><trkpt lat="44.4530683" lon="7.9486852"><ele>574.0</ele><time>2026-04-26T14:37:25.479Z</time></trkpt><trkpt lat="44.4531973" lon="7.9486705"><ele>574.0</ele><time>2026-04-26T14:37:26.478Z</time></trkpt><trkpt lat="44.4533402" lon="7.948681"><ele>574.0</ele><time>2026-04-26T14:37:27.481Z</time></trkpt><trkpt lat="44.4534855" lon="7.948702"><ele>574.0</ele><time>2026-04-26T14:37:28.48Z</time></trkpt><trkpt lat="44.4536412" lon="7.9487252"><ele>574.0</ele><time>2026-04-26T14:37:29.482Z</time></trkpt><trkpt lat="44.4538047" lon="7.9487467"><ele>574.0</ele><time>2026-04-26T14:37:30.481Z</time></trkpt><trkpt lat="44.4539763" lon="7.9487688"><ele>574.0</ele><time>2026-04-26T14:37:31.483Z</time></trkpt><trkpt lat="44.4541533" lon="7.9487933"><ele>574.0</ele><time>2026-04-26T14:37:32.482Z</time></trkpt><trkpt lat="44.4543223" lon="7.948817"><ele>574.0</ele><time>2026-04-26T14:37:33.481Z</time></trkpt><trkpt lat="44.4544787" lon="7.9488395"><ele>574.0</ele><time>2026-04-26T14:37:34.481Z</time></trkpt><trkpt lat="44.4546235" lon="7.9488542"><ele>574.6666666666667</ele><time>2026-04-26T14:37:35.48Z</time></trkpt><trkpt lat="44.4547665" lon="7.9488478"><ele>575.3333333333334</ele><time>2026-04-26T14:37:36.48Z</time></trkpt><trkpt lat="44.4549167" lon="7.9488033"><ele>576.0</ele><time>2026-04-26T14:37:37.479Z</time></trkpt><trkpt lat="44.4550793" lon="7.9487223"><ele>576.0</ele><time>2026-04-26T14:37:38.48Z</time></trkpt><trkpt lat="44.455247" lon="7.9486293"><ele>576.0</ele><time>2026-04-26T14:37:39.48Z</time></trkpt><trkpt lat="44.4554242" lon="7.9485272"><ele>576.0</ele><time>2026-04-26T14:37:40.48Z</time></trkpt><trkpt lat="44.4555937" lon="7.948426"><ele>576.6666666666666</ele><time>2026-04-26T14:37:41.48Z</time></trkpt><trkpt lat="44.4557498" lon="7.9483245"><ele>577.3333333333333</ele><time>2026-04-26T14:37:42.48Z</time></trkpt><trkpt lat="44.4558898" lon="7.9482103"><ele>578.0</ele><time>2026-04-26T14:37:43.48Z</time></trkpt><trkpt lat="44.4560158" lon="7.9480635"><ele>578.0</ele><time>2026-04-26T14:37:44.478Z</time></trkpt><trkpt lat="44.4561255" lon="7.9478857"><ele>578.0</ele><time>2026-04-26T14:37:45.48Z</time></trkpt><trkpt lat="44.4562165" lon="7.947705"><ele>578.0</ele><time>2026-04-26T14:37:46.478Z</time></trkpt><trkpt lat="44.4562958" lon="7.9475325"><ele>578.6</ele><time>2026-04-26T14:37:47.478Z</time></trkpt><trkpt lat="44.456367" lon="7.947374"><ele>579.1999999999999</ele><time>2026-04-26T14:37:48.477Z</time></trkpt><trkpt lat="44.4564292" lon="7.9472343"><ele>579.8</ele><time>2026-04-26T14:37:49.476Z</time></trkpt><trkpt lat="44.4564812" lon="7.9471183"><ele>580.4</ele><time>2026-04-26T14:37:50.477Z</time></trkpt><trkpt lat="44.4565257" lon="7.9470253"><ele>581.0</ele><time>2026-04-26T14:37:51.479Z</time></trkpt><trkpt lat="44.4565955" lon="7.9469073"><ele>581.0</ele><time>2026-04-26T14:37:53.478Z</time></trkpt></trkseg></trk></gpx>